<?xml version="1.0" encoding="UTF-8" standalone="no" ?>
<gpx xmlns="http://www.topografix.com/GPX/1/1" xmlns:xsi="http://www.w3.org/2001/XMLSchema-instance" xsi:schemaLocation="http://www.topografix.com/GPX/1/1 http://www.topografix.com/GPX/1/1/gpx.xsd" version="1.1" creator="VisuGPX - https://www.visugpx.com">
  <metadata>
    <name>Avec alb</name>
  </metadata>
  <trk>
    <name><![CDATA[Avec alb_1]]></name>
    <trkseg>
      <trkpt lat="45.79856" lon="4.80488">
        <ele>317</ele>
        <time>2017-09-08T12:15:16.1Z</time>
      </trkpt>
      <trkpt lat="45.79859" lon="4.80487">
        <ele>317</ele>
        <time>2017-09-08T12:15:17.1Z</time>
      </trkpt>
      <trkpt lat="45.79861" lon="4.80487">
        <ele>318</ele>
        <time>2017-09-08T12:15:18.1Z</time>
      </trkpt>
      <trkpt lat="45.79863" lon="4.80487">
        <ele>318</ele>
        <time>2017-09-08T12:15:19.1Z</time>
      </trkpt>
      <trkpt lat="45.79865" lon="4.80487">
        <ele>318</ele>
        <time>2017-09-08T12:15:20.1Z</time>
      </trkpt>
      <trkpt lat="45.79868" lon="4.80486">
        <ele>319</ele>
        <time>2017-09-08T12:15:22.1Z</time>
      </trkpt>
      <trkpt lat="45.7987" lon="4.80486">
        <ele>319</ele>
        <time>2017-09-08T12:15:23.1Z</time>
      </trkpt>
      <trkpt lat="45.79873" lon="4.80484">
        <ele>320</ele>
        <time>2017-09-08T12:15:24.1Z</time>
      </trkpt>
      <trkpt lat="45.79875" lon="4.80483">
        <ele>320</ele>
        <time>2017-09-08T12:15:25.1Z</time>
      </trkpt>
      <trkpt lat="45.79878" lon="4.80483">
        <ele>320</ele>
        <time>2017-09-08T12:15:26.1Z</time>
      </trkpt>
      <trkpt lat="45.79881" lon="4.80482">
        <ele>320</ele>
        <time>2017-09-08T12:15:27.1Z</time>
      </trkpt>
      <trkpt lat="45.79886" lon="4.80481">
        <ele>320</ele>
        <time>2017-09-08T12:15:29.1Z</time>
      </trkpt>
      <trkpt lat="45.79889" lon="4.8048">
        <ele>320</ele>
        <time>2017-09-08T12:15:30.1Z</time>
      </trkpt>
      <trkpt lat="45.79892" lon="4.80479">
        <ele>320</ele>
        <time>2017-09-08T12:15:31.1Z</time>
      </trkpt>
      <trkpt lat="45.79895" lon="4.80478">
        <ele>320</ele>
        <time>2017-09-08T12:15:32.1Z</time>
      </trkpt>
      <trkpt lat="45.79898" lon="4.80477">
        <ele>320</ele>
        <time>2017-09-08T12:15:33.1Z</time>
      </trkpt>
      <trkpt lat="45.799" lon="4.80476">
        <ele>320</ele>
        <time>2017-09-08T12:15:34.1Z</time>
      </trkpt>
      <trkpt lat="45.79903" lon="4.80474">
        <ele>320</ele>
        <time>2017-09-08T12:15:35.1Z</time>
      </trkpt>
      <trkpt lat="45.79906" lon="4.80473">
        <ele>320</ele>
        <time>2017-09-08T12:15:36.1Z</time>
      </trkpt>
      <trkpt lat="45.7991" lon="4.80472">
        <ele>320</ele>
        <time>2017-09-08T12:15:37.1Z</time>
      </trkpt>
      <trkpt lat="45.79912" lon="4.8047">
        <ele>320</ele>
        <time>2017-09-08T12:15:38.1Z</time>
      </trkpt>
      <trkpt lat="45.79916" lon="4.80469">
        <ele>321</ele>
        <time>2017-09-08T12:15:39.1Z</time>
      </trkpt>
      <trkpt lat="45.79919" lon="4.80467">
        <ele>321</ele>
        <time>2017-09-08T12:15:40.1Z</time>
      </trkpt>
      <trkpt lat="45.79921" lon="4.80465">
        <ele>321</ele>
        <time>2017-09-08T12:15:41.1Z</time>
      </trkpt>
      <trkpt lat="45.79924" lon="4.80464">
        <ele>321</ele>
        <time>2017-09-08T12:15:42.1Z</time>
      </trkpt>
      <trkpt lat="45.79928" lon="4.80463">
        <ele>321</ele>
        <time>2017-09-08T12:15:43.1Z</time>
      </trkpt>
      <trkpt lat="45.79934" lon="4.80459">
        <ele>321</ele>
        <time>2017-09-08T12:15:45.1Z</time>
      </trkpt>
      <trkpt lat="45.79938" lon="4.80458">
        <ele>321</ele>
        <time>2017-09-08T12:15:46.1Z</time>
      </trkpt>
      <trkpt lat="45.79941" lon="4.80456">
        <ele>321</ele>
        <time>2017-09-08T12:15:47.1Z</time>
      </trkpt>
      <trkpt lat="45.79944" lon="4.80455">
        <ele>321</ele>
        <time>2017-09-08T12:15:48.1Z</time>
      </trkpt>
      <trkpt lat="45.79947" lon="4.80454">
        <ele>321</ele>
        <time>2017-09-08T12:15:49.1Z</time>
      </trkpt>
      <trkpt lat="45.79953" lon="4.80451">
        <ele>321</ele>
        <time>2017-09-08T12:15:51.1Z</time>
      </trkpt>
      <trkpt lat="45.79956" lon="4.8045">
        <ele>321</ele>
        <time>2017-09-08T12:15:52.1Z</time>
      </trkpt>
      <trkpt lat="45.7996" lon="4.80449">
        <ele>321</ele>
        <time>2017-09-08T12:15:53.1Z</time>
      </trkpt>
      <trkpt lat="45.79963" lon="4.80447">
        <ele>321</ele>
        <time>2017-09-08T12:15:54.1Z</time>
      </trkpt>
      <trkpt lat="45.79966" lon="4.80445">
        <ele>321</ele>
        <time>2017-09-08T12:15:55.1Z</time>
      </trkpt>
      <trkpt lat="45.79969" lon="4.80444">
        <ele>321</ele>
        <time>2017-09-08T12:15:56.1Z</time>
      </trkpt>
      <trkpt lat="45.79972" lon="4.80443">
        <ele>321</ele>
        <time>2017-09-08T12:15:57.1Z</time>
      </trkpt>
      <trkpt lat="45.79975" lon="4.80441">
        <ele>322</ele>
        <time>2017-09-08T12:15:58.1Z</time>
      </trkpt>
      <trkpt lat="45.79978" lon="4.8044">
        <ele>322</ele>
        <time>2017-09-08T12:15:59.1Z</time>
      </trkpt>
      <trkpt lat="45.79982" lon="4.80439">
        <ele>322</ele>
        <time>2017-09-08T12:16:00.1Z</time>
      </trkpt>
      <trkpt lat="45.79985" lon="4.80437">
        <ele>322</ele>
        <time>2017-09-08T12:16:01.1Z</time>
      </trkpt>
      <trkpt lat="45.79988" lon="4.80435">
        <ele>322</ele>
        <time>2017-09-08T12:16:02.1Z</time>
      </trkpt>
      <trkpt lat="45.79992" lon="4.80433">
        <ele>322</ele>
        <time>2017-09-08T12:16:03.1Z</time>
      </trkpt>
      <trkpt lat="45.79999" lon="4.8043">
        <ele>322</ele>
        <time>2017-09-08T12:16:05.1Z</time>
      </trkpt>
      <trkpt lat="45.80002" lon="4.80428">
        <ele>322</ele>
        <time>2017-09-08T12:16:06.1Z</time>
      </trkpt>
      <trkpt lat="45.80006" lon="4.80427">
        <ele>322</ele>
        <time>2017-09-08T12:16:07.1Z</time>
      </trkpt>
      <trkpt lat="45.80009" lon="4.80425">
        <ele>322</ele>
        <time>2017-09-08T12:16:08.1Z</time>
      </trkpt>
      <trkpt lat="45.80016" lon="4.80422">
        <ele>322</ele>
        <time>2017-09-08T12:16:10.1Z</time>
      </trkpt>
      <trkpt lat="45.80019" lon="4.8042">
        <ele>322</ele>
        <time>2017-09-08T12:16:11.1Z</time>
      </trkpt>
      <trkpt lat="45.80022" lon="4.80419">
        <ele>322</ele>
        <time>2017-09-08T12:16:12.1Z</time>
      </trkpt>
      <trkpt lat="45.80025" lon="4.80418">
        <ele>322</ele>
        <time>2017-09-08T12:16:13.1Z</time>
      </trkpt>
      <trkpt lat="45.80029" lon="4.80416">
        <ele>322</ele>
        <time>2017-09-08T12:16:14.1Z</time>
      </trkpt>
      <trkpt lat="45.80032" lon="4.80414">
        <ele>323</ele>
        <time>2017-09-08T12:16:15.1Z</time>
      </trkpt>
      <trkpt lat="45.80035" lon="4.80413">
        <ele>323</ele>
        <time>2017-09-08T12:16:16.1Z</time>
      </trkpt>
      <trkpt lat="45.80038" lon="4.80411">
        <ele>323</ele>
        <time>2017-09-08T12:16:17.1Z</time>
      </trkpt>
      <trkpt lat="45.80041" lon="4.8041">
        <ele>323</ele>
        <time>2017-09-08T12:16:18.1Z</time>
      </trkpt>
      <trkpt lat="45.80044" lon="4.80408">
        <ele>323</ele>
        <time>2017-09-08T12:16:19.1Z</time>
      </trkpt>
      <trkpt lat="45.8005" lon="4.80405">
        <ele>323</ele>
        <time>2017-09-08T12:16:21.1Z</time>
      </trkpt>
      <trkpt lat="45.80053" lon="4.80403">
        <ele>323</ele>
        <time>2017-09-08T12:16:22.1Z</time>
      </trkpt>
      <trkpt lat="45.80056" lon="4.80401">
        <ele>323</ele>
        <time>2017-09-08T12:16:23.1Z</time>
      </trkpt>
      <trkpt lat="45.80059" lon="4.804">
        <ele>323</ele>
        <time>2017-09-08T12:16:24.1Z</time>
      </trkpt>
      <trkpt lat="45.80062" lon="4.80398">
        <ele>323</ele>
        <time>2017-09-08T12:16:25.1Z</time>
      </trkpt>
      <trkpt lat="45.80065" lon="4.80396">
        <ele>323</ele>
        <time>2017-09-08T12:16:26.1Z</time>
      </trkpt>
      <trkpt lat="45.80068" lon="4.80394">
        <ele>324</ele>
        <time>2017-09-08T12:16:27.1Z</time>
      </trkpt>
      <trkpt lat="45.80071" lon="4.80393">
        <ele>324</ele>
        <time>2017-09-08T12:16:28.1Z</time>
      </trkpt>
      <trkpt lat="45.80077" lon="4.8039">
        <ele>324</ele>
        <time>2017-09-08T12:16:30.1Z</time>
      </trkpt>
      <trkpt lat="45.8008" lon="4.80389">
        <ele>324</ele>
        <time>2017-09-08T12:16:31.1Z</time>
      </trkpt>
      <trkpt lat="45.80082" lon="4.80388">
        <ele>324</ele>
        <time>2017-09-08T12:16:32.1Z</time>
      </trkpt>
      <trkpt lat="45.80086" lon="4.80391">
        <ele>324</ele>
        <time>2017-09-08T12:16:34.1Z</time>
      </trkpt>
      <trkpt lat="45.80087" lon="4.80395">
        <ele>324</ele>
        <time>2017-09-08T12:16:35.1Z</time>
      </trkpt>
      <trkpt lat="45.80089" lon="4.80399">
        <ele>324</ele>
        <time>2017-09-08T12:16:36.1Z</time>
      </trkpt>
      <trkpt lat="45.8009" lon="4.80404">
        <ele>324</ele>
        <time>2017-09-08T12:16:37.1Z</time>
      </trkpt>
      <trkpt lat="45.80092" lon="4.80409">
        <ele>324</ele>
        <time>2017-09-08T12:16:38.1Z</time>
      </trkpt>
      <trkpt lat="45.80094" lon="4.80413">
        <ele>324</ele>
        <time>2017-09-08T12:16:39.1Z</time>
      </trkpt>
      <trkpt lat="45.80096" lon="4.80418">
        <ele>324</ele>
        <time>2017-09-08T12:16:40.1Z</time>
      </trkpt>
      <trkpt lat="45.80098" lon="4.80423">
        <ele>324</ele>
        <time>2017-09-08T12:16:41.1Z</time>
      </trkpt>
      <trkpt lat="45.80099" lon="4.80428">
        <ele>324</ele>
        <time>2017-09-08T12:16:42.1Z</time>
      </trkpt>
      <trkpt lat="45.80101" lon="4.80433">
        <ele>324</ele>
        <time>2017-09-08T12:16:43.1Z</time>
      </trkpt>
      <trkpt lat="45.80103" lon="4.80438">
        <ele>324</ele>
        <time>2017-09-08T12:16:44.1Z</time>
      </trkpt>
      <trkpt lat="45.80105" lon="4.80442">
        <ele>324</ele>
        <time>2017-09-08T12:16:45.1Z</time>
      </trkpt>
      <trkpt lat="45.80107" lon="4.80447">
        <ele>325</ele>
        <time>2017-09-08T12:16:46.1Z</time>
      </trkpt>
      <trkpt lat="45.80109" lon="4.80452">
        <ele>325</ele>
        <time>2017-09-08T12:16:47.1Z</time>
      </trkpt>
      <trkpt lat="45.80113" lon="4.80463">
        <ele>325</ele>
        <time>2017-09-08T12:16:49.1Z</time>
      </trkpt>
      <trkpt lat="45.80115" lon="4.80468">
        <ele>325</ele>
        <time>2017-09-08T12:16:50.1Z</time>
      </trkpt>
      <trkpt lat="45.80117" lon="4.80474">
        <ele>325</ele>
        <time>2017-09-08T12:16:51.1Z</time>
      </trkpt>
      <trkpt lat="45.80119" lon="4.80479">
        <ele>325</ele>
        <time>2017-09-08T12:16:52.1Z</time>
      </trkpt>
      <trkpt lat="45.8012" lon="4.80484">
        <ele>326</ele>
        <time>2017-09-08T12:16:53.1Z</time>
      </trkpt>
      <trkpt lat="45.80122" lon="4.80489">
        <ele>326</ele>
        <time>2017-09-08T12:16:54.1Z</time>
      </trkpt>
      <trkpt lat="45.80124" lon="4.80494">
        <ele>325</ele>
        <time>2017-09-08T12:16:55.1Z</time>
      </trkpt>
      <trkpt lat="45.80126" lon="4.80499">
        <ele>325</ele>
        <time>2017-09-08T12:16:56.1Z</time>
      </trkpt>
      <trkpt lat="45.80128" lon="4.80504">
        <ele>325</ele>
        <time>2017-09-08T12:16:57.1Z</time>
      </trkpt>
      <trkpt lat="45.8013" lon="4.80509">
        <ele>325</ele>
        <time>2017-09-08T12:16:58.1Z</time>
      </trkpt>
      <trkpt lat="45.80132" lon="4.80514">
        <ele>325</ele>
        <time>2017-09-08T12:16:59.1Z</time>
      </trkpt>
      <trkpt lat="45.80136" lon="4.80524">
        <ele>325</ele>
        <time>2017-09-08T12:17:01.1Z</time>
      </trkpt>
      <trkpt lat="45.80138" lon="4.80529">
        <ele>325</ele>
        <time>2017-09-08T12:17:02.1Z</time>
      </trkpt>
      <trkpt lat="45.8014" lon="4.80534">
        <ele>325</ele>
        <time>2017-09-08T12:17:03.1Z</time>
      </trkpt>
      <trkpt lat="45.80141" lon="4.80539">
        <ele>326</ele>
        <time>2017-09-08T12:17:04.1Z</time>
      </trkpt>
      <trkpt lat="45.80143" lon="4.80544">
        <ele>326</ele>
        <time>2017-09-08T12:17:05.1Z</time>
      </trkpt>
      <trkpt lat="45.80145" lon="4.80548">
        <ele>326</ele>
        <time>2017-09-08T12:17:06.1Z</time>
      </trkpt>
      <trkpt lat="45.80147" lon="4.80552">
        <ele>326</ele>
        <time>2017-09-08T12:17:07.1Z</time>
      </trkpt>
      <trkpt lat="45.80149" lon="4.80556">
        <ele>326</ele>
        <time>2017-09-08T12:17:08.1Z</time>
      </trkpt>
      <trkpt lat="45.80151" lon="4.80561">
        <ele>326</ele>
        <time>2017-09-08T12:17:09.1Z</time>
      </trkpt>
      <trkpt lat="45.80154" lon="4.80565">
        <ele>326</ele>
        <time>2017-09-08T12:17:10.1Z</time>
      </trkpt>
      <trkpt lat="45.80158" lon="4.80573">
        <ele>326</ele>
        <time>2017-09-08T12:17:12.1Z</time>
      </trkpt>
      <trkpt lat="45.80161" lon="4.80577">
        <ele>326</ele>
        <time>2017-09-08T12:17:13.1Z</time>
      </trkpt>
      <trkpt lat="45.80166" lon="4.80586">
        <ele>326</ele>
        <time>2017-09-08T12:17:15.1Z</time>
      </trkpt>
      <trkpt lat="45.80168" lon="4.8059">
        <ele>325</ele>
        <time>2017-09-08T12:17:16.1Z</time>
      </trkpt>
      <trkpt lat="45.80171" lon="4.80594">
        <ele>325</ele>
        <time>2017-09-08T12:17:17.1Z</time>
      </trkpt>
      <trkpt lat="45.80173" lon="4.80598">
        <ele>326</ele>
        <time>2017-09-08T12:17:18.1Z</time>
      </trkpt>
      <trkpt lat="45.80176" lon="4.80603">
        <ele>326</ele>
        <time>2017-09-08T12:17:19.1Z</time>
      </trkpt>
      <trkpt lat="45.80179" lon="4.80607">
        <ele>326</ele>
        <time>2017-09-08T12:17:20.1Z</time>
      </trkpt>
      <trkpt lat="45.80182" lon="4.80611">
        <ele>326</ele>
        <time>2017-09-08T12:17:21.1Z</time>
      </trkpt>
      <trkpt lat="45.80184" lon="4.80616">
        <ele>325</ele>
        <time>2017-09-08T12:17:22.1Z</time>
      </trkpt>
      <trkpt lat="45.80187" lon="4.8062">
        <ele>325</ele>
        <time>2017-09-08T12:17:23.1Z</time>
      </trkpt>
      <trkpt lat="45.8019" lon="4.80624">
        <ele>326</ele>
        <time>2017-09-08T12:17:24.1Z</time>
      </trkpt>
      <trkpt lat="45.80193" lon="4.80631">
        <ele>326</ele>
        <time>2017-09-08T12:17:26.1Z</time>
      </trkpt>
      <trkpt lat="45.80196" lon="4.80635">
        <ele>326</ele>
        <time>2017-09-08T12:17:27.1Z</time>
      </trkpt>
      <trkpt lat="45.80202" lon="4.80645">
        <ele>326</ele>
        <time>2017-09-08T12:17:29.1Z</time>
      </trkpt>
      <trkpt lat="45.80205" lon="4.8065">
        <ele>326</ele>
        <time>2017-09-08T12:17:30.1Z</time>
      </trkpt>
      <trkpt lat="45.80207" lon="4.80654">
        <ele>325</ele>
        <time>2017-09-08T12:17:31.1Z</time>
      </trkpt>
      <trkpt lat="45.8021" lon="4.80659">
        <ele>325</ele>
        <time>2017-09-08T12:17:32.1Z</time>
      </trkpt>
      <trkpt lat="45.80213" lon="4.80664">
        <ele>325</ele>
        <time>2017-09-08T12:17:33.1Z</time>
      </trkpt>
      <trkpt lat="45.80215" lon="4.80669">
        <ele>325</ele>
        <time>2017-09-08T12:17:34.1Z</time>
      </trkpt>
      <trkpt lat="45.80218" lon="4.80674">
        <ele>324</ele>
        <time>2017-09-08T12:17:35.1Z</time>
      </trkpt>
      <trkpt lat="45.80221" lon="4.80679">
        <ele>324</ele>
        <time>2017-09-08T12:17:36.1Z</time>
      </trkpt>
      <trkpt lat="45.80224" lon="4.80683">
        <ele>324</ele>
        <time>2017-09-08T12:17:37.1Z</time>
      </trkpt>
      <trkpt lat="45.80227" lon="4.80688">
        <ele>324</ele>
        <time>2017-09-08T12:17:38.1Z</time>
      </trkpt>
      <trkpt lat="45.8023" lon="4.80693">
        <ele>324</ele>
        <time>2017-09-08T12:17:39.1Z</time>
      </trkpt>
      <trkpt lat="45.80233" lon="4.80697">
        <ele>324</ele>
        <time>2017-09-08T12:17:40.1Z</time>
      </trkpt>
      <trkpt lat="45.80236" lon="4.80702">
        <ele>325</ele>
        <time>2017-09-08T12:17:41.1Z</time>
      </trkpt>
      <trkpt lat="45.80242" lon="4.80711">
        <ele>325</ele>
        <time>2017-09-08T12:17:43.1Z</time>
      </trkpt>
      <trkpt lat="45.80245" lon="4.80716">
        <ele>325</ele>
        <time>2017-09-08T12:17:44.1Z</time>
      </trkpt>
      <trkpt lat="45.80248" lon="4.8072">
        <ele>325</ele>
        <time>2017-09-08T12:17:45.1Z</time>
      </trkpt>
      <trkpt lat="45.80251" lon="4.80725">
        <ele>325</ele>
        <time>2017-09-08T12:17:46.1Z</time>
      </trkpt>
      <trkpt lat="45.80254" lon="4.8073">
        <ele>325</ele>
        <time>2017-09-08T12:17:47.1Z</time>
      </trkpt>
      <trkpt lat="45.80257" lon="4.80734">
        <ele>325</ele>
        <time>2017-09-08T12:17:48.1Z</time>
      </trkpt>
      <trkpt lat="45.80259" lon="4.80738">
        <ele>325</ele>
        <time>2017-09-08T12:17:49.1Z</time>
      </trkpt>
      <trkpt lat="45.80262" lon="4.80743">
        <ele>325</ele>
        <time>2017-09-08T12:17:50.1Z</time>
      </trkpt>
      <trkpt lat="45.80264" lon="4.80747">
        <ele>325</ele>
        <time>2017-09-08T12:17:51.1Z</time>
      </trkpt>
      <trkpt lat="45.80267" lon="4.80751">
        <ele>325</ele>
        <time>2017-09-08T12:17:52.1Z</time>
      </trkpt>
      <trkpt lat="45.8027" lon="4.80756">
        <ele>325</ele>
        <time>2017-09-08T12:17:53.1Z</time>
      </trkpt>
      <trkpt lat="45.80276" lon="4.80764">
        <ele>325</ele>
        <time>2017-09-08T12:17:55.1Z</time>
      </trkpt>
      <trkpt lat="45.80279" lon="4.80768">
        <ele>325</ele>
        <time>2017-09-08T12:17:56.1Z</time>
      </trkpt>
      <trkpt lat="45.80282" lon="4.80773">
        <ele>325</ele>
        <time>2017-09-08T12:17:57.1Z</time>
      </trkpt>
      <trkpt lat="45.80285" lon="4.80778">
        <ele>325</ele>
        <time>2017-09-08T12:17:58.1Z</time>
      </trkpt>
      <trkpt lat="45.80288" lon="4.80782">
        <ele>325</ele>
        <time>2017-09-08T12:17:59.1Z</time>
      </trkpt>
      <trkpt lat="45.80291" lon="4.80786">
        <ele>325</ele>
        <time>2017-09-08T12:18:00.1Z</time>
      </trkpt>
      <trkpt lat="45.80293" lon="4.80791">
        <ele>325</ele>
        <time>2017-09-08T12:18:01.1Z</time>
      </trkpt>
      <trkpt lat="45.80296" lon="4.80795">
        <ele>325</ele>
        <time>2017-09-08T12:18:02.1Z</time>
      </trkpt>
      <trkpt lat="45.80301" lon="4.80803">
        <ele>325</ele>
        <time>2017-09-08T12:18:04.1Z</time>
      </trkpt>
      <trkpt lat="45.80304" lon="4.80806">
        <ele>325</ele>
        <time>2017-09-08T12:18:05.1Z</time>
      </trkpt>
      <trkpt lat="45.80306" lon="4.8081">
        <ele>325</ele>
        <time>2017-09-08T12:18:06.1Z</time>
      </trkpt>
      <trkpt lat="45.80309" lon="4.80814">
        <ele>325</ele>
        <time>2017-09-08T12:18:07.1Z</time>
      </trkpt>
      <trkpt lat="45.80313" lon="4.80823">
        <ele>325</ele>
        <time>2017-09-08T12:18:09.1Z</time>
      </trkpt>
      <trkpt lat="45.80316" lon="4.80827">
        <ele>325</ele>
        <time>2017-09-08T12:18:10.1Z</time>
      </trkpt>
      <trkpt lat="45.80318" lon="4.80831">
        <ele>325</ele>
        <time>2017-09-08T12:18:11.1Z</time>
      </trkpt>
      <trkpt lat="45.8032" lon="4.80836">
        <ele>325</ele>
        <time>2017-09-08T12:18:12.1Z</time>
      </trkpt>
      <trkpt lat="45.80321" lon="4.80841">
        <ele>325</ele>
        <time>2017-09-08T12:18:13.1Z</time>
      </trkpt>
      <trkpt lat="45.80323" lon="4.80846">
        <ele>325</ele>
        <time>2017-09-08T12:18:14.1Z</time>
      </trkpt>
      <trkpt lat="45.80328" lon="4.80853">
        <ele>325</ele>
        <time>2017-09-08T12:18:16.1Z</time>
      </trkpt>
      <trkpt lat="45.80331" lon="4.80855">
        <ele>325</ele>
        <time>2017-09-08T12:18:17.1Z</time>
      </trkpt>
      <trkpt lat="45.80334" lon="4.80857">
        <ele>325</ele>
        <time>2017-09-08T12:18:18.1Z</time>
      </trkpt>
      <trkpt lat="45.80338" lon="4.8086">
        <ele>325</ele>
        <time>2017-09-08T12:18:19.1Z</time>
      </trkpt>
      <trkpt lat="45.80341" lon="4.80863">
        <ele>325</ele>
        <time>2017-09-08T12:18:20.1Z</time>
      </trkpt>
      <trkpt lat="45.80344" lon="4.80867">
        <ele>325</ele>
        <time>2017-09-08T12:18:21.1Z</time>
      </trkpt>
      <trkpt lat="45.80348" lon="4.80871">
        <ele>324</ele>
        <time>2017-09-08T12:18:22.1Z</time>
      </trkpt>
      <trkpt lat="45.80355" lon="4.80878">
        <ele>324</ele>
        <time>2017-09-08T12:18:24.1Z</time>
      </trkpt>
      <trkpt lat="45.80359" lon="4.80882">
        <ele>324</ele>
        <time>2017-09-08T12:18:25.1Z</time>
      </trkpt>
      <trkpt lat="45.80362" lon="4.80886">
        <ele>324</ele>
        <time>2017-09-08T12:18:26.1Z</time>
      </trkpt>
      <trkpt lat="45.80367" lon="4.80891">
        <ele>324</ele>
        <time>2017-09-08T12:18:27.1Z</time>
      </trkpt>
      <trkpt lat="45.80371" lon="4.80895">
        <ele>324</ele>
        <time>2017-09-08T12:18:28.1Z</time>
      </trkpt>
      <trkpt lat="45.80375" lon="4.80899">
        <ele>323</ele>
        <time>2017-09-08T12:18:29.1Z</time>
      </trkpt>
      <trkpt lat="45.80379" lon="4.80903">
        <ele>323</ele>
        <time>2017-09-08T12:18:30.1Z</time>
      </trkpt>
      <trkpt lat="45.80383" lon="4.80908">
        <ele>323</ele>
        <time>2017-09-08T12:18:31.1Z</time>
      </trkpt>
      <trkpt lat="45.80387" lon="4.80912">
        <ele>323</ele>
        <time>2017-09-08T12:18:32.1Z</time>
      </trkpt>
      <trkpt lat="45.80391" lon="4.80916">
        <ele>323</ele>
        <time>2017-09-08T12:18:33.1Z</time>
      </trkpt>
      <trkpt lat="45.80396" lon="4.80921">
        <ele>322</ele>
        <time>2017-09-08T12:18:34.1Z</time>
      </trkpt>
      <trkpt lat="45.80399" lon="4.80925">
        <ele>322</ele>
        <time>2017-09-08T12:18:35.1Z</time>
      </trkpt>
      <trkpt lat="45.80403" lon="4.80929">
        <ele>322</ele>
        <time>2017-09-08T12:18:36.1Z</time>
      </trkpt>
      <trkpt lat="45.80407" lon="4.80933">
        <ele>322</ele>
        <time>2017-09-08T12:18:37.1Z</time>
      </trkpt>
      <trkpt lat="45.80415" lon="4.80941">
        <ele>322</ele>
        <time>2017-09-08T12:18:39.1Z</time>
      </trkpt>
      <trkpt lat="45.8042" lon="4.80944">
        <ele>322</ele>
        <time>2017-09-08T12:18:40.1Z</time>
      </trkpt>
      <trkpt lat="45.80426" lon="4.80948">
        <ele>322</ele>
        <time>2017-09-08T12:18:41.1Z</time>
      </trkpt>
      <trkpt lat="45.80431" lon="4.80951">
        <ele>322</ele>
        <time>2017-09-08T12:18:42.1Z</time>
      </trkpt>
      <trkpt lat="45.80437" lon="4.80953">
        <ele>322</ele>
        <time>2017-09-08T12:18:43.1Z</time>
      </trkpt>
      <trkpt lat="45.8045" lon="4.80954">
        <ele>321</ele>
        <time>2017-09-08T12:18:45.1Z</time>
      </trkpt>
      <trkpt lat="45.80456" lon="4.80955">
        <ele>321</ele>
        <time>2017-09-08T12:18:46.1Z</time>
      </trkpt>
      <trkpt lat="45.80463" lon="4.80956">
        <ele>321</ele>
        <time>2017-09-08T12:18:47.1Z</time>
      </trkpt>
      <trkpt lat="45.80469" lon="4.80957">
        <ele>321</ele>
        <time>2017-09-08T12:18:48.1Z</time>
      </trkpt>
      <trkpt lat="45.80476" lon="4.80958">
        <ele>321</ele>
        <time>2017-09-08T12:18:49.1Z</time>
      </trkpt>
      <trkpt lat="45.80482" lon="4.80959">
        <ele>321</ele>
        <time>2017-09-08T12:18:50.1Z</time>
      </trkpt>
      <trkpt lat="45.80488" lon="4.8096">
        <ele>320</ele>
        <time>2017-09-08T12:18:51.1Z</time>
      </trkpt>
      <trkpt lat="45.80494" lon="4.8096">
        <ele>320</ele>
        <time>2017-09-08T12:18:52.1Z</time>
      </trkpt>
      <trkpt lat="45.80507" lon="4.80957">
        <ele>320</ele>
        <time>2017-09-08T12:18:54.1Z</time>
      </trkpt>
      <trkpt lat="45.80513" lon="4.80956">
        <ele>320</ele>
        <time>2017-09-08T12:18:55.1Z</time>
      </trkpt>
      <trkpt lat="45.80519" lon="4.80955">
        <ele>319</ele>
        <time>2017-09-08T12:18:56.1Z</time>
      </trkpt>
      <trkpt lat="45.80524" lon="4.80953">
        <ele>319</ele>
        <time>2017-09-08T12:18:57.1Z</time>
      </trkpt>
      <trkpt lat="45.80531" lon="4.80951">
        <ele>319</ele>
        <time>2017-09-08T12:18:58.1Z</time>
      </trkpt>
      <trkpt lat="45.80538" lon="4.80949">
        <ele>319</ele>
        <time>2017-09-08T12:18:59.1Z</time>
      </trkpt>
      <trkpt lat="45.80544" lon="4.80946">
        <ele>319</ele>
        <time>2017-09-08T12:19:00.1Z</time>
      </trkpt>
      <trkpt lat="45.80556" lon="4.80938">
        <ele>318</ele>
        <time>2017-09-08T12:19:02.1Z</time>
      </trkpt>
      <trkpt lat="45.80561" lon="4.80933">
        <ele>317</ele>
        <time>2017-09-08T12:19:03.1Z</time>
      </trkpt>
      <trkpt lat="45.80568" lon="4.80928">
        <ele>317</ele>
        <time>2017-09-08T12:19:04.1Z</time>
      </trkpt>
      <trkpt lat="45.80574" lon="4.80922">
        <ele>316</ele>
        <time>2017-09-08T12:19:05.1Z</time>
      </trkpt>
      <trkpt lat="45.8058" lon="4.80915">
        <ele>315</ele>
        <time>2017-09-08T12:19:06.1Z</time>
      </trkpt>
      <trkpt lat="45.80594" lon="4.80902">
        <ele>314</ele>
        <time>2017-09-08T12:19:08.1Z</time>
      </trkpt>
      <trkpt lat="45.806" lon="4.80895">
        <ele>312</ele>
        <time>2017-09-08T12:19:09.1Z</time>
      </trkpt>
      <trkpt lat="45.80606" lon="4.80888">
        <ele>311</ele>
        <time>2017-09-08T12:19:10.1Z</time>
      </trkpt>
      <trkpt lat="45.80612" lon="4.80881">
        <ele>310</ele>
        <time>2017-09-08T12:19:11.1Z</time>
      </trkpt>
      <trkpt lat="45.80616" lon="4.80873">
        <ele>309</ele>
        <time>2017-09-08T12:19:12.1Z</time>
      </trkpt>
      <trkpt lat="45.80624" lon="4.80854">
        <ele>306</ele>
        <time>2017-09-08T12:19:14.1Z</time>
      </trkpt>
      <trkpt lat="45.8063" lon="4.80844">
        <ele>305</ele>
        <time>2017-09-08T12:19:15.1Z</time>
      </trkpt>
      <trkpt lat="45.80635" lon="4.80837">
        <ele>304</ele>
        <time>2017-09-08T12:19:16.1Z</time>
      </trkpt>
      <trkpt lat="45.8064" lon="4.80831">
        <ele>303</ele>
        <time>2017-09-08T12:19:17.1Z</time>
      </trkpt>
      <trkpt lat="45.80646" lon="4.80827">
        <ele>302</ele>
        <time>2017-09-08T12:19:18.1Z</time>
      </trkpt>
      <trkpt lat="45.80663" lon="4.80824">
        <ele>299</ele>
        <time>2017-09-08T12:19:19.1Z</time>
      </trkpt>
      <trkpt lat="45.80674" lon="4.80823">
        <ele>298</ele>
        <time>2017-09-08T12:19:21.1Z</time>
      </trkpt>
      <trkpt lat="45.80695" lon="4.80819">
        <ele>296</ele>
        <time>2017-09-08T12:19:22.1Z</time>
      </trkpt>
      <trkpt lat="45.80704" lon="4.80816">
        <ele>295</ele>
        <time>2017-09-08T12:19:24.1Z</time>
      </trkpt>
      <trkpt lat="45.80712" lon="4.80813">
        <ele>295</ele>
        <time>2017-09-08T12:19:25.1Z</time>
      </trkpt>
      <trkpt lat="45.8072" lon="4.8081">
        <ele>295</ele>
        <time>2017-09-08T12:19:26.1Z</time>
      </trkpt>
      <trkpt lat="45.80727" lon="4.80808">
        <ele>295</ele>
        <time>2017-09-08T12:19:27.1Z</time>
      </trkpt>
      <trkpt lat="45.80732" lon="4.80806">
        <ele>296</ele>
        <time>2017-09-08T12:19:28.1Z</time>
      </trkpt>
      <trkpt lat="45.80741" lon="4.80808">
        <ele>297</ele>
        <time>2017-09-08T12:19:30.1Z</time>
      </trkpt>
      <trkpt lat="45.80744" lon="4.80811">
        <ele>297</ele>
        <time>2017-09-08T12:19:31.1Z</time>
      </trkpt>
      <trkpt lat="45.80745" lon="4.80822">
        <ele>299</ele>
        <time>2017-09-08T12:19:33.1Z</time>
      </trkpt>
      <trkpt lat="45.80745" lon="4.80828">
        <ele>299</ele>
        <time>2017-09-08T12:19:34.1Z</time>
      </trkpt>
      <trkpt lat="45.80747" lon="4.80842">
        <ele>299</ele>
        <time>2017-09-08T12:19:36.1Z</time>
      </trkpt>
      <trkpt lat="45.80748" lon="4.8085">
        <ele>299</ele>
        <time>2017-09-08T12:19:37.1Z</time>
      </trkpt>
      <trkpt lat="45.8075" lon="4.80858">
        <ele>299</ele>
        <time>2017-09-08T12:19:38.1Z</time>
      </trkpt>
      <trkpt lat="45.80752" lon="4.80866">
        <ele>299</ele>
        <time>2017-09-08T12:19:39.1Z</time>
      </trkpt>
      <trkpt lat="45.80755" lon="4.80881">
        <ele>298</ele>
        <time>2017-09-08T12:19:41.1Z</time>
      </trkpt>
      <trkpt lat="45.80756" lon="4.80889">
        <ele>298</ele>
        <time>2017-09-08T12:19:42.1Z</time>
      </trkpt>
      <trkpt lat="45.80758" lon="4.80896">
        <ele>298</ele>
        <time>2017-09-08T12:19:43.1Z</time>
      </trkpt>
      <trkpt lat="45.80759" lon="4.80902">
        <ele>297</ele>
        <time>2017-09-08T12:19:44.1Z</time>
      </trkpt>
      <trkpt lat="45.8076" lon="4.80909">
        <ele>297</ele>
        <time>2017-09-08T12:19:45.1Z</time>
      </trkpt>
      <trkpt lat="45.80761" lon="4.80916">
        <ele>297</ele>
        <time>2017-09-08T12:19:46.1Z</time>
      </trkpt>
      <trkpt lat="45.80761" lon="4.80922">
        <ele>297</ele>
        <time>2017-09-08T12:19:47.1Z</time>
      </trkpt>
      <trkpt lat="45.80762" lon="4.80927">
        <ele>297</ele>
        <time>2017-09-08T12:19:48.1Z</time>
      </trkpt>
      <trkpt lat="45.80767" lon="4.80935">
        <ele>297</ele>
        <time>2017-09-08T12:19:50.1Z</time>
      </trkpt>
      <trkpt lat="45.80775" lon="4.80936">
        <ele>297</ele>
        <time>2017-09-08T12:19:52.1Z</time>
      </trkpt>
      <trkpt lat="45.80779" lon="4.80936">
        <ele>297</ele>
        <time>2017-09-08T12:19:53.1Z</time>
      </trkpt>
      <trkpt lat="45.80783" lon="4.80936">
        <ele>297</ele>
        <time>2017-09-08T12:19:54.1Z</time>
      </trkpt>
      <trkpt lat="45.80788" lon="4.80936">
        <ele>297</ele>
        <time>2017-09-08T12:19:55.1Z</time>
      </trkpt>
      <trkpt lat="45.80795" lon="4.80936">
        <ele>297</ele>
        <time>2017-09-08T12:19:57.1Z</time>
      </trkpt>
      <trkpt lat="45.80798" lon="4.80936">
        <ele>298</ele>
        <time>2017-09-08T12:19:58.1Z</time>
      </trkpt>
      <trkpt lat="45.80802" lon="4.80936">
        <ele>298</ele>
        <time>2017-09-08T12:19:59.1Z</time>
      </trkpt>
      <trkpt lat="45.80805" lon="4.80937">
        <ele>298</ele>
        <time>2017-09-08T12:20:00.1Z</time>
      </trkpt>
      <trkpt lat="45.80809" lon="4.80937">
        <ele>298</ele>
        <time>2017-09-08T12:20:01.1Z</time>
      </trkpt>
      <trkpt lat="45.80812" lon="4.80937">
        <ele>298</ele>
        <time>2017-09-08T12:20:02.1Z</time>
      </trkpt>
      <trkpt lat="45.80815" lon="4.80937">
        <ele>298</ele>
        <time>2017-09-08T12:20:03.1Z</time>
      </trkpt>
      <trkpt lat="45.80819" lon="4.80937">
        <ele>299</ele>
        <time>2017-09-08T12:20:04.1Z</time>
      </trkpt>
      <trkpt lat="45.80822" lon="4.80937">
        <ele>299</ele>
        <time>2017-09-08T12:20:05.1Z</time>
      </trkpt>
      <trkpt lat="45.80825" lon="4.80937">
        <ele>299</ele>
        <time>2017-09-08T12:20:06.1Z</time>
      </trkpt>
      <trkpt lat="45.80832" lon="4.80938">
        <ele>299</ele>
        <time>2017-09-08T12:20:07.1Z</time>
      </trkpt>
      <trkpt lat="45.80835" lon="4.80938">
        <ele>299</ele>
        <time>2017-09-08T12:20:08.1Z</time>
      </trkpt>
      <trkpt lat="45.80839" lon="4.80939">
        <ele>299</ele>
        <time>2017-09-08T12:20:10.1Z</time>
      </trkpt>
      <trkpt lat="45.80842" lon="4.8094">
        <ele>299</ele>
        <time>2017-09-08T12:20:11.1Z</time>
      </trkpt>
      <trkpt lat="45.80849" lon="4.80941">
        <ele>300</ele>
        <time>2017-09-08T12:20:12.1Z</time>
      </trkpt>
      <trkpt lat="45.80853" lon="4.80941">
        <ele>300</ele>
        <time>2017-09-08T12:20:13.1Z</time>
      </trkpt>
      <trkpt lat="45.80856" lon="4.80942">
        <ele>300</ele>
        <time>2017-09-08T12:20:14.1Z</time>
      </trkpt>
      <trkpt lat="45.80859" lon="4.80943">
        <ele>300</ele>
        <time>2017-09-08T12:20:15.1Z</time>
      </trkpt>
      <trkpt lat="45.80863" lon="4.80943">
        <ele>301</ele>
        <time>2017-09-08T12:20:16.1Z</time>
      </trkpt>
      <trkpt lat="45.80867" lon="4.80943">
        <ele>301</ele>
        <time>2017-09-08T12:20:18.1Z</time>
      </trkpt>
      <trkpt lat="45.8087" lon="4.80944">
        <ele>301</ele>
        <time>2017-09-08T12:20:19.1Z</time>
      </trkpt>
      <trkpt lat="45.80873" lon="4.80945">
        <ele>301</ele>
        <time>2017-09-08T12:20:20.1Z</time>
      </trkpt>
      <trkpt lat="45.80876" lon="4.80946">
        <ele>301</ele>
        <time>2017-09-08T12:20:21.1Z</time>
      </trkpt>
      <trkpt lat="45.80881" lon="4.80948">
        <ele>302</ele>
        <time>2017-09-08T12:20:23.1Z</time>
      </trkpt>
      <trkpt lat="45.80884" lon="4.80949">
        <ele>302</ele>
        <time>2017-09-08T12:20:24.1Z</time>
      </trkpt>
      <trkpt lat="45.8089" lon="4.80949">
        <ele>302</ele>
        <time>2017-09-08T12:20:25.1Z</time>
      </trkpt>
      <trkpt lat="45.80893" lon="4.80949">
        <ele>302</ele>
        <time>2017-09-08T12:20:27.1Z</time>
      </trkpt>
      <trkpt lat="45.80901" lon="4.80949">
        <ele>303</ele>
        <time>2017-09-08T12:20:28.1Z</time>
      </trkpt>
      <trkpt lat="45.80904" lon="4.80949">
        <ele>303</ele>
        <time>2017-09-08T12:20:29.1Z</time>
      </trkpt>
      <trkpt lat="45.80908" lon="4.80949">
        <ele>303</ele>
        <time>2017-09-08T12:20:31.1Z</time>
      </trkpt>
      <trkpt lat="45.80911" lon="4.80949">
        <ele>303</ele>
        <time>2017-09-08T12:20:32.1Z</time>
      </trkpt>
      <trkpt lat="45.80915" lon="4.8095">
        <ele>303</ele>
        <time>2017-09-08T12:20:33.1Z</time>
      </trkpt>
      <trkpt lat="45.80918" lon="4.8095">
        <ele>303</ele>
        <time>2017-09-08T12:20:34.1Z</time>
      </trkpt>
      <trkpt lat="45.80925" lon="4.80952">
        <ele>303</ele>
        <time>2017-09-08T12:20:35.1Z</time>
      </trkpt>
      <trkpt lat="45.80928" lon="4.80953">
        <ele>303</ele>
        <time>2017-09-08T12:20:36.1Z</time>
      </trkpt>
      <trkpt lat="45.80931" lon="4.80954">
        <ele>303</ele>
        <time>2017-09-08T12:20:37.1Z</time>
      </trkpt>
      <trkpt lat="45.80934" lon="4.80954">
        <ele>303</ele>
        <time>2017-09-08T12:20:39.1Z</time>
      </trkpt>
      <trkpt lat="45.80938" lon="4.80955">
        <ele>304</ele>
        <time>2017-09-08T12:20:40.1Z</time>
      </trkpt>
      <trkpt lat="45.80941" lon="4.80955">
        <ele>304</ele>
        <time>2017-09-08T12:20:41.1Z</time>
      </trkpt>
      <trkpt lat="45.80944" lon="4.80955">
        <ele>303</ele>
        <time>2017-09-08T12:20:42.1Z</time>
      </trkpt>
      <trkpt lat="45.80947" lon="4.80956">
        <ele>304</ele>
        <time>2017-09-08T12:20:43.1Z</time>
      </trkpt>
      <trkpt lat="45.80954" lon="4.80958">
        <ele>304</ele>
        <time>2017-09-08T12:20:44.1Z</time>
      </trkpt>
      <trkpt lat="45.8096" lon="4.80959">
        <ele>305</ele>
        <time>2017-09-08T12:20:46.1Z</time>
      </trkpt>
      <trkpt lat="45.80964" lon="4.80959">
        <ele>305</ele>
        <time>2017-09-08T12:20:47.1Z</time>
      </trkpt>
      <trkpt lat="45.80967" lon="4.80959">
        <ele>305</ele>
        <time>2017-09-08T12:20:48.1Z</time>
      </trkpt>
      <trkpt lat="45.8097" lon="4.8096">
        <ele>305</ele>
        <time>2017-09-08T12:20:50.1Z</time>
      </trkpt>
      <trkpt lat="45.80973" lon="4.80961">
        <ele>305</ele>
        <time>2017-09-08T12:20:51.1Z</time>
      </trkpt>
      <trkpt lat="45.8098" lon="4.80962">
        <ele>305</ele>
        <time>2017-09-08T12:20:52.1Z</time>
      </trkpt>
      <trkpt lat="45.80983" lon="4.80963">
        <ele>306</ele>
        <time>2017-09-08T12:20:53.1Z</time>
      </trkpt>
      <trkpt lat="45.80986" lon="4.80963">
        <ele>306</ele>
        <time>2017-09-08T12:20:55.1Z</time>
      </trkpt>
      <trkpt lat="45.80989" lon="4.80964">
        <ele>305</ele>
        <time>2017-09-08T12:20:56.1Z</time>
      </trkpt>
      <trkpt lat="45.80992" lon="4.80965">
        <ele>306</ele>
        <time>2017-09-08T12:20:57.1Z</time>
      </trkpt>
      <trkpt lat="45.80995" lon="4.80966">
        <ele>306</ele>
        <time>2017-09-08T12:20:58.1Z</time>
      </trkpt>
      <trkpt lat="45.80998" lon="4.80966">
        <ele>306</ele>
        <time>2017-09-08T12:20:59.1Z</time>
      </trkpt>
      <trkpt lat="45.81005" lon="4.80967">
        <ele>306</ele>
        <time>2017-09-08T12:21:01.1Z</time>
      </trkpt>
      <trkpt lat="45.81008" lon="4.80968">
        <ele>306</ele>
        <time>2017-09-08T12:21:02.1Z</time>
      </trkpt>
      <trkpt lat="45.81014" lon="4.80969">
        <ele>306</ele>
        <time>2017-09-08T12:21:03.1Z</time>
      </trkpt>
      <trkpt lat="45.81017" lon="4.8097">
        <ele>307</ele>
        <time>2017-09-08T12:21:04.1Z</time>
      </trkpt>
      <trkpt lat="45.8102" lon="4.8097">
        <ele>307</ele>
        <time>2017-09-08T12:21:05.1Z</time>
      </trkpt>
      <trkpt lat="45.81023" lon="4.80971">
        <ele>307</ele>
        <time>2017-09-08T12:21:07.1Z</time>
      </trkpt>
      <trkpt lat="45.8103" lon="4.80973">
        <ele>307</ele>
        <time>2017-09-08T12:21:08.1Z</time>
      </trkpt>
      <trkpt lat="45.81033" lon="4.80974">
        <ele>308</ele>
        <time>2017-09-08T12:21:10.1Z</time>
      </trkpt>
      <trkpt lat="45.81039" lon="4.80976">
        <ele>308</ele>
        <time>2017-09-08T12:21:11.1Z</time>
      </trkpt>
      <trkpt lat="45.81042" lon="4.80977">
        <ele>308</ele>
        <time>2017-09-08T12:21:13.1Z</time>
      </trkpt>
      <trkpt lat="45.81045" lon="4.80977">
        <ele>308</ele>
        <time>2017-09-08T12:21:14.1Z</time>
      </trkpt>
      <trkpt lat="45.81048" lon="4.80978">
        <ele>308</ele>
        <time>2017-09-08T12:21:15.1Z</time>
      </trkpt>
      <trkpt lat="45.81053" lon="4.80978">
        <ele>308</ele>
        <time>2017-09-08T12:21:16.1Z</time>
      </trkpt>
      <trkpt lat="45.81056" lon="4.80979">
        <ele>308</ele>
        <time>2017-09-08T12:21:17.1Z</time>
      </trkpt>
      <trkpt lat="45.81059" lon="4.8098">
        <ele>308</ele>
        <time>2017-09-08T12:21:19.1Z</time>
      </trkpt>
      <trkpt lat="45.81065" lon="4.80981">
        <ele>308</ele>
        <time>2017-09-08T12:21:20.1Z</time>
      </trkpt>
      <trkpt lat="45.81068" lon="4.80982">
        <ele>309</ele>
        <time>2017-09-08T12:21:21.1Z</time>
      </trkpt>
      <trkpt lat="45.81071" lon="4.80983">
        <ele>309</ele>
        <time>2017-09-08T12:21:23.1Z</time>
      </trkpt>
      <trkpt lat="45.81074" lon="4.80984">
        <ele>309</ele>
        <time>2017-09-08T12:21:24.1Z</time>
      </trkpt>
      <trkpt lat="45.81077" lon="4.80984">
        <ele>309</ele>
        <time>2017-09-08T12:21:25.1Z</time>
      </trkpt>
      <trkpt lat="45.8108" lon="4.80985">
        <ele>309</ele>
        <time>2017-09-08T12:21:26.1Z</time>
      </trkpt>
      <trkpt lat="45.81086" lon="4.80986">
        <ele>309</ele>
        <time>2017-09-08T12:21:27.1Z</time>
      </trkpt>
      <trkpt lat="45.81089" lon="4.80987">
        <ele>310</ele>
        <time>2017-09-08T12:21:28.1Z</time>
      </trkpt>
      <trkpt lat="45.81092" lon="4.80988">
        <ele>310</ele>
        <time>2017-09-08T12:21:29.1Z</time>
      </trkpt>
      <trkpt lat="45.81095" lon="4.80989">
        <ele>310</ele>
        <time>2017-09-08T12:21:30.1Z</time>
      </trkpt>
      <trkpt lat="45.811" lon="4.8099">
        <ele>310</ele>
        <time>2017-09-08T12:21:32.1Z</time>
      </trkpt>
      <trkpt lat="45.81103" lon="4.80991">
        <ele>310</ele>
        <time>2017-09-08T12:21:33.1Z</time>
      </trkpt>
      <trkpt lat="45.81106" lon="4.80992">
        <ele>310</ele>
        <time>2017-09-08T12:21:34.1Z</time>
      </trkpt>
      <trkpt lat="45.81109" lon="4.80992">
        <ele>310</ele>
        <time>2017-09-08T12:21:35.1Z</time>
      </trkpt>
      <trkpt lat="45.81112" lon="4.80993">
        <ele>311</ele>
        <time>2017-09-08T12:21:37.1Z</time>
      </trkpt>
      <trkpt lat="45.81115" lon="4.80994">
        <ele>311</ele>
        <time>2017-09-08T12:21:38.1Z</time>
      </trkpt>
      <trkpt lat="45.81118" lon="4.80995">
        <ele>311</ele>
        <time>2017-09-08T12:21:39.1Z</time>
      </trkpt>
      <trkpt lat="45.81124" lon="4.80996">
        <ele>311</ele>
        <time>2017-09-08T12:21:40.1Z</time>
      </trkpt>
      <trkpt lat="45.81127" lon="4.80997">
        <ele>311</ele>
        <time>2017-09-08T12:21:41.1Z</time>
      </trkpt>
      <trkpt lat="45.8113" lon="4.80998">
        <ele>311</ele>
        <time>2017-09-08T12:21:43.1Z</time>
      </trkpt>
      <trkpt lat="45.81133" lon="4.80999">
        <ele>311</ele>
        <time>2017-09-08T12:21:44.1Z</time>
      </trkpt>
      <trkpt lat="45.81136" lon="4.81">
        <ele>312</ele>
        <time>2017-09-08T12:21:45.1Z</time>
      </trkpt>
      <trkpt lat="45.81139" lon="4.81">
        <ele>312</ele>
        <time>2017-09-08T12:21:46.1Z</time>
      </trkpt>
      <trkpt lat="45.81146" lon="4.81002">
        <ele>312</ele>
        <time>2017-09-08T12:21:47.1Z</time>
      </trkpt>
      <trkpt lat="45.81149" lon="4.81003">
        <ele>312</ele>
        <time>2017-09-08T12:21:48.1Z</time>
      </trkpt>
      <trkpt lat="45.81152" lon="4.81004">
        <ele>312</ele>
        <time>2017-09-08T12:21:49.1Z</time>
      </trkpt>
      <trkpt lat="45.81155" lon="4.81004">
        <ele>312</ele>
        <time>2017-09-08T12:21:50.1Z</time>
      </trkpt>
      <trkpt lat="45.81158" lon="4.81005">
        <ele>312</ele>
        <time>2017-09-08T12:21:51.1Z</time>
      </trkpt>
      <trkpt lat="45.8116" lon="4.81006">
        <ele>312</ele>
        <time>2017-09-08T12:21:52.1Z</time>
      </trkpt>
      <trkpt lat="45.81163" lon="4.81006">
        <ele>312</ele>
        <time>2017-09-08T12:21:53.1Z</time>
      </trkpt>
      <trkpt lat="45.81166" lon="4.81007">
        <ele>312</ele>
        <time>2017-09-08T12:21:55.1Z</time>
      </trkpt>
      <trkpt lat="45.81169" lon="4.81008">
        <ele>312</ele>
        <time>2017-09-08T12:21:56.1Z</time>
      </trkpt>
      <trkpt lat="45.81172" lon="4.81008">
        <ele>312</ele>
        <time>2017-09-08T12:21:57.1Z</time>
      </trkpt>
      <trkpt lat="45.81177" lon="4.81009">
        <ele>313</ele>
        <time>2017-09-08T12:21:58.1Z</time>
      </trkpt>
      <trkpt lat="45.81179" lon="4.8101">
        <ele>313</ele>
        <time>2017-09-08T12:21:59.1Z</time>
      </trkpt>
      <trkpt lat="45.81181" lon="4.81011">
        <ele>313</ele>
        <time>2017-09-08T12:22:00.1Z</time>
      </trkpt>
      <trkpt lat="45.81185" lon="4.81012">
        <ele>313</ele>
        <time>2017-09-08T12:22:02.1Z</time>
      </trkpt>
      <trkpt lat="45.81188" lon="4.81013">
        <ele>314</ele>
        <time>2017-09-08T12:22:03.1Z</time>
      </trkpt>
      <trkpt lat="45.81194" lon="4.81014">
        <ele>314</ele>
        <time>2017-09-08T12:22:04.1Z</time>
      </trkpt>
      <trkpt lat="45.81201" lon="4.81015">
        <ele>315</ele>
        <time>2017-09-08T12:22:06.1Z</time>
      </trkpt>
      <trkpt lat="45.81204" lon="4.81016">
        <ele>315</ele>
        <time>2017-09-08T12:22:07.1Z</time>
      </trkpt>
      <trkpt lat="45.81208" lon="4.81016">
        <ele>314</ele>
        <time>2017-09-08T12:22:08.1Z</time>
      </trkpt>
      <trkpt lat="45.81211" lon="4.81017">
        <ele>315</ele>
        <time>2017-09-08T12:22:09.1Z</time>
      </trkpt>
      <trkpt lat="45.81214" lon="4.81018">
        <ele>315</ele>
        <time>2017-09-08T12:22:10.1Z</time>
      </trkpt>
      <trkpt lat="45.81217" lon="4.81019">
        <ele>315</ele>
        <time>2017-09-08T12:22:11.1Z</time>
      </trkpt>
      <trkpt lat="45.8122" lon="4.81019">
        <ele>315</ele>
        <time>2017-09-08T12:22:12.1Z</time>
      </trkpt>
      <trkpt lat="45.81223" lon="4.8102">
        <ele>315</ele>
        <time>2017-09-08T12:22:13.1Z</time>
      </trkpt>
      <trkpt lat="45.81226" lon="4.81021">
        <ele>315</ele>
        <time>2017-09-08T12:22:14.1Z</time>
      </trkpt>
      <trkpt lat="45.81229" lon="4.81021">
        <ele>315</ele>
        <time>2017-09-08T12:22:15.1Z</time>
      </trkpt>
      <trkpt lat="45.81232" lon="4.81022">
        <ele>315</ele>
        <time>2017-09-08T12:22:16.1Z</time>
      </trkpt>
      <trkpt lat="45.81235" lon="4.81023">
        <ele>315</ele>
        <time>2017-09-08T12:22:17.1Z</time>
      </trkpt>
      <trkpt lat="45.8124" lon="4.81025">
        <ele>316</ele>
        <time>2017-09-08T12:22:19.1Z</time>
      </trkpt>
      <trkpt lat="45.81243" lon="4.81026">
        <ele>316</ele>
        <time>2017-09-08T12:22:21.1Z</time>
      </trkpt>
      <trkpt lat="45.81248" lon="4.81028">
        <ele>316</ele>
        <time>2017-09-08T12:22:22.1Z</time>
      </trkpt>
      <trkpt lat="45.81251" lon="4.81028">
        <ele>316</ele>
        <time>2017-09-08T12:22:23.1Z</time>
      </trkpt>
      <trkpt lat="45.81253" lon="4.81029">
        <ele>316</ele>
        <time>2017-09-08T12:22:24.1Z</time>
      </trkpt>
      <trkpt lat="45.81255" lon="4.8103">
        <ele>316</ele>
        <time>2017-09-08T12:22:25.1Z</time>
      </trkpt>
      <trkpt lat="45.81258" lon="4.8103">
        <ele>316</ele>
        <time>2017-09-08T12:22:26.1Z</time>
      </trkpt>
      <trkpt lat="45.8126" lon="4.81031">
        <ele>316</ele>
        <time>2017-09-08T12:22:27.1Z</time>
      </trkpt>
      <trkpt lat="45.81263" lon="4.81032">
        <ele>316</ele>
        <time>2017-09-08T12:22:28.1Z</time>
      </trkpt>
      <trkpt lat="45.81265" lon="4.81033">
        <ele>316</ele>
        <time>2017-09-08T12:22:29.1Z</time>
      </trkpt>
      <trkpt lat="45.81268" lon="4.81033">
        <ele>316</ele>
        <time>2017-09-08T12:22:30.1Z</time>
      </trkpt>
      <trkpt lat="45.81274" lon="4.81034">
        <ele>317</ele>
        <time>2017-09-08T12:22:32.1Z</time>
      </trkpt>
      <trkpt lat="45.81276" lon="4.81034">
        <ele>317</ele>
        <time>2017-09-08T12:22:33.1Z</time>
      </trkpt>
      <trkpt lat="45.81282" lon="4.81034">
        <ele>317</ele>
        <time>2017-09-08T12:22:35.1Z</time>
      </trkpt>
      <trkpt lat="45.81284" lon="4.81034">
        <ele>317</ele>
        <time>2017-09-08T12:22:36.1Z</time>
      </trkpt>
      <trkpt lat="45.81287" lon="4.81034">
        <ele>317</ele>
        <time>2017-09-08T12:22:37.1Z</time>
      </trkpt>
      <trkpt lat="45.81292" lon="4.81034">
        <ele>318</ele>
        <time>2017-09-08T12:22:39.1Z</time>
      </trkpt>
      <trkpt lat="45.81294" lon="4.81034">
        <ele>318</ele>
        <time>2017-09-08T12:22:41.1Z</time>
      </trkpt>
      <trkpt lat="45.81297" lon="4.81034">
        <ele>318</ele>
        <time>2017-09-08T12:22:42.1Z</time>
      </trkpt>
      <trkpt lat="45.813" lon="4.81033">
        <ele>318</ele>
        <time>2017-09-08T12:22:43.1Z</time>
      </trkpt>
      <trkpt lat="45.81305" lon="4.81033">
        <ele>318</ele>
        <time>2017-09-08T12:22:44.1Z</time>
      </trkpt>
      <trkpt lat="45.81307" lon="4.81033">
        <ele>319</ele>
        <time>2017-09-08T12:22:45.1Z</time>
      </trkpt>
      <trkpt lat="45.81309" lon="4.81032">
        <ele>319</ele>
        <time>2017-09-08T12:22:46.1Z</time>
      </trkpt>
      <trkpt lat="45.81313" lon="4.81032">
        <ele>320</ele>
        <time>2017-09-08T12:22:48.1Z</time>
      </trkpt>
      <trkpt lat="45.81318" lon="4.81032">
        <ele>321</ele>
        <time>2017-09-08T12:22:50.1Z</time>
      </trkpt>
      <trkpt lat="45.81321" lon="4.81032">
        <ele>321</ele>
        <time>2017-09-08T12:22:51.1Z</time>
      </trkpt>
      <trkpt lat="45.81323" lon="4.81032">
        <ele>321</ele>
        <time>2017-09-08T12:22:52.1Z</time>
      </trkpt>
      <trkpt lat="45.81328" lon="4.81033">
        <ele>321</ele>
        <time>2017-09-08T12:22:54.1Z</time>
      </trkpt>
      <trkpt lat="45.81332" lon="4.81034">
        <ele>322</ele>
        <time>2017-09-08T12:22:56.1Z</time>
      </trkpt>
      <trkpt lat="45.81334" lon="4.81034">
        <ele>322</ele>
        <time>2017-09-08T12:22:58.1Z</time>
      </trkpt>
      <trkpt lat="45.81339" lon="4.81036">
        <ele>322</ele>
        <time>2017-09-08T12:22:59.1Z</time>
      </trkpt>
      <trkpt lat="45.81343" lon="4.81037">
        <ele>323</ele>
        <time>2017-09-08T12:23:01.1Z</time>
      </trkpt>
      <trkpt lat="45.81345" lon="4.81037">
        <ele>323</ele>
        <time>2017-09-08T12:23:02.1Z</time>
      </trkpt>
      <trkpt lat="45.81347" lon="4.81038">
        <ele>323</ele>
        <time>2017-09-08T12:23:03.1Z</time>
      </trkpt>
      <trkpt lat="45.81351" lon="4.81038">
        <ele>324</ele>
        <time>2017-09-08T12:23:05.1Z</time>
      </trkpt>
      <trkpt lat="45.81356" lon="4.81039">
        <ele>324</ele>
        <time>2017-09-08T12:23:07.1Z</time>
      </trkpt>
      <trkpt lat="45.81358" lon="4.81039">
        <ele>325</ele>
        <time>2017-09-08T12:23:08.1Z</time>
      </trkpt>
      <trkpt lat="45.8136" lon="4.81039">
        <ele>325</ele>
        <time>2017-09-08T12:23:09.1Z</time>
      </trkpt>
      <trkpt lat="45.81363" lon="4.8104">
        <ele>325</ele>
        <time>2017-09-08T12:23:10.1Z</time>
      </trkpt>
      <trkpt lat="45.81367" lon="4.8104">
        <ele>325</ele>
        <time>2017-09-08T12:23:12.1Z</time>
      </trkpt>
      <trkpt lat="45.8137" lon="4.81041">
        <ele>326</ele>
        <time>2017-09-08T12:23:13.1Z</time>
      </trkpt>
      <trkpt lat="45.81372" lon="4.81041">
        <ele>326</ele>
        <time>2017-09-08T12:23:14.1Z</time>
      </trkpt>
      <trkpt lat="45.81374" lon="4.8104">
        <ele>326</ele>
        <time>2017-09-08T12:23:15.1Z</time>
      </trkpt>
      <trkpt lat="45.81376" lon="4.8104">
        <ele>326</ele>
        <time>2017-09-08T12:23:16.1Z</time>
      </trkpt>
      <trkpt lat="45.81378" lon="4.8104">
        <ele>327</ele>
        <time>2017-09-08T12:23:17.1Z</time>
      </trkpt>
      <trkpt lat="45.81383" lon="4.8104">
        <ele>327</ele>
        <time>2017-09-08T12:23:19.1Z</time>
      </trkpt>
      <trkpt lat="45.81387" lon="4.81039">
        <ele>328</ele>
        <time>2017-09-08T12:23:21.1Z</time>
      </trkpt>
      <trkpt lat="45.8139" lon="4.81039">
        <ele>328</ele>
        <time>2017-09-08T12:23:22.1Z</time>
      </trkpt>
      <trkpt lat="45.81392" lon="4.81038">
        <ele>328</ele>
        <time>2017-09-08T12:23:23.1Z</time>
      </trkpt>
      <trkpt lat="45.81397" lon="4.81038">
        <ele>328</ele>
        <time>2017-09-08T12:23:25.1Z</time>
      </trkpt>
      <trkpt lat="45.814" lon="4.81038">
        <ele>328</ele>
        <time>2017-09-08T12:23:26.1Z</time>
      </trkpt>
      <trkpt lat="45.81402" lon="4.81038">
        <ele>329</ele>
        <time>2017-09-08T12:23:27.1Z</time>
      </trkpt>
      <trkpt lat="45.81407" lon="4.81038">
        <ele>329</ele>
        <time>2017-09-08T12:23:29.1Z</time>
      </trkpt>
      <trkpt lat="45.81411" lon="4.81038">
        <ele>329</ele>
        <time>2017-09-08T12:23:31.1Z</time>
      </trkpt>
      <trkpt lat="45.81415" lon="4.81037">
        <ele>329</ele>
        <time>2017-09-08T12:23:33.1Z</time>
      </trkpt>
      <trkpt lat="45.81417" lon="4.81037">
        <ele>329</ele>
        <time>2017-09-08T12:23:34.1Z</time>
      </trkpt>
      <trkpt lat="45.81419" lon="4.81037">
        <ele>329</ele>
        <time>2017-09-08T12:23:35.1Z</time>
      </trkpt>
      <trkpt lat="45.81423" lon="4.81036">
        <ele>329</ele>
        <time>2017-09-08T12:23:37.1Z</time>
      </trkpt>
      <trkpt lat="45.81425" lon="4.81036">
        <ele>329</ele>
        <time>2017-09-08T12:23:38.1Z</time>
      </trkpt>
      <trkpt lat="45.81427" lon="4.81037">
        <ele>329</ele>
        <time>2017-09-08T12:23:39.1Z</time>
      </trkpt>
      <trkpt lat="45.81429" lon="4.81036">
        <ele>330</ele>
        <time>2017-09-08T12:23:40.1Z</time>
      </trkpt>
      <trkpt lat="45.81432" lon="4.81036">
        <ele>330</ele>
        <time>2017-09-08T12:23:41.1Z</time>
      </trkpt>
      <trkpt lat="45.81433" lon="4.81036">
        <ele>330</ele>
        <time>2017-09-08T12:23:42.1Z</time>
      </trkpt>
      <trkpt lat="45.81436" lon="4.81036">
        <ele>330</ele>
        <time>2017-09-08T12:23:43.1Z</time>
      </trkpt>
      <trkpt lat="45.81438" lon="4.81036">
        <ele>331</ele>
        <time>2017-09-08T12:23:44.1Z</time>
      </trkpt>
      <trkpt lat="45.8144" lon="4.81036">
        <ele>331</ele>
        <time>2017-09-08T12:23:45.1Z</time>
      </trkpt>
      <trkpt lat="45.81443" lon="4.81036">
        <ele>331</ele>
        <time>2017-09-08T12:23:46.1Z</time>
      </trkpt>
      <trkpt lat="45.81448" lon="4.81037">
        <ele>332</ele>
        <time>2017-09-08T12:23:48.1Z</time>
      </trkpt>
      <trkpt lat="45.8145" lon="4.81037">
        <ele>332</ele>
        <time>2017-09-08T12:23:49.1Z</time>
      </trkpt>
      <trkpt lat="45.81455" lon="4.81038">
        <ele>332</ele>
        <time>2017-09-08T12:23:51.1Z</time>
      </trkpt>
      <trkpt lat="45.81457" lon="4.81039">
        <ele>332</ele>
        <time>2017-09-08T12:23:52.1Z</time>
      </trkpt>
      <trkpt lat="45.81459" lon="4.81039">
        <ele>332</ele>
        <time>2017-09-08T12:23:53.1Z</time>
      </trkpt>
      <trkpt lat="45.81461" lon="4.81039">
        <ele>332</ele>
        <time>2017-09-08T12:23:54.1Z</time>
      </trkpt>
      <trkpt lat="45.81464" lon="4.8104">
        <ele>333</ele>
        <time>2017-09-08T12:23:55.1Z</time>
      </trkpt>
      <trkpt lat="45.81467" lon="4.8104">
        <ele>333</ele>
        <time>2017-09-08T12:23:56.1Z</time>
      </trkpt>
      <trkpt lat="45.81469" lon="4.8104">
        <ele>333</ele>
        <time>2017-09-08T12:23:57.1Z</time>
      </trkpt>
      <trkpt lat="45.81471" lon="4.8104">
        <ele>333</ele>
        <time>2017-09-08T12:23:58.1Z</time>
      </trkpt>
      <trkpt lat="45.81474" lon="4.8104">
        <ele>334</ele>
        <time>2017-09-08T12:23:59.1Z</time>
      </trkpt>
      <trkpt lat="45.81475" lon="4.8104">
        <ele>334</ele>
        <time>2017-09-08T12:24:00.1Z</time>
      </trkpt>
      <trkpt lat="45.81479" lon="4.8104">
        <ele>334</ele>
        <time>2017-09-08T12:24:03.1Z</time>
      </trkpt>
      <trkpt lat="45.81483" lon="4.8104">
        <ele>334</ele>
        <time>2017-09-08T12:24:04.1Z</time>
      </trkpt>
      <trkpt lat="45.81488" lon="4.8104">
        <ele>335</ele>
        <time>2017-09-08T12:24:06.1Z</time>
      </trkpt>
      <trkpt lat="45.8149" lon="4.8104">
        <ele>335</ele>
        <time>2017-09-08T12:24:07.1Z</time>
      </trkpt>
      <trkpt lat="45.81492" lon="4.8104">
        <ele>335</ele>
        <time>2017-09-08T12:24:08.1Z</time>
      </trkpt>
      <trkpt lat="45.81494" lon="4.8104">
        <ele>335</ele>
        <time>2017-09-08T12:24:09.1Z</time>
      </trkpt>
      <trkpt lat="45.81497" lon="4.8104">
        <ele>335</ele>
        <time>2017-09-08T12:24:10.1Z</time>
      </trkpt>
      <trkpt lat="45.81499" lon="4.8104">
        <ele>336</ele>
        <time>2017-09-08T12:24:11.1Z</time>
      </trkpt>
      <trkpt lat="45.81501" lon="4.8104">
        <ele>336</ele>
        <time>2017-09-08T12:24:12.1Z</time>
      </trkpt>
      <trkpt lat="45.81503" lon="4.8104">
        <ele>336</ele>
        <time>2017-09-08T12:24:13.1Z</time>
      </trkpt>
      <trkpt lat="45.81506" lon="4.81041">
        <ele>336</ele>
        <time>2017-09-08T12:24:14.1Z</time>
      </trkpt>
      <trkpt lat="45.81508" lon="4.81041">
        <ele>336</ele>
        <time>2017-09-08T12:24:15.1Z</time>
      </trkpt>
      <trkpt lat="45.8151" lon="4.81041">
        <ele>336</ele>
        <time>2017-09-08T12:24:16.1Z</time>
      </trkpt>
      <trkpt lat="45.81513" lon="4.81041">
        <ele>337</ele>
        <time>2017-09-08T12:24:18.1Z</time>
      </trkpt>
      <trkpt lat="45.81515" lon="4.81041">
        <ele>337</ele>
        <time>2017-09-08T12:24:19.1Z</time>
      </trkpt>
      <trkpt lat="45.81519" lon="4.81042">
        <ele>338</ele>
        <time>2017-09-08T12:24:21.1Z</time>
      </trkpt>
      <trkpt lat="45.81521" lon="4.81042">
        <ele>338</ele>
        <time>2017-09-08T12:24:22.1Z</time>
      </trkpt>
      <trkpt lat="45.81522" lon="4.81043">
        <ele>338</ele>
        <time>2017-09-08T12:24:23.1Z</time>
      </trkpt>
      <trkpt lat="45.81524" lon="4.81043">
        <ele>339</ele>
        <time>2017-09-08T12:24:24.1Z</time>
      </trkpt>
      <trkpt lat="45.81529" lon="4.81044">
        <ele>339</ele>
        <time>2017-09-08T12:24:26.1Z</time>
      </trkpt>
      <trkpt lat="45.81533" lon="4.81044">
        <ele>339</ele>
        <time>2017-09-08T12:24:28.1Z</time>
      </trkpt>
      <trkpt lat="45.81536" lon="4.81043">
        <ele>339</ele>
        <time>2017-09-08T12:24:29.1Z</time>
      </trkpt>
      <trkpt lat="45.8154" lon="4.81044">
        <ele>339</ele>
        <time>2017-09-08T12:24:31.1Z</time>
      </trkpt>
      <trkpt lat="45.81544" lon="4.81044">
        <ele>339</ele>
        <time>2017-09-08T12:24:33.1Z</time>
      </trkpt>
      <trkpt lat="45.81548" lon="4.81044">
        <ele>340</ele>
        <time>2017-09-08T12:24:35.1Z</time>
      </trkpt>
      <trkpt lat="45.81551" lon="4.81044">
        <ele>340</ele>
        <time>2017-09-08T12:24:36.1Z</time>
      </trkpt>
      <trkpt lat="45.81553" lon="4.81045">
        <ele>340</ele>
        <time>2017-09-08T12:24:37.1Z</time>
      </trkpt>
      <trkpt lat="45.81557" lon="4.81045">
        <ele>340</ele>
        <time>2017-09-08T12:24:39.1Z</time>
      </trkpt>
      <trkpt lat="45.81559" lon="4.81045">
        <ele>340</ele>
        <time>2017-09-08T12:24:40.1Z</time>
      </trkpt>
      <trkpt lat="45.81562" lon="4.81044">
        <ele>341</ele>
        <time>2017-09-08T12:24:42.1Z</time>
      </trkpt>
      <trkpt lat="45.81565" lon="4.81043">
        <ele>341</ele>
        <time>2017-09-08T12:24:44.1Z</time>
      </trkpt>
      <trkpt lat="45.81569" lon="4.81042">
        <ele>342</ele>
        <time>2017-09-08T12:24:46.1Z</time>
      </trkpt>
      <trkpt lat="45.8157" lon="4.81042">
        <ele>342</ele>
        <time>2017-09-08T12:24:47.1Z</time>
      </trkpt>
      <trkpt lat="45.81572" lon="4.81042">
        <ele>343</ele>
        <time>2017-09-08T12:24:48.1Z</time>
      </trkpt>
      <trkpt lat="45.81574" lon="4.81042">
        <ele>343</ele>
        <time>2017-09-08T12:24:49.1Z</time>
      </trkpt>
      <trkpt lat="45.81576" lon="4.81042">
        <ele>343</ele>
        <time>2017-09-08T12:24:50.1Z</time>
      </trkpt>
      <trkpt lat="45.81577" lon="4.81042">
        <ele>343</ele>
        <time>2017-09-08T12:24:51.1Z</time>
      </trkpt>
      <trkpt lat="45.81581" lon="4.81042">
        <ele>343</ele>
        <time>2017-09-08T12:24:53.1Z</time>
      </trkpt>
      <trkpt lat="45.81582" lon="4.81042">
        <ele>343</ele>
        <time>2017-09-08T12:24:54.1Z</time>
      </trkpt>
      <trkpt lat="45.81584" lon="4.81042">
        <ele>343</ele>
        <time>2017-09-08T12:24:56.1Z</time>
      </trkpt>
      <trkpt lat="45.81588" lon="4.81042">
        <ele>344</ele>
        <time>2017-09-08T12:24:57.1Z</time>
      </trkpt>
      <trkpt lat="45.81592" lon="4.81041">
        <ele>344</ele>
        <time>2017-09-08T12:24:59.1Z</time>
      </trkpt>
      <trkpt lat="45.81596" lon="4.81041">
        <ele>344</ele>
        <time>2017-09-08T12:25:01.1Z</time>
      </trkpt>
      <trkpt lat="45.81599" lon="4.81041">
        <ele>344</ele>
        <time>2017-09-08T12:25:02.1Z</time>
      </trkpt>
      <trkpt lat="45.81601" lon="4.81041">
        <ele>344</ele>
        <time>2017-09-08T12:25:03.1Z</time>
      </trkpt>
      <trkpt lat="45.81603" lon="4.81042">
        <ele>345</ele>
        <time>2017-09-08T12:25:04.1Z</time>
      </trkpt>
      <trkpt lat="45.81606" lon="4.81042">
        <ele>345</ele>
        <time>2017-09-08T12:25:05.1Z</time>
      </trkpt>
      <trkpt lat="45.81608" lon="4.81042">
        <ele>345</ele>
        <time>2017-09-08T12:25:06.1Z</time>
      </trkpt>
      <trkpt lat="45.8161" lon="4.81042">
        <ele>345</ele>
        <time>2017-09-08T12:25:08.1Z</time>
      </trkpt>
      <trkpt lat="45.81615" lon="4.81042">
        <ele>345</ele>
        <time>2017-09-08T12:25:09.1Z</time>
      </trkpt>
      <trkpt lat="45.81618" lon="4.81043">
        <ele>345</ele>
        <time>2017-09-08T12:25:10.1Z</time>
      </trkpt>
      <trkpt lat="45.81622" lon="4.81043">
        <ele>346</ele>
        <time>2017-09-08T12:25:12.1Z</time>
      </trkpt>
      <trkpt lat="45.81627" lon="4.81042">
        <ele>346</ele>
        <time>2017-09-08T12:25:14.1Z</time>
      </trkpt>
      <trkpt lat="45.81632" lon="4.81042">
        <ele>346</ele>
        <time>2017-09-08T12:25:16.1Z</time>
      </trkpt>
      <trkpt lat="45.81634" lon="4.81041">
        <ele>346</ele>
        <time>2017-09-08T12:25:17.1Z</time>
      </trkpt>
      <trkpt lat="45.81636" lon="4.81041">
        <ele>346</ele>
        <time>2017-09-08T12:25:18.1Z</time>
      </trkpt>
      <trkpt lat="45.81639" lon="4.8104">
        <ele>347</ele>
        <time>2017-09-08T12:25:19.1Z</time>
      </trkpt>
      <trkpt lat="45.81644" lon="4.8104">
        <ele>347</ele>
        <time>2017-09-08T12:25:21.1Z</time>
      </trkpt>
      <trkpt lat="45.81646" lon="4.8104">
        <ele>347</ele>
        <time>2017-09-08T12:25:22.1Z</time>
      </trkpt>
      <trkpt lat="45.81649" lon="4.8104">
        <ele>347</ele>
        <time>2017-09-08T12:25:23.1Z</time>
      </trkpt>
      <trkpt lat="45.81654" lon="4.81039">
        <ele>347</ele>
        <time>2017-09-08T12:25:25.1Z</time>
      </trkpt>
      <trkpt lat="45.81656" lon="4.81039">
        <ele>348</ele>
        <time>2017-09-08T12:25:26.1Z</time>
      </trkpt>
      <trkpt lat="45.81659" lon="4.81039">
        <ele>348</ele>
        <time>2017-09-08T12:25:27.1Z</time>
      </trkpt>
      <trkpt lat="45.81664" lon="4.8104">
        <ele>348</ele>
        <time>2017-09-08T12:25:29.1Z</time>
      </trkpt>
      <trkpt lat="45.8167" lon="4.81042">
        <ele>348</ele>
        <time>2017-09-08T12:25:31.1Z</time>
      </trkpt>
      <trkpt lat="45.81672" lon="4.81042">
        <ele>348</ele>
        <time>2017-09-08T12:25:32.1Z</time>
      </trkpt>
      <trkpt lat="45.81675" lon="4.81043">
        <ele>348</ele>
        <time>2017-09-08T12:25:33.1Z</time>
      </trkpt>
      <trkpt lat="45.81677" lon="4.81044">
        <ele>349</ele>
        <time>2017-09-08T12:25:35.1Z</time>
      </trkpt>
      <trkpt lat="45.81682" lon="4.81045">
        <ele>349</ele>
        <time>2017-09-08T12:25:36.1Z</time>
      </trkpt>
      <trkpt lat="45.81684" lon="4.81046">
        <ele>349</ele>
        <time>2017-09-08T12:25:37.1Z</time>
      </trkpt>
      <trkpt lat="45.81687" lon="4.81046">
        <ele>349</ele>
        <time>2017-09-08T12:25:38.1Z</time>
      </trkpt>
      <trkpt lat="45.81689" lon="4.81047">
        <ele>349</ele>
        <time>2017-09-08T12:25:39.1Z</time>
      </trkpt>
      <trkpt lat="45.81691" lon="4.81048">
        <ele>350</ele>
        <time>2017-09-08T12:25:40.1Z</time>
      </trkpt>
      <trkpt lat="45.81694" lon="4.81048">
        <ele>350</ele>
        <time>2017-09-08T12:25:41.1Z</time>
      </trkpt>
      <trkpt lat="45.81696" lon="4.81049">
        <ele>350</ele>
        <time>2017-09-08T12:25:42.1Z</time>
      </trkpt>
      <trkpt lat="45.81698" lon="4.8105">
        <ele>350</ele>
        <time>2017-09-08T12:25:43.1Z</time>
      </trkpt>
      <trkpt lat="45.81703" lon="4.81052">
        <ele>350</ele>
        <time>2017-09-08T12:25:45.1Z</time>
      </trkpt>
      <trkpt lat="45.81707" lon="4.81054">
        <ele>350</ele>
        <time>2017-09-08T12:25:47.1Z</time>
      </trkpt>
      <trkpt lat="45.81709" lon="4.81054">
        <ele>350</ele>
        <time>2017-09-08T12:25:48.1Z</time>
      </trkpt>
      <trkpt lat="45.81714" lon="4.81056">
        <ele>351</ele>
        <time>2017-09-08T12:25:50.1Z</time>
      </trkpt>
      <trkpt lat="45.81716" lon="4.81056">
        <ele>351</ele>
        <time>2017-09-08T12:25:51.1Z</time>
      </trkpt>
      <trkpt lat="45.81718" lon="4.81057">
        <ele>351</ele>
        <time>2017-09-08T12:25:52.1Z</time>
      </trkpt>
      <trkpt lat="45.81722" lon="4.81058">
        <ele>352</ele>
        <time>2017-09-08T12:25:54.1Z</time>
      </trkpt>
      <trkpt lat="45.81724" lon="4.81059">
        <ele>352</ele>
        <time>2017-09-08T12:25:55.1Z</time>
      </trkpt>
      <trkpt lat="45.81729" lon="4.81059">
        <ele>353</ele>
        <time>2017-09-08T12:25:57.1Z</time>
      </trkpt>
      <trkpt lat="45.81731" lon="4.81059">
        <ele>353</ele>
        <time>2017-09-08T12:25:58.1Z</time>
      </trkpt>
      <trkpt lat="45.81733" lon="4.81059">
        <ele>354</ele>
        <time>2017-09-08T12:25:59.1Z</time>
      </trkpt>
      <trkpt lat="45.81737" lon="4.81059">
        <ele>354</ele>
        <time>2017-09-08T12:26:01.1Z</time>
      </trkpt>
      <trkpt lat="45.81739" lon="4.81058">
        <ele>354</ele>
        <time>2017-09-08T12:26:03.1Z</time>
      </trkpt>
      <trkpt lat="45.81743" lon="4.81057">
        <ele>354</ele>
        <time>2017-09-08T12:26:04.1Z</time>
      </trkpt>
      <trkpt lat="45.81747" lon="4.81056">
        <ele>355</ele>
        <time>2017-09-08T12:26:06.1Z</time>
      </trkpt>
      <trkpt lat="45.81749" lon="4.81055">
        <ele>355</ele>
        <time>2017-09-08T12:26:07.1Z</time>
      </trkpt>
      <trkpt lat="45.81753" lon="4.81053">
        <ele>355</ele>
        <time>2017-09-08T12:26:09.1Z</time>
      </trkpt>
      <trkpt lat="45.81758" lon="4.81051">
        <ele>355</ele>
        <time>2017-09-08T12:26:11.1Z</time>
      </trkpt>
      <trkpt lat="45.8176" lon="4.8105">
        <ele>355</ele>
        <time>2017-09-08T12:26:12.1Z</time>
      </trkpt>
      <trkpt lat="45.81762" lon="4.81049">
        <ele>355</ele>
        <time>2017-09-08T12:26:13.1Z</time>
      </trkpt>
      <trkpt lat="45.81768" lon="4.81047">
        <ele>355</ele>
        <time>2017-09-08T12:26:15.1Z</time>
      </trkpt>
      <trkpt lat="45.8177" lon="4.81046">
        <ele>355</ele>
        <time>2017-09-08T12:26:16.1Z</time>
      </trkpt>
      <trkpt lat="45.81773" lon="4.81045">
        <ele>355</ele>
        <time>2017-09-08T12:26:17.1Z</time>
      </trkpt>
      <trkpt lat="45.81776" lon="4.81044">
        <ele>356</ele>
        <time>2017-09-08T12:26:18.1Z</time>
      </trkpt>
      <trkpt lat="45.81778" lon="4.81044">
        <ele>356</ele>
        <time>2017-09-08T12:26:19.1Z</time>
      </trkpt>
      <trkpt lat="45.81781" lon="4.81043">
        <ele>356</ele>
        <time>2017-09-08T12:26:20.1Z</time>
      </trkpt>
      <trkpt lat="45.81784" lon="4.81042">
        <ele>356</ele>
        <time>2017-09-08T12:26:21.1Z</time>
      </trkpt>
      <trkpt lat="45.81787" lon="4.81042">
        <ele>356</ele>
        <time>2017-09-08T12:26:22.1Z</time>
      </trkpt>
      <trkpt lat="45.8179" lon="4.81041">
        <ele>356</ele>
        <time>2017-09-08T12:26:23.1Z</time>
      </trkpt>
      <trkpt lat="45.81793" lon="4.81041">
        <ele>356</ele>
        <time>2017-09-08T12:26:24.1Z</time>
      </trkpt>
      <trkpt lat="45.81797" lon="4.8104">
        <ele>356</ele>
        <time>2017-09-08T12:26:25.1Z</time>
      </trkpt>
      <trkpt lat="45.818" lon="4.8104">
        <ele>356</ele>
        <time>2017-09-08T12:26:26.1Z</time>
      </trkpt>
      <trkpt lat="45.81804" lon="4.81039">
        <ele>356</ele>
        <time>2017-09-08T12:26:27.1Z</time>
      </trkpt>
      <trkpt lat="45.8181" lon="4.81039">
        <ele>356</ele>
        <time>2017-09-08T12:26:29.1Z</time>
      </trkpt>
      <trkpt lat="45.81814" lon="4.81038">
        <ele>356</ele>
        <time>2017-09-08T12:26:30.1Z</time>
      </trkpt>
      <trkpt lat="45.81818" lon="4.81038">
        <ele>356</ele>
        <time>2017-09-08T12:26:31.1Z</time>
      </trkpt>
      <trkpt lat="45.81821" lon="4.81038">
        <ele>356</ele>
        <time>2017-09-08T12:26:32.1Z</time>
      </trkpt>
      <trkpt lat="45.81824" lon="4.81038">
        <ele>356</ele>
        <time>2017-09-08T12:26:33.1Z</time>
      </trkpt>
      <trkpt lat="45.81827" lon="4.81038">
        <ele>356</ele>
        <time>2017-09-08T12:26:34.1Z</time>
      </trkpt>
      <trkpt lat="45.8183" lon="4.81038">
        <ele>356</ele>
        <time>2017-09-08T12:26:35.1Z</time>
      </trkpt>
      <trkpt lat="45.81836" lon="4.81039">
        <ele>357</ele>
        <time>2017-09-08T12:26:37.1Z</time>
      </trkpt>
      <trkpt lat="45.81839" lon="4.81039">
        <ele>357</ele>
        <time>2017-09-08T12:26:38.1Z</time>
      </trkpt>
      <trkpt lat="45.81842" lon="4.8104">
        <ele>357</ele>
        <time>2017-09-08T12:26:39.1Z</time>
      </trkpt>
      <trkpt lat="45.81845" lon="4.81041">
        <ele>357</ele>
        <time>2017-09-08T12:26:40.1Z</time>
      </trkpt>
      <trkpt lat="45.81847" lon="4.81042">
        <ele>358</ele>
        <time>2017-09-08T12:26:41.1Z</time>
      </trkpt>
      <trkpt lat="45.8185" lon="4.81043">
        <ele>358</ele>
        <time>2017-09-08T12:26:42.1Z</time>
      </trkpt>
      <trkpt lat="45.81852" lon="4.81045">
        <ele>358</ele>
        <time>2017-09-08T12:26:43.1Z</time>
      </trkpt>
      <trkpt lat="45.81855" lon="4.81046">
        <ele>358</ele>
        <time>2017-09-08T12:26:44.1Z</time>
      </trkpt>
      <trkpt lat="45.81857" lon="4.81047">
        <ele>359</ele>
        <time>2017-09-08T12:26:45.1Z</time>
      </trkpt>
      <trkpt lat="45.81862" lon="4.81049">
        <ele>359</ele>
        <time>2017-09-08T12:26:47.1Z</time>
      </trkpt>
      <trkpt lat="45.81864" lon="4.81051">
        <ele>359</ele>
        <time>2017-09-08T12:26:48.1Z</time>
      </trkpt>
      <trkpt lat="45.81866" lon="4.81052">
        <ele>359</ele>
        <time>2017-09-08T12:26:49.1Z</time>
      </trkpt>
      <trkpt lat="45.81869" lon="4.81053">
        <ele>359</ele>
        <time>2017-09-08T12:26:50.1Z</time>
      </trkpt>
      <trkpt lat="45.81871" lon="4.81054">
        <ele>360</ele>
        <time>2017-09-08T12:26:51.1Z</time>
      </trkpt>
      <trkpt lat="45.81874" lon="4.81056">
        <ele>360</ele>
        <time>2017-09-08T12:26:52.1Z</time>
      </trkpt>
      <trkpt lat="45.81879" lon="4.81058">
        <ele>360</ele>
        <time>2017-09-08T12:26:54.1Z</time>
      </trkpt>
      <trkpt lat="45.81881" lon="4.81059">
        <ele>361</ele>
        <time>2017-09-08T12:26:55.1Z</time>
      </trkpt>
      <trkpt lat="45.81884" lon="4.8106">
        <ele>361</ele>
        <time>2017-09-08T12:26:56.1Z</time>
      </trkpt>
      <trkpt lat="45.81886" lon="4.81062">
        <ele>361</ele>
        <time>2017-09-08T12:26:57.1Z</time>
      </trkpt>
      <trkpt lat="45.81889" lon="4.81063">
        <ele>361</ele>
        <time>2017-09-08T12:26:58.1Z</time>
      </trkpt>
      <trkpt lat="45.81891" lon="4.81064">
        <ele>361</ele>
        <time>2017-09-08T12:26:59.1Z</time>
      </trkpt>
      <trkpt lat="45.81894" lon="4.81065">
        <ele>361</ele>
        <time>2017-09-08T12:27:00.1Z</time>
      </trkpt>
      <trkpt lat="45.81896" lon="4.81067">
        <ele>362</ele>
        <time>2017-09-08T12:27:01.1Z</time>
      </trkpt>
      <trkpt lat="45.81899" lon="4.81068">
        <ele>362</ele>
        <time>2017-09-08T12:27:02.1Z</time>
      </trkpt>
      <trkpt lat="45.81901" lon="4.81069">
        <ele>362</ele>
        <time>2017-09-08T12:27:03.1Z</time>
      </trkpt>
      <trkpt lat="45.81907" lon="4.81071">
        <ele>362</ele>
        <time>2017-09-08T12:27:05.1Z</time>
      </trkpt>
      <trkpt lat="45.81909" lon="4.81071">
        <ele>362</ele>
        <time>2017-09-08T12:27:06.1Z</time>
      </trkpt>
      <trkpt lat="45.81912" lon="4.81072">
        <ele>363</ele>
        <time>2017-09-08T12:27:07.1Z</time>
      </trkpt>
      <trkpt lat="45.81915" lon="4.81073">
        <ele>362</ele>
        <time>2017-09-08T12:27:08.1Z</time>
      </trkpt>
      <trkpt lat="45.81917" lon="4.81074">
        <ele>363</ele>
        <time>2017-09-08T12:27:09.1Z</time>
      </trkpt>
      <trkpt lat="45.8192" lon="4.81075">
        <ele>363</ele>
        <time>2017-09-08T12:27:10.1Z</time>
      </trkpt>
      <trkpt lat="45.81922" lon="4.81075">
        <ele>363</ele>
        <time>2017-09-08T12:27:11.1Z</time>
      </trkpt>
      <trkpt lat="45.81925" lon="4.81076">
        <ele>363</ele>
        <time>2017-09-08T12:27:12.1Z</time>
      </trkpt>
      <trkpt lat="45.81927" lon="4.81077">
        <ele>363</ele>
        <time>2017-09-08T12:27:13.1Z</time>
      </trkpt>
      <trkpt lat="45.8193" lon="4.81077">
        <ele>363</ele>
        <time>2017-09-08T12:27:14.1Z</time>
      </trkpt>
      <trkpt lat="45.81933" lon="4.81078">
        <ele>363</ele>
        <time>2017-09-08T12:27:15.1Z</time>
      </trkpt>
      <trkpt lat="45.81935" lon="4.81079">
        <ele>363</ele>
        <time>2017-09-08T12:27:16.1Z</time>
      </trkpt>
      <trkpt lat="45.81938" lon="4.8108">
        <ele>363</ele>
        <time>2017-09-08T12:27:17.1Z</time>
      </trkpt>
      <trkpt lat="45.81941" lon="4.81081">
        <ele>363</ele>
        <time>2017-09-08T12:27:18.1Z</time>
      </trkpt>
      <trkpt lat="45.81943" lon="4.81082">
        <ele>363</ele>
        <time>2017-09-08T12:27:20.1Z</time>
      </trkpt>
      <trkpt lat="45.81949" lon="4.81084">
        <ele>364</ele>
        <time>2017-09-08T12:27:21.1Z</time>
      </trkpt>
      <trkpt lat="45.81952" lon="4.81084">
        <ele>364</ele>
        <time>2017-09-08T12:27:22.1Z</time>
      </trkpt>
      <trkpt lat="45.81954" lon="4.81085">
        <ele>364</ele>
        <time>2017-09-08T12:27:23.1Z</time>
      </trkpt>
      <trkpt lat="45.81957" lon="4.81086">
        <ele>364</ele>
        <time>2017-09-08T12:27:24.1Z</time>
      </trkpt>
      <trkpt lat="45.8196" lon="4.81087">
        <ele>364</ele>
        <time>2017-09-08T12:27:25.1Z</time>
      </trkpt>
      <trkpt lat="45.81962" lon="4.81088">
        <ele>364</ele>
        <time>2017-09-08T12:27:26.1Z</time>
      </trkpt>
      <trkpt lat="45.81965" lon="4.81089">
        <ele>365</ele>
        <time>2017-09-08T12:27:27.1Z</time>
      </trkpt>
      <trkpt lat="45.81967" lon="4.81089">
        <ele>365</ele>
        <time>2017-09-08T12:27:28.1Z</time>
      </trkpt>
      <trkpt lat="45.8197" lon="4.8109">
        <ele>365</ele>
        <time>2017-09-08T12:27:29.1Z</time>
      </trkpt>
      <trkpt lat="45.81973" lon="4.81091">
        <ele>366</ele>
        <time>2017-09-08T12:27:30.1Z</time>
      </trkpt>
      <trkpt lat="45.81975" lon="4.81092">
        <ele>366</ele>
        <time>2017-09-08T12:27:31.1Z</time>
      </trkpt>
      <trkpt lat="45.81978" lon="4.81093">
        <ele>366</ele>
        <time>2017-09-08T12:27:32.1Z</time>
      </trkpt>
      <trkpt lat="45.81983" lon="4.81095">
        <ele>366</ele>
        <time>2017-09-08T12:27:34.1Z</time>
      </trkpt>
      <trkpt lat="45.81985" lon="4.81096">
        <ele>367</ele>
        <time>2017-09-08T12:27:35.1Z</time>
      </trkpt>
      <trkpt lat="45.81988" lon="4.81097">
        <ele>367</ele>
        <time>2017-09-08T12:27:36.1Z</time>
      </trkpt>
      <trkpt lat="45.8199" lon="4.81098">
        <ele>367</ele>
        <time>2017-09-08T12:27:37.1Z</time>
      </trkpt>
      <trkpt lat="45.81993" lon="4.81099">
        <ele>367</ele>
        <time>2017-09-08T12:27:38.1Z</time>
      </trkpt>
      <trkpt lat="45.81995" lon="4.81099">
        <ele>367</ele>
        <time>2017-09-08T12:27:39.1Z</time>
      </trkpt>
      <trkpt lat="45.81997" lon="4.811">
        <ele>367</ele>
        <time>2017-09-08T12:27:40.1Z</time>
      </trkpt>
      <trkpt lat="45.82" lon="4.81102">
        <ele>368</ele>
        <time>2017-09-08T12:27:41.1Z</time>
      </trkpt>
      <trkpt lat="45.82001" lon="4.81103">
        <ele>368</ele>
        <time>2017-09-08T12:27:43.1Z</time>
      </trkpt>
      <trkpt lat="45.82005" lon="4.81108">
        <ele>368</ele>
        <time>2017-09-08T12:27:44.1Z</time>
      </trkpt>
      <trkpt lat="45.82007" lon="4.8111">
        <ele>368</ele>
        <time>2017-09-08T12:27:45.1Z</time>
      </trkpt>
      <trkpt lat="45.82009" lon="4.81112">
        <ele>368</ele>
        <time>2017-09-08T12:27:46.1Z</time>
      </trkpt>
      <trkpt lat="45.8201" lon="4.81115">
        <ele>369</ele>
        <time>2017-09-08T12:27:47.1Z</time>
      </trkpt>
      <trkpt lat="45.82012" lon="4.81118">
        <ele>369</ele>
        <time>2017-09-08T12:27:48.1Z</time>
      </trkpt>
      <trkpt lat="45.82013" lon="4.81121">
        <ele>369</ele>
        <time>2017-09-08T12:27:49.1Z</time>
      </trkpt>
      <trkpt lat="45.82014" lon="4.81129">
        <ele>369</ele>
        <time>2017-09-08T12:27:51.1Z</time>
      </trkpt>
      <trkpt lat="45.82014" lon="4.81132">
        <ele>369</ele>
        <time>2017-09-08T12:27:52.1Z</time>
      </trkpt>
      <trkpt lat="45.82013" lon="4.81139">
        <ele>369</ele>
        <time>2017-09-08T12:27:54.1Z</time>
      </trkpt>
      <trkpt lat="45.82013" lon="4.81147">
        <ele>369</ele>
        <time>2017-09-08T12:27:56.1Z</time>
      </trkpt>
      <trkpt lat="45.82014" lon="4.81152">
        <ele>370</ele>
        <time>2017-09-08T12:27:57.1Z</time>
      </trkpt>
      <trkpt lat="45.82014" lon="4.81161">
        <ele>370</ele>
        <time>2017-09-08T12:27:59.1Z</time>
      </trkpt>
      <trkpt lat="45.82014" lon="4.81171">
        <ele>370</ele>
        <time>2017-09-08T12:28:01.1Z</time>
      </trkpt>
      <trkpt lat="45.82013" lon="4.81175">
        <ele>370</ele>
        <time>2017-09-08T12:28:02.1Z</time>
      </trkpt>
      <trkpt lat="45.82012" lon="4.81179">
        <ele>370</ele>
        <time>2017-09-08T12:28:03.1Z</time>
      </trkpt>
      <trkpt lat="45.82011" lon="4.81184">
        <ele>370</ele>
        <time>2017-09-08T12:28:04.1Z</time>
      </trkpt>
      <trkpt lat="45.82009" lon="4.81188">
        <ele>371</ele>
        <time>2017-09-08T12:28:05.1Z</time>
      </trkpt>
      <trkpt lat="45.82008" lon="4.81192">
        <ele>371</ele>
        <time>2017-09-08T12:28:06.1Z</time>
      </trkpt>
      <trkpt lat="45.82006" lon="4.81196">
        <ele>371</ele>
        <time>2017-09-08T12:28:07.1Z</time>
      </trkpt>
      <trkpt lat="45.82002" lon="4.81202">
        <ele>371</ele>
        <time>2017-09-08T12:28:09.1Z</time>
      </trkpt>
      <trkpt lat="45.82" lon="4.81206">
        <ele>372</ele>
        <time>2017-09-08T12:28:10.1Z</time>
      </trkpt>
      <trkpt lat="45.81998" lon="4.81208">
        <ele>372</ele>
        <time>2017-09-08T12:28:11.1Z</time>
      </trkpt>
      <trkpt lat="45.81995" lon="4.81211">
        <ele>372</ele>
        <time>2017-09-08T12:28:12.1Z</time>
      </trkpt>
      <trkpt lat="45.81992" lon="4.81214">
        <ele>372</ele>
        <time>2017-09-08T12:28:13.1Z</time>
      </trkpt>
      <trkpt lat="45.81989" lon="4.81216">
        <ele>372</ele>
        <time>2017-09-08T12:28:14.1Z</time>
      </trkpt>
      <trkpt lat="45.81983" lon="4.81221">
        <ele>372</ele>
        <time>2017-09-08T12:28:16.1Z</time>
      </trkpt>
      <trkpt lat="45.81979" lon="4.81223">
        <ele>372</ele>
        <time>2017-09-08T12:28:17.1Z</time>
      </trkpt>
      <trkpt lat="45.81976" lon="4.81225">
        <ele>373</ele>
        <time>2017-09-08T12:28:18.1Z</time>
      </trkpt>
      <trkpt lat="45.81973" lon="4.81227">
        <ele>373</ele>
        <time>2017-09-08T12:28:19.1Z</time>
      </trkpt>
      <trkpt lat="45.8197" lon="4.81229">
        <ele>373</ele>
        <time>2017-09-08T12:28:20.1Z</time>
      </trkpt>
      <trkpt lat="45.81968" lon="4.81231">
        <ele>373</ele>
        <time>2017-09-08T12:28:21.1Z</time>
      </trkpt>
      <trkpt lat="45.81962" lon="4.81236">
        <ele>373</ele>
        <time>2017-09-08T12:28:23.1Z</time>
      </trkpt>
      <trkpt lat="45.81959" lon="4.81238">
        <ele>374</ele>
        <time>2017-09-08T12:28:24.1Z</time>
      </trkpt>
      <trkpt lat="45.81956" lon="4.8124">
        <ele>374</ele>
        <time>2017-09-08T12:28:25.1Z</time>
      </trkpt>
      <trkpt lat="45.81953" lon="4.81242">
        <ele>374</ele>
        <time>2017-09-08T12:28:26.1Z</time>
      </trkpt>
      <trkpt lat="45.81948" lon="4.81246">
        <ele>374</ele>
        <time>2017-09-08T12:28:28.1Z</time>
      </trkpt>
      <trkpt lat="45.81945" lon="4.81248">
        <ele>375</ele>
        <time>2017-09-08T12:28:29.1Z</time>
      </trkpt>
      <trkpt lat="45.81942" lon="4.81249">
        <ele>375</ele>
        <time>2017-09-08T12:28:30.1Z</time>
      </trkpt>
      <trkpt lat="45.81939" lon="4.8125">
        <ele>375</ele>
        <time>2017-09-08T12:28:31.1Z</time>
      </trkpt>
      <trkpt lat="45.81937" lon="4.81251">
        <ele>375</ele>
        <time>2017-09-08T12:28:32.1Z</time>
      </trkpt>
      <trkpt lat="45.81934" lon="4.81252">
        <ele>375</ele>
        <time>2017-09-08T12:28:33.1Z</time>
      </trkpt>
      <trkpt lat="45.81931" lon="4.81253">
        <ele>376</ele>
        <time>2017-09-08T12:28:34.1Z</time>
      </trkpt>
      <trkpt lat="45.81927" lon="4.81254">
        <ele>376</ele>
        <time>2017-09-08T12:28:35.1Z</time>
      </trkpt>
      <trkpt lat="45.81921" lon="4.81256">
        <ele>376</ele>
        <time>2017-09-08T12:28:37.1Z</time>
      </trkpt>
      <trkpt lat="45.81918" lon="4.81256">
        <ele>376</ele>
        <time>2017-09-08T12:28:38.1Z</time>
      </trkpt>
      <trkpt lat="45.81911" lon="4.81259">
        <ele>376</ele>
        <time>2017-09-08T12:28:40.1Z</time>
      </trkpt>
      <trkpt lat="45.81908" lon="4.8126">
        <ele>377</ele>
        <time>2017-09-08T12:28:41.1Z</time>
      </trkpt>
      <trkpt lat="45.81905" lon="4.81261">
        <ele>377</ele>
        <time>2017-09-08T12:28:42.1Z</time>
      </trkpt>
      <trkpt lat="45.81902" lon="4.81262">
        <ele>377</ele>
        <time>2017-09-08T12:28:43.1Z</time>
      </trkpt>
      <trkpt lat="45.81895" lon="4.81264">
        <ele>377</ele>
        <time>2017-09-08T12:28:45.1Z</time>
      </trkpt>
      <trkpt lat="45.81892" lon="4.81265">
        <ele>377</ele>
        <time>2017-09-08T12:28:46.1Z</time>
      </trkpt>
      <trkpt lat="45.81888" lon="4.81266">
        <ele>377</ele>
        <time>2017-09-08T12:28:47.1Z</time>
      </trkpt>
      <trkpt lat="45.81885" lon="4.81267">
        <ele>377</ele>
        <time>2017-09-08T12:28:48.1Z</time>
      </trkpt>
      <trkpt lat="45.81882" lon="4.81268">
        <ele>377</ele>
        <time>2017-09-08T12:28:49.1Z</time>
      </trkpt>
      <trkpt lat="45.81879" lon="4.81269">
        <ele>378</ele>
        <time>2017-09-08T12:28:50.1Z</time>
      </trkpt>
      <trkpt lat="45.81876" lon="4.8127">
        <ele>378</ele>
        <time>2017-09-08T12:28:51.1Z</time>
      </trkpt>
      <trkpt lat="45.81872" lon="4.8127">
        <ele>378</ele>
        <time>2017-09-08T12:28:52.1Z</time>
      </trkpt>
      <trkpt lat="45.81869" lon="4.81272">
        <ele>378</ele>
        <time>2017-09-08T12:28:53.1Z</time>
      </trkpt>
      <trkpt lat="45.81865" lon="4.81273">
        <ele>378</ele>
        <time>2017-09-08T12:28:54.1Z</time>
      </trkpt>
      <trkpt lat="45.8186" lon="4.81275">
        <ele>379</ele>
        <time>2017-09-08T12:28:56.1Z</time>
      </trkpt>
      <trkpt lat="45.81856" lon="4.81276">
        <ele>379</ele>
        <time>2017-09-08T12:28:57.1Z</time>
      </trkpt>
      <trkpt lat="45.81853" lon="4.81276">
        <ele>379</ele>
        <time>2017-09-08T12:28:58.1Z</time>
      </trkpt>
      <trkpt lat="45.8185" lon="4.81277">
        <ele>380</ele>
        <time>2017-09-08T12:28:59.1Z</time>
      </trkpt>
      <trkpt lat="45.81847" lon="4.81278">
        <ele>380</ele>
        <time>2017-09-08T12:29:00.1Z</time>
      </trkpt>
      <trkpt lat="45.8184" lon="4.8128">
        <ele>380</ele>
        <time>2017-09-08T12:29:02.1Z</time>
      </trkpt>
      <trkpt lat="45.81837" lon="4.81281">
        <ele>380</ele>
        <time>2017-09-08T12:29:03.1Z</time>
      </trkpt>
      <trkpt lat="45.81834" lon="4.81282">
        <ele>380</ele>
        <time>2017-09-08T12:29:04.1Z</time>
      </trkpt>
      <trkpt lat="45.81831" lon="4.81283">
        <ele>380</ele>
        <time>2017-09-08T12:29:05.1Z</time>
      </trkpt>
      <trkpt lat="45.81828" lon="4.81284">
        <ele>380</ele>
        <time>2017-09-08T12:29:06.1Z</time>
      </trkpt>
      <trkpt lat="45.81824" lon="4.81285">
        <ele>381</ele>
        <time>2017-09-08T12:29:07.1Z</time>
      </trkpt>
      <trkpt lat="45.81821" lon="4.81286">
        <ele>381</ele>
        <time>2017-09-08T12:29:08.1Z</time>
      </trkpt>
      <trkpt lat="45.81818" lon="4.81287">
        <ele>381</ele>
        <time>2017-09-08T12:29:09.1Z</time>
      </trkpt>
      <trkpt lat="45.81814" lon="4.81289">
        <ele>381</ele>
        <time>2017-09-08T12:29:10.1Z</time>
      </trkpt>
      <trkpt lat="45.81808" lon="4.81291">
        <ele>381</ele>
        <time>2017-09-08T12:29:12.1Z</time>
      </trkpt>
      <trkpt lat="45.81805" lon="4.81292">
        <ele>381</ele>
        <time>2017-09-08T12:29:13.1Z</time>
      </trkpt>
      <trkpt lat="45.81801" lon="4.81293">
        <ele>381</ele>
        <time>2017-09-08T12:29:14.1Z</time>
      </trkpt>
      <trkpt lat="45.81798" lon="4.81294">
        <ele>381</ele>
        <time>2017-09-08T12:29:15.1Z</time>
      </trkpt>
      <trkpt lat="45.81795" lon="4.81295">
        <ele>382</ele>
        <time>2017-09-08T12:29:16.1Z</time>
      </trkpt>
      <trkpt lat="45.81792" lon="4.81296">
        <ele>382</ele>
        <time>2017-09-08T12:29:17.1Z</time>
      </trkpt>
      <trkpt lat="45.81788" lon="4.81297">
        <ele>382</ele>
        <time>2017-09-08T12:29:18.1Z</time>
      </trkpt>
      <trkpt lat="45.81785" lon="4.81299">
        <ele>382</ele>
        <time>2017-09-08T12:29:19.1Z</time>
      </trkpt>
      <trkpt lat="45.81779" lon="4.81302">
        <ele>383</ele>
        <time>2017-09-08T12:29:21.1Z</time>
      </trkpt>
      <trkpt lat="45.81776" lon="4.81303">
        <ele>383</ele>
        <time>2017-09-08T12:29:22.1Z</time>
      </trkpt>
      <trkpt lat="45.8177" lon="4.81307">
        <ele>383</ele>
        <time>2017-09-08T12:29:24.1Z</time>
      </trkpt>
      <trkpt lat="45.81767" lon="4.81308">
        <ele>383</ele>
        <time>2017-09-08T12:29:25.1Z</time>
      </trkpt>
      <trkpt lat="45.81764" lon="4.8131">
        <ele>383</ele>
        <time>2017-09-08T12:29:26.1Z</time>
      </trkpt>
      <trkpt lat="45.81758" lon="4.81314">
        <ele>383</ele>
        <time>2017-09-08T12:29:28.1Z</time>
      </trkpt>
      <trkpt lat="45.81755" lon="4.81316">
        <ele>383</ele>
        <time>2017-09-08T12:29:29.1Z</time>
      </trkpt>
      <trkpt lat="45.81752" lon="4.81319">
        <ele>383</ele>
        <time>2017-09-08T12:29:30.1Z</time>
      </trkpt>
      <trkpt lat="45.81749" lon="4.81321">
        <ele>383</ele>
        <time>2017-09-08T12:29:31.1Z</time>
      </trkpt>
      <trkpt lat="45.81742" lon="4.81326">
        <ele>383</ele>
        <time>2017-09-08T12:29:33.1Z</time>
      </trkpt>
      <trkpt lat="45.81739" lon="4.81328">
        <ele>384</ele>
        <time>2017-09-08T12:29:34.1Z</time>
      </trkpt>
      <trkpt lat="45.81736" lon="4.8133">
        <ele>384</ele>
        <time>2017-09-08T12:29:35.1Z</time>
      </trkpt>
      <trkpt lat="45.81734" lon="4.81332">
        <ele>384</ele>
        <time>2017-09-08T12:29:36.1Z</time>
      </trkpt>
      <trkpt lat="45.81731" lon="4.81333">
        <ele>384</ele>
        <time>2017-09-08T12:29:37.1Z</time>
      </trkpt>
      <trkpt lat="45.81728" lon="4.81335">
        <ele>384</ele>
        <time>2017-09-08T12:29:38.1Z</time>
      </trkpt>
      <trkpt lat="45.81721" lon="4.8134">
        <ele>384</ele>
        <time>2017-09-08T12:29:40.1Z</time>
      </trkpt>
      <trkpt lat="45.81715" lon="4.81346">
        <ele>384</ele>
        <time>2017-09-08T12:29:42.1Z</time>
      </trkpt>
      <trkpt lat="45.81712" lon="4.81348">
        <ele>384</ele>
        <time>2017-09-08T12:29:43.1Z</time>
      </trkpt>
      <trkpt lat="45.81705" lon="4.81353">
        <ele>384</ele>
        <time>2017-09-08T12:29:45.1Z</time>
      </trkpt>
      <trkpt lat="45.81702" lon="4.81356">
        <ele>385</ele>
        <time>2017-09-08T12:29:46.1Z</time>
      </trkpt>
      <trkpt lat="45.81699" lon="4.81359">
        <ele>385</ele>
        <time>2017-09-08T12:29:47.1Z</time>
      </trkpt>
      <trkpt lat="45.81692" lon="4.81364">
        <ele>385</ele>
        <time>2017-09-08T12:29:49.1Z</time>
      </trkpt>
      <trkpt lat="45.81689" lon="4.81366">
        <ele>385</ele>
        <time>2017-09-08T12:29:50.1Z</time>
      </trkpt>
      <trkpt lat="45.81682" lon="4.81371">
        <ele>386</ele>
        <time>2017-09-08T12:29:52.1Z</time>
      </trkpt>
      <trkpt lat="45.81679" lon="4.81373">
        <ele>386</ele>
        <time>2017-09-08T12:29:53.1Z</time>
      </trkpt>
      <trkpt lat="45.81676" lon="4.81376">
        <ele>386</ele>
        <time>2017-09-08T12:29:54.1Z</time>
      </trkpt>
      <trkpt lat="45.81673" lon="4.81378">
        <ele>387</ele>
        <time>2017-09-08T12:29:55.1Z</time>
      </trkpt>
      <trkpt lat="45.81668" lon="4.81386">
        <ele>387</ele>
        <time>2017-09-08T12:29:57.1Z</time>
      </trkpt>
      <trkpt lat="45.81665" lon="4.8139">
        <ele>387</ele>
        <time>2017-09-08T12:29:58.1Z</time>
      </trkpt>
      <trkpt lat="45.81662" lon="4.81395">
        <ele>387</ele>
        <time>2017-09-08T12:29:59.1Z</time>
      </trkpt>
      <trkpt lat="45.81657" lon="4.81406">
        <ele>387</ele>
        <time>2017-09-08T12:30:01.1Z</time>
      </trkpt>
      <trkpt lat="45.81652" lon="4.81418">
        <ele>387</ele>
        <time>2017-09-08T12:30:03.1Z</time>
      </trkpt>
      <trkpt lat="45.81648" lon="4.81432">
        <ele>386</ele>
        <time>2017-09-08T12:30:05.1Z</time>
      </trkpt>
      <trkpt lat="45.81646" lon="4.8144">
        <ele>386</ele>
        <time>2017-09-08T12:30:06.1Z</time>
      </trkpt>
      <trkpt lat="45.81643" lon="4.81458">
        <ele>385</ele>
        <time>2017-09-08T12:30:08.1Z</time>
      </trkpt>
      <trkpt lat="45.81642" lon="4.81467">
        <ele>385</ele>
        <time>2017-09-08T12:30:09.1Z</time>
      </trkpt>
      <trkpt lat="45.8164" lon="4.81477">
        <ele>385</ele>
        <time>2017-09-08T12:30:10.1Z</time>
      </trkpt>
      <trkpt lat="45.81638" lon="4.81488">
        <ele>385</ele>
        <time>2017-09-08T12:30:11.1Z</time>
      </trkpt>
      <trkpt lat="45.81636" lon="4.81498">
        <ele>384</ele>
        <time>2017-09-08T12:30:12.1Z</time>
      </trkpt>
      <trkpt lat="45.81632" lon="4.8152">
        <ele>384</ele>
        <time>2017-09-08T12:30:14.1Z</time>
      </trkpt>
      <trkpt lat="45.8163" lon="4.81532">
        <ele>383</ele>
        <time>2017-09-08T12:30:15.1Z</time>
      </trkpt>
      <trkpt lat="45.81628" lon="4.81543">
        <ele>383</ele>
        <time>2017-09-08T12:30:16.1Z</time>
      </trkpt>
      <trkpt lat="45.81625" lon="4.81566">
        <ele>383</ele>
        <time>2017-09-08T12:30:18.1Z</time>
      </trkpt>
      <trkpt lat="45.81623" lon="4.81578">
        <ele>383</ele>
        <time>2017-09-08T12:30:19.1Z</time>
      </trkpt>
      <trkpt lat="45.81621" lon="4.81589">
        <ele>383</ele>
        <time>2017-09-08T12:30:20.1Z</time>
      </trkpt>
      <trkpt lat="45.81619" lon="4.816">
        <ele>383</ele>
        <time>2017-09-08T12:30:21.1Z</time>
      </trkpt>
      <trkpt lat="45.81617" lon="4.8162">
        <ele>383</ele>
        <time>2017-09-08T12:30:23.1Z</time>
      </trkpt>
      <trkpt lat="45.81615" lon="4.81629">
        <ele>382</ele>
        <time>2017-09-08T12:30:24.1Z</time>
      </trkpt>
      <trkpt lat="45.81612" lon="4.81638">
        <ele>382</ele>
        <time>2017-09-08T12:30:25.1Z</time>
      </trkpt>
      <trkpt lat="45.81604" lon="4.81656">
        <ele>381</ele>
        <time>2017-09-08T12:30:27.1Z</time>
      </trkpt>
      <trkpt lat="45.81599" lon="4.81666">
        <ele>381</ele>
        <time>2017-09-08T12:30:28.1Z</time>
      </trkpt>
      <trkpt lat="45.81595" lon="4.81678">
        <ele>380</ele>
        <time>2017-09-08T12:30:29.1Z</time>
      </trkpt>
      <trkpt lat="45.81593" lon="4.8169">
        <ele>379</ele>
        <time>2017-09-08T12:30:30.1Z</time>
      </trkpt>
      <trkpt lat="45.81592" lon="4.81703">
        <ele>379</ele>
        <time>2017-09-08T12:30:31.1Z</time>
      </trkpt>
      <trkpt lat="45.81589" lon="4.81729">
        <ele>377</ele>
        <time>2017-09-08T12:30:33.1Z</time>
      </trkpt>
      <trkpt lat="45.81587" lon="4.81742">
        <ele>377</ele>
        <time>2017-09-08T12:30:34.1Z</time>
      </trkpt>
      <trkpt lat="45.81586" lon="4.81754">
        <ele>376</ele>
        <time>2017-09-08T12:30:35.1Z</time>
      </trkpt>
      <trkpt lat="45.81584" lon="4.81766">
        <ele>376</ele>
        <time>2017-09-08T12:30:36.1Z</time>
      </trkpt>
      <trkpt lat="45.81583" lon="4.81777">
        <ele>375</ele>
        <time>2017-09-08T12:30:37.1Z</time>
      </trkpt>
      <trkpt lat="45.81582" lon="4.81786">
        <ele>374</ele>
        <time>2017-09-08T12:30:38.1Z</time>
      </trkpt>
      <trkpt lat="45.81581" lon="4.81795">
        <ele>373</ele>
        <time>2017-09-08T12:30:39.1Z</time>
      </trkpt>
      <trkpt lat="45.8158" lon="4.81808">
        <ele>372</ele>
        <time>2017-09-08T12:30:41.1Z</time>
      </trkpt>
      <trkpt lat="45.8158" lon="4.81812">
        <ele>372</ele>
        <time>2017-09-08T12:30:42.1Z</time>
      </trkpt>
      <trkpt lat="45.8158" lon="4.81815">
        <ele>370</ele>
        <time>2017-09-08T12:30:44.1Z</time>
      </trkpt>
      <trkpt lat="45.8158" lon="4.81816">
        <ele>370</ele>
        <time>2017-09-08T12:30:45.1Z</time>
      </trkpt>
      <trkpt lat="45.8158" lon="4.81816">
        <ele>369</ele>
        <time>2017-09-08T12:30:46.1Z</time>
      </trkpt>
      <trkpt lat="45.8158" lon="4.81817">
        <ele>369</ele>
        <time>2017-09-08T12:30:48.1Z</time>
      </trkpt>
      <trkpt lat="45.8158" lon="4.81818">
        <ele>369</ele>
        <time>2017-09-08T12:30:49.1Z</time>
      </trkpt>
      <trkpt lat="45.8158" lon="4.81818">
        <ele>369</ele>
        <time>2017-09-08T12:30:50.1Z</time>
      </trkpt>
      <trkpt lat="45.81581" lon="4.81819">
        <ele>369</ele>
        <time>2017-09-08T12:30:52.1Z</time>
      </trkpt>
      <trkpt lat="45.81581" lon="4.8182">
        <ele>369</ele>
        <time>2017-09-08T12:30:53.1Z</time>
      </trkpt>
      <trkpt lat="45.81581" lon="4.8182">
        <ele>369</ele>
        <time>2017-09-08T12:30:55.1Z</time>
      </trkpt>
      <trkpt lat="45.81581" lon="4.81821">
        <ele>369</ele>
        <time>2017-09-08T12:30:57.1Z</time>
      </trkpt>
      <trkpt lat="45.81582" lon="4.81822">
        <ele>369</ele>
        <time>2017-09-08T12:30:59.1Z</time>
      </trkpt>
      <trkpt lat="45.81582" lon="4.81823">
        <ele>369</ele>
        <time>2017-09-08T12:31:00.1Z</time>
      </trkpt>
      <trkpt lat="45.81582" lon="4.81824">
        <ele>369</ele>
        <time>2017-09-08T12:31:02.1Z</time>
      </trkpt>
      <trkpt lat="45.81582" lon="4.81824">
        <ele>369</ele>
        <time>2017-09-08T12:31:03.1Z</time>
      </trkpt>
      <trkpt lat="45.81582" lon="4.81825">
        <ele>369</ele>
        <time>2017-09-08T12:31:05.1Z</time>
      </trkpt>
      <trkpt lat="45.81582" lon="4.81825">
        <ele>369</ele>
        <time>2017-09-08T12:31:06.1Z</time>
      </trkpt>
      <trkpt lat="45.81583" lon="4.81825">
        <ele>369</ele>
        <time>2017-09-08T12:31:07.1Z</time>
      </trkpt>
      <trkpt lat="45.81583" lon="4.81826">
        <ele>369</ele>
        <time>2017-09-08T12:31:09.1Z</time>
      </trkpt>
      <trkpt lat="45.81583" lon="4.81826">
        <ele>369</ele>
        <time>2017-09-08T12:31:10.1Z</time>
      </trkpt>
      <trkpt lat="45.81583" lon="4.81826">
        <ele>369</ele>
        <time>2017-09-08T12:31:12.1Z</time>
      </trkpt>
      <trkpt lat="45.81583" lon="4.81826">
        <ele>369</ele>
        <time>2017-09-08T12:31:13.1Z</time>
      </trkpt>
      <trkpt lat="45.81583" lon="4.81826">
        <ele>368</ele>
        <time>2017-09-08T12:31:18.1Z</time>
      </trkpt>
      <trkpt lat="45.81583" lon="4.81826">
        <ele>368</ele>
        <time>2017-09-08T12:31:19.1Z</time>
      </trkpt>
      <trkpt lat="45.81582" lon="4.81828">
        <ele>368</ele>
        <time>2017-09-08T12:31:21.1Z</time>
      </trkpt>
      <trkpt lat="45.81582" lon="4.81831">
        <ele>368</ele>
        <time>2017-09-08T12:31:22.1Z</time>
      </trkpt>
      <trkpt lat="45.81581" lon="4.8184">
        <ele>368</ele>
        <time>2017-09-08T12:31:24.1Z</time>
      </trkpt>
      <trkpt lat="45.8158" lon="4.81846">
        <ele>368</ele>
        <time>2017-09-08T12:31:25.1Z</time>
      </trkpt>
      <trkpt lat="45.81579" lon="4.81854">
        <ele>368</ele>
        <time>2017-09-08T12:31:26.1Z</time>
      </trkpt>
      <trkpt lat="45.81578" lon="4.81862">
        <ele>368</ele>
        <time>2017-09-08T12:31:27.1Z</time>
      </trkpt>
      <trkpt lat="45.81575" lon="4.81881">
        <ele>368</ele>
        <time>2017-09-08T12:31:29.1Z</time>
      </trkpt>
      <trkpt lat="45.81573" lon="4.81891">
        <ele>368</ele>
        <time>2017-09-08T12:31:30.1Z</time>
      </trkpt>
      <trkpt lat="45.81569" lon="4.819">
        <ele>367</ele>
        <time>2017-09-08T12:31:31.1Z</time>
      </trkpt>
      <trkpt lat="45.81562" lon="4.81908">
        <ele>367</ele>
        <time>2017-09-08T12:31:33.1Z</time>
      </trkpt>
      <trkpt lat="45.81559" lon="4.81909">
        <ele>366</ele>
        <time>2017-09-08T12:31:34.1Z</time>
      </trkpt>
      <trkpt lat="45.81556" lon="4.8191">
        <ele>366</ele>
        <time>2017-09-08T12:31:35.1Z</time>
      </trkpt>
      <trkpt lat="45.81553" lon="4.81913">
        <ele>365</ele>
        <time>2017-09-08T12:31:36.1Z</time>
      </trkpt>
      <trkpt lat="45.81547" lon="4.81919">
        <ele>365</ele>
        <time>2017-09-08T12:31:38.1Z</time>
      </trkpt>
      <trkpt lat="45.81544" lon="4.81922">
        <ele>364</ele>
        <time>2017-09-08T12:31:39.1Z</time>
      </trkpt>
      <trkpt lat="45.81536" lon="4.81929">
        <ele>364</ele>
        <time>2017-09-08T12:31:41.1Z</time>
      </trkpt>
      <trkpt lat="45.81526" lon="4.81934">
        <ele>364</ele>
        <time>2017-09-08T12:31:43.1Z</time>
      </trkpt>
      <trkpt lat="45.81521" lon="4.81937">
        <ele>363</ele>
        <time>2017-09-08T12:31:44.1Z</time>
      </trkpt>
      <trkpt lat="45.81515" lon="4.81939">
        <ele>363</ele>
        <time>2017-09-08T12:31:45.1Z</time>
      </trkpt>
      <trkpt lat="45.81502" lon="4.81943">
        <ele>363</ele>
        <time>2017-09-08T12:31:47.1Z</time>
      </trkpt>
      <trkpt lat="45.81496" lon="4.81946">
        <ele>363</ele>
        <time>2017-09-08T12:31:48.1Z</time>
      </trkpt>
      <trkpt lat="45.81488" lon="4.81949">
        <ele>363</ele>
        <time>2017-09-08T12:31:49.1Z</time>
      </trkpt>
      <trkpt lat="45.81482" lon="4.81951">
        <ele>363</ele>
        <time>2017-09-08T12:31:50.1Z</time>
      </trkpt>
      <trkpt lat="45.81475" lon="4.81954">
        <ele>362</ele>
        <time>2017-09-08T12:31:51.1Z</time>
      </trkpt>
      <trkpt lat="45.81469" lon="4.81956">
        <ele>362</ele>
        <time>2017-09-08T12:31:52.1Z</time>
      </trkpt>
      <trkpt lat="45.81464" lon="4.81958">
        <ele>362</ele>
        <time>2017-09-08T12:31:53.1Z</time>
      </trkpt>
      <trkpt lat="45.81459" lon="4.81962">
        <ele>361</ele>
        <time>2017-09-08T12:31:54.1Z</time>
      </trkpt>
      <trkpt lat="45.81449" lon="4.81971">
        <ele>361</ele>
        <time>2017-09-08T12:31:56.1Z</time>
      </trkpt>
      <trkpt lat="45.81444" lon="4.81976">
        <ele>361</ele>
        <time>2017-09-08T12:31:57.1Z</time>
      </trkpt>
      <trkpt lat="45.81438" lon="4.81991">
        <ele>360</ele>
        <time>2017-09-08T12:31:59.1Z</time>
      </trkpt>
      <trkpt lat="45.81436" lon="4.82007">
        <ele>360</ele>
        <time>2017-09-08T12:32:01.1Z</time>
      </trkpt>
      <trkpt lat="45.81435" lon="4.82016">
        <ele>360</ele>
        <time>2017-09-08T12:32:02.1Z</time>
      </trkpt>
      <trkpt lat="45.81435" lon="4.82025">
        <ele>360</ele>
        <time>2017-09-08T12:32:03.1Z</time>
      </trkpt>
      <trkpt lat="45.81434" lon="4.82034">
        <ele>360</ele>
        <time>2017-09-08T12:32:04.1Z</time>
      </trkpt>
      <trkpt lat="45.81433" lon="4.82054">
        <ele>360</ele>
        <time>2017-09-08T12:32:06.1Z</time>
      </trkpt>
      <trkpt lat="45.81432" lon="4.82064">
        <ele>360</ele>
        <time>2017-09-08T12:32:07.1Z</time>
      </trkpt>
      <trkpt lat="45.81432" lon="4.82073">
        <ele>359</ele>
        <time>2017-09-08T12:32:08.1Z</time>
      </trkpt>
      <trkpt lat="45.81435" lon="4.82092">
        <ele>359</ele>
        <time>2017-09-08T12:32:10.1Z</time>
      </trkpt>
      <trkpt lat="45.81443" lon="4.82111">
        <ele>359</ele>
        <time>2017-09-08T12:32:12.1Z</time>
      </trkpt>
      <trkpt lat="45.81448" lon="4.82119">
        <ele>359</ele>
        <time>2017-09-08T12:32:13.1Z</time>
      </trkpt>
      <trkpt lat="45.81454" lon="4.82127">
        <ele>358</ele>
        <time>2017-09-08T12:32:14.1Z</time>
      </trkpt>
      <trkpt lat="45.81468" lon="4.82139">
        <ele>357</ele>
        <time>2017-09-08T12:32:16.1Z</time>
      </trkpt>
      <trkpt lat="45.81484" lon="4.8215">
        <ele>356</ele>
        <time>2017-09-08T12:32:18.1Z</time>
      </trkpt>
      <trkpt lat="45.81492" lon="4.82155">
        <ele>356</ele>
        <time>2017-09-08T12:32:19.1Z</time>
      </trkpt>
      <trkpt lat="45.81501" lon="4.8216">
        <ele>355</ele>
        <time>2017-09-08T12:32:20.1Z</time>
      </trkpt>
      <trkpt lat="45.81509" lon="4.82164">
        <ele>355</ele>
        <time>2017-09-08T12:32:21.1Z</time>
      </trkpt>
      <trkpt lat="45.81518" lon="4.82169">
        <ele>354</ele>
        <time>2017-09-08T12:32:22.1Z</time>
      </trkpt>
      <trkpt lat="45.81533" lon="4.82179">
        <ele>354</ele>
        <time>2017-09-08T12:32:24.1Z</time>
      </trkpt>
      <trkpt lat="45.81538" lon="4.82187">
        <ele>353</ele>
        <time>2017-09-08T12:32:25.1Z</time>
      </trkpt>
      <trkpt lat="45.81546" lon="4.82207">
        <ele>352</ele>
        <time>2017-09-08T12:32:27.1Z</time>
      </trkpt>
      <trkpt lat="45.81548" lon="4.8223">
        <ele>351</ele>
        <time>2017-09-08T12:32:29.1Z</time>
      </trkpt>
      <trkpt lat="45.81548" lon="4.82242">
        <ele>350</ele>
        <time>2017-09-08T12:32:30.1Z</time>
      </trkpt>
      <trkpt lat="45.81549" lon="4.82266">
        <ele>349</ele>
        <time>2017-09-08T12:32:32.1Z</time>
      </trkpt>
      <trkpt lat="45.81549" lon="4.82276">
        <ele>348</ele>
        <time>2017-09-08T12:32:33.1Z</time>
      </trkpt>
      <trkpt lat="45.81544" lon="4.8229">
        <ele>347</ele>
        <time>2017-09-08T12:32:35.1Z</time>
      </trkpt>
      <trkpt lat="45.81532" lon="4.82296">
        <ele>346</ele>
        <time>2017-09-08T12:32:37.1Z</time>
      </trkpt>
      <trkpt lat="45.81516" lon="4.82297">
        <ele>345</ele>
        <time>2017-09-08T12:32:39.1Z</time>
      </trkpt>
      <trkpt lat="45.81507" lon="4.82297">
        <ele>345</ele>
        <time>2017-09-08T12:32:40.1Z</time>
      </trkpt>
      <trkpt lat="45.81498" lon="4.82298">
        <ele>344</ele>
        <time>2017-09-08T12:32:41.1Z</time>
      </trkpt>
      <trkpt lat="45.81489" lon="4.82298">
        <ele>343</ele>
        <time>2017-09-08T12:32:42.1Z</time>
      </trkpt>
      <trkpt lat="45.8148" lon="4.82298">
        <ele>342</ele>
        <time>2017-09-08T12:32:43.1Z</time>
      </trkpt>
      <trkpt lat="45.81471" lon="4.82299">
        <ele>342</ele>
        <time>2017-09-08T12:32:44.1Z</time>
      </trkpt>
      <trkpt lat="45.81463" lon="4.82299">
        <ele>341</ele>
        <time>2017-09-08T12:32:45.1Z</time>
      </trkpt>
      <trkpt lat="45.81456" lon="4.82299">
        <ele>340</ele>
        <time>2017-09-08T12:32:46.1Z</time>
      </trkpt>
      <trkpt lat="45.81443" lon="4.823">
        <ele>339</ele>
        <time>2017-09-08T12:32:48.1Z</time>
      </trkpt>
      <trkpt lat="45.81437" lon="4.82312">
        <ele>337</ele>
        <time>2017-09-08T12:32:50.1Z</time>
      </trkpt>
      <trkpt lat="45.81436" lon="4.82328">
        <ele>335</ele>
        <time>2017-09-08T12:32:52.1Z</time>
      </trkpt>
      <trkpt lat="45.81437" lon="4.82337">
        <ele>335</ele>
        <time>2017-09-08T12:32:53.1Z</time>
      </trkpt>
      <trkpt lat="45.8144" lon="4.82355">
        <ele>335</ele>
        <time>2017-09-08T12:32:55.1Z</time>
      </trkpt>
      <trkpt lat="45.81449" lon="4.82373">
        <ele>334</ele>
        <time>2017-09-08T12:32:57.1Z</time>
      </trkpt>
      <trkpt lat="45.8146" lon="4.82388">
        <ele>334</ele>
        <time>2017-09-08T12:32:59.1Z</time>
      </trkpt>
      <trkpt lat="45.81466" lon="4.82397">
        <ele>334</ele>
        <time>2017-09-08T12:33:00.1Z</time>
      </trkpt>
      <trkpt lat="45.81471" lon="4.82408">
        <ele>333</ele>
        <time>2017-09-08T12:33:01.1Z</time>
      </trkpt>
      <trkpt lat="45.81481" lon="4.8243">
        <ele>332</ele>
        <time>2017-09-08T12:33:03.1Z</time>
      </trkpt>
      <trkpt lat="45.81486" lon="4.82443">
        <ele>332</ele>
        <time>2017-09-08T12:33:04.1Z</time>
      </trkpt>
      <trkpt lat="45.81493" lon="4.8247">
        <ele>331</ele>
        <time>2017-09-08T12:33:06.1Z</time>
      </trkpt>
      <trkpt lat="45.81495" lon="4.82484">
        <ele>330</ele>
        <time>2017-09-08T12:33:07.1Z</time>
      </trkpt>
      <trkpt lat="45.81497" lon="4.82499">
        <ele>330</ele>
        <time>2017-09-08T12:33:08.1Z</time>
      </trkpt>
      <trkpt lat="45.81498" lon="4.82528">
        <ele>328</ele>
        <time>2017-09-08T12:33:10.1Z</time>
      </trkpt>
      <trkpt lat="45.81495" lon="4.82559">
        <ele>327</ele>
        <time>2017-09-08T12:33:12.1Z</time>
      </trkpt>
      <trkpt lat="45.8149" lon="4.82591">
        <ele>325</ele>
        <time>2017-09-08T12:33:14.1Z</time>
      </trkpt>
      <trkpt lat="45.81488" lon="4.82606">
        <ele>324</ele>
        <time>2017-09-08T12:33:15.1Z</time>
      </trkpt>
      <trkpt lat="45.81483" lon="4.82634">
        <ele>322</ele>
        <time>2017-09-08T12:33:17.1Z</time>
      </trkpt>
      <trkpt lat="45.81481" lon="4.82647">
        <ele>321</ele>
        <time>2017-09-08T12:33:18.1Z</time>
      </trkpt>
      <trkpt lat="45.81479" lon="4.8266">
        <ele>319</ele>
        <time>2017-09-08T12:33:19.1Z</time>
      </trkpt>
      <trkpt lat="45.81475" lon="4.82687">
        <ele>317</ele>
        <time>2017-09-08T12:33:21.1Z</time>
      </trkpt>
      <trkpt lat="45.81473" lon="4.82698">
        <ele>316</ele>
        <time>2017-09-08T12:33:22.1Z</time>
      </trkpt>
      <trkpt lat="45.81471" lon="4.82709">
        <ele>314</ele>
        <time>2017-09-08T12:33:23.1Z</time>
      </trkpt>
      <trkpt lat="45.81469" lon="4.82719">
        <ele>314</ele>
        <time>2017-09-08T12:33:24.1Z</time>
      </trkpt>
      <trkpt lat="45.81465" lon="4.82736">
        <ele>311</ele>
        <time>2017-09-08T12:33:26.1Z</time>
      </trkpt>
      <trkpt lat="45.81461" lon="4.82755">
        <ele>310</ele>
        <time>2017-09-08T12:33:28.1Z</time>
      </trkpt>
      <trkpt lat="45.81464" lon="4.82762">
        <ele>310</ele>
        <time>2017-09-08T12:33:29.1Z</time>
      </trkpt>
      <trkpt lat="45.81468" lon="4.82766">
        <ele>309</ele>
        <time>2017-09-08T12:33:30.1Z</time>
      </trkpt>
      <trkpt lat="45.81477" lon="4.82768">
        <ele>309</ele>
        <time>2017-09-08T12:33:32.1Z</time>
      </trkpt>
      <trkpt lat="45.81483" lon="4.82769">
        <ele>309</ele>
        <time>2017-09-08T12:33:33.1Z</time>
      </trkpt>
      <trkpt lat="45.81493" lon="4.82774">
        <ele>309</ele>
        <time>2017-09-08T12:33:35.1Z</time>
      </trkpt>
      <trkpt lat="45.81502" lon="4.82782">
        <ele>309</ele>
        <time>2017-09-08T12:33:37.1Z</time>
      </trkpt>
      <trkpt lat="45.81507" lon="4.82786">
        <ele>310</ele>
        <time>2017-09-08T12:33:38.1Z</time>
      </trkpt>
      <trkpt lat="45.81512" lon="4.8279">
        <ele>310</ele>
        <time>2017-09-08T12:33:39.1Z</time>
      </trkpt>
      <trkpt lat="45.81516" lon="4.82793">
        <ele>310</ele>
        <time>2017-09-08T12:33:40.1Z</time>
      </trkpt>
      <trkpt lat="45.81526" lon="4.82801">
        <ele>311</ele>
        <time>2017-09-08T12:33:42.1Z</time>
      </trkpt>
      <trkpt lat="45.8153" lon="4.82805">
        <ele>311</ele>
        <time>2017-09-08T12:33:43.1Z</time>
      </trkpt>
      <trkpt lat="45.81535" lon="4.82809">
        <ele>312</ele>
        <time>2017-09-08T12:33:44.1Z</time>
      </trkpt>
      <trkpt lat="45.81545" lon="4.82817">
        <ele>312</ele>
        <time>2017-09-08T12:33:46.1Z</time>
      </trkpt>
      <trkpt lat="45.81554" lon="4.82825">
        <ele>313</ele>
        <time>2017-09-08T12:33:48.1Z</time>
      </trkpt>
      <trkpt lat="45.81559" lon="4.82828">
        <ele>313</ele>
        <time>2017-09-08T12:33:49.1Z</time>
      </trkpt>
      <trkpt lat="45.81564" lon="4.82833">
        <ele>313</ele>
        <time>2017-09-08T12:33:50.1Z</time>
      </trkpt>
      <trkpt lat="45.81568" lon="4.82837">
        <ele>314</ele>
        <time>2017-09-08T12:33:51.1Z</time>
      </trkpt>
      <trkpt lat="45.81573" lon="4.82842">
        <ele>314</ele>
        <time>2017-09-08T12:33:52.1Z</time>
      </trkpt>
      <trkpt lat="45.81581" lon="4.82851">
        <ele>315</ele>
        <time>2017-09-08T12:33:54.1Z</time>
      </trkpt>
      <trkpt lat="45.81588" lon="4.82861">
        <ele>315</ele>
        <time>2017-09-08T12:33:56.1Z</time>
      </trkpt>
      <trkpt lat="45.81594" lon="4.82868">
        <ele>316</ele>
        <time>2017-09-08T12:33:58.1Z</time>
      </trkpt>
      <trkpt lat="45.81597" lon="4.82872">
        <ele>316</ele>
        <time>2017-09-08T12:33:59.1Z</time>
      </trkpt>
      <trkpt lat="45.81602" lon="4.8288">
        <ele>317</ele>
        <time>2017-09-08T12:34:01.1Z</time>
      </trkpt>
      <trkpt lat="45.81608" lon="4.82888">
        <ele>317</ele>
        <time>2017-09-08T12:34:03.1Z</time>
      </trkpt>
      <trkpt lat="45.81611" lon="4.82892">
        <ele>317</ele>
        <time>2017-09-08T12:34:04.1Z</time>
      </trkpt>
      <trkpt lat="45.81614" lon="4.82895">
        <ele>317</ele>
        <time>2017-09-08T12:34:05.1Z</time>
      </trkpt>
      <trkpt lat="45.81617" lon="4.82899">
        <ele>317</ele>
        <time>2017-09-08T12:34:06.1Z</time>
      </trkpt>
      <trkpt lat="45.8162" lon="4.82903">
        <ele>317</ele>
        <time>2017-09-08T12:34:07.1Z</time>
      </trkpt>
      <trkpt lat="45.81628" lon="4.8291">
        <ele>318</ele>
        <time>2017-09-08T12:34:09.1Z</time>
      </trkpt>
      <trkpt lat="45.81631" lon="4.82914">
        <ele>318</ele>
        <time>2017-09-08T12:34:10.1Z</time>
      </trkpt>
      <trkpt lat="45.81638" lon="4.82922">
        <ele>318</ele>
        <time>2017-09-08T12:34:12.1Z</time>
      </trkpt>
      <trkpt lat="45.81642" lon="4.82927">
        <ele>318</ele>
        <time>2017-09-08T12:34:13.1Z</time>
      </trkpt>
      <trkpt lat="45.81646" lon="4.82931">
        <ele>318</ele>
        <time>2017-09-08T12:34:14.1Z</time>
      </trkpt>
      <trkpt lat="45.81649" lon="4.82935">
        <ele>318</ele>
        <time>2017-09-08T12:34:15.1Z</time>
      </trkpt>
      <trkpt lat="45.81653" lon="4.8294">
        <ele>318</ele>
        <time>2017-09-08T12:34:16.1Z</time>
      </trkpt>
      <trkpt lat="45.8166" lon="4.82949">
        <ele>318</ele>
        <time>2017-09-08T12:34:18.1Z</time>
      </trkpt>
      <trkpt lat="45.81665" lon="4.82952">
        <ele>318</ele>
        <time>2017-09-08T12:34:19.1Z</time>
      </trkpt>
      <trkpt lat="45.81668" lon="4.82955">
        <ele>318</ele>
        <time>2017-09-08T12:34:20.1Z</time>
      </trkpt>
      <trkpt lat="45.81677" lon="4.82958">
        <ele>318</ele>
        <time>2017-09-08T12:34:22.1Z</time>
      </trkpt>
      <trkpt lat="45.81681" lon="4.8296">
        <ele>317</ele>
        <time>2017-09-08T12:34:23.1Z</time>
      </trkpt>
      <trkpt lat="45.81686" lon="4.8296">
        <ele>317</ele>
        <time>2017-09-08T12:34:24.1Z</time>
      </trkpt>
      <trkpt lat="45.8169" lon="4.82961">
        <ele>317</ele>
        <time>2017-09-08T12:34:25.1Z</time>
      </trkpt>
      <trkpt lat="45.81695" lon="4.82961">
        <ele>317</ele>
        <time>2017-09-08T12:34:26.1Z</time>
      </trkpt>
      <trkpt lat="45.81705" lon="4.82962">
        <ele>317</ele>
        <time>2017-09-08T12:34:28.1Z</time>
      </trkpt>
      <trkpt lat="45.8171" lon="4.82963">
        <ele>316</ele>
        <time>2017-09-08T12:34:29.1Z</time>
      </trkpt>
      <trkpt lat="45.81715" lon="4.82963">
        <ele>317</ele>
        <time>2017-09-08T12:34:30.1Z</time>
      </trkpt>
      <trkpt lat="45.8172" lon="4.82964">
        <ele>317</ele>
        <time>2017-09-08T12:34:31.1Z</time>
      </trkpt>
      <trkpt lat="45.81725" lon="4.82964">
        <ele>317</ele>
        <time>2017-09-08T12:34:32.1Z</time>
      </trkpt>
      <trkpt lat="45.8173" lon="4.82964">
        <ele>317</ele>
        <time>2017-09-08T12:34:33.1Z</time>
      </trkpt>
      <trkpt lat="45.81741" lon="4.82965">
        <ele>317</ele>
        <time>2017-09-08T12:34:35.1Z</time>
      </trkpt>
      <trkpt lat="45.81746" lon="4.82966">
        <ele>317</ele>
        <time>2017-09-08T12:34:36.1Z</time>
      </trkpt>
      <trkpt lat="45.81752" lon="4.82966">
        <ele>317</ele>
        <time>2017-09-08T12:34:37.1Z</time>
      </trkpt>
      <trkpt lat="45.81757" lon="4.82966">
        <ele>317</ele>
        <time>2017-09-08T12:34:38.1Z</time>
      </trkpt>
      <trkpt lat="45.81763" lon="4.82967">
        <ele>317</ele>
        <time>2017-09-08T12:34:39.1Z</time>
      </trkpt>
      <trkpt lat="45.81769" lon="4.82967">
        <ele>317</ele>
        <time>2017-09-08T12:34:40.1Z</time>
      </trkpt>
      <trkpt lat="45.81775" lon="4.82968">
        <ele>317</ele>
        <time>2017-09-08T12:34:41.1Z</time>
      </trkpt>
      <trkpt lat="45.81786" lon="4.82971">
        <ele>317</ele>
        <time>2017-09-08T12:34:43.1Z</time>
      </trkpt>
      <trkpt lat="45.81791" lon="4.82972">
        <ele>317</ele>
        <time>2017-09-08T12:34:44.1Z</time>
      </trkpt>
      <trkpt lat="45.81797" lon="4.82974">
        <ele>318</ele>
        <time>2017-09-08T12:34:45.1Z</time>
      </trkpt>
      <trkpt lat="45.81802" lon="4.82975">
        <ele>318</ele>
        <time>2017-09-08T12:34:46.1Z</time>
      </trkpt>
      <trkpt lat="45.81812" lon="4.82979">
        <ele>318</ele>
        <time>2017-09-08T12:34:48.1Z</time>
      </trkpt>
      <trkpt lat="45.81821" lon="4.82984">
        <ele>318</ele>
        <time>2017-09-08T12:34:50.1Z</time>
      </trkpt>
      <trkpt lat="45.81831" lon="4.82989">
        <ele>318</ele>
        <time>2017-09-08T12:34:52.1Z</time>
      </trkpt>
      <trkpt lat="45.81842" lon="4.82995">
        <ele>317</ele>
        <time>2017-09-08T12:34:54.1Z</time>
      </trkpt>
      <trkpt lat="45.81848" lon="4.82999">
        <ele>317</ele>
        <time>2017-09-08T12:34:55.1Z</time>
      </trkpt>
      <trkpt lat="45.81855" lon="4.83002">
        <ele>316</ele>
        <time>2017-09-08T12:34:56.1Z</time>
      </trkpt>
      <trkpt lat="45.81862" lon="4.83006">
        <ele>316</ele>
        <time>2017-09-08T12:34:57.1Z</time>
      </trkpt>
      <trkpt lat="45.81869" lon="4.83009">
        <ele>316</ele>
        <time>2017-09-08T12:34:58.1Z</time>
      </trkpt>
      <trkpt lat="45.81876" lon="4.83013">
        <ele>315</ele>
        <time>2017-09-08T12:34:59.1Z</time>
      </trkpt>
      <trkpt lat="45.81891" lon="4.83019">
        <ele>315</ele>
        <time>2017-09-08T12:35:01.1Z</time>
      </trkpt>
      <trkpt lat="45.81899" lon="4.83022">
        <ele>314</ele>
        <time>2017-09-08T12:35:02.1Z</time>
      </trkpt>
      <trkpt lat="45.81907" lon="4.83025">
        <ele>314</ele>
        <time>2017-09-08T12:35:03.1Z</time>
      </trkpt>
      <trkpt lat="45.81924" lon="4.83031">
        <ele>314</ele>
        <time>2017-09-08T12:35:05.1Z</time>
      </trkpt>
      <trkpt lat="45.81932" lon="4.83033">
        <ele>313</ele>
        <time>2017-09-08T12:35:06.1Z</time>
      </trkpt>
      <trkpt lat="45.8195" lon="4.83037">
        <ele>313</ele>
        <time>2017-09-08T12:35:08.1Z</time>
      </trkpt>
      <trkpt lat="45.81959" lon="4.83039">
        <ele>312</ele>
        <time>2017-09-08T12:35:09.1Z</time>
      </trkpt>
      <trkpt lat="45.81976" lon="4.83044">
        <ele>312</ele>
        <time>2017-09-08T12:35:11.1Z</time>
      </trkpt>
      <trkpt lat="45.81985" lon="4.83046">
        <ele>311</ele>
        <time>2017-09-08T12:35:12.1Z</time>
      </trkpt>
      <trkpt lat="45.81994" lon="4.83048">
        <ele>311</ele>
        <time>2017-09-08T12:35:13.1Z</time>
      </trkpt>
      <trkpt lat="45.82011" lon="4.83049">
        <ele>310</ele>
        <time>2017-09-08T12:35:15.1Z</time>
      </trkpt>
      <trkpt lat="45.8202" lon="4.8305">
        <ele>310</ele>
        <time>2017-09-08T12:35:16.1Z</time>
      </trkpt>
      <trkpt lat="45.82029" lon="4.83051">
        <ele>310</ele>
        <time>2017-09-08T12:35:17.1Z</time>
      </trkpt>
      <trkpt lat="45.82037" lon="4.83053">
        <ele>310</ele>
        <time>2017-09-08T12:35:18.1Z</time>
      </trkpt>
      <trkpt lat="45.82046" lon="4.83055">
        <ele>309</ele>
        <time>2017-09-08T12:35:19.1Z</time>
      </trkpt>
      <trkpt lat="45.82062" lon="4.83062">
        <ele>308</ele>
        <time>2017-09-08T12:35:21.1Z</time>
      </trkpt>
      <trkpt lat="45.82078" lon="4.83071">
        <ele>308</ele>
        <time>2017-09-08T12:35:23.1Z</time>
      </trkpt>
      <trkpt lat="45.82086" lon="4.83076">
        <ele>308</ele>
        <time>2017-09-08T12:35:24.1Z</time>
      </trkpt>
      <trkpt lat="45.82093" lon="4.83081">
        <ele>308</ele>
        <time>2017-09-08T12:35:25.1Z</time>
      </trkpt>
      <trkpt lat="45.82108" lon="4.83089">
        <ele>308</ele>
        <time>2017-09-08T12:35:27.1Z</time>
      </trkpt>
      <trkpt lat="45.82116" lon="4.83094">
        <ele>308</ele>
        <time>2017-09-08T12:35:28.1Z</time>
      </trkpt>
      <trkpt lat="45.82129" lon="4.83103">
        <ele>308</ele>
        <time>2017-09-08T12:35:30.1Z</time>
      </trkpt>
      <trkpt lat="45.82135" lon="4.83107">
        <ele>308</ele>
        <time>2017-09-08T12:35:31.1Z</time>
      </trkpt>
      <trkpt lat="45.82142" lon="4.83111">
        <ele>308</ele>
        <time>2017-09-08T12:35:32.1Z</time>
      </trkpt>
      <trkpt lat="45.82154" lon="4.83119">
        <ele>308</ele>
        <time>2017-09-08T12:35:34.1Z</time>
      </trkpt>
      <trkpt lat="45.8216" lon="4.83123">
        <ele>308</ele>
        <time>2017-09-08T12:35:35.1Z</time>
      </trkpt>
      <trkpt lat="45.82166" lon="4.83126">
        <ele>307</ele>
        <time>2017-09-08T12:35:36.1Z</time>
      </trkpt>
      <trkpt lat="45.82171" lon="4.8313">
        <ele>307</ele>
        <time>2017-09-08T12:35:37.1Z</time>
      </trkpt>
      <trkpt lat="45.82177" lon="4.83134">
        <ele>307</ele>
        <time>2017-09-08T12:35:38.1Z</time>
      </trkpt>
      <trkpt lat="45.82182" lon="4.83138">
        <ele>307</ele>
        <time>2017-09-08T12:35:39.1Z</time>
      </trkpt>
      <trkpt lat="45.82193" lon="4.83145">
        <ele>307</ele>
        <time>2017-09-08T12:35:41.1Z</time>
      </trkpt>
      <trkpt lat="45.82198" lon="4.83149">
        <ele>307</ele>
        <time>2017-09-08T12:35:42.1Z</time>
      </trkpt>
      <trkpt lat="45.82207" lon="4.83157">
        <ele>308</ele>
        <time>2017-09-08T12:35:44.1Z</time>
      </trkpt>
      <trkpt lat="45.82216" lon="4.83165">
        <ele>308</ele>
        <time>2017-09-08T12:35:46.1Z</time>
      </trkpt>
      <trkpt lat="45.82225" lon="4.83174">
        <ele>309</ele>
        <time>2017-09-08T12:35:48.1Z</time>
      </trkpt>
      <trkpt lat="45.82229" lon="4.83179">
        <ele>309</ele>
        <time>2017-09-08T12:35:49.1Z</time>
      </trkpt>
      <trkpt lat="45.82233" lon="4.83183">
        <ele>309</ele>
        <time>2017-09-08T12:35:50.1Z</time>
      </trkpt>
      <trkpt lat="45.82237" lon="4.83187">
        <ele>309</ele>
        <time>2017-09-08T12:35:51.1Z</time>
      </trkpt>
      <trkpt lat="45.82241" lon="4.83192">
        <ele>309</ele>
        <time>2017-09-08T12:35:52.1Z</time>
      </trkpt>
      <trkpt lat="45.82246" lon="4.83197">
        <ele>310</ele>
        <time>2017-09-08T12:35:53.1Z</time>
      </trkpt>
      <trkpt lat="45.8225" lon="4.83202">
        <ele>310</ele>
        <time>2017-09-08T12:35:54.1Z</time>
      </trkpt>
      <trkpt lat="45.82254" lon="4.83207">
        <ele>310</ele>
        <time>2017-09-08T12:35:55.1Z</time>
      </trkpt>
      <trkpt lat="45.82259" lon="4.83212">
        <ele>310</ele>
        <time>2017-09-08T12:35:56.1Z</time>
      </trkpt>
      <trkpt lat="45.82267" lon="4.83222">
        <ele>311</ele>
        <time>2017-09-08T12:35:58.1Z</time>
      </trkpt>
      <trkpt lat="45.82272" lon="4.83227">
        <ele>311</ele>
        <time>2017-09-08T12:35:59.1Z</time>
      </trkpt>
      <trkpt lat="45.82276" lon="4.83232">
        <ele>311</ele>
        <time>2017-09-08T12:36:00.1Z</time>
      </trkpt>
      <trkpt lat="45.82281" lon="4.83237">
        <ele>312</ele>
        <time>2017-09-08T12:36:01.1Z</time>
      </trkpt>
      <trkpt lat="45.82285" lon="4.83243">
        <ele>312</ele>
        <time>2017-09-08T12:36:02.1Z</time>
      </trkpt>
      <trkpt lat="45.82289" lon="4.83247">
        <ele>312</ele>
        <time>2017-09-08T12:36:03.1Z</time>
      </trkpt>
      <trkpt lat="45.82299" lon="4.83256">
        <ele>312</ele>
        <time>2017-09-08T12:36:05.1Z</time>
      </trkpt>
      <trkpt lat="45.82303" lon="4.8326">
        <ele>312</ele>
        <time>2017-09-08T12:36:06.1Z</time>
      </trkpt>
      <trkpt lat="45.82307" lon="4.83264">
        <ele>312</ele>
        <time>2017-09-08T12:36:07.1Z</time>
      </trkpt>
      <trkpt lat="45.82311" lon="4.83268">
        <ele>312</ele>
        <time>2017-09-08T12:36:08.1Z</time>
      </trkpt>
      <trkpt lat="45.8232" lon="4.83275">
        <ele>312</ele>
        <time>2017-09-08T12:36:10.1Z</time>
      </trkpt>
      <trkpt lat="45.8233" lon="4.83282">
        <ele>311</ele>
        <time>2017-09-08T12:36:12.1Z</time>
      </trkpt>
      <trkpt lat="45.82335" lon="4.83286">
        <ele>311</ele>
        <time>2017-09-08T12:36:13.1Z</time>
      </trkpt>
      <trkpt lat="45.82345" lon="4.83294">
        <ele>311</ele>
        <time>2017-09-08T12:36:15.1Z</time>
      </trkpt>
      <trkpt lat="45.82351" lon="4.83297">
        <ele>311</ele>
        <time>2017-09-08T12:36:16.1Z</time>
      </trkpt>
      <trkpt lat="45.82357" lon="4.83301">
        <ele>310</ele>
        <time>2017-09-08T12:36:17.1Z</time>
      </trkpt>
      <trkpt lat="45.82363" lon="4.83305">
        <ele>310</ele>
        <time>2017-09-08T12:36:18.1Z</time>
      </trkpt>
      <trkpt lat="45.82375" lon="4.83312">
        <ele>310</ele>
        <time>2017-09-08T12:36:20.1Z</time>
      </trkpt>
      <trkpt lat="45.82388" lon="4.83316">
        <ele>310</ele>
        <time>2017-09-08T12:36:22.1Z</time>
      </trkpt>
      <trkpt lat="45.82395" lon="4.83317">
        <ele>310</ele>
        <time>2017-09-08T12:36:23.1Z</time>
      </trkpt>
      <trkpt lat="45.82402" lon="4.83317">
        <ele>310</ele>
        <time>2017-09-08T12:36:24.1Z</time>
      </trkpt>
      <trkpt lat="45.82409" lon="4.83317">
        <ele>310</ele>
        <time>2017-09-08T12:36:25.1Z</time>
      </trkpt>
      <trkpt lat="45.82423" lon="4.83317">
        <ele>309</ele>
        <time>2017-09-08T12:36:27.1Z</time>
      </trkpt>
      <trkpt lat="45.8243" lon="4.83317">
        <ele>308</ele>
        <time>2017-09-08T12:36:28.1Z</time>
      </trkpt>
      <trkpt lat="45.82437" lon="4.83318">
        <ele>308</ele>
        <time>2017-09-08T12:36:29.1Z</time>
      </trkpt>
      <trkpt lat="45.82444" lon="4.83319">
        <ele>307</ele>
        <time>2017-09-08T12:36:30.1Z</time>
      </trkpt>
      <trkpt lat="45.82451" lon="4.83322">
        <ele>307</ele>
        <time>2017-09-08T12:36:31.1Z</time>
      </trkpt>
      <trkpt lat="45.82457" lon="4.83326">
        <ele>307</ele>
        <time>2017-09-08T12:36:32.1Z</time>
      </trkpt>
      <trkpt lat="45.82464" lon="4.83331">
        <ele>306</ele>
        <time>2017-09-08T12:36:33.1Z</time>
      </trkpt>
      <trkpt lat="45.82476" lon="4.83342">
        <ele>306</ele>
        <time>2017-09-08T12:36:35.1Z</time>
      </trkpt>
      <trkpt lat="45.82482" lon="4.83348">
        <ele>306</ele>
        <time>2017-09-08T12:36:36.1Z</time>
      </trkpt>
      <trkpt lat="45.82487" lon="4.83352">
        <ele>306</ele>
        <time>2017-09-08T12:36:37.1Z</time>
      </trkpt>
      <trkpt lat="45.82492" lon="4.83357">
        <ele>305</ele>
        <time>2017-09-08T12:36:38.1Z</time>
      </trkpt>
      <trkpt lat="45.82502" lon="4.83367">
        <ele>305</ele>
        <time>2017-09-08T12:36:40.1Z</time>
      </trkpt>
      <trkpt lat="45.82507" lon="4.83372">
        <ele>305</ele>
        <time>2017-09-08T12:36:41.1Z</time>
      </trkpt>
      <trkpt lat="45.82512" lon="4.83376">
        <ele>305</ele>
        <time>2017-09-08T12:36:42.1Z</time>
      </trkpt>
      <trkpt lat="45.82517" lon="4.83381">
        <ele>305</ele>
        <time>2017-09-08T12:36:43.1Z</time>
      </trkpt>
      <trkpt lat="45.82523" lon="4.83385">
        <ele>306</ele>
        <time>2017-09-08T12:36:44.1Z</time>
      </trkpt>
      <trkpt lat="45.82528" lon="4.83389">
        <ele>306</ele>
        <time>2017-09-08T12:36:45.1Z</time>
      </trkpt>
      <trkpt lat="45.82537" lon="4.83397">
        <ele>306</ele>
        <time>2017-09-08T12:36:47.1Z</time>
      </trkpt>
      <trkpt lat="45.82542" lon="4.83401">
        <ele>306</ele>
        <time>2017-09-08T12:36:48.1Z</time>
      </trkpt>
      <trkpt lat="45.82547" lon="4.83405">
        <ele>306</ele>
        <time>2017-09-08T12:36:49.1Z</time>
      </trkpt>
      <trkpt lat="45.82556" lon="4.83413">
        <ele>306</ele>
        <time>2017-09-08T12:36:51.1Z</time>
      </trkpt>
      <trkpt lat="45.82561" lon="4.83417">
        <ele>306</ele>
        <time>2017-09-08T12:36:52.1Z</time>
      </trkpt>
      <trkpt lat="45.8257" lon="4.83422">
        <ele>307</ele>
        <time>2017-09-08T12:36:54.1Z</time>
      </trkpt>
      <trkpt lat="45.8258" lon="4.83429">
        <ele>307</ele>
        <time>2017-09-08T12:36:56.1Z</time>
      </trkpt>
      <trkpt lat="45.82585" lon="4.83433">
        <ele>307</ele>
        <time>2017-09-08T12:36:57.1Z</time>
      </trkpt>
      <trkpt lat="45.8259" lon="4.83437">
        <ele>308</ele>
        <time>2017-09-08T12:36:58.1Z</time>
      </trkpt>
      <trkpt lat="45.826" lon="4.83444">
        <ele>308</ele>
        <time>2017-09-08T12:37:00.1Z</time>
      </trkpt>
      <trkpt lat="45.82606" lon="4.83447">
        <ele>309</ele>
        <time>2017-09-08T12:37:01.1Z</time>
      </trkpt>
      <trkpt lat="45.82618" lon="4.83453">
        <ele>308</ele>
        <time>2017-09-08T12:37:03.1Z</time>
      </trkpt>
      <trkpt lat="45.8263" lon="4.83459">
        <ele>308</ele>
        <time>2017-09-08T12:37:05.1Z</time>
      </trkpt>
      <trkpt lat="45.82642" lon="4.83464">
        <ele>308</ele>
        <time>2017-09-08T12:37:07.1Z</time>
      </trkpt>
      <trkpt lat="45.8265" lon="4.83468">
        <ele>307</ele>
        <time>2017-09-08T12:37:08.1Z</time>
      </trkpt>
      <trkpt lat="45.82656" lon="4.83472">
        <ele>307</ele>
        <time>2017-09-08T12:37:09.1Z</time>
      </trkpt>
      <trkpt lat="45.8267" lon="4.8348">
        <ele>307</ele>
        <time>2017-09-08T12:37:11.1Z</time>
      </trkpt>
      <trkpt lat="45.82676" lon="4.83484">
        <ele>307</ele>
        <time>2017-09-08T12:37:12.1Z</time>
      </trkpt>
      <trkpt lat="45.82683" lon="4.83487">
        <ele>306</ele>
        <time>2017-09-08T12:37:13.1Z</time>
      </trkpt>
      <trkpt lat="45.82689" lon="4.8349">
        <ele>306</ele>
        <time>2017-09-08T12:37:14.1Z</time>
      </trkpt>
      <trkpt lat="45.82697" lon="4.83493">
        <ele>306</ele>
        <time>2017-09-08T12:37:15.1Z</time>
      </trkpt>
      <trkpt lat="45.82711" lon="4.83499">
        <ele>306</ele>
        <time>2017-09-08T12:37:17.1Z</time>
      </trkpt>
      <trkpt lat="45.82718" lon="4.83502">
        <ele>306</ele>
        <time>2017-09-08T12:37:18.1Z</time>
      </trkpt>
      <trkpt lat="45.82724" lon="4.83505">
        <ele>305</ele>
        <time>2017-09-08T12:37:19.1Z</time>
      </trkpt>
      <trkpt lat="45.8273" lon="4.83508">
        <ele>305</ele>
        <time>2017-09-08T12:37:20.1Z</time>
      </trkpt>
      <trkpt lat="45.82736" lon="4.8351">
        <ele>305</ele>
        <time>2017-09-08T12:37:21.1Z</time>
      </trkpt>
      <trkpt lat="45.82742" lon="4.83512">
        <ele>305</ele>
        <time>2017-09-08T12:37:22.1Z</time>
      </trkpt>
      <trkpt lat="45.82755" lon="4.83516">
        <ele>305</ele>
        <time>2017-09-08T12:37:24.1Z</time>
      </trkpt>
      <trkpt lat="45.82761" lon="4.83518">
        <ele>306</ele>
        <time>2017-09-08T12:37:25.1Z</time>
      </trkpt>
      <trkpt lat="45.82773" lon="4.83522">
        <ele>306</ele>
        <time>2017-09-08T12:37:27.1Z</time>
      </trkpt>
      <trkpt lat="45.82779" lon="4.83523">
        <ele>306</ele>
        <time>2017-09-08T12:37:28.1Z</time>
      </trkpt>
      <trkpt lat="45.82785" lon="4.83524">
        <ele>306</ele>
        <time>2017-09-08T12:37:29.1Z</time>
      </trkpt>
      <trkpt lat="45.82791" lon="4.83525">
        <ele>306</ele>
        <time>2017-09-08T12:37:30.1Z</time>
      </trkpt>
      <trkpt lat="45.82802" lon="4.83527">
        <ele>307</ele>
        <time>2017-09-08T12:37:32.1Z</time>
      </trkpt>
      <trkpt lat="45.82808" lon="4.83529">
        <ele>307</ele>
        <time>2017-09-08T12:37:33.1Z</time>
      </trkpt>
      <trkpt lat="45.82813" lon="4.8353">
        <ele>307</ele>
        <time>2017-09-08T12:37:34.1Z</time>
      </trkpt>
      <trkpt lat="45.82819" lon="4.8353">
        <ele>307</ele>
        <time>2017-09-08T12:37:35.1Z</time>
      </trkpt>
      <trkpt lat="45.82824" lon="4.8353">
        <ele>307</ele>
        <time>2017-09-08T12:37:36.1Z</time>
      </trkpt>
      <trkpt lat="45.82835" lon="4.83529">
        <ele>307</ele>
        <time>2017-09-08T12:37:38.1Z</time>
      </trkpt>
      <trkpt lat="45.82841" lon="4.83529">
        <ele>308</ele>
        <time>2017-09-08T12:37:39.1Z</time>
      </trkpt>
      <trkpt lat="45.82847" lon="4.83529">
        <ele>308</ele>
        <time>2017-09-08T12:37:40.1Z</time>
      </trkpt>
      <trkpt lat="45.82853" lon="4.83529">
        <ele>307</ele>
        <time>2017-09-08T12:37:41.1Z</time>
      </trkpt>
      <trkpt lat="45.82859" lon="4.83528">
        <ele>308</ele>
        <time>2017-09-08T12:37:42.1Z</time>
      </trkpt>
      <trkpt lat="45.82864" lon="4.83528">
        <ele>307</ele>
        <time>2017-09-08T12:37:43.1Z</time>
      </trkpt>
      <trkpt lat="45.8287" lon="4.83527">
        <ele>307</ele>
        <time>2017-09-08T12:37:44.1Z</time>
      </trkpt>
      <trkpt lat="45.82877" lon="4.83526">
        <ele>307</ele>
        <time>2017-09-08T12:37:45.1Z</time>
      </trkpt>
      <trkpt lat="45.82888" lon="4.83524">
        <ele>308</ele>
        <time>2017-09-08T12:37:47.1Z</time>
      </trkpt>
      <trkpt lat="45.82901" lon="4.83522">
        <ele>308</ele>
        <time>2017-09-08T12:37:49.1Z</time>
      </trkpt>
      <trkpt lat="45.82913" lon="4.83517">
        <ele>308</ele>
        <time>2017-09-08T12:37:51.1Z</time>
      </trkpt>
      <trkpt lat="45.82925" lon="4.83511">
        <ele>308</ele>
        <time>2017-09-08T12:37:53.1Z</time>
      </trkpt>
      <trkpt lat="45.82932" lon="4.83508">
        <ele>308</ele>
        <time>2017-09-08T12:37:54.1Z</time>
      </trkpt>
      <trkpt lat="45.82938" lon="4.83504">
        <ele>308</ele>
        <time>2017-09-08T12:37:55.1Z</time>
      </trkpt>
      <trkpt lat="45.82945" lon="4.835">
        <ele>308</ele>
        <time>2017-09-08T12:37:56.1Z</time>
      </trkpt>
      <trkpt lat="45.82957" lon="4.83492">
        <ele>309</ele>
        <time>2017-09-08T12:37:58.1Z</time>
      </trkpt>
      <trkpt lat="45.8297" lon="4.83482">
        <ele>308</ele>
        <time>2017-09-08T12:38:00.1Z</time>
      </trkpt>
      <trkpt lat="45.82977" lon="4.83477">
        <ele>308</ele>
        <time>2017-09-08T12:38:01.1Z</time>
      </trkpt>
      <trkpt lat="45.8299" lon="4.83469">
        <ele>307</ele>
        <time>2017-09-08T12:38:03.1Z</time>
      </trkpt>
      <trkpt lat="45.82998" lon="4.83465">
        <ele>307</ele>
        <time>2017-09-08T12:38:04.1Z</time>
      </trkpt>
      <trkpt lat="45.83013" lon="4.83456">
        <ele>306</ele>
        <time>2017-09-08T12:38:06.1Z</time>
      </trkpt>
      <trkpt lat="45.83029" lon="4.83447">
        <ele>305</ele>
        <time>2017-09-08T12:38:08.1Z</time>
      </trkpt>
      <trkpt lat="45.83038" lon="4.83442">
        <ele>304</ele>
        <time>2017-09-08T12:38:09.1Z</time>
      </trkpt>
      <trkpt lat="45.83056" lon="4.83431">
        <ele>303</ele>
        <time>2017-09-08T12:38:11.1Z</time>
      </trkpt>
      <trkpt lat="45.83065" lon="4.83426">
        <ele>303</ele>
        <time>2017-09-08T12:38:12.1Z</time>
      </trkpt>
      <trkpt lat="45.83073" lon="4.83421">
        <ele>302</ele>
        <time>2017-09-08T12:38:13.1Z</time>
      </trkpt>
      <trkpt lat="45.83082" lon="4.83416">
        <ele>302</ele>
        <time>2017-09-08T12:38:14.1Z</time>
      </trkpt>
      <trkpt lat="45.83091" lon="4.8341">
        <ele>302</ele>
        <time>2017-09-08T12:38:15.1Z</time>
      </trkpt>
      <trkpt lat="45.83099" lon="4.83405">
        <ele>301</ele>
        <time>2017-09-08T12:38:16.1Z</time>
      </trkpt>
      <trkpt lat="45.83106" lon="4.834">
        <ele>301</ele>
        <time>2017-09-08T12:38:17.1Z</time>
      </trkpt>
      <trkpt lat="45.83119" lon="4.83388">
        <ele>301</ele>
        <time>2017-09-08T12:38:19.1Z</time>
      </trkpt>
      <trkpt lat="45.83131" lon="4.83377">
        <ele>300</ele>
        <time>2017-09-08T12:38:21.1Z</time>
      </trkpt>
      <trkpt lat="45.83137" lon="4.83371">
        <ele>300</ele>
        <time>2017-09-08T12:38:22.1Z</time>
      </trkpt>
      <trkpt lat="45.83143" lon="4.83365">
        <ele>300</ele>
        <time>2017-09-08T12:38:23.1Z</time>
      </trkpt>
      <trkpt lat="45.83148" lon="4.8336">
        <ele>300</ele>
        <time>2017-09-08T12:38:24.1Z</time>
      </trkpt>
      <trkpt lat="45.83159" lon="4.83349">
        <ele>300</ele>
        <time>2017-09-08T12:38:26.1Z</time>
      </trkpt>
      <trkpt lat="45.83165" lon="4.83343">
        <ele>300</ele>
        <time>2017-09-08T12:38:27.1Z</time>
      </trkpt>
      <trkpt lat="45.83175" lon="4.8333">
        <ele>300</ele>
        <time>2017-09-08T12:38:29.1Z</time>
      </trkpt>
      <trkpt lat="45.8318" lon="4.83324">
        <ele>300</ele>
        <time>2017-09-08T12:38:30.1Z</time>
      </trkpt>
      <trkpt lat="45.83185" lon="4.83318">
        <ele>300</ele>
        <time>2017-09-08T12:38:31.1Z</time>
      </trkpt>
      <trkpt lat="45.83189" lon="4.83311">
        <ele>300</ele>
        <time>2017-09-08T12:38:32.1Z</time>
      </trkpt>
      <trkpt lat="45.83194" lon="4.83304">
        <ele>300</ele>
        <time>2017-09-08T12:38:33.1Z</time>
      </trkpt>
      <trkpt lat="45.83199" lon="4.83296">
        <ele>300</ele>
        <time>2017-09-08T12:38:34.1Z</time>
      </trkpt>
      <trkpt lat="45.83208" lon="4.83282">
        <ele>300</ele>
        <time>2017-09-08T12:38:36.1Z</time>
      </trkpt>
      <trkpt lat="45.83217" lon="4.83268">
        <ele>300</ele>
        <time>2017-09-08T12:38:38.1Z</time>
      </trkpt>
      <trkpt lat="45.83222" lon="4.8326">
        <ele>300</ele>
        <time>2017-09-08T12:38:39.1Z</time>
      </trkpt>
      <trkpt lat="45.83226" lon="4.83253">
        <ele>300</ele>
        <time>2017-09-08T12:38:40.1Z</time>
      </trkpt>
      <trkpt lat="45.83235" lon="4.83239">
        <ele>300</ele>
        <time>2017-09-08T12:38:42.1Z</time>
      </trkpt>
      <trkpt lat="45.8324" lon="4.83232">
        <ele>300</ele>
        <time>2017-09-08T12:38:43.1Z</time>
      </trkpt>
      <trkpt lat="45.83244" lon="4.83225">
        <ele>300</ele>
        <time>2017-09-08T12:38:44.1Z</time>
      </trkpt>
      <trkpt lat="45.83252" lon="4.83211">
        <ele>300</ele>
        <time>2017-09-08T12:38:46.1Z</time>
      </trkpt>
      <trkpt lat="45.83257" lon="4.83204">
        <ele>300</ele>
        <time>2017-09-08T12:38:47.1Z</time>
      </trkpt>
      <trkpt lat="45.83261" lon="4.83197">
        <ele>301</ele>
        <time>2017-09-08T12:38:48.1Z</time>
      </trkpt>
      <trkpt lat="45.8327" lon="4.83184">
        <ele>301</ele>
        <time>2017-09-08T12:38:50.1Z</time>
      </trkpt>
      <trkpt lat="45.83275" lon="4.83179">
        <ele>301</ele>
        <time>2017-09-08T12:38:51.1Z</time>
      </trkpt>
      <trkpt lat="45.8328" lon="4.83173">
        <ele>301</ele>
        <time>2017-09-08T12:38:52.1Z</time>
      </trkpt>
      <trkpt lat="45.83284" lon="4.83167">
        <ele>301</ele>
        <time>2017-09-08T12:38:53.1Z</time>
      </trkpt>
      <trkpt lat="45.83293" lon="4.83153">
        <ele>301</ele>
        <time>2017-09-08T12:38:55.1Z</time>
      </trkpt>
      <trkpt lat="45.83297" lon="4.83146">
        <ele>301</ele>
        <time>2017-09-08T12:38:56.1Z</time>
      </trkpt>
      <trkpt lat="45.83301" lon="4.83138">
        <ele>301</ele>
        <time>2017-09-08T12:38:57.1Z</time>
      </trkpt>
      <trkpt lat="45.83305" lon="4.83129">
        <ele>301</ele>
        <time>2017-09-08T12:38:58.1Z</time>
      </trkpt>
      <trkpt lat="45.83313" lon="4.83111">
        <ele>301</ele>
        <time>2017-09-08T12:39:00.1Z</time>
      </trkpt>
      <trkpt lat="45.83318" lon="4.83101">
        <ele>300</ele>
        <time>2017-09-08T12:39:01.1Z</time>
      </trkpt>
      <trkpt lat="45.83327" lon="4.8308">
        <ele>300</ele>
        <time>2017-09-08T12:39:03.1Z</time>
      </trkpt>
      <trkpt lat="45.83333" lon="4.8307">
        <ele>299</ele>
        <time>2017-09-08T12:39:04.1Z</time>
      </trkpt>
      <trkpt lat="45.83338" lon="4.83059">
        <ele>299</ele>
        <time>2017-09-08T12:39:05.1Z</time>
      </trkpt>
      <trkpt lat="45.83343" lon="4.83049">
        <ele>299</ele>
        <time>2017-09-08T12:39:06.1Z</time>
      </trkpt>
      <trkpt lat="45.83348" lon="4.83039">
        <ele>298</ele>
        <time>2017-09-08T12:39:07.1Z</time>
      </trkpt>
      <trkpt lat="45.83354" lon="4.83028">
        <ele>298</ele>
        <time>2017-09-08T12:39:08.1Z</time>
      </trkpt>
      <trkpt lat="45.83366" lon="4.8301">
        <ele>297</ele>
        <time>2017-09-08T12:39:10.1Z</time>
      </trkpt>
      <trkpt lat="45.83372" lon="4.83003">
        <ele>297</ele>
        <time>2017-09-08T12:39:11.1Z</time>
      </trkpt>
      <trkpt lat="45.83386" lon="4.82991">
        <ele>296</ele>
        <time>2017-09-08T12:39:13.1Z</time>
      </trkpt>
      <trkpt lat="45.83393" lon="4.82985">
        <ele>296</ele>
        <time>2017-09-08T12:39:14.1Z</time>
      </trkpt>
      <trkpt lat="45.834" lon="4.82979">
        <ele>296</ele>
        <time>2017-09-08T12:39:15.1Z</time>
      </trkpt>
      <trkpt lat="45.83412" lon="4.82963">
        <ele>295</ele>
        <time>2017-09-08T12:39:17.1Z</time>
      </trkpt>
      <trkpt lat="45.83419" lon="4.82941">
        <ele>294</ele>
        <time>2017-09-08T12:39:19.1Z</time>
      </trkpt>
      <trkpt lat="45.83423" lon="4.8293">
        <ele>294</ele>
        <time>2017-09-08T12:39:20.1Z</time>
      </trkpt>
      <trkpt lat="45.83429" lon="4.82907">
        <ele>293</ele>
        <time>2017-09-08T12:39:22.1Z</time>
      </trkpt>
      <trkpt lat="45.83432" lon="4.82896">
        <ele>293</ele>
        <time>2017-09-08T12:39:23.1Z</time>
      </trkpt>
      <trkpt lat="45.83438" lon="4.82876">
        <ele>293</ele>
        <time>2017-09-08T12:39:25.1Z</time>
      </trkpt>
      <trkpt lat="45.8344" lon="4.82867">
        <ele>292</ele>
        <time>2017-09-08T12:39:26.1Z</time>
      </trkpt>
      <trkpt lat="45.83443" lon="4.82859">
        <ele>292</ele>
        <time>2017-09-08T12:39:27.1Z</time>
      </trkpt>
      <trkpt lat="45.83445" lon="4.8285">
        <ele>293</ele>
        <time>2017-09-08T12:39:28.1Z</time>
      </trkpt>
      <trkpt lat="45.83447" lon="4.82841">
        <ele>293</ele>
        <time>2017-09-08T12:39:29.1Z</time>
      </trkpt>
      <trkpt lat="45.8345" lon="4.82823">
        <ele>293</ele>
        <time>2017-09-08T12:39:31.1Z</time>
      </trkpt>
      <trkpt lat="45.8345" lon="4.82814">
        <ele>293</ele>
        <time>2017-09-08T12:39:32.1Z</time>
      </trkpt>
      <trkpt lat="45.83451" lon="4.82804">
        <ele>293</ele>
        <time>2017-09-08T12:39:33.1Z</time>
      </trkpt>
      <trkpt lat="45.83452" lon="4.82783">
        <ele>293</ele>
        <time>2017-09-08T12:39:35.1Z</time>
      </trkpt>
      <trkpt lat="45.83454" lon="4.82772">
        <ele>293</ele>
        <time>2017-09-08T12:39:36.1Z</time>
      </trkpt>
      <trkpt lat="45.83461" lon="4.8275">
        <ele>292</ele>
        <time>2017-09-08T12:39:38.1Z</time>
      </trkpt>
      <trkpt lat="45.83466" lon="4.8274">
        <ele>292</ele>
        <time>2017-09-08T12:39:39.1Z</time>
      </trkpt>
      <trkpt lat="45.83471" lon="4.82729">
        <ele>291</ele>
        <time>2017-09-08T12:39:40.1Z</time>
      </trkpt>
      <trkpt lat="45.83483" lon="4.82708">
        <ele>291</ele>
        <time>2017-09-08T12:39:42.1Z</time>
      </trkpt>
      <trkpt lat="45.83494" lon="4.82685">
        <ele>290</ele>
        <time>2017-09-08T12:39:44.1Z</time>
      </trkpt>
      <trkpt lat="45.835" lon="4.82673">
        <ele>289</ele>
        <time>2017-09-08T12:39:45.1Z</time>
      </trkpt>
      <trkpt lat="45.83505" lon="4.82661">
        <ele>288</ele>
        <time>2017-09-08T12:39:46.1Z</time>
      </trkpt>
      <trkpt lat="45.83516" lon="4.82635">
        <ele>287</ele>
        <time>2017-09-08T12:39:48.1Z</time>
      </trkpt>
      <trkpt lat="45.83526" lon="4.82608">
        <ele>285</ele>
        <time>2017-09-08T12:39:50.1Z</time>
      </trkpt>
      <trkpt lat="45.83536" lon="4.82579">
        <ele>284</ele>
        <time>2017-09-08T12:39:52.1Z</time>
      </trkpt>
      <trkpt lat="45.83541" lon="4.82565">
        <ele>283</ele>
        <time>2017-09-08T12:39:53.1Z</time>
      </trkpt>
      <trkpt lat="45.83546" lon="4.8255">
        <ele>282</ele>
        <time>2017-09-08T12:39:54.1Z</time>
      </trkpt>
      <trkpt lat="45.8355" lon="4.82535">
        <ele>281</ele>
        <time>2017-09-08T12:39:55.1Z</time>
      </trkpt>
      <trkpt lat="45.83554" lon="4.8252">
        <ele>281</ele>
        <time>2017-09-08T12:39:56.1Z</time>
      </trkpt>
      <trkpt lat="45.83558" lon="4.82505">
        <ele>279</ele>
        <time>2017-09-08T12:39:57.1Z</time>
      </trkpt>
      <trkpt lat="45.83562" lon="4.8249">
        <ele>278</ele>
        <time>2017-09-08T12:39:58.1Z</time>
      </trkpt>
      <trkpt lat="45.83567" lon="4.82476">
        <ele>277</ele>
        <time>2017-09-08T12:39:59.1Z</time>
      </trkpt>
      <trkpt lat="45.8358" lon="4.82448">
        <ele>276</ele>
        <time>2017-09-08T12:40:01.1Z</time>
      </trkpt>
      <trkpt lat="45.83593" lon="4.82423">
        <ele>275</ele>
        <time>2017-09-08T12:40:03.1Z</time>
      </trkpt>
      <trkpt lat="45.83603" lon="4.82398">
        <ele>272</ele>
        <time>2017-09-08T12:40:05.1Z</time>
      </trkpt>
      <trkpt lat="45.83606" lon="4.82385">
        <ele>271</ele>
        <time>2017-09-08T12:40:06.1Z</time>
      </trkpt>
      <trkpt lat="45.83608" lon="4.82358">
        <ele>269</ele>
        <time>2017-09-08T12:40:08.1Z</time>
      </trkpt>
      <trkpt lat="45.83606" lon="4.8233">
        <ele>267</ele>
        <time>2017-09-08T12:40:10.1Z</time>
      </trkpt>
      <trkpt lat="45.83604" lon="4.82302">
        <ele>265</ele>
        <time>2017-09-08T12:40:12.1Z</time>
      </trkpt>
      <trkpt lat="45.83604" lon="4.82291">
        <ele>264</ele>
        <time>2017-09-08T12:40:13.1Z</time>
      </trkpt>
      <trkpt lat="45.83605" lon="4.82281">
        <ele>263</ele>
        <time>2017-09-08T12:40:14.1Z</time>
      </trkpt>
      <trkpt lat="45.83608" lon="4.82275">
        <ele>262</ele>
        <time>2017-09-08T12:40:15.1Z</time>
      </trkpt>
      <trkpt lat="45.83613" lon="4.82271">
        <ele>261</ele>
        <time>2017-09-08T12:40:16.1Z</time>
      </trkpt>
      <trkpt lat="45.83626" lon="4.82272">
        <ele>259</ele>
        <time>2017-09-08T12:40:18.1Z</time>
      </trkpt>
      <trkpt lat="45.83639" lon="4.8228">
        <ele>258</ele>
        <time>2017-09-08T12:40:20.1Z</time>
      </trkpt>
      <trkpt lat="45.83644" lon="4.82283">
        <ele>257</ele>
        <time>2017-09-08T12:40:21.1Z</time>
      </trkpt>
      <trkpt lat="45.83648" lon="4.82286">
        <ele>256</ele>
        <time>2017-09-08T12:40:22.1Z</time>
      </trkpt>
      <trkpt lat="45.83652" lon="4.82288">
        <ele>255</ele>
        <time>2017-09-08T12:40:23.1Z</time>
      </trkpt>
      <trkpt lat="45.83655" lon="4.82289">
        <ele>255</ele>
        <time>2017-09-08T12:40:24.1Z</time>
      </trkpt>
      <trkpt lat="45.83659" lon="4.82291">
        <ele>254</ele>
        <time>2017-09-08T12:40:25.1Z</time>
      </trkpt>
      <trkpt lat="45.83664" lon="4.82294">
        <ele>253</ele>
        <time>2017-09-08T12:40:27.1Z</time>
      </trkpt>
      <trkpt lat="45.83668" lon="4.82296">
        <ele>253</ele>
        <time>2017-09-08T12:40:28.1Z</time>
      </trkpt>
      <trkpt lat="45.83671" lon="4.82297">
        <ele>252</ele>
        <time>2017-09-08T12:40:29.1Z</time>
      </trkpt>
      <trkpt lat="45.83677" lon="4.823">
        <ele>252</ele>
        <time>2017-09-08T12:40:31.1Z</time>
      </trkpt>
      <trkpt lat="45.83679" lon="4.82301">
        <ele>251</ele>
        <time>2017-09-08T12:40:32.1Z</time>
      </trkpt>
      <trkpt lat="45.83682" lon="4.82301">
        <ele>251</ele>
        <time>2017-09-08T12:40:33.1Z</time>
      </trkpt>
      <trkpt lat="45.83689" lon="4.82302">
        <ele>251</ele>
        <time>2017-09-08T12:40:35.1Z</time>
      </trkpt>
      <trkpt lat="45.83695" lon="4.82303">
        <ele>250</ele>
        <time>2017-09-08T12:40:37.1Z</time>
      </trkpt>
      <trkpt lat="45.83698" lon="4.82303">
        <ele>250</ele>
        <time>2017-09-08T12:40:38.1Z</time>
      </trkpt>
      <trkpt lat="45.83704" lon="4.82304">
        <ele>249</ele>
        <time>2017-09-08T12:40:40.1Z</time>
      </trkpt>
      <trkpt lat="45.8371" lon="4.82306">
        <ele>249</ele>
        <time>2017-09-08T12:40:42.1Z</time>
      </trkpt>
      <trkpt lat="45.83713" lon="4.82307">
        <ele>249</ele>
        <time>2017-09-08T12:40:43.1Z</time>
      </trkpt>
      <trkpt lat="45.83716" lon="4.82309">
        <ele>249</ele>
        <time>2017-09-08T12:40:44.1Z</time>
      </trkpt>
      <trkpt lat="45.83723" lon="4.82314">
        <ele>249</ele>
        <time>2017-09-08T12:40:46.1Z</time>
      </trkpt>
      <trkpt lat="45.83729" lon="4.82324">
        <ele>249</ele>
        <time>2017-09-08T12:40:48.1Z</time>
      </trkpt>
      <trkpt lat="45.83732" lon="4.82329">
        <ele>249</ele>
        <time>2017-09-08T12:40:49.1Z</time>
      </trkpt>
      <trkpt lat="45.83738" lon="4.82339">
        <ele>249</ele>
        <time>2017-09-08T12:40:51.1Z</time>
      </trkpt>
      <trkpt lat="45.8374" lon="4.82345">
        <ele>248</ele>
        <time>2017-09-08T12:40:52.1Z</time>
      </trkpt>
      <trkpt lat="45.83746" lon="4.82355">
        <ele>247</ele>
        <time>2017-09-08T12:40:54.1Z</time>
      </trkpt>
      <trkpt lat="45.83748" lon="4.8236">
        <ele>247</ele>
        <time>2017-09-08T12:40:55.1Z</time>
      </trkpt>
      <trkpt lat="45.83751" lon="4.82365">
        <ele>246</ele>
        <time>2017-09-08T12:40:56.1Z</time>
      </trkpt>
      <trkpt lat="45.83753" lon="4.8237">
        <ele>246</ele>
        <time>2017-09-08T12:40:57.1Z</time>
      </trkpt>
      <trkpt lat="45.83755" lon="4.82374">
        <ele>245</ele>
        <time>2017-09-08T12:40:58.1Z</time>
      </trkpt>
      <trkpt lat="45.83758" lon="4.82379">
        <ele>245</ele>
        <time>2017-09-08T12:40:59.1Z</time>
      </trkpt>
      <trkpt lat="45.83762" lon="4.82388">
        <ele>244</ele>
        <time>2017-09-08T12:41:01.1Z</time>
      </trkpt>
      <trkpt lat="45.83764" lon="4.82393">
        <ele>244</ele>
        <time>2017-09-08T12:41:02.1Z</time>
      </trkpt>
      <trkpt lat="45.83765" lon="4.82398">
        <ele>244</ele>
        <time>2017-09-08T12:41:03.1Z</time>
      </trkpt>
      <trkpt lat="45.8377" lon="4.82407">
        <ele>244</ele>
        <time>2017-09-08T12:41:05.1Z</time>
      </trkpt>
      <trkpt lat="45.83771" lon="4.82412">
        <ele>244</ele>
        <time>2017-09-08T12:41:06.1Z</time>
      </trkpt>
      <trkpt lat="45.83775" lon="4.82422">
        <ele>244</ele>
        <time>2017-09-08T12:41:08.1Z</time>
      </trkpt>
      <trkpt lat="45.83777" lon="4.82432">
        <ele>244</ele>
        <time>2017-09-08T12:41:10.1Z</time>
      </trkpt>
      <trkpt lat="45.83777" lon="4.82437">
        <ele>244</ele>
        <time>2017-09-08T12:41:11.1Z</time>
      </trkpt>
      <trkpt lat="45.83777" lon="4.82442">
        <ele>244</ele>
        <time>2017-09-08T12:41:12.1Z</time>
      </trkpt>
      <trkpt lat="45.83777" lon="4.82448">
        <ele>244</ele>
        <time>2017-09-08T12:41:13.1Z</time>
      </trkpt>
      <trkpt lat="45.83777" lon="4.82459">
        <ele>243</ele>
        <time>2017-09-08T12:41:15.1Z</time>
      </trkpt>
      <trkpt lat="45.83777" lon="4.82465">
        <ele>243</ele>
        <time>2017-09-08T12:41:16.1Z</time>
      </trkpt>
      <trkpt lat="45.83776" lon="4.82471">
        <ele>243</ele>
        <time>2017-09-08T12:41:17.1Z</time>
      </trkpt>
      <trkpt lat="45.83776" lon="4.82476">
        <ele>242</ele>
        <time>2017-09-08T12:41:18.1Z</time>
      </trkpt>
      <trkpt lat="45.83776" lon="4.82485">
        <ele>242</ele>
        <time>2017-09-08T12:41:20.1Z</time>
      </trkpt>
      <trkpt lat="45.83776" lon="4.82489">
        <ele>242</ele>
        <time>2017-09-08T12:41:21.1Z</time>
      </trkpt>
      <trkpt lat="45.83778" lon="4.82496">
        <ele>242</ele>
        <time>2017-09-08T12:41:23.1Z</time>
      </trkpt>
      <trkpt lat="45.8378" lon="4.82499">
        <ele>241</ele>
        <time>2017-09-08T12:41:24.1Z</time>
      </trkpt>
      <trkpt lat="45.83783" lon="4.825">
        <ele>241</ele>
        <time>2017-09-08T12:41:25.1Z</time>
      </trkpt>
      <trkpt lat="45.83788" lon="4.82503">
        <ele>241</ele>
        <time>2017-09-08T12:41:27.1Z</time>
      </trkpt>
      <trkpt lat="45.83794" lon="4.82503">
        <ele>241</ele>
        <time>2017-09-08T12:41:29.1Z</time>
      </trkpt>
      <trkpt lat="45.83801" lon="4.82503">
        <ele>241</ele>
        <time>2017-09-08T12:41:31.1Z</time>
      </trkpt>
      <trkpt lat="45.83805" lon="4.82503">
        <ele>241</ele>
        <time>2017-09-08T12:41:32.1Z</time>
      </trkpt>
      <trkpt lat="45.83808" lon="4.82502">
        <ele>242</ele>
        <time>2017-09-08T12:41:33.1Z</time>
      </trkpt>
      <trkpt lat="45.83812" lon="4.82502">
        <ele>242</ele>
        <time>2017-09-08T12:41:34.1Z</time>
      </trkpt>
      <trkpt lat="45.83815" lon="4.82502">
        <ele>242</ele>
        <time>2017-09-08T12:41:35.1Z</time>
      </trkpt>
      <trkpt lat="45.83823" lon="4.82502">
        <ele>242</ele>
        <time>2017-09-08T12:41:37.1Z</time>
      </trkpt>
      <trkpt lat="45.83829" lon="4.82505">
        <ele>241</ele>
        <time>2017-09-08T12:41:39.1Z</time>
      </trkpt>
      <trkpt lat="45.83837" lon="4.82508">
        <ele>241</ele>
        <time>2017-09-08T12:41:41.1Z</time>
      </trkpt>
      <trkpt lat="45.83844" lon="4.82512">
        <ele>241</ele>
        <time>2017-09-08T12:41:43.1Z</time>
      </trkpt>
      <trkpt lat="45.8385" lon="4.82519">
        <ele>241</ele>
        <time>2017-09-08T12:41:45.1Z</time>
      </trkpt>
      <trkpt lat="45.83853" lon="4.82523">
        <ele>241</ele>
        <time>2017-09-08T12:41:46.1Z</time>
      </trkpt>
      <trkpt lat="45.83855" lon="4.82527">
        <ele>242</ele>
        <time>2017-09-08T12:41:47.1Z</time>
      </trkpt>
      <trkpt lat="45.83857" lon="4.82538">
        <ele>242</ele>
        <time>2017-09-08T12:41:49.1Z</time>
      </trkpt>
      <trkpt lat="45.8386" lon="4.82549">
        <ele>243</ele>
        <time>2017-09-08T12:41:51.1Z</time>
      </trkpt>
      <trkpt lat="45.83862" lon="4.82555">
        <ele>243</ele>
        <time>2017-09-08T12:41:52.1Z</time>
      </trkpt>
      <trkpt lat="45.83863" lon="4.82561">
        <ele>242</ele>
        <time>2017-09-08T12:41:53.1Z</time>
      </trkpt>
      <trkpt lat="45.83868" lon="4.82573">
        <ele>242</ele>
        <time>2017-09-08T12:41:55.1Z</time>
      </trkpt>
      <trkpt lat="45.8387" lon="4.8258">
        <ele>242</ele>
        <time>2017-09-08T12:41:56.1Z</time>
      </trkpt>
      <trkpt lat="45.83872" lon="4.82586">
        <ele>242</ele>
        <time>2017-09-08T12:41:57.1Z</time>
      </trkpt>
      <trkpt lat="45.83876" lon="4.82599">
        <ele>242</ele>
        <time>2017-09-08T12:41:59.1Z</time>
      </trkpt>
      <trkpt lat="45.83878" lon="4.82606">
        <ele>241</ele>
        <time>2017-09-08T12:42:00.1Z</time>
      </trkpt>
      <trkpt lat="45.83881" lon="4.82613">
        <ele>241</ele>
        <time>2017-09-08T12:42:01.1Z</time>
      </trkpt>
      <trkpt lat="45.83883" lon="4.8262">
        <ele>241</ele>
        <time>2017-09-08T12:42:02.1Z</time>
      </trkpt>
      <trkpt lat="45.83886" lon="4.82627">
        <ele>241</ele>
        <time>2017-09-08T12:42:03.1Z</time>
      </trkpt>
      <trkpt lat="45.83891" lon="4.82642">
        <ele>240</ele>
        <time>2017-09-08T12:42:05.1Z</time>
      </trkpt>
      <trkpt lat="45.83895" lon="4.82658">
        <ele>240</ele>
        <time>2017-09-08T12:42:07.1Z</time>
      </trkpt>
      <trkpt lat="45.83898" lon="4.82666">
        <ele>239</ele>
        <time>2017-09-08T12:42:08.1Z</time>
      </trkpt>
      <trkpt lat="45.83901" lon="4.82674">
        <ele>239</ele>
        <time>2017-09-08T12:42:09.1Z</time>
      </trkpt>
      <trkpt lat="45.83904" lon="4.82682">
        <ele>238</ele>
        <time>2017-09-08T12:42:10.1Z</time>
      </trkpt>
      <trkpt lat="45.83907" lon="4.82691">
        <ele>238</ele>
        <time>2017-09-08T12:42:11.1Z</time>
      </trkpt>
      <trkpt lat="45.8391" lon="4.82699">
        <ele>237</ele>
        <time>2017-09-08T12:42:12.1Z</time>
      </trkpt>
      <trkpt lat="45.83917" lon="4.82716">
        <ele>235</ele>
        <time>2017-09-08T12:42:14.1Z</time>
      </trkpt>
      <trkpt lat="45.8392" lon="4.82724">
        <ele>235</ele>
        <time>2017-09-08T12:42:15.1Z</time>
      </trkpt>
      <trkpt lat="45.83926" lon="4.82739">
        <ele>233</ele>
        <time>2017-09-08T12:42:17.1Z</time>
      </trkpt>
      <trkpt lat="45.83933" lon="4.82755">
        <ele>232</ele>
        <time>2017-09-08T12:42:19.1Z</time>
      </trkpt>
      <trkpt lat="45.83937" lon="4.82762">
        <ele>231</ele>
        <time>2017-09-08T12:42:20.1Z</time>
      </trkpt>
      <trkpt lat="45.8394" lon="4.82769">
        <ele>231</ele>
        <time>2017-09-08T12:42:21.1Z</time>
      </trkpt>
      <trkpt lat="45.83943" lon="4.82775">
        <ele>230</ele>
        <time>2017-09-08T12:42:22.1Z</time>
      </trkpt>
      <trkpt lat="45.83949" lon="4.8279">
        <ele>229</ele>
        <time>2017-09-08T12:42:24.1Z</time>
      </trkpt>
      <trkpt lat="45.8395" lon="4.82797">
        <ele>228</ele>
        <time>2017-09-08T12:42:25.1Z</time>
      </trkpt>
      <trkpt lat="45.83954" lon="4.8281">
        <ele>227</ele>
        <time>2017-09-08T12:42:27.1Z</time>
      </trkpt>
      <trkpt lat="45.83956" lon="4.82816">
        <ele>226</ele>
        <time>2017-09-08T12:42:28.1Z</time>
      </trkpt>
      <trkpt lat="45.83959" lon="4.82821">
        <ele>226</ele>
        <time>2017-09-08T12:42:29.1Z</time>
      </trkpt>
      <trkpt lat="45.83965" lon="4.82829">
        <ele>225</ele>
        <time>2017-09-08T12:42:31.1Z</time>
      </trkpt>
      <trkpt lat="45.83967" lon="4.82832">
        <ele>225</ele>
        <time>2017-09-08T12:42:32.1Z</time>
      </trkpt>
      <trkpt lat="45.83969" lon="4.82836">
        <ele>225</ele>
        <time>2017-09-08T12:42:33.1Z</time>
      </trkpt>
      <trkpt lat="45.83971" lon="4.82842">
        <ele>224</ele>
        <time>2017-09-08T12:42:34.1Z</time>
      </trkpt>
      <trkpt lat="45.83978" lon="4.82855">
        <ele>224</ele>
        <time>2017-09-08T12:42:36.1Z</time>
      </trkpt>
      <trkpt lat="45.83984" lon="4.82866">
        <ele>223</ele>
        <time>2017-09-08T12:42:38.1Z</time>
      </trkpt>
      <trkpt lat="45.83999" lon="4.82883">
        <ele>222</ele>
        <time>2017-09-08T12:42:42.1Z</time>
      </trkpt>
      <trkpt lat="45.84008" lon="4.82887">
        <ele>221</ele>
        <time>2017-09-08T12:42:44.1Z</time>
      </trkpt>
      <trkpt lat="45.84013" lon="4.8289">
        <ele>221</ele>
        <time>2017-09-08T12:42:45.1Z</time>
      </trkpt>
      <trkpt lat="45.84021" lon="4.82896">
        <ele>221</ele>
        <time>2017-09-08T12:42:47.1Z</time>
      </trkpt>
      <trkpt lat="45.84025" lon="4.829">
        <ele>221</ele>
        <time>2017-09-08T12:42:48.1Z</time>
      </trkpt>
      <trkpt lat="45.84029" lon="4.82904">
        <ele>221</ele>
        <time>2017-09-08T12:42:49.1Z</time>
      </trkpt>
      <trkpt lat="45.84036" lon="4.82914">
        <ele>221</ele>
        <time>2017-09-08T12:42:51.1Z</time>
      </trkpt>
      <trkpt lat="45.84043" lon="4.82925">
        <ele>220</ele>
        <time>2017-09-08T12:42:53.1Z</time>
      </trkpt>
      <trkpt lat="45.84046" lon="4.82938">
        <ele>220</ele>
        <time>2017-09-08T12:42:55.1Z</time>
      </trkpt>
      <trkpt lat="45.84047" lon="4.82955">
        <ele>219</ele>
        <time>2017-09-08T12:42:57.1Z</time>
      </trkpt>
      <trkpt lat="45.84047" lon="4.82964">
        <ele>219</ele>
        <time>2017-09-08T12:42:58.1Z</time>
      </trkpt>
      <trkpt lat="45.84048" lon="4.82973">
        <ele>219</ele>
        <time>2017-09-08T12:42:59.1Z</time>
      </trkpt>
      <trkpt lat="45.84048" lon="4.82982">
        <ele>219</ele>
        <time>2017-09-08T12:43:00.1Z</time>
      </trkpt>
      <trkpt lat="45.84049" lon="4.82991">
        <ele>219</ele>
        <time>2017-09-08T12:43:01.1Z</time>
      </trkpt>
      <trkpt lat="45.84051" lon="4.83008">
        <ele>218</ele>
        <time>2017-09-08T12:43:03.1Z</time>
      </trkpt>
      <trkpt lat="45.84052" lon="4.83017">
        <ele>218</ele>
        <time>2017-09-08T12:43:04.1Z</time>
      </trkpt>
      <trkpt lat="45.84052" lon="4.83027">
        <ele>217</ele>
        <time>2017-09-08T12:43:05.1Z</time>
      </trkpt>
      <trkpt lat="45.84053" lon="4.83035">
        <ele>217</ele>
        <time>2017-09-08T12:43:06.1Z</time>
      </trkpt>
      <trkpt lat="45.84054" lon="4.83049">
        <ele>217</ele>
        <time>2017-09-08T12:43:08.1Z</time>
      </trkpt>
      <trkpt lat="45.84055" lon="4.83055">
        <ele>216</ele>
        <time>2017-09-08T12:43:09.1Z</time>
      </trkpt>
      <trkpt lat="45.84055" lon="4.8306">
        <ele>216</ele>
        <time>2017-09-08T12:43:10.1Z</time>
      </trkpt>
      <trkpt lat="45.84056" lon="4.83064">
        <ele>216</ele>
        <time>2017-09-08T12:43:11.1Z</time>
      </trkpt>
      <trkpt lat="45.84061" lon="4.83069">
        <ele>215</ele>
        <time>2017-09-08T12:43:13.1Z</time>
      </trkpt>
      <trkpt lat="45.84063" lon="4.83071">
        <ele>215</ele>
        <time>2017-09-08T12:43:14.1Z</time>
      </trkpt>
      <trkpt lat="45.84069" lon="4.83073">
        <ele>215</ele>
        <time>2017-09-08T12:43:16.1Z</time>
      </trkpt>
      <trkpt lat="45.84076" lon="4.83075">
        <ele>215</ele>
        <time>2017-09-08T12:43:18.1Z</time>
      </trkpt>
      <trkpt lat="45.84083" lon="4.83076">
        <ele>215</ele>
        <time>2017-09-08T12:43:20.1Z</time>
      </trkpt>
      <trkpt lat="45.84087" lon="4.83077">
        <ele>215</ele>
        <time>2017-09-08T12:43:21.1Z</time>
      </trkpt>
      <trkpt lat="45.84094" lon="4.83079">
        <ele>215</ele>
        <time>2017-09-08T12:43:23.1Z</time>
      </trkpt>
      <trkpt lat="45.84098" lon="4.83081">
        <ele>215</ele>
        <time>2017-09-08T12:43:24.1Z</time>
      </trkpt>
      <trkpt lat="45.84102" lon="4.83082">
        <ele>215</ele>
        <time>2017-09-08T12:43:25.1Z</time>
      </trkpt>
      <trkpt lat="45.84106" lon="4.83083">
        <ele>215</ele>
        <time>2017-09-08T12:43:26.1Z</time>
      </trkpt>
      <trkpt lat="45.84115" lon="4.83085">
        <ele>215</ele>
        <time>2017-09-08T12:43:28.1Z</time>
      </trkpt>
      <trkpt lat="45.8412" lon="4.83086">
        <ele>214</ele>
        <time>2017-09-08T12:43:29.1Z</time>
      </trkpt>
      <trkpt lat="45.84129" lon="4.83087">
        <ele>214</ele>
        <time>2017-09-08T12:43:31.1Z</time>
      </trkpt>
      <trkpt lat="45.84134" lon="4.83088">
        <ele>214</ele>
        <time>2017-09-08T12:43:32.1Z</time>
      </trkpt>
      <trkpt lat="45.84144" lon="4.83089">
        <ele>214</ele>
        <time>2017-09-08T12:43:34.1Z</time>
      </trkpt>
      <trkpt lat="45.84153" lon="4.8309">
        <ele>214</ele>
        <time>2017-09-08T12:43:36.1Z</time>
      </trkpt>
      <trkpt lat="45.84158" lon="4.83091">
        <ele>214</ele>
        <time>2017-09-08T12:43:37.1Z</time>
      </trkpt>
      <trkpt lat="45.84168" lon="4.83092">
        <ele>214</ele>
        <time>2017-09-08T12:43:39.1Z</time>
      </trkpt>
      <trkpt lat="45.84173" lon="4.83094">
        <ele>214</ele>
        <time>2017-09-08T12:43:40.1Z</time>
      </trkpt>
      <trkpt lat="45.84178" lon="4.83095">
        <ele>214</ele>
        <time>2017-09-08T12:43:41.1Z</time>
      </trkpt>
      <trkpt lat="45.84183" lon="4.83096">
        <ele>214</ele>
        <time>2017-09-08T12:43:42.1Z</time>
      </trkpt>
      <trkpt lat="45.84188" lon="4.83097">
        <ele>214</ele>
        <time>2017-09-08T12:43:43.1Z</time>
      </trkpt>
      <trkpt lat="45.84198" lon="4.83099">
        <ele>214</ele>
        <time>2017-09-08T12:43:45.1Z</time>
      </trkpt>
      <trkpt lat="45.84203" lon="4.831">
        <ele>214</ele>
        <time>2017-09-08T12:43:46.1Z</time>
      </trkpt>
      <trkpt lat="45.84208" lon="4.83101">
        <ele>215</ele>
        <time>2017-09-08T12:43:47.1Z</time>
      </trkpt>
      <trkpt lat="45.84213" lon="4.83103">
        <ele>215</ele>
        <time>2017-09-08T12:43:48.1Z</time>
      </trkpt>
      <trkpt lat="45.84218" lon="4.83104">
        <ele>215</ele>
        <time>2017-09-08T12:43:49.1Z</time>
      </trkpt>
      <trkpt lat="45.84224" lon="4.83105">
        <ele>214</ele>
        <time>2017-09-08T12:43:50.1Z</time>
      </trkpt>
      <trkpt lat="45.84234" lon="4.83107">
        <ele>215</ele>
        <time>2017-09-08T12:43:52.1Z</time>
      </trkpt>
      <trkpt lat="45.84239" lon="4.83109">
        <ele>215</ele>
        <time>2017-09-08T12:43:53.1Z</time>
      </trkpt>
      <trkpt lat="45.84244" lon="4.8311">
        <ele>215</ele>
        <time>2017-09-08T12:43:54.1Z</time>
      </trkpt>
      <trkpt lat="45.84255" lon="4.83112">
        <ele>215</ele>
        <time>2017-09-08T12:43:56.1Z</time>
      </trkpt>
      <trkpt lat="45.8426" lon="4.83113">
        <ele>215</ele>
        <time>2017-09-08T12:43:57.1Z</time>
      </trkpt>
      <trkpt lat="45.8427" lon="4.83116">
        <ele>215</ele>
        <time>2017-09-08T12:43:59.1Z</time>
      </trkpt>
      <trkpt lat="45.84275" lon="4.83117">
        <ele>215</ele>
        <time>2017-09-08T12:44:00.1Z</time>
      </trkpt>
      <trkpt lat="45.84281" lon="4.83119">
        <ele>215</ele>
        <time>2017-09-08T12:44:01.1Z</time>
      </trkpt>
      <trkpt lat="45.84291" lon="4.8312">
        <ele>215</ele>
        <time>2017-09-08T12:44:03.1Z</time>
      </trkpt>
      <trkpt lat="45.84296" lon="4.83121">
        <ele>215</ele>
        <time>2017-09-08T12:44:04.1Z</time>
      </trkpt>
      <trkpt lat="45.84301" lon="4.83123">
        <ele>215</ele>
        <time>2017-09-08T12:44:05.1Z</time>
      </trkpt>
      <trkpt lat="45.84305" lon="4.83124">
        <ele>215</ele>
        <time>2017-09-08T12:44:06.1Z</time>
      </trkpt>
      <trkpt lat="45.84315" lon="4.83127">
        <ele>215</ele>
        <time>2017-09-08T12:44:08.1Z</time>
      </trkpt>
      <trkpt lat="45.8432" lon="4.83128">
        <ele>215</ele>
        <time>2017-09-08T12:44:09.1Z</time>
      </trkpt>
      <trkpt lat="45.84325" lon="4.83129">
        <ele>215</ele>
        <time>2017-09-08T12:44:10.1Z</time>
      </trkpt>
      <trkpt lat="45.8433" lon="4.83131">
        <ele>215</ele>
        <time>2017-09-08T12:44:11.1Z</time>
      </trkpt>
      <trkpt lat="45.84334" lon="4.83132">
        <ele>215</ele>
        <time>2017-09-08T12:44:12.1Z</time>
      </trkpt>
      <trkpt lat="45.84339" lon="4.83133">
        <ele>215</ele>
        <time>2017-09-08T12:44:13.1Z</time>
      </trkpt>
      <trkpt lat="45.84344" lon="4.83133">
        <ele>215</ele>
        <time>2017-09-08T12:44:14.1Z</time>
      </trkpt>
      <trkpt lat="45.84353" lon="4.83135">
        <ele>215</ele>
        <time>2017-09-08T12:44:16.1Z</time>
      </trkpt>
      <trkpt lat="45.84357" lon="4.83136">
        <ele>216</ele>
        <time>2017-09-08T12:44:17.1Z</time>
      </trkpt>
      <trkpt lat="45.84365" lon="4.83137">
        <ele>216</ele>
        <time>2017-09-08T12:44:19.1Z</time>
      </trkpt>
      <trkpt lat="45.84369" lon="4.83138">
        <ele>216</ele>
        <time>2017-09-08T12:44:20.1Z</time>
      </trkpt>
      <trkpt lat="45.84373" lon="4.83138">
        <ele>216</ele>
        <time>2017-09-08T12:44:21.1Z</time>
      </trkpt>
      <trkpt lat="45.84377" lon="4.83139">
        <ele>216</ele>
        <time>2017-09-08T12:44:22.1Z</time>
      </trkpt>
      <trkpt lat="45.84381" lon="4.8314">
        <ele>216</ele>
        <time>2017-09-08T12:44:23.1Z</time>
      </trkpt>
      <trkpt lat="45.84389" lon="4.83142">
        <ele>216</ele>
        <time>2017-09-08T12:44:25.1Z</time>
      </trkpt>
      <trkpt lat="45.84393" lon="4.83143">
        <ele>216</ele>
        <time>2017-09-08T12:44:26.1Z</time>
      </trkpt>
      <trkpt lat="45.84397" lon="4.83144">
        <ele>216</ele>
        <time>2017-09-08T12:44:27.1Z</time>
      </trkpt>
      <trkpt lat="45.84401" lon="4.83144">
        <ele>216</ele>
        <time>2017-09-08T12:44:28.1Z</time>
      </trkpt>
      <trkpt lat="45.84405" lon="4.83145">
        <ele>215</ele>
        <time>2017-09-08T12:44:29.1Z</time>
      </trkpt>
      <trkpt lat="45.84409" lon="4.83146">
        <ele>216</ele>
        <time>2017-09-08T12:44:30.1Z</time>
      </trkpt>
      <trkpt lat="45.84414" lon="4.83147">
        <ele>216</ele>
        <time>2017-09-08T12:44:31.1Z</time>
      </trkpt>
      <trkpt lat="45.84418" lon="4.83149">
        <ele>216</ele>
        <time>2017-09-08T12:44:32.1Z</time>
      </trkpt>
      <trkpt lat="45.84426" lon="4.83152">
        <ele>216</ele>
        <time>2017-09-08T12:44:34.1Z</time>
      </trkpt>
      <trkpt lat="45.8443" lon="4.83154">
        <ele>216</ele>
        <time>2017-09-08T12:44:35.1Z</time>
      </trkpt>
      <trkpt lat="45.84434" lon="4.83154">
        <ele>216</ele>
        <time>2017-09-08T12:44:36.1Z</time>
      </trkpt>
      <trkpt lat="45.84442" lon="4.83155">
        <ele>216</ele>
        <time>2017-09-08T12:44:38.1Z</time>
      </trkpt>
      <trkpt lat="45.84446" lon="4.83156">
        <ele>216</ele>
        <time>2017-09-08T12:44:39.1Z</time>
      </trkpt>
      <trkpt lat="45.8445" lon="4.83158">
        <ele>216</ele>
        <time>2017-09-08T12:44:40.1Z</time>
      </trkpt>
      <trkpt lat="45.84454" lon="4.83158">
        <ele>216</ele>
        <time>2017-09-08T12:44:41.1Z</time>
      </trkpt>
      <trkpt lat="45.84462" lon="4.8316">
        <ele>216</ele>
        <time>2017-09-08T12:44:43.1Z</time>
      </trkpt>
      <trkpt lat="45.84466" lon="4.8316">
        <ele>216</ele>
        <time>2017-09-08T12:44:44.1Z</time>
      </trkpt>
      <trkpt lat="45.8447" lon="4.83161">
        <ele>216</ele>
        <time>2017-09-08T12:44:45.1Z</time>
      </trkpt>
      <trkpt lat="45.84478" lon="4.83162">
        <ele>217</ele>
        <time>2017-09-08T12:44:47.1Z</time>
      </trkpt>
      <trkpt lat="45.84481" lon="4.83162">
        <ele>217</ele>
        <time>2017-09-08T12:44:48.1Z</time>
      </trkpt>
      <trkpt lat="45.84485" lon="4.83161">
        <ele>217</ele>
        <time>2017-09-08T12:44:49.1Z</time>
      </trkpt>
      <trkpt lat="45.84492" lon="4.83161">
        <ele>217</ele>
        <time>2017-09-08T12:44:51.1Z</time>
      </trkpt>
      <trkpt lat="45.84497" lon="4.83161">
        <ele>217</ele>
        <time>2017-09-08T12:44:52.1Z</time>
      </trkpt>
      <trkpt lat="45.84504" lon="4.8316">
        <ele>217</ele>
        <time>2017-09-08T12:44:54.1Z</time>
      </trkpt>
      <trkpt lat="45.8451" lon="4.83157">
        <ele>217</ele>
        <time>2017-09-08T12:44:56.1Z</time>
      </trkpt>
      <trkpt lat="45.84515" lon="4.83156">
        <ele>217</ele>
        <time>2017-09-08T12:44:58.1Z</time>
      </trkpt>
      <trkpt lat="45.84521" lon="4.83155">
        <ele>217</ele>
        <time>2017-09-08T12:45:00.1Z</time>
      </trkpt>
      <trkpt lat="45.84527" lon="4.83151">
        <ele>217</ele>
        <time>2017-09-08T12:45:02.1Z</time>
      </trkpt>
      <trkpt lat="45.84531" lon="4.83143">
        <ele>217</ele>
        <time>2017-09-08T12:45:04.1Z</time>
      </trkpt>
      <trkpt lat="45.84531" lon="4.83132">
        <ele>217</ele>
        <time>2017-09-08T12:45:06.1Z</time>
      </trkpt>
      <trkpt lat="45.84531" lon="4.83126">
        <ele>217</ele>
        <time>2017-09-08T12:45:07.1Z</time>
      </trkpt>
      <trkpt lat="45.84529" lon="4.83115">
        <ele>217</ele>
        <time>2017-09-08T12:45:09.1Z</time>
      </trkpt>
      <trkpt lat="45.84529" lon="4.83109">
        <ele>217</ele>
        <time>2017-09-08T12:45:10.1Z</time>
      </trkpt>
      <trkpt lat="45.84528" lon="4.83104">
        <ele>217</ele>
        <time>2017-09-08T12:45:11.1Z</time>
      </trkpt>
      <trkpt lat="45.84528" lon="4.83098">
        <ele>217</ele>
        <time>2017-09-08T12:45:12.1Z</time>
      </trkpt>
      <trkpt lat="45.84526" lon="4.83086">
        <ele>217</ele>
        <time>2017-09-08T12:45:14.1Z</time>
      </trkpt>
      <trkpt lat="45.84526" lon="4.83081">
        <ele>217</ele>
        <time>2017-09-08T12:45:15.1Z</time>
      </trkpt>
      <trkpt lat="45.84526" lon="4.83075">
        <ele>218</ele>
        <time>2017-09-08T12:45:16.1Z</time>
      </trkpt>
      <trkpt lat="45.84525" lon="4.8307">
        <ele>218</ele>
        <time>2017-09-08T12:45:17.1Z</time>
      </trkpt>
      <trkpt lat="45.84525" lon="4.83065">
        <ele>218</ele>
        <time>2017-09-08T12:45:18.1Z</time>
      </trkpt>
      <trkpt lat="45.84524" lon="4.8306">
        <ele>218</ele>
        <time>2017-09-08T12:45:19.1Z</time>
      </trkpt>
      <trkpt lat="45.84523" lon="4.8305">
        <ele>219</ele>
        <time>2017-09-08T12:45:21.1Z</time>
      </trkpt>
      <trkpt lat="45.84522" lon="4.83045">
        <ele>219</ele>
        <time>2017-09-08T12:45:22.1Z</time>
      </trkpt>
      <trkpt lat="45.84521" lon="4.83041">
        <ele>220</ele>
        <time>2017-09-08T12:45:23.1Z</time>
      </trkpt>
      <trkpt lat="45.84522" lon="4.83037">
        <ele>220</ele>
        <time>2017-09-08T12:45:24.1Z</time>
      </trkpt>
      <trkpt lat="45.84523" lon="4.83034">
        <ele>220</ele>
        <time>2017-09-08T12:45:25.1Z</time>
      </trkpt>
      <trkpt lat="45.84531" lon="4.83031">
        <ele>220</ele>
        <time>2017-09-08T12:45:27.1Z</time>
      </trkpt>
      <trkpt lat="45.84539" lon="4.83029">
        <ele>220</ele>
        <time>2017-09-08T12:45:29.1Z</time>
      </trkpt>
      <trkpt lat="45.84544" lon="4.83028">
        <ele>221</ele>
        <time>2017-09-08T12:45:30.1Z</time>
      </trkpt>
      <trkpt lat="45.84549" lon="4.83027">
        <ele>221</ele>
        <time>2017-09-08T12:45:31.1Z</time>
      </trkpt>
      <trkpt lat="45.84554" lon="4.83027">
        <ele>221</ele>
        <time>2017-09-08T12:45:32.1Z</time>
      </trkpt>
      <trkpt lat="45.84564" lon="4.83025">
        <ele>221</ele>
        <time>2017-09-08T12:45:34.1Z</time>
      </trkpt>
      <trkpt lat="45.84568" lon="4.83025">
        <ele>221</ele>
        <time>2017-09-08T12:45:35.1Z</time>
      </trkpt>
      <trkpt lat="45.84573" lon="4.83024">
        <ele>221</ele>
        <time>2017-09-08T12:45:36.1Z</time>
      </trkpt>
      <trkpt lat="45.84584" lon="4.83023">
        <ele>220</ele>
        <time>2017-09-08T12:45:38.1Z</time>
      </trkpt>
      <trkpt lat="45.84589" lon="4.83023">
        <ele>220</ele>
        <time>2017-09-08T12:45:39.1Z</time>
      </trkpt>
      <trkpt lat="45.84598" lon="4.83022">
        <ele>220</ele>
        <time>2017-09-08T12:45:41.1Z</time>
      </trkpt>
      <trkpt lat="45.84602" lon="4.83021">
        <ele>220</ele>
        <time>2017-09-08T12:45:42.1Z</time>
      </trkpt>
      <trkpt lat="45.84607" lon="4.83021">
        <ele>220</ele>
        <time>2017-09-08T12:45:43.1Z</time>
      </trkpt>
      <trkpt lat="45.84619" lon="4.8302">
        <ele>220</ele>
        <time>2017-09-08T12:45:45.1Z</time>
      </trkpt>
      <trkpt lat="45.84624" lon="4.83019">
        <ele>219</ele>
        <time>2017-09-08T12:45:46.1Z</time>
      </trkpt>
      <trkpt lat="45.8463" lon="4.83018">
        <ele>219</ele>
        <time>2017-09-08T12:45:47.1Z</time>
      </trkpt>
      <trkpt lat="45.84636" lon="4.83017">
        <ele>219</ele>
        <time>2017-09-08T12:45:48.1Z</time>
      </trkpt>
      <trkpt lat="45.84649" lon="4.83015">
        <ele>219</ele>
        <time>2017-09-08T12:45:50.1Z</time>
      </trkpt>
      <trkpt lat="45.8466" lon="4.83013">
        <ele>219</ele>
        <time>2017-09-08T12:45:52.1Z</time>
      </trkpt>
      <trkpt lat="45.84666" lon="4.83013">
        <ele>219</ele>
        <time>2017-09-08T12:45:53.1Z</time>
      </trkpt>
      <trkpt lat="45.84671" lon="4.83012">
        <ele>219</ele>
        <time>2017-09-08T12:45:54.1Z</time>
      </trkpt>
      <trkpt lat="45.84679" lon="4.83012">
        <ele>219</ele>
        <time>2017-09-08T12:45:56.1Z</time>
      </trkpt>
      <trkpt lat="45.84684" lon="4.83011">
        <ele>219</ele>
        <time>2017-09-08T12:45:57.1Z</time>
      </trkpt>
      <trkpt lat="45.84689" lon="4.8301">
        <ele>219</ele>
        <time>2017-09-08T12:45:58.1Z</time>
      </trkpt>
      <trkpt lat="45.84694" lon="4.8301">
        <ele>219</ele>
        <time>2017-09-08T12:45:59.1Z</time>
      </trkpt>
      <trkpt lat="45.84705" lon="4.83008">
        <ele>219</ele>
        <time>2017-09-08T12:46:01.1Z</time>
      </trkpt>
      <trkpt lat="45.84711" lon="4.83008">
        <ele>218</ele>
        <time>2017-09-08T12:46:02.1Z</time>
      </trkpt>
      <trkpt lat="45.84717" lon="4.83007">
        <ele>218</ele>
        <time>2017-09-08T12:46:03.1Z</time>
      </trkpt>
      <trkpt lat="45.84722" lon="4.83007">
        <ele>218</ele>
        <time>2017-09-08T12:46:04.1Z</time>
      </trkpt>
      <trkpt lat="45.84734" lon="4.83006">
        <ele>219</ele>
        <time>2017-09-08T12:46:06.1Z</time>
      </trkpt>
      <trkpt lat="45.84746" lon="4.83004">
        <ele>219</ele>
        <time>2017-09-08T12:46:08.1Z</time>
      </trkpt>
      <trkpt lat="45.84752" lon="4.83003">
        <ele>219</ele>
        <time>2017-09-08T12:46:09.1Z</time>
      </trkpt>
      <trkpt lat="45.84757" lon="4.83002">
        <ele>219</ele>
        <time>2017-09-08T12:46:10.1Z</time>
      </trkpt>
      <trkpt lat="45.84763" lon="4.83001">
        <ele>219</ele>
        <time>2017-09-08T12:46:11.1Z</time>
      </trkpt>
      <trkpt lat="45.84769" lon="4.83">
        <ele>219</ele>
        <time>2017-09-08T12:46:12.1Z</time>
      </trkpt>
      <trkpt lat="45.84775" lon="4.82999">
        <ele>219</ele>
        <time>2017-09-08T12:46:13.1Z</time>
      </trkpt>
      <trkpt lat="45.84781" lon="4.82999">
        <ele>219</ele>
        <time>2017-09-08T12:46:14.1Z</time>
      </trkpt>
      <trkpt lat="45.84793" lon="4.82998">
        <ele>219</ele>
        <time>2017-09-08T12:46:16.1Z</time>
      </trkpt>
      <trkpt lat="45.848" lon="4.82997">
        <ele>219</ele>
        <time>2017-09-08T12:46:17.1Z</time>
      </trkpt>
      <trkpt lat="45.84806" lon="4.82996">
        <ele>219</ele>
        <time>2017-09-08T12:46:18.1Z</time>
      </trkpt>
      <trkpt lat="45.84818" lon="4.82995">
        <ele>219</ele>
        <time>2017-09-08T12:46:20.1Z</time>
      </trkpt>
      <trkpt lat="45.84824" lon="4.82995">
        <ele>219</ele>
        <time>2017-09-08T12:46:21.1Z</time>
      </trkpt>
      <trkpt lat="45.84829" lon="4.82994">
        <ele>220</ele>
        <time>2017-09-08T12:46:22.1Z</time>
      </trkpt>
      <trkpt lat="45.84835" lon="4.82993">
        <ele>219</ele>
        <time>2017-09-08T12:46:23.1Z</time>
      </trkpt>
      <trkpt lat="45.84842" lon="4.82992">
        <ele>220</ele>
        <time>2017-09-08T12:46:24.1Z</time>
      </trkpt>
      <trkpt lat="45.84848" lon="4.82991">
        <ele>220</ele>
        <time>2017-09-08T12:46:25.1Z</time>
      </trkpt>
      <trkpt lat="45.84861" lon="4.8299">
        <ele>220</ele>
        <time>2017-09-08T12:46:27.1Z</time>
      </trkpt>
      <trkpt lat="45.84874" lon="4.82989">
        <ele>219</ele>
        <time>2017-09-08T12:46:29.1Z</time>
      </trkpt>
      <trkpt lat="45.8488" lon="4.82989">
        <ele>220</ele>
        <time>2017-09-08T12:46:30.1Z</time>
      </trkpt>
      <trkpt lat="45.84893" lon="4.82986">
        <ele>220</ele>
        <time>2017-09-08T12:46:32.1Z</time>
      </trkpt>
      <trkpt lat="45.84899" lon="4.82985">
        <ele>220</ele>
        <time>2017-09-08T12:46:33.1Z</time>
      </trkpt>
      <trkpt lat="45.84905" lon="4.82984">
        <ele>220</ele>
        <time>2017-09-08T12:46:34.1Z</time>
      </trkpt>
      <trkpt lat="45.84911" lon="4.82984">
        <ele>220</ele>
        <time>2017-09-08T12:46:35.1Z</time>
      </trkpt>
      <trkpt lat="45.84917" lon="4.82984">
        <ele>220</ele>
        <time>2017-09-08T12:46:36.1Z</time>
      </trkpt>
      <trkpt lat="45.84929" lon="4.82989">
        <ele>220</ele>
        <time>2017-09-08T12:46:38.1Z</time>
      </trkpt>
      <trkpt lat="45.84935" lon="4.82993">
        <ele>220</ele>
        <time>2017-09-08T12:46:39.1Z</time>
      </trkpt>
      <trkpt lat="45.84941" lon="4.82998">
        <ele>220</ele>
        <time>2017-09-08T12:46:40.1Z</time>
      </trkpt>
      <trkpt lat="45.84953" lon="4.83007">
        <ele>220</ele>
        <time>2017-09-08T12:46:42.1Z</time>
      </trkpt>
      <trkpt lat="45.84966" lon="4.83016">
        <ele>220</ele>
        <time>2017-09-08T12:46:44.1Z</time>
      </trkpt>
      <trkpt lat="45.84972" lon="4.8302">
        <ele>220</ele>
        <time>2017-09-08T12:46:45.1Z</time>
      </trkpt>
      <trkpt lat="45.84978" lon="4.83023">
        <ele>220</ele>
        <time>2017-09-08T12:46:46.1Z</time>
      </trkpt>
      <trkpt lat="45.8499" lon="4.83026">
        <ele>220</ele>
        <time>2017-09-08T12:46:48.1Z</time>
      </trkpt>
      <trkpt lat="45.85002" lon="4.83029">
        <ele>220</ele>
        <time>2017-09-08T12:46:50.1Z</time>
      </trkpt>
      <trkpt lat="45.85015" lon="4.83032">
        <ele>220</ele>
        <time>2017-09-08T12:46:52.1Z</time>
      </trkpt>
      <trkpt lat="45.85027" lon="4.83035">
        <ele>220</ele>
        <time>2017-09-08T12:46:54.1Z</time>
      </trkpt>
      <trkpt lat="45.85034" lon="4.83036">
        <ele>220</ele>
        <time>2017-09-08T12:46:55.1Z</time>
      </trkpt>
      <trkpt lat="45.8504" lon="4.83037">
        <ele>220</ele>
        <time>2017-09-08T12:46:56.1Z</time>
      </trkpt>
      <trkpt lat="45.85053" lon="4.83039">
        <ele>220</ele>
        <time>2017-09-08T12:46:58.1Z</time>
      </trkpt>
      <trkpt lat="45.85066" lon="4.83041">
        <ele>220</ele>
        <time>2017-09-08T12:47:00.1Z</time>
      </trkpt>
      <trkpt lat="45.85078" lon="4.83043">
        <ele>221</ele>
        <time>2017-09-08T12:47:02.1Z</time>
      </trkpt>
      <trkpt lat="45.8509" lon="4.83044">
        <ele>221</ele>
        <time>2017-09-08T12:47:04.1Z</time>
      </trkpt>
      <trkpt lat="45.85101" lon="4.83045">
        <ele>221</ele>
        <time>2017-09-08T12:47:06.1Z</time>
      </trkpt>
      <trkpt lat="45.85112" lon="4.83046">
        <ele>222</ele>
        <time>2017-09-08T12:47:08.1Z</time>
      </trkpt>
      <trkpt lat="45.85121" lon="4.83046">
        <ele>222</ele>
        <time>2017-09-08T12:47:10.1Z</time>
      </trkpt>
      <trkpt lat="45.85129" lon="4.83047">
        <ele>222</ele>
        <time>2017-09-08T12:47:12.1Z</time>
      </trkpt>
      <trkpt lat="45.85133" lon="4.83047">
        <ele>222</ele>
        <time>2017-09-08T12:47:13.1Z</time>
      </trkpt>
      <trkpt lat="45.85137" lon="4.83048">
        <ele>223</ele>
        <time>2017-09-08T12:47:14.1Z</time>
      </trkpt>
      <trkpt lat="45.85145" lon="4.83049">
        <ele>223</ele>
        <time>2017-09-08T12:47:16.1Z</time>
      </trkpt>
      <trkpt lat="45.85148" lon="4.83049">
        <ele>223</ele>
        <time>2017-09-08T12:47:17.1Z</time>
      </trkpt>
      <trkpt lat="45.85152" lon="4.8305">
        <ele>223</ele>
        <time>2017-09-08T12:47:18.1Z</time>
      </trkpt>
      <trkpt lat="45.85158" lon="4.8305">
        <ele>223</ele>
        <time>2017-09-08T12:47:20.1Z</time>
      </trkpt>
      <trkpt lat="45.8516" lon="4.83051">
        <ele>224</ele>
        <time>2017-09-08T12:47:21.1Z</time>
      </trkpt>
      <trkpt lat="45.85163" lon="4.83051">
        <ele>224</ele>
        <time>2017-09-08T12:47:22.1Z</time>
      </trkpt>
      <trkpt lat="45.85168" lon="4.83052">
        <ele>224</ele>
        <time>2017-09-08T12:47:24.1Z</time>
      </trkpt>
      <trkpt lat="45.8517" lon="4.83053">
        <ele>224</ele>
        <time>2017-09-08T12:47:25.1Z</time>
      </trkpt>
      <trkpt lat="45.85172" lon="4.83054">
        <ele>225</ele>
        <time>2017-09-08T12:47:26.1Z</time>
      </trkpt>
      <trkpt lat="45.85174" lon="4.83055">
        <ele>225</ele>
        <time>2017-09-08T12:47:27.1Z</time>
      </trkpt>
      <trkpt lat="45.85177" lon="4.83056">
        <ele>226</ele>
        <time>2017-09-08T12:47:28.1Z</time>
      </trkpt>
      <trkpt lat="45.85179" lon="4.83058">
        <ele>226</ele>
        <time>2017-09-08T12:47:29.1Z</time>
      </trkpt>
      <trkpt lat="45.85182" lon="4.83059">
        <ele>226</ele>
        <time>2017-09-08T12:47:30.1Z</time>
      </trkpt>
      <trkpt lat="45.85187" lon="4.83058">
        <ele>227</ele>
        <time>2017-09-08T12:47:32.1Z</time>
      </trkpt>
      <trkpt lat="45.85193" lon="4.83057">
        <ele>228</ele>
        <time>2017-09-08T12:47:34.1Z</time>
      </trkpt>
      <trkpt lat="45.85198" lon="4.83056">
        <ele>228</ele>
        <time>2017-09-08T12:47:36.1Z</time>
      </trkpt>
      <trkpt lat="45.85205" lon="4.83056">
        <ele>227</ele>
        <time>2017-09-08T12:47:38.1Z</time>
      </trkpt>
      <trkpt lat="45.85208" lon="4.83057">
        <ele>228</ele>
        <time>2017-09-08T12:47:39.1Z</time>
      </trkpt>
      <trkpt lat="45.85216" lon="4.83059">
        <ele>227</ele>
        <time>2017-09-08T12:47:41.1Z</time>
      </trkpt>
      <trkpt lat="45.8522" lon="4.8306">
        <ele>227</ele>
        <time>2017-09-08T12:47:42.1Z</time>
      </trkpt>
      <trkpt lat="45.85225" lon="4.83061">
        <ele>226</ele>
        <time>2017-09-08T12:47:43.1Z</time>
      </trkpt>
      <trkpt lat="45.8523" lon="4.83062">
        <ele>226</ele>
        <time>2017-09-08T12:47:44.1Z</time>
      </trkpt>
      <trkpt lat="45.85241" lon="4.83065">
        <ele>226</ele>
        <time>2017-09-08T12:47:46.1Z</time>
      </trkpt>
      <trkpt lat="45.85248" lon="4.83067">
        <ele>226</ele>
        <time>2017-09-08T12:47:47.1Z</time>
      </trkpt>
      <trkpt lat="45.85254" lon="4.83069">
        <ele>225</ele>
        <time>2017-09-08T12:47:48.1Z</time>
      </trkpt>
      <trkpt lat="45.85268" lon="4.83071">
        <ele>224</ele>
        <time>2017-09-08T12:47:50.1Z</time>
      </trkpt>
      <trkpt lat="45.85274" lon="4.83072">
        <ele>224</ele>
        <time>2017-09-08T12:47:51.1Z</time>
      </trkpt>
      <trkpt lat="45.85288" lon="4.83074">
        <ele>223</ele>
        <time>2017-09-08T12:47:53.1Z</time>
      </trkpt>
      <trkpt lat="45.85301" lon="4.83076">
        <ele>223</ele>
        <time>2017-09-08T12:47:55.1Z</time>
      </trkpt>
      <trkpt lat="45.85307" lon="4.83078">
        <ele>222</ele>
        <time>2017-09-08T12:47:56.1Z</time>
      </trkpt>
      <trkpt lat="45.85313" lon="4.8308">
        <ele>222</ele>
        <time>2017-09-08T12:47:57.1Z</time>
      </trkpt>
      <trkpt lat="45.85319" lon="4.83082">
        <ele>222</ele>
        <time>2017-09-08T12:47:58.1Z</time>
      </trkpt>
      <trkpt lat="45.85332" lon="4.83086">
        <ele>221</ele>
        <time>2017-09-08T12:48:00.1Z</time>
      </trkpt>
      <trkpt lat="45.85345" lon="4.83091">
        <ele>221</ele>
        <time>2017-09-08T12:48:02.1Z</time>
      </trkpt>
      <trkpt lat="45.85352" lon="4.83093">
        <ele>221</ele>
        <time>2017-09-08T12:48:03.1Z</time>
      </trkpt>
      <trkpt lat="45.85358" lon="4.83095">
        <ele>221</ele>
        <time>2017-09-08T12:48:04.1Z</time>
      </trkpt>
      <trkpt lat="45.85371" lon="4.83098">
        <ele>221</ele>
        <time>2017-09-08T12:48:06.1Z</time>
      </trkpt>
      <trkpt lat="45.85377" lon="4.83099">
        <ele>221</ele>
        <time>2017-09-08T12:48:07.1Z</time>
      </trkpt>
      <trkpt lat="45.85383" lon="4.83101">
        <ele>221</ele>
        <time>2017-09-08T12:48:08.1Z</time>
      </trkpt>
      <trkpt lat="45.85389" lon="4.83102">
        <ele>222</ele>
        <time>2017-09-08T12:48:09.1Z</time>
      </trkpt>
      <trkpt lat="45.85401" lon="4.83105">
        <ele>222</ele>
        <time>2017-09-08T12:48:11.1Z</time>
      </trkpt>
      <trkpt lat="45.85407" lon="4.83106">
        <ele>222</ele>
        <time>2017-09-08T12:48:12.1Z</time>
      </trkpt>
      <trkpt lat="45.85413" lon="4.83107">
        <ele>221</ele>
        <time>2017-09-08T12:48:13.1Z</time>
      </trkpt>
      <trkpt lat="45.85419" lon="4.83107">
        <ele>222</ele>
        <time>2017-09-08T12:48:14.1Z</time>
      </trkpt>
      <trkpt lat="45.85431" lon="4.8311">
        <ele>221</ele>
        <time>2017-09-08T12:48:16.1Z</time>
      </trkpt>
      <trkpt lat="45.85441" lon="4.83114">
        <ele>221</ele>
        <time>2017-09-08T12:48:18.1Z</time>
      </trkpt>
      <trkpt lat="45.85448" lon="4.83114">
        <ele>221</ele>
        <time>2017-09-08T12:48:20.1Z</time>
      </trkpt>
      <trkpt lat="45.8545" lon="4.83111">
        <ele>221</ele>
        <time>2017-09-08T12:48:21.1Z</time>
      </trkpt>
      <trkpt lat="45.85452" lon="4.83105">
        <ele>221</ele>
        <time>2017-09-08T12:48:23.1Z</time>
      </trkpt>
      <trkpt lat="45.85459" lon="4.83086">
        <ele>221</ele>
        <time>2017-09-08T12:48:27.1Z</time>
      </trkpt>
      <trkpt lat="45.85463" lon="4.83084">
        <ele>221</ele>
        <time>2017-09-08T12:48:28.1Z</time>
      </trkpt>
      <trkpt lat="45.85472" lon="4.83085">
        <ele>221</ele>
        <time>2017-09-08T12:48:30.1Z</time>
      </trkpt>
      <trkpt lat="45.85476" lon="4.83086">
        <ele>221</ele>
        <time>2017-09-08T12:48:31.1Z</time>
      </trkpt>
      <trkpt lat="45.85481" lon="4.83087">
        <ele>221</ele>
        <time>2017-09-08T12:48:32.1Z</time>
      </trkpt>
      <trkpt lat="45.8549" lon="4.8309">
        <ele>221</ele>
        <time>2017-09-08T12:48:34.1Z</time>
      </trkpt>
      <trkpt lat="45.855" lon="4.83093">
        <ele>221</ele>
        <time>2017-09-08T12:48:36.1Z</time>
      </trkpt>
      <trkpt lat="45.8551" lon="4.83096">
        <ele>222</ele>
        <time>2017-09-08T12:48:38.1Z</time>
      </trkpt>
      <trkpt lat="45.85515" lon="4.83097">
        <ele>222</ele>
        <time>2017-09-08T12:48:39.1Z</time>
      </trkpt>
      <trkpt lat="45.8552" lon="4.83099">
        <ele>222</ele>
        <time>2017-09-08T12:48:40.1Z</time>
      </trkpt>
      <trkpt lat="45.85525" lon="4.831">
        <ele>222</ele>
        <time>2017-09-08T12:48:41.1Z</time>
      </trkpt>
      <trkpt lat="45.85535" lon="4.83103">
        <ele>223</ele>
        <time>2017-09-08T12:48:43.1Z</time>
      </trkpt>
      <trkpt lat="45.8554" lon="4.83104">
        <ele>223</ele>
        <time>2017-09-08T12:48:44.1Z</time>
      </trkpt>
      <trkpt lat="45.85545" lon="4.83106">
        <ele>223</ele>
        <time>2017-09-08T12:48:45.1Z</time>
      </trkpt>
      <trkpt lat="45.8555" lon="4.83107">
        <ele>223</ele>
        <time>2017-09-08T12:48:46.1Z</time>
      </trkpt>
      <trkpt lat="45.8556" lon="4.8311">
        <ele>224</ele>
        <time>2017-09-08T12:48:48.1Z</time>
      </trkpt>
      <trkpt lat="45.8557" lon="4.83113">
        <ele>224</ele>
        <time>2017-09-08T12:48:50.1Z</time>
      </trkpt>
      <trkpt lat="45.85575" lon="4.83114">
        <ele>224</ele>
        <time>2017-09-08T12:48:51.1Z</time>
      </trkpt>
      <trkpt lat="45.85581" lon="4.83115">
        <ele>224</ele>
        <time>2017-09-08T12:48:52.1Z</time>
      </trkpt>
      <trkpt lat="45.85586" lon="4.83117">
        <ele>224</ele>
        <time>2017-09-08T12:48:53.1Z</time>
      </trkpt>
      <trkpt lat="45.85591" lon="4.83118">
        <ele>224</ele>
        <time>2017-09-08T12:48:54.1Z</time>
      </trkpt>
      <trkpt lat="45.85596" lon="4.8312">
        <ele>224</ele>
        <time>2017-09-08T12:48:55.1Z</time>
      </trkpt>
      <trkpt lat="45.85601" lon="4.83121">
        <ele>224</ele>
        <time>2017-09-08T12:48:56.1Z</time>
      </trkpt>
      <trkpt lat="45.85611" lon="4.83123">
        <ele>224</ele>
        <time>2017-09-08T12:48:58.1Z</time>
      </trkpt>
      <trkpt lat="45.85616" lon="4.83124">
        <ele>224</ele>
        <time>2017-09-08T12:48:59.1Z</time>
      </trkpt>
      <trkpt lat="45.8562" lon="4.83126">
        <ele>224</ele>
        <time>2017-09-08T12:49:00.1Z</time>
      </trkpt>
      <trkpt lat="45.85625" lon="4.83127">
        <ele>224</ele>
        <time>2017-09-08T12:49:01.1Z</time>
      </trkpt>
      <trkpt lat="45.8563" lon="4.83129">
        <ele>224</ele>
        <time>2017-09-08T12:49:02.1Z</time>
      </trkpt>
      <trkpt lat="45.85634" lon="4.83129">
        <ele>224</ele>
        <time>2017-09-08T12:49:03.1Z</time>
      </trkpt>
      <trkpt lat="45.85643" lon="4.83131">
        <ele>224</ele>
        <time>2017-09-08T12:49:05.1Z</time>
      </trkpt>
      <trkpt lat="45.85648" lon="4.83133">
        <ele>224</ele>
        <time>2017-09-08T12:49:06.1Z</time>
      </trkpt>
      <trkpt lat="45.85652" lon="4.83134">
        <ele>224</ele>
        <time>2017-09-08T12:49:07.1Z</time>
      </trkpt>
      <trkpt lat="45.85657" lon="4.83135">
        <ele>224</ele>
        <time>2017-09-08T12:49:08.1Z</time>
      </trkpt>
      <trkpt lat="45.85666" lon="4.83138">
        <ele>224</ele>
        <time>2017-09-08T12:49:10.1Z</time>
      </trkpt>
      <trkpt lat="45.85671" lon="4.83139">
        <ele>224</ele>
        <time>2017-09-08T12:49:11.1Z</time>
      </trkpt>
      <trkpt lat="45.8568" lon="4.83142">
        <ele>224</ele>
        <time>2017-09-08T12:49:13.1Z</time>
      </trkpt>
      <trkpt lat="45.85685" lon="4.83143">
        <ele>224</ele>
        <time>2017-09-08T12:49:14.1Z</time>
      </trkpt>
      <trkpt lat="45.8569" lon="4.83144">
        <ele>224</ele>
        <time>2017-09-08T12:49:15.1Z</time>
      </trkpt>
      <trkpt lat="45.85695" lon="4.83146">
        <ele>224</ele>
        <time>2017-09-08T12:49:16.1Z</time>
      </trkpt>
      <trkpt lat="45.857" lon="4.83147">
        <ele>224</ele>
        <time>2017-09-08T12:49:17.1Z</time>
      </trkpt>
      <trkpt lat="45.85709" lon="4.8315">
        <ele>224</ele>
        <time>2017-09-08T12:49:19.1Z</time>
      </trkpt>
      <trkpt lat="45.85714" lon="4.83151">
        <ele>224</ele>
        <time>2017-09-08T12:49:20.1Z</time>
      </trkpt>
      <trkpt lat="45.85719" lon="4.83152">
        <ele>224</ele>
        <time>2017-09-08T12:49:21.1Z</time>
      </trkpt>
      <trkpt lat="45.85724" lon="4.83153">
        <ele>224</ele>
        <time>2017-09-08T12:49:22.1Z</time>
      </trkpt>
      <trkpt lat="45.85729" lon="4.83155">
        <ele>224</ele>
        <time>2017-09-08T12:49:23.1Z</time>
      </trkpt>
      <trkpt lat="45.85734" lon="4.83156">
        <ele>224</ele>
        <time>2017-09-08T12:49:24.1Z</time>
      </trkpt>
      <trkpt lat="45.85739" lon="4.83157">
        <ele>224</ele>
        <time>2017-09-08T12:49:25.1Z</time>
      </trkpt>
      <trkpt lat="45.85744" lon="4.83159">
        <ele>224</ele>
        <time>2017-09-08T12:49:26.1Z</time>
      </trkpt>
      <trkpt lat="45.85749" lon="4.83161">
        <ele>224</ele>
        <time>2017-09-08T12:49:27.1Z</time>
      </trkpt>
      <trkpt lat="45.8576" lon="4.83165">
        <ele>224</ele>
        <time>2017-09-08T12:49:29.1Z</time>
      </trkpt>
      <trkpt lat="45.85765" lon="4.83167">
        <ele>224</ele>
        <time>2017-09-08T12:49:30.1Z</time>
      </trkpt>
      <trkpt lat="45.85772" lon="4.83169">
        <ele>224</ele>
        <time>2017-09-08T12:49:31.1Z</time>
      </trkpt>
      <trkpt lat="45.85784" lon="4.83172">
        <ele>224</ele>
        <time>2017-09-08T12:49:33.1Z</time>
      </trkpt>
      <trkpt lat="45.85789" lon="4.83173">
        <ele>224</ele>
        <time>2017-09-08T12:49:34.1Z</time>
      </trkpt>
      <trkpt lat="45.85795" lon="4.83175">
        <ele>224</ele>
        <time>2017-09-08T12:49:35.1Z</time>
      </trkpt>
      <trkpt lat="45.85801" lon="4.83177">
        <ele>224</ele>
        <time>2017-09-08T12:49:36.1Z</time>
      </trkpt>
      <trkpt lat="45.85807" lon="4.83179">
        <ele>224</ele>
        <time>2017-09-08T12:49:37.1Z</time>
      </trkpt>
      <trkpt lat="45.85813" lon="4.8318">
        <ele>224</ele>
        <time>2017-09-08T12:49:38.1Z</time>
      </trkpt>
      <trkpt lat="45.85825" lon="4.83183">
        <ele>224</ele>
        <time>2017-09-08T12:49:40.1Z</time>
      </trkpt>
      <trkpt lat="45.85831" lon="4.83185">
        <ele>223</ele>
        <time>2017-09-08T12:49:41.1Z</time>
      </trkpt>
      <trkpt lat="45.85837" lon="4.83186">
        <ele>224</ele>
        <time>2017-09-08T12:49:42.1Z</time>
      </trkpt>
      <trkpt lat="45.85843" lon="4.83188">
        <ele>223</ele>
        <time>2017-09-08T12:49:43.1Z</time>
      </trkpt>
      <trkpt lat="45.85848" lon="4.83189">
        <ele>223</ele>
        <time>2017-09-08T12:49:44.1Z</time>
      </trkpt>
      <trkpt lat="45.85854" lon="4.83191">
        <ele>223</ele>
        <time>2017-09-08T12:49:45.1Z</time>
      </trkpt>
      <trkpt lat="45.85865" lon="4.83194">
        <ele>223</ele>
        <time>2017-09-08T12:49:47.1Z</time>
      </trkpt>
      <trkpt lat="45.85871" lon="4.83195">
        <ele>223</ele>
        <time>2017-09-08T12:49:48.1Z</time>
      </trkpt>
      <trkpt lat="45.85877" lon="4.83197">
        <ele>223</ele>
        <time>2017-09-08T12:49:49.1Z</time>
      </trkpt>
      <trkpt lat="45.85883" lon="4.83198">
        <ele>223</ele>
        <time>2017-09-08T12:49:50.1Z</time>
      </trkpt>
      <trkpt lat="45.85889" lon="4.83199">
        <ele>223</ele>
        <time>2017-09-08T12:49:51.1Z</time>
      </trkpt>
      <trkpt lat="45.859" lon="4.83202">
        <ele>223</ele>
        <time>2017-09-08T12:49:53.1Z</time>
      </trkpt>
      <trkpt lat="45.85905" lon="4.83204">
        <ele>222</ele>
        <time>2017-09-08T12:49:54.1Z</time>
      </trkpt>
      <trkpt lat="45.85911" lon="4.83206">
        <ele>223</ele>
        <time>2017-09-08T12:49:55.1Z</time>
      </trkpt>
      <trkpt lat="45.85917" lon="4.83208">
        <ele>223</ele>
        <time>2017-09-08T12:49:56.1Z</time>
      </trkpt>
      <trkpt lat="45.85928" lon="4.83212">
        <ele>223</ele>
        <time>2017-09-08T12:49:58.1Z</time>
      </trkpt>
      <trkpt lat="45.85934" lon="4.83213">
        <ele>223</ele>
        <time>2017-09-08T12:49:59.1Z</time>
      </trkpt>
      <trkpt lat="45.85939" lon="4.83213">
        <ele>223</ele>
        <time>2017-09-08T12:50:00.1Z</time>
      </trkpt>
      <trkpt lat="45.85951" lon="4.83211">
        <ele>222</ele>
        <time>2017-09-08T12:50:02.1Z</time>
      </trkpt>
      <trkpt lat="45.85957" lon="4.8321">
        <ele>222</ele>
        <time>2017-09-08T12:50:03.1Z</time>
      </trkpt>
      <trkpt lat="45.85968" lon="4.83208">
        <ele>222</ele>
        <time>2017-09-08T12:50:05.1Z</time>
      </trkpt>
      <trkpt lat="45.85974" lon="4.83207">
        <ele>222</ele>
        <time>2017-09-08T12:50:06.1Z</time>
      </trkpt>
      <trkpt lat="45.8598" lon="4.83206">
        <ele>222</ele>
        <time>2017-09-08T12:50:07.1Z</time>
      </trkpt>
      <trkpt lat="45.85992" lon="4.83204">
        <ele>223</ele>
        <time>2017-09-08T12:50:09.1Z</time>
      </trkpt>
      <trkpt lat="45.85999" lon="4.83203">
        <ele>223</ele>
        <time>2017-09-08T12:50:10.1Z</time>
      </trkpt>
      <trkpt lat="45.86005" lon="4.83202">
        <ele>223</ele>
        <time>2017-09-08T12:50:11.1Z</time>
      </trkpt>
      <trkpt lat="45.86011" lon="4.832">
        <ele>223</ele>
        <time>2017-09-08T12:50:12.1Z</time>
      </trkpt>
      <trkpt lat="45.86016" lon="4.83198">
        <ele>223</ele>
        <time>2017-09-08T12:50:13.1Z</time>
      </trkpt>
      <trkpt lat="45.86028" lon="4.83193">
        <ele>223</ele>
        <time>2017-09-08T12:50:15.1Z</time>
      </trkpt>
      <trkpt lat="45.8604" lon="4.8319">
        <ele>224</ele>
        <time>2017-09-08T12:50:17.1Z</time>
      </trkpt>
      <trkpt lat="45.86046" lon="4.83189">
        <ele>224</ele>
        <time>2017-09-08T12:50:18.1Z</time>
      </trkpt>
      <trkpt lat="45.86052" lon="4.83188">
        <ele>224</ele>
        <time>2017-09-08T12:50:19.1Z</time>
      </trkpt>
      <trkpt lat="45.86058" lon="4.83187">
        <ele>224</ele>
        <time>2017-09-08T12:50:20.1Z</time>
      </trkpt>
      <trkpt lat="45.8607" lon="4.83186">
        <ele>224</ele>
        <time>2017-09-08T12:50:22.1Z</time>
      </trkpt>
      <trkpt lat="45.86081" lon="4.83186">
        <ele>224</ele>
        <time>2017-09-08T12:50:24.1Z</time>
      </trkpt>
      <trkpt lat="45.86087" lon="4.83185">
        <ele>224</ele>
        <time>2017-09-08T12:50:25.1Z</time>
      </trkpt>
      <trkpt lat="45.86098" lon="4.83185">
        <ele>224</ele>
        <time>2017-09-08T12:50:27.1Z</time>
      </trkpt>
      <trkpt lat="45.86108" lon="4.83185">
        <ele>224</ele>
        <time>2017-09-08T12:50:29.1Z</time>
      </trkpt>
      <trkpt lat="45.86119" lon="4.83185">
        <ele>224</ele>
        <time>2017-09-08T12:50:31.1Z</time>
      </trkpt>
      <trkpt lat="45.8613" lon="4.83185">
        <ele>224</ele>
        <time>2017-09-08T12:50:33.1Z</time>
      </trkpt>
      <trkpt lat="45.86135" lon="4.83185">
        <ele>224</ele>
        <time>2017-09-08T12:50:34.1Z</time>
      </trkpt>
      <trkpt lat="45.86141" lon="4.83185">
        <ele>224</ele>
        <time>2017-09-08T12:50:35.1Z</time>
      </trkpt>
      <trkpt lat="45.86152" lon="4.83185">
        <ele>225</ele>
        <time>2017-09-08T12:50:37.1Z</time>
      </trkpt>
      <trkpt lat="45.86163" lon="4.83185">
        <ele>225</ele>
        <time>2017-09-08T12:50:39.1Z</time>
      </trkpt>
      <trkpt lat="45.86169" lon="4.83185">
        <ele>225</ele>
        <time>2017-09-08T12:50:40.1Z</time>
      </trkpt>
      <trkpt lat="45.86174" lon="4.83185">
        <ele>225</ele>
        <time>2017-09-08T12:50:41.1Z</time>
      </trkpt>
      <trkpt lat="45.86186" lon="4.83186">
        <ele>225</ele>
        <time>2017-09-08T12:50:43.1Z</time>
      </trkpt>
      <trkpt lat="45.86197" lon="4.83186">
        <ele>225</ele>
        <time>2017-09-08T12:50:45.1Z</time>
      </trkpt>
      <trkpt lat="45.86208" lon="4.83186">
        <ele>225</ele>
        <time>2017-09-08T12:50:47.1Z</time>
      </trkpt>
      <trkpt lat="45.86214" lon="4.83186">
        <ele>225</ele>
        <time>2017-09-08T12:50:48.1Z</time>
      </trkpt>
      <trkpt lat="45.8622" lon="4.83186">
        <ele>225</ele>
        <time>2017-09-08T12:50:49.1Z</time>
      </trkpt>
      <trkpt lat="45.86231" lon="4.83185">
        <ele>225</ele>
        <time>2017-09-08T12:50:51.1Z</time>
      </trkpt>
      <trkpt lat="45.86236" lon="4.83185">
        <ele>224</ele>
        <time>2017-09-08T12:50:52.1Z</time>
      </trkpt>
      <trkpt lat="45.86242" lon="4.83186">
        <ele>224</ele>
        <time>2017-09-08T12:50:53.1Z</time>
      </trkpt>
      <trkpt lat="45.86249" lon="4.83196">
        <ele>223</ele>
        <time>2017-09-08T12:50:55.1Z</time>
      </trkpt>
      <trkpt lat="45.86251" lon="4.83211">
        <ele>223</ele>
        <time>2017-09-08T12:50:57.1Z</time>
      </trkpt>
      <trkpt lat="45.86251" lon="4.83219">
        <ele>223</ele>
        <time>2017-09-08T12:50:58.1Z</time>
      </trkpt>
      <trkpt lat="45.86251" lon="4.83228">
        <ele>223</ele>
        <time>2017-09-08T12:50:59.1Z</time>
      </trkpt>
      <trkpt lat="45.86252" lon="4.83246">
        <ele>222</ele>
        <time>2017-09-08T12:51:01.1Z</time>
      </trkpt>
      <trkpt lat="45.86252" lon="4.83255">
        <ele>222</ele>
        <time>2017-09-08T12:51:02.1Z</time>
      </trkpt>
      <trkpt lat="45.86252" lon="4.83263">
        <ele>222</ele>
        <time>2017-09-08T12:51:03.1Z</time>
      </trkpt>
      <trkpt lat="45.86252" lon="4.8327">
        <ele>221</ele>
        <time>2017-09-08T12:51:04.1Z</time>
      </trkpt>
      <trkpt lat="45.86257" lon="4.83284">
        <ele>221</ele>
        <time>2017-09-08T12:51:06.1Z</time>
      </trkpt>
      <trkpt lat="45.86267" lon="4.83289">
        <ele>220</ele>
        <time>2017-09-08T12:51:08.1Z</time>
      </trkpt>
      <trkpt lat="45.86278" lon="4.83292">
        <ele>220</ele>
        <time>2017-09-08T12:51:10.1Z</time>
      </trkpt>
      <trkpt lat="45.86284" lon="4.83294">
        <ele>220</ele>
        <time>2017-09-08T12:51:11.1Z</time>
      </trkpt>
      <trkpt lat="45.8629" lon="4.83296">
        <ele>220</ele>
        <time>2017-09-08T12:51:12.1Z</time>
      </trkpt>
      <trkpt lat="45.86296" lon="4.83299">
        <ele>220</ele>
        <time>2017-09-08T12:51:13.1Z</time>
      </trkpt>
      <trkpt lat="45.86303" lon="4.83301">
        <ele>220</ele>
        <time>2017-09-08T12:51:14.1Z</time>
      </trkpt>
      <trkpt lat="45.86309" lon="4.83303">
        <ele>220</ele>
        <time>2017-09-08T12:51:15.1Z</time>
      </trkpt>
      <trkpt lat="45.86316" lon="4.83305">
        <ele>219</ele>
        <time>2017-09-08T12:51:16.1Z</time>
      </trkpt>
      <trkpt lat="45.86323" lon="4.83306">
        <ele>219</ele>
        <time>2017-09-08T12:51:17.1Z</time>
      </trkpt>
      <trkpt lat="45.86336" lon="4.83309">
        <ele>219</ele>
        <time>2017-09-08T12:51:19.1Z</time>
      </trkpt>
      <trkpt lat="45.86343" lon="4.83311">
        <ele>219</ele>
        <time>2017-09-08T12:51:20.1Z</time>
      </trkpt>
      <trkpt lat="45.86349" lon="4.83312">
        <ele>219</ele>
        <time>2017-09-08T12:51:21.1Z</time>
      </trkpt>
      <trkpt lat="45.86363" lon="4.83313">
        <ele>219</ele>
        <time>2017-09-08T12:51:23.1Z</time>
      </trkpt>
      <trkpt lat="45.86377" lon="4.83312">
        <ele>219</ele>
        <time>2017-09-08T12:51:25.1Z</time>
      </trkpt>
      <trkpt lat="45.8639" lon="4.8331">
        <ele>219</ele>
        <time>2017-09-08T12:51:27.1Z</time>
      </trkpt>
      <trkpt lat="45.86402" lon="4.83306">
        <ele>219</ele>
        <time>2017-09-08T12:51:29.1Z</time>
      </trkpt>
      <trkpt lat="45.86408" lon="4.83304">
        <ele>219</ele>
        <time>2017-09-08T12:51:30.1Z</time>
      </trkpt>
      <trkpt lat="45.86413" lon="4.83301">
        <ele>220</ele>
        <time>2017-09-08T12:51:31.1Z</time>
      </trkpt>
      <trkpt lat="45.86418" lon="4.83297">
        <ele>220</ele>
        <time>2017-09-08T12:51:32.1Z</time>
      </trkpt>
      <trkpt lat="45.86428" lon="4.83289">
        <ele>220</ele>
        <time>2017-09-08T12:51:34.1Z</time>
      </trkpt>
      <trkpt lat="45.86433" lon="4.83285">
        <ele>220</ele>
        <time>2017-09-08T12:51:35.1Z</time>
      </trkpt>
      <trkpt lat="45.86438" lon="4.8328">
        <ele>220</ele>
        <time>2017-09-08T12:51:36.1Z</time>
      </trkpt>
      <trkpt lat="45.86448" lon="4.83271">
        <ele>220</ele>
        <time>2017-09-08T12:51:38.1Z</time>
      </trkpt>
      <trkpt lat="45.86457" lon="4.83261">
        <ele>221</ele>
        <time>2017-09-08T12:51:40.1Z</time>
      </trkpt>
      <trkpt lat="45.86466" lon="4.83251">
        <ele>221</ele>
        <time>2017-09-08T12:51:42.1Z</time>
      </trkpt>
      <trkpt lat="45.86474" lon="4.83242">
        <ele>222</ele>
        <time>2017-09-08T12:51:44.1Z</time>
      </trkpt>
      <trkpt lat="45.86478" lon="4.83238">
        <ele>222</ele>
        <time>2017-09-08T12:51:45.1Z</time>
      </trkpt>
      <trkpt lat="45.86483" lon="4.83233">
        <ele>222</ele>
        <time>2017-09-08T12:51:46.1Z</time>
      </trkpt>
      <trkpt lat="45.86491" lon="4.83225">
        <ele>222</ele>
        <time>2017-09-08T12:51:48.1Z</time>
      </trkpt>
      <trkpt lat="45.86496" lon="4.83222">
        <ele>223</ele>
        <time>2017-09-08T12:51:49.1Z</time>
      </trkpt>
      <trkpt lat="45.86501" lon="4.8322">
        <ele>223</ele>
        <time>2017-09-08T12:51:50.1Z</time>
      </trkpt>
      <trkpt lat="45.86511" lon="4.83218">
        <ele>223</ele>
        <time>2017-09-08T12:51:52.1Z</time>
      </trkpt>
      <trkpt lat="45.86517" lon="4.83218">
        <ele>223</ele>
        <time>2017-09-08T12:51:53.1Z</time>
      </trkpt>
      <trkpt lat="45.86522" lon="4.83217">
        <ele>224</ele>
        <time>2017-09-08T12:51:54.1Z</time>
      </trkpt>
      <trkpt lat="45.86527" lon="4.83217">
        <ele>224</ele>
        <time>2017-09-08T12:51:55.1Z</time>
      </trkpt>
      <trkpt lat="45.86533" lon="4.83217">
        <ele>224</ele>
        <time>2017-09-08T12:51:56.1Z</time>
      </trkpt>
      <trkpt lat="45.86543" lon="4.83216">
        <ele>224</ele>
        <time>2017-09-08T12:51:58.1Z</time>
      </trkpt>
      <trkpt lat="45.86547" lon="4.83215">
        <ele>224</ele>
        <time>2017-09-08T12:51:59.1Z</time>
      </trkpt>
      <trkpt lat="45.86556" lon="4.83213">
        <ele>225</ele>
        <time>2017-09-08T12:52:01.1Z</time>
      </trkpt>
      <trkpt lat="45.86561" lon="4.83212">
        <ele>225</ele>
        <time>2017-09-08T12:52:02.1Z</time>
      </trkpt>
      <trkpt lat="45.86565" lon="4.83211">
        <ele>225</ele>
        <time>2017-09-08T12:52:03.1Z</time>
      </trkpt>
      <trkpt lat="45.86571" lon="4.83212">
        <ele>225</ele>
        <time>2017-09-08T12:52:04.1Z</time>
      </trkpt>
      <trkpt lat="45.86583" lon="4.83211">
        <ele>225</ele>
        <time>2017-09-08T12:52:06.1Z</time>
      </trkpt>
      <trkpt lat="45.86588" lon="4.83211">
        <ele>224</ele>
        <time>2017-09-08T12:52:07.1Z</time>
      </trkpt>
      <trkpt lat="45.866" lon="4.83211">
        <ele>224</ele>
        <time>2017-09-08T12:52:09.1Z</time>
      </trkpt>
      <trkpt lat="45.86607" lon="4.83211">
        <ele>224</ele>
        <time>2017-09-08T12:52:10.1Z</time>
      </trkpt>
      <trkpt lat="45.86619" lon="4.83213">
        <ele>224</ele>
        <time>2017-09-08T12:52:12.1Z</time>
      </trkpt>
      <trkpt lat="45.86631" lon="4.83214">
        <ele>224</ele>
        <time>2017-09-08T12:52:14.1Z</time>
      </trkpt>
      <trkpt lat="45.86637" lon="4.83213">
        <ele>224</ele>
        <time>2017-09-08T12:52:15.1Z</time>
      </trkpt>
      <trkpt lat="45.86643" lon="4.83213">
        <ele>224</ele>
        <time>2017-09-08T12:52:16.1Z</time>
      </trkpt>
      <trkpt lat="45.86649" lon="4.83212">
        <ele>224</ele>
        <time>2017-09-08T12:52:17.1Z</time>
      </trkpt>
      <trkpt lat="45.86655" lon="4.83212">
        <ele>224</ele>
        <time>2017-09-08T12:52:18.1Z</time>
      </trkpt>
      <trkpt lat="45.86667" lon="4.83212">
        <ele>223</ele>
        <time>2017-09-08T12:52:20.1Z</time>
      </trkpt>
      <trkpt lat="45.86673" lon="4.83212">
        <ele>223</ele>
        <time>2017-09-08T12:52:21.1Z</time>
      </trkpt>
      <trkpt lat="45.86686" lon="4.83214">
        <ele>223</ele>
        <time>2017-09-08T12:52:23.1Z</time>
      </trkpt>
      <trkpt lat="45.86692" lon="4.83214">
        <ele>223</ele>
        <time>2017-09-08T12:52:24.1Z</time>
      </trkpt>
      <trkpt lat="45.86698" lon="4.83214">
        <ele>223</ele>
        <time>2017-09-08T12:52:25.1Z</time>
      </trkpt>
      <trkpt lat="45.86704" lon="4.83215">
        <ele>223</ele>
        <time>2017-09-08T12:52:26.1Z</time>
      </trkpt>
      <trkpt lat="45.8671" lon="4.83215">
        <ele>223</ele>
        <time>2017-09-08T12:52:27.1Z</time>
      </trkpt>
      <trkpt lat="45.86721" lon="4.83216">
        <ele>224</ele>
        <time>2017-09-08T12:52:29.1Z</time>
      </trkpt>
      <trkpt lat="45.86726" lon="4.83217">
        <ele>224</ele>
        <time>2017-09-08T12:52:30.1Z</time>
      </trkpt>
      <trkpt lat="45.86738" lon="4.83218">
        <ele>224</ele>
        <time>2017-09-08T12:52:32.1Z</time>
      </trkpt>
      <trkpt lat="45.86749" lon="4.83218">
        <ele>224</ele>
        <time>2017-09-08T12:52:34.1Z</time>
      </trkpt>
      <trkpt lat="45.86754" lon="4.83218">
        <ele>225</ele>
        <time>2017-09-08T12:52:35.1Z</time>
      </trkpt>
      <trkpt lat="45.86759" lon="4.83218">
        <ele>225</ele>
        <time>2017-09-08T12:52:36.1Z</time>
      </trkpt>
      <trkpt lat="45.86765" lon="4.83218">
        <ele>225</ele>
        <time>2017-09-08T12:52:37.1Z</time>
      </trkpt>
      <trkpt lat="45.8677" lon="4.83219">
        <ele>225</ele>
        <time>2017-09-08T12:52:38.1Z</time>
      </trkpt>
      <trkpt lat="45.86775" lon="4.83219">
        <ele>225</ele>
        <time>2017-09-08T12:52:39.1Z</time>
      </trkpt>
      <trkpt lat="45.86786" lon="4.83218">
        <ele>225</ele>
        <time>2017-09-08T12:52:41.1Z</time>
      </trkpt>
      <trkpt lat="45.86791" lon="4.83218">
        <ele>226</ele>
        <time>2017-09-08T12:52:42.1Z</time>
      </trkpt>
      <trkpt lat="45.86796" lon="4.83219">
        <ele>226</ele>
        <time>2017-09-08T12:52:43.1Z</time>
      </trkpt>
      <trkpt lat="45.86801" lon="4.8322">
        <ele>226</ele>
        <time>2017-09-08T12:52:44.1Z</time>
      </trkpt>
      <trkpt lat="45.86806" lon="4.83219">
        <ele>226</ele>
        <time>2017-09-08T12:52:45.1Z</time>
      </trkpt>
      <trkpt lat="45.86811" lon="4.83219">
        <ele>226</ele>
        <time>2017-09-08T12:52:46.1Z</time>
      </trkpt>
      <trkpt lat="45.86817" lon="4.83219">
        <ele>226</ele>
        <time>2017-09-08T12:52:47.1Z</time>
      </trkpt>
      <trkpt lat="45.86827" lon="4.83219">
        <ele>227</ele>
        <time>2017-09-08T12:52:49.1Z</time>
      </trkpt>
      <trkpt lat="45.86832" lon="4.83219">
        <ele>227</ele>
        <time>2017-09-08T12:52:50.1Z</time>
      </trkpt>
      <trkpt lat="45.86837" lon="4.8322">
        <ele>227</ele>
        <time>2017-09-08T12:52:51.1Z</time>
      </trkpt>
      <trkpt lat="45.86847" lon="4.83219">
        <ele>227</ele>
        <time>2017-09-08T12:52:53.1Z</time>
      </trkpt>
      <trkpt lat="45.86852" lon="4.83219">
        <ele>227</ele>
        <time>2017-09-08T12:52:54.1Z</time>
      </trkpt>
      <trkpt lat="45.86857" lon="4.83219">
        <ele>227</ele>
        <time>2017-09-08T12:52:55.1Z</time>
      </trkpt>
      <trkpt lat="45.86863" lon="4.83219">
        <ele>227</ele>
        <time>2017-09-08T12:52:56.1Z</time>
      </trkpt>
      <trkpt lat="45.86868" lon="4.83219">
        <ele>227</ele>
        <time>2017-09-08T12:52:57.1Z</time>
      </trkpt>
      <trkpt lat="45.86873" lon="4.83219">
        <ele>227</ele>
        <time>2017-09-08T12:52:58.1Z</time>
      </trkpt>
      <trkpt lat="45.86878" lon="4.83219">
        <ele>228</ele>
        <time>2017-09-08T12:52:59.1Z</time>
      </trkpt>
      <trkpt lat="45.86883" lon="4.8322">
        <ele>228</ele>
        <time>2017-09-08T12:53:00.1Z</time>
      </trkpt>
      <trkpt lat="45.86889" lon="4.8322">
        <ele>228</ele>
        <time>2017-09-08T12:53:01.1Z</time>
      </trkpt>
      <trkpt lat="45.86893" lon="4.83219">
        <ele>228</ele>
        <time>2017-09-08T12:53:02.1Z</time>
      </trkpt>
      <trkpt lat="45.86898" lon="4.83219">
        <ele>228</ele>
        <time>2017-09-08T12:53:03.1Z</time>
      </trkpt>
      <trkpt lat="45.86908" lon="4.83218">
        <ele>228</ele>
        <time>2017-09-08T12:53:05.1Z</time>
      </trkpt>
      <trkpt lat="45.86913" lon="4.83217">
        <ele>228</ele>
        <time>2017-09-08T12:53:06.1Z</time>
      </trkpt>
      <trkpt lat="45.86918" lon="4.83217">
        <ele>228</ele>
        <time>2017-09-08T12:53:07.1Z</time>
      </trkpt>
      <trkpt lat="45.86922" lon="4.83217">
        <ele>228</ele>
        <time>2017-09-08T12:53:08.1Z</time>
      </trkpt>
      <trkpt lat="45.86927" lon="4.83217">
        <ele>228</ele>
        <time>2017-09-08T12:53:09.1Z</time>
      </trkpt>
      <trkpt lat="45.86931" lon="4.83217">
        <ele>228</ele>
        <time>2017-09-08T12:53:10.1Z</time>
      </trkpt>
      <trkpt lat="45.86936" lon="4.83217">
        <ele>228</ele>
        <time>2017-09-08T12:53:11.1Z</time>
      </trkpt>
      <trkpt lat="45.86945" lon="4.83217">
        <ele>228</ele>
        <time>2017-09-08T12:53:13.1Z</time>
      </trkpt>
      <trkpt lat="45.86949" lon="4.83217">
        <ele>228</ele>
        <time>2017-09-08T12:53:14.1Z</time>
      </trkpt>
      <trkpt lat="45.86954" lon="4.83217">
        <ele>229</ele>
        <time>2017-09-08T12:53:15.1Z</time>
      </trkpt>
      <trkpt lat="45.86963" lon="4.83217">
        <ele>229</ele>
        <time>2017-09-08T12:53:17.1Z</time>
      </trkpt>
      <trkpt lat="45.86968" lon="4.83217">
        <ele>229</ele>
        <time>2017-09-08T12:53:18.1Z</time>
      </trkpt>
      <trkpt lat="45.86972" lon="4.83217">
        <ele>229</ele>
        <time>2017-09-08T12:53:19.1Z</time>
      </trkpt>
      <trkpt lat="45.86982" lon="4.83218">
        <ele>229</ele>
        <time>2017-09-08T12:53:21.1Z</time>
      </trkpt>
      <trkpt lat="45.86992" lon="4.83218">
        <ele>229</ele>
        <time>2017-09-08T12:53:23.1Z</time>
      </trkpt>
      <trkpt lat="45.86996" lon="4.83218">
        <ele>229</ele>
        <time>2017-09-08T12:53:24.1Z</time>
      </trkpt>
      <trkpt lat="45.87001" lon="4.83218">
        <ele>229</ele>
        <time>2017-09-08T12:53:25.1Z</time>
      </trkpt>
      <trkpt lat="45.87006" lon="4.83219">
        <ele>229</ele>
        <time>2017-09-08T12:53:26.1Z</time>
      </trkpt>
      <trkpt lat="45.8701" lon="4.83219">
        <ele>229</ele>
        <time>2017-09-08T12:53:27.1Z</time>
      </trkpt>
      <trkpt lat="45.87019" lon="4.83219">
        <ele>229</ele>
        <time>2017-09-08T12:53:29.1Z</time>
      </trkpt>
      <trkpt lat="45.87023" lon="4.83219">
        <ele>229</ele>
        <time>2017-09-08T12:53:30.1Z</time>
      </trkpt>
      <trkpt lat="45.87027" lon="4.8322">
        <ele>229</ele>
        <time>2017-09-08T12:53:31.1Z</time>
      </trkpt>
      <trkpt lat="45.87036" lon="4.83222">
        <ele>229</ele>
        <time>2017-09-08T12:53:33.1Z</time>
      </trkpt>
      <trkpt lat="45.87045" lon="4.83226">
        <ele>229</ele>
        <time>2017-09-08T12:53:35.1Z</time>
      </trkpt>
      <trkpt lat="45.8705" lon="4.83227">
        <ele>229</ele>
        <time>2017-09-08T12:53:36.1Z</time>
      </trkpt>
      <trkpt lat="45.87055" lon="4.83229">
        <ele>229</ele>
        <time>2017-09-08T12:53:37.1Z</time>
      </trkpt>
      <trkpt lat="45.87065" lon="4.83231">
        <ele>229</ele>
        <time>2017-09-08T12:53:39.1Z</time>
      </trkpt>
      <trkpt lat="45.87075" lon="4.83233">
        <ele>229</ele>
        <time>2017-09-08T12:53:41.1Z</time>
      </trkpt>
      <trkpt lat="45.87085" lon="4.83236">
        <ele>229</ele>
        <time>2017-09-08T12:53:43.1Z</time>
      </trkpt>
      <trkpt lat="45.87096" lon="4.83239">
        <ele>229</ele>
        <time>2017-09-08T12:53:45.1Z</time>
      </trkpt>
      <trkpt lat="45.87108" lon="4.83242">
        <ele>229</ele>
        <time>2017-09-08T12:53:47.1Z</time>
      </trkpt>
      <trkpt lat="45.8712" lon="4.83245">
        <ele>229</ele>
        <time>2017-09-08T12:53:49.1Z</time>
      </trkpt>
      <trkpt lat="45.87132" lon="4.83247">
        <ele>229</ele>
        <time>2017-09-08T12:53:51.1Z</time>
      </trkpt>
      <trkpt lat="45.87144" lon="4.8325">
        <ele>229</ele>
        <time>2017-09-08T12:53:53.1Z</time>
      </trkpt>
      <trkpt lat="45.8715" lon="4.83251">
        <ele>229</ele>
        <time>2017-09-08T12:53:54.1Z</time>
      </trkpt>
      <trkpt lat="45.87156" lon="4.83253">
        <ele>229</ele>
        <time>2017-09-08T12:53:55.1Z</time>
      </trkpt>
      <trkpt lat="45.8717" lon="4.83257">
        <ele>229</ele>
        <time>2017-09-08T12:53:57.1Z</time>
      </trkpt>
      <trkpt lat="45.87183" lon="4.8326">
        <ele>228</ele>
        <time>2017-09-08T12:53:59.1Z</time>
      </trkpt>
      <trkpt lat="45.87196" lon="4.83262">
        <ele>228</ele>
        <time>2017-09-08T12:54:01.1Z</time>
      </trkpt>
      <trkpt lat="45.8721" lon="4.83265">
        <ele>228</ele>
        <time>2017-09-08T12:54:03.1Z</time>
      </trkpt>
      <trkpt lat="45.87223" lon="4.83268">
        <ele>228</ele>
        <time>2017-09-08T12:54:05.1Z</time>
      </trkpt>
      <trkpt lat="45.87237" lon="4.83271">
        <ele>228</ele>
        <time>2017-09-08T12:54:07.1Z</time>
      </trkpt>
      <trkpt lat="45.8725" lon="4.83271">
        <ele>228</ele>
        <time>2017-09-08T12:54:09.1Z</time>
      </trkpt>
      <trkpt lat="45.87256" lon="4.8327">
        <ele>228</ele>
        <time>2017-09-08T12:54:10.1Z</time>
      </trkpt>
      <trkpt lat="45.87269" lon="4.83266">
        <ele>228</ele>
        <time>2017-09-08T12:54:12.1Z</time>
      </trkpt>
      <trkpt lat="45.87275" lon="4.83264">
        <ele>228</ele>
        <time>2017-09-08T12:54:13.1Z</time>
      </trkpt>
      <trkpt lat="45.87281" lon="4.83262">
        <ele>228</ele>
        <time>2017-09-08T12:54:14.1Z</time>
      </trkpt>
      <trkpt lat="45.87293" lon="4.83258">
        <ele>228</ele>
        <time>2017-09-08T12:54:16.1Z</time>
      </trkpt>
      <trkpt lat="45.87299" lon="4.83256">
        <ele>228</ele>
        <time>2017-09-08T12:54:17.1Z</time>
      </trkpt>
      <trkpt lat="45.87305" lon="4.83253">
        <ele>228</ele>
        <time>2017-09-08T12:54:18.1Z</time>
      </trkpt>
      <trkpt lat="45.8731" lon="4.8325">
        <ele>228</ele>
        <time>2017-09-08T12:54:19.1Z</time>
      </trkpt>
      <trkpt lat="45.87316" lon="4.83248">
        <ele>229</ele>
        <time>2017-09-08T12:54:20.1Z</time>
      </trkpt>
      <trkpt lat="45.87327" lon="4.83243">
        <ele>229</ele>
        <time>2017-09-08T12:54:22.1Z</time>
      </trkpt>
      <trkpt lat="45.87332" lon="4.83241">
        <ele>230</ele>
        <time>2017-09-08T12:54:23.1Z</time>
      </trkpt>
      <trkpt lat="45.87338" lon="4.83239">
        <ele>230</ele>
        <time>2017-09-08T12:54:24.1Z</time>
      </trkpt>
      <trkpt lat="45.87343" lon="4.83237">
        <ele>230</ele>
        <time>2017-09-08T12:54:25.1Z</time>
      </trkpt>
      <trkpt lat="45.87349" lon="4.83235">
        <ele>230</ele>
        <time>2017-09-08T12:54:26.1Z</time>
      </trkpt>
      <trkpt lat="45.87354" lon="4.83234">
        <ele>230</ele>
        <time>2017-09-08T12:54:27.1Z</time>
      </trkpt>
      <trkpt lat="45.87364" lon="4.83231">
        <ele>230</ele>
        <time>2017-09-08T12:54:29.1Z</time>
      </trkpt>
      <trkpt lat="45.8737" lon="4.8323">
        <ele>230</ele>
        <time>2017-09-08T12:54:30.1Z</time>
      </trkpt>
      <trkpt lat="45.8738" lon="4.83229">
        <ele>230</ele>
        <time>2017-09-08T12:54:32.1Z</time>
      </trkpt>
      <trkpt lat="45.87385" lon="4.83229">
        <ele>230</ele>
        <time>2017-09-08T12:54:33.1Z</time>
      </trkpt>
      <trkpt lat="45.8739" lon="4.8323">
        <ele>230</ele>
        <time>2017-09-08T12:54:34.1Z</time>
      </trkpt>
      <trkpt lat="45.87401" lon="4.83231">
        <ele>230</ele>
        <time>2017-09-08T12:54:36.1Z</time>
      </trkpt>
      <trkpt lat="45.87412" lon="4.83232">
        <ele>230</ele>
        <time>2017-09-08T12:54:38.1Z</time>
      </trkpt>
      <trkpt lat="45.87417" lon="4.83233">
        <ele>230</ele>
        <time>2017-09-08T12:54:39.1Z</time>
      </trkpt>
      <trkpt lat="45.87423" lon="4.83234">
        <ele>230</ele>
        <time>2017-09-08T12:54:40.1Z</time>
      </trkpt>
      <trkpt lat="45.87428" lon="4.83234">
        <ele>230</ele>
        <time>2017-09-08T12:54:41.1Z</time>
      </trkpt>
      <trkpt lat="45.87433" lon="4.83235">
        <ele>231</ele>
        <time>2017-09-08T12:54:42.1Z</time>
      </trkpt>
      <trkpt lat="45.87438" lon="4.83235">
        <ele>230</ele>
        <time>2017-09-08T12:54:43.1Z</time>
      </trkpt>
      <trkpt lat="45.87442" lon="4.83235">
        <ele>230</ele>
        <time>2017-09-08T12:54:44.1Z</time>
      </trkpt>
      <trkpt lat="45.87452" lon="4.83236">
        <ele>230</ele>
        <time>2017-09-08T12:54:46.1Z</time>
      </trkpt>
      <trkpt lat="45.87458" lon="4.83235">
        <ele>230</ele>
        <time>2017-09-08T12:54:47.1Z</time>
      </trkpt>
      <trkpt lat="45.87463" lon="4.83234">
        <ele>230</ele>
        <time>2017-09-08T12:54:48.1Z</time>
      </trkpt>
      <trkpt lat="45.87473" lon="4.8323">
        <ele>231</ele>
        <time>2017-09-08T12:54:50.1Z</time>
      </trkpt>
      <trkpt lat="45.87477" lon="4.83227">
        <ele>231</ele>
        <time>2017-09-08T12:54:51.1Z</time>
      </trkpt>
      <trkpt lat="45.87481" lon="4.83224">
        <ele>231</ele>
        <time>2017-09-08T12:54:52.1Z</time>
      </trkpt>
      <trkpt lat="45.87488" lon="4.83217">
        <ele>231</ele>
        <time>2017-09-08T12:54:54.1Z</time>
      </trkpt>
      <trkpt lat="45.87491" lon="4.83213">
        <ele>231</ele>
        <time>2017-09-08T12:54:55.1Z</time>
      </trkpt>
      <trkpt lat="45.87497" lon="4.83206">
        <ele>231</ele>
        <time>2017-09-08T12:54:57.1Z</time>
      </trkpt>
      <trkpt lat="45.875" lon="4.83202">
        <ele>231</ele>
        <time>2017-09-08T12:54:58.1Z</time>
      </trkpt>
      <trkpt lat="45.87505" lon="4.83195">
        <ele>232</ele>
        <time>2017-09-08T12:55:00.1Z</time>
      </trkpt>
      <trkpt lat="45.87508" lon="4.83192">
        <ele>232</ele>
        <time>2017-09-08T12:55:01.1Z</time>
      </trkpt>
      <trkpt lat="45.87511" lon="4.83189">
        <ele>232</ele>
        <time>2017-09-08T12:55:02.1Z</time>
      </trkpt>
      <trkpt lat="45.87513" lon="4.83185">
        <ele>232</ele>
        <time>2017-09-08T12:55:03.1Z</time>
      </trkpt>
      <trkpt lat="45.87516" lon="4.83182">
        <ele>233</ele>
        <time>2017-09-08T12:55:04.1Z</time>
      </trkpt>
      <trkpt lat="45.87519" lon="4.8318">
        <ele>233</ele>
        <time>2017-09-08T12:55:05.1Z</time>
      </trkpt>
      <trkpt lat="45.87521" lon="4.83177">
        <ele>233</ele>
        <time>2017-09-08T12:55:06.1Z</time>
      </trkpt>
      <trkpt lat="45.87526" lon="4.83173">
        <ele>234</ele>
        <time>2017-09-08T12:55:08.1Z</time>
      </trkpt>
      <trkpt lat="45.87528" lon="4.83172">
        <ele>234</ele>
        <time>2017-09-08T12:55:09.1Z</time>
      </trkpt>
      <trkpt lat="45.8753" lon="4.83171">
        <ele>234</ele>
        <time>2017-09-08T12:55:10.1Z</time>
      </trkpt>
      <trkpt lat="45.87532" lon="4.8317">
        <ele>234</ele>
        <time>2017-09-08T12:55:11.1Z</time>
      </trkpt>
      <trkpt lat="45.87533" lon="4.83169">
        <ele>235</ele>
        <time>2017-09-08T12:55:12.1Z</time>
      </trkpt>
      <trkpt lat="45.87534" lon="4.83163">
        <ele>235</ele>
        <time>2017-09-08T12:55:14.1Z</time>
      </trkpt>
      <trkpt lat="45.87534" lon="4.8316">
        <ele>235</ele>
        <time>2017-09-08T12:55:15.1Z</time>
      </trkpt>
      <trkpt lat="45.8753" lon="4.83156">
        <ele>235</ele>
        <time>2017-09-08T12:55:17.1Z</time>
      </trkpt>
      <trkpt lat="45.87524" lon="4.83157">
        <ele>236</ele>
        <time>2017-09-08T12:55:19.1Z</time>
      </trkpt>
      <trkpt lat="45.87518" lon="4.83159">
        <ele>236</ele>
        <time>2017-09-08T12:55:21.1Z</time>
      </trkpt>
      <trkpt lat="45.87516" lon="4.8316">
        <ele>236</ele>
        <time>2017-09-08T12:55:22.1Z</time>
      </trkpt>
      <trkpt lat="45.8751" lon="4.83161">
        <ele>236</ele>
        <time>2017-09-08T12:55:24.1Z</time>
      </trkpt>
      <trkpt lat="45.87508" lon="4.83162">
        <ele>237</ele>
        <time>2017-09-08T12:55:25.1Z</time>
      </trkpt>
      <trkpt lat="45.87505" lon="4.83163">
        <ele>237</ele>
        <time>2017-09-08T12:55:26.1Z</time>
      </trkpt>
      <trkpt lat="45.87502" lon="4.83163">
        <ele>237</ele>
        <time>2017-09-08T12:55:27.1Z</time>
      </trkpt>
      <trkpt lat="45.87497" lon="4.83163">
        <ele>237</ele>
        <time>2017-09-08T12:55:29.1Z</time>
      </trkpt>
      <trkpt lat="45.87494" lon="4.83162">
        <ele>237</ele>
        <time>2017-09-08T12:55:30.1Z</time>
      </trkpt>
      <trkpt lat="45.8749" lon="4.83159">
        <ele>237</ele>
        <time>2017-09-08T12:55:32.1Z</time>
      </trkpt>
      <trkpt lat="45.87486" lon="4.83154">
        <ele>238</ele>
        <time>2017-09-08T12:55:34.1Z</time>
      </trkpt>
      <trkpt lat="45.87485" lon="4.83148">
        <ele>238</ele>
        <time>2017-09-08T12:55:36.1Z</time>
      </trkpt>
      <trkpt lat="45.87484" lon="4.83146">
        <ele>238</ele>
        <time>2017-09-08T12:55:37.1Z</time>
      </trkpt>
      <trkpt lat="45.87484" lon="4.8314">
        <ele>238</ele>
        <time>2017-09-08T12:55:39.1Z</time>
      </trkpt>
      <trkpt lat="45.87484" lon="4.83134">
        <ele>239</ele>
        <time>2017-09-08T12:55:41.1Z</time>
      </trkpt>
      <trkpt lat="45.87486" lon="4.83132">
        <ele>239</ele>
        <time>2017-09-08T12:55:42.1Z</time>
      </trkpt>
      <trkpt lat="45.87487" lon="4.83129">
        <ele>239</ele>
        <time>2017-09-08T12:55:43.1Z</time>
      </trkpt>
      <trkpt lat="45.87488" lon="4.83127">
        <ele>239</ele>
        <time>2017-09-08T12:55:44.1Z</time>
      </trkpt>
      <trkpt lat="45.87491" lon="4.83122">
        <ele>240</ele>
        <time>2017-09-08T12:55:46.1Z</time>
      </trkpt>
      <trkpt lat="45.87493" lon="4.8312">
        <ele>240</ele>
        <time>2017-09-08T12:55:47.1Z</time>
      </trkpt>
      <trkpt lat="45.87496" lon="4.83117">
        <ele>240</ele>
        <time>2017-09-08T12:55:49.1Z</time>
      </trkpt>
      <trkpt lat="45.875" lon="4.83113">
        <ele>241</ele>
        <time>2017-09-08T12:55:51.1Z</time>
      </trkpt>
      <trkpt lat="45.87501" lon="4.83111">
        <ele>241</ele>
        <time>2017-09-08T12:55:52.1Z</time>
      </trkpt>
      <trkpt lat="45.87504" lon="4.83108">
        <ele>242</ele>
        <time>2017-09-08T12:55:54.1Z</time>
      </trkpt>
      <trkpt lat="45.87508" lon="4.83104">
        <ele>242</ele>
        <time>2017-09-08T12:55:56.1Z</time>
      </trkpt>
      <trkpt lat="45.87509" lon="4.83103">
        <ele>243</ele>
        <time>2017-09-08T12:55:57.1Z</time>
      </trkpt>
      <trkpt lat="45.87512" lon="4.83099">
        <ele>244</ele>
        <time>2017-09-08T12:55:59.1Z</time>
      </trkpt>
      <trkpt lat="45.87515" lon="4.83095">
        <ele>244</ele>
        <time>2017-09-08T12:56:01.1Z</time>
      </trkpt>
      <trkpt lat="45.87518" lon="4.8309">
        <ele>244</ele>
        <time>2017-09-08T12:56:03.1Z</time>
      </trkpt>
      <trkpt lat="45.87521" lon="4.83085">
        <ele>245</ele>
        <time>2017-09-08T12:56:05.1Z</time>
      </trkpt>
      <trkpt lat="45.87523" lon="4.8308">
        <ele>245</ele>
        <time>2017-09-08T12:56:07.1Z</time>
      </trkpt>
      <trkpt lat="45.87526" lon="4.83075">
        <ele>245</ele>
        <time>2017-09-08T12:56:09.1Z</time>
      </trkpt>
      <trkpt lat="45.87526" lon="4.83072">
        <ele>245</ele>
        <time>2017-09-08T12:56:10.1Z</time>
      </trkpt>
      <trkpt lat="45.87528" lon="4.83069">
        <ele>245</ele>
        <time>2017-09-08T12:56:11.1Z</time>
      </trkpt>
      <trkpt lat="45.87529" lon="4.83063">
        <ele>245</ele>
        <time>2017-09-08T12:56:13.1Z</time>
      </trkpt>
      <trkpt lat="45.87531" lon="4.83058">
        <ele>245</ele>
        <time>2017-09-08T12:56:15.1Z</time>
      </trkpt>
      <trkpt lat="45.87532" lon="4.83052">
        <ele>245</ele>
        <time>2017-09-08T12:56:17.1Z</time>
      </trkpt>
      <trkpt lat="45.87534" lon="4.83046">
        <ele>246</ele>
        <time>2017-09-08T12:56:19.1Z</time>
      </trkpt>
      <trkpt lat="45.87534" lon="4.8304">
        <ele>246</ele>
        <time>2017-09-08T12:56:21.1Z</time>
      </trkpt>
      <trkpt lat="45.87535" lon="4.83037">
        <ele>246</ele>
        <time>2017-09-08T12:56:22.1Z</time>
      </trkpt>
      <trkpt lat="45.87535" lon="4.8303">
        <ele>247</ele>
        <time>2017-09-08T12:56:24.1Z</time>
      </trkpt>
      <trkpt lat="45.87535" lon="4.83024">
        <ele>247</ele>
        <time>2017-09-08T12:56:26.1Z</time>
      </trkpt>
      <trkpt lat="45.87536" lon="4.8302">
        <ele>248</ele>
        <time>2017-09-08T12:56:27.1Z</time>
      </trkpt>
      <trkpt lat="45.87536" lon="4.83014">
        <ele>248</ele>
        <time>2017-09-08T12:56:29.1Z</time>
      </trkpt>
      <trkpt lat="45.87536" lon="4.83008">
        <ele>248</ele>
        <time>2017-09-08T12:56:31.1Z</time>
      </trkpt>
      <trkpt lat="45.87535" lon="4.83005">
        <ele>248</ele>
        <time>2017-09-08T12:56:32.1Z</time>
      </trkpt>
      <trkpt lat="45.87534" lon="4.82998">
        <ele>249</ele>
        <time>2017-09-08T12:56:34.1Z</time>
      </trkpt>
      <trkpt lat="45.87534" lon="4.82994">
        <ele>249</ele>
        <time>2017-09-08T12:56:35.1Z</time>
      </trkpt>
      <trkpt lat="45.87533" lon="4.82991">
        <ele>249</ele>
        <time>2017-09-08T12:56:36.1Z</time>
      </trkpt>
      <trkpt lat="45.87532" lon="4.82987">
        <ele>250</ele>
        <time>2017-09-08T12:56:37.1Z</time>
      </trkpt>
      <trkpt lat="45.8753" lon="4.82979">
        <ele>250</ele>
        <time>2017-09-08T12:56:39.1Z</time>
      </trkpt>
      <trkpt lat="45.87529" lon="4.82975">
        <ele>250</ele>
        <time>2017-09-08T12:56:40.1Z</time>
      </trkpt>
      <trkpt lat="45.87528" lon="4.82968">
        <ele>250</ele>
        <time>2017-09-08T12:56:42.1Z</time>
      </trkpt>
      <trkpt lat="45.87527" lon="4.82964">
        <ele>251</ele>
        <time>2017-09-08T12:56:43.1Z</time>
      </trkpt>
      <trkpt lat="45.87526" lon="4.8296">
        <ele>251</ele>
        <time>2017-09-08T12:56:44.1Z</time>
      </trkpt>
      <trkpt lat="45.87525" lon="4.82956">
        <ele>251</ele>
        <time>2017-09-08T12:56:45.1Z</time>
      </trkpt>
      <trkpt lat="45.87524" lon="4.82952">
        <ele>251</ele>
        <time>2017-09-08T12:56:46.1Z</time>
      </trkpt>
      <trkpt lat="45.87523" lon="4.82948">
        <ele>252</ele>
        <time>2017-09-08T12:56:47.1Z</time>
      </trkpt>
      <trkpt lat="45.87521" lon="4.82944">
        <ele>252</ele>
        <time>2017-09-08T12:56:48.1Z</time>
      </trkpt>
      <trkpt lat="45.8752" lon="4.8294">
        <ele>252</ele>
        <time>2017-09-08T12:56:49.1Z</time>
      </trkpt>
      <trkpt lat="45.87518" lon="4.82934">
        <ele>253</ele>
        <time>2017-09-08T12:56:51.1Z</time>
      </trkpt>
      <trkpt lat="45.87517" lon="4.82931">
        <ele>253</ele>
        <time>2017-09-08T12:56:52.1Z</time>
      </trkpt>
      <trkpt lat="45.87515" lon="4.82925">
        <ele>253</ele>
        <time>2017-09-08T12:56:54.1Z</time>
      </trkpt>
      <trkpt lat="45.87514" lon="4.82922">
        <ele>253</ele>
        <time>2017-09-08T12:56:55.1Z</time>
      </trkpt>
      <trkpt lat="45.87512" lon="4.82917">
        <ele>253</ele>
        <time>2017-09-08T12:56:57.1Z</time>
      </trkpt>
      <trkpt lat="45.87511" lon="4.82914">
        <ele>254</ele>
        <time>2017-09-08T12:56:58.1Z</time>
      </trkpt>
      <trkpt lat="45.87509" lon="4.82908">
        <ele>254</ele>
        <time>2017-09-08T12:57:00.1Z</time>
      </trkpt>
      <trkpt lat="45.87508" lon="4.82906">
        <ele>254</ele>
        <time>2017-09-08T12:57:01.1Z</time>
      </trkpt>
      <trkpt lat="45.87507" lon="4.82903">
        <ele>255</ele>
        <time>2017-09-08T12:57:02.1Z</time>
      </trkpt>
      <trkpt lat="45.87506" lon="4.829">
        <ele>255</ele>
        <time>2017-09-08T12:57:03.1Z</time>
      </trkpt>
      <trkpt lat="45.87505" lon="4.82897">
        <ele>255</ele>
        <time>2017-09-08T12:57:04.1Z</time>
      </trkpt>
      <trkpt lat="45.87502" lon="4.8289">
        <ele>255</ele>
        <time>2017-09-08T12:57:06.1Z</time>
      </trkpt>
      <trkpt lat="45.87501" lon="4.82887">
        <ele>255</ele>
        <time>2017-09-08T12:57:07.1Z</time>
      </trkpt>
      <trkpt lat="45.87499" lon="4.82883">
        <ele>255</ele>
        <time>2017-09-08T12:57:08.1Z</time>
      </trkpt>
      <trkpt lat="45.87498" lon="4.8288">
        <ele>256</ele>
        <time>2017-09-08T12:57:09.1Z</time>
      </trkpt>
      <trkpt lat="45.87495" lon="4.82873">
        <ele>256</ele>
        <time>2017-09-08T12:57:11.1Z</time>
      </trkpt>
      <trkpt lat="45.87494" lon="4.8287">
        <ele>256</ele>
        <time>2017-09-08T12:57:12.1Z</time>
      </trkpt>
      <trkpt lat="45.87493" lon="4.82867">
        <ele>256</ele>
        <time>2017-09-08T12:57:13.1Z</time>
      </trkpt>
      <trkpt lat="45.87492" lon="4.82864">
        <ele>256</ele>
        <time>2017-09-08T12:57:14.1Z</time>
      </trkpt>
      <trkpt lat="45.87491" lon="4.82861">
        <ele>257</ele>
        <time>2017-09-08T12:57:15.1Z</time>
      </trkpt>
      <trkpt lat="45.87489" lon="4.82858">
        <ele>257</ele>
        <time>2017-09-08T12:57:16.1Z</time>
      </trkpt>
      <trkpt lat="45.87487" lon="4.82851">
        <ele>257</ele>
        <time>2017-09-08T12:57:18.1Z</time>
      </trkpt>
      <trkpt lat="45.87485" lon="4.82848">
        <ele>258</ele>
        <time>2017-09-08T12:57:19.1Z</time>
      </trkpt>
      <trkpt lat="45.87482" lon="4.8284">
        <ele>258</ele>
        <time>2017-09-08T12:57:21.1Z</time>
      </trkpt>
      <trkpt lat="45.8748" lon="4.82837">
        <ele>258</ele>
        <time>2017-09-08T12:57:22.1Z</time>
      </trkpt>
      <trkpt lat="45.87479" lon="4.82833">
        <ele>258</ele>
        <time>2017-09-08T12:57:23.1Z</time>
      </trkpt>
      <trkpt lat="45.87477" lon="4.82829">
        <ele>258</ele>
        <time>2017-09-08T12:57:24.1Z</time>
      </trkpt>
      <trkpt lat="45.87473" lon="4.82822">
        <ele>258</ele>
        <time>2017-09-08T12:57:26.1Z</time>
      </trkpt>
      <trkpt lat="45.87471" lon="4.82818">
        <ele>258</ele>
        <time>2017-09-08T12:57:27.1Z</time>
      </trkpt>
      <trkpt lat="45.8747" lon="4.82813">
        <ele>258</ele>
        <time>2017-09-08T12:57:28.1Z</time>
      </trkpt>
      <trkpt lat="45.87468" lon="4.82809">
        <ele>259</ele>
        <time>2017-09-08T12:57:29.1Z</time>
      </trkpt>
      <trkpt lat="45.87463" lon="4.82801">
        <ele>259</ele>
        <time>2017-09-08T12:57:31.1Z</time>
      </trkpt>
      <trkpt lat="45.87459" lon="4.82792">
        <ele>259</ele>
        <time>2017-09-08T12:57:33.1Z</time>
      </trkpt>
      <trkpt lat="45.87457" lon="4.82787">
        <ele>259</ele>
        <time>2017-09-08T12:57:34.1Z</time>
      </trkpt>
      <trkpt lat="45.87455" lon="4.82782">
        <ele>259</ele>
        <time>2017-09-08T12:57:35.1Z</time>
      </trkpt>
      <trkpt lat="45.8745" lon="4.82772">
        <ele>259</ele>
        <time>2017-09-08T12:57:37.1Z</time>
      </trkpt>
      <trkpt lat="45.87448" lon="4.82767">
        <ele>259</ele>
        <time>2017-09-08T12:57:38.1Z</time>
      </trkpt>
      <trkpt lat="45.87445" lon="4.82762">
        <ele>260</ele>
        <time>2017-09-08T12:57:39.1Z</time>
      </trkpt>
      <trkpt lat="45.8744" lon="4.82752">
        <ele>260</ele>
        <time>2017-09-08T12:57:41.1Z</time>
      </trkpt>
      <trkpt lat="45.87438" lon="4.82747">
        <ele>260</ele>
        <time>2017-09-08T12:57:42.1Z</time>
      </trkpt>
      <trkpt lat="45.87435" lon="4.82742">
        <ele>260</ele>
        <time>2017-09-08T12:57:43.1Z</time>
      </trkpt>
      <trkpt lat="45.87429" lon="4.8273">
        <ele>260</ele>
        <time>2017-09-08T12:57:45.1Z</time>
      </trkpt>
      <trkpt lat="45.87426" lon="4.82724">
        <ele>260</ele>
        <time>2017-09-08T12:57:46.1Z</time>
      </trkpt>
      <trkpt lat="45.8742" lon="4.82713">
        <ele>260</ele>
        <time>2017-09-08T12:57:48.1Z</time>
      </trkpt>
      <trkpt lat="45.87415" lon="4.82702">
        <ele>261</ele>
        <time>2017-09-08T12:57:50.1Z</time>
      </trkpt>
      <trkpt lat="45.87412" lon="4.82696">
        <ele>261</ele>
        <time>2017-09-08T12:57:51.1Z</time>
      </trkpt>
      <trkpt lat="45.87409" lon="4.82691">
        <ele>261</ele>
        <time>2017-09-08T12:57:52.1Z</time>
      </trkpt>
      <trkpt lat="45.87404" lon="4.82681">
        <ele>261</ele>
        <time>2017-09-08T12:57:54.1Z</time>
      </trkpt>
      <trkpt lat="45.87399" lon="4.8267">
        <ele>261</ele>
        <time>2017-09-08T12:57:56.1Z</time>
      </trkpt>
      <trkpt lat="45.87397" lon="4.82664">
        <ele>262</ele>
        <time>2017-09-08T12:57:57.1Z</time>
      </trkpt>
      <trkpt lat="45.87394" lon="4.82659">
        <ele>262</ele>
        <time>2017-09-08T12:57:58.1Z</time>
      </trkpt>
      <trkpt lat="45.87392" lon="4.82654">
        <ele>262</ele>
        <time>2017-09-08T12:57:59.1Z</time>
      </trkpt>
      <trkpt lat="45.87389" lon="4.82648">
        <ele>262</ele>
        <time>2017-09-08T12:58:00.1Z</time>
      </trkpt>
      <trkpt lat="45.87385" lon="4.82638">
        <ele>262</ele>
        <time>2017-09-08T12:58:02.1Z</time>
      </trkpt>
      <trkpt lat="45.87382" lon="4.82632">
        <ele>262</ele>
        <time>2017-09-08T12:58:03.1Z</time>
      </trkpt>
      <trkpt lat="45.8738" lon="4.82627">
        <ele>262</ele>
        <time>2017-09-08T12:58:04.1Z</time>
      </trkpt>
      <trkpt lat="45.87378" lon="4.82621">
        <ele>262</ele>
        <time>2017-09-08T12:58:05.1Z</time>
      </trkpt>
      <trkpt lat="45.87376" lon="4.82616">
        <ele>262</ele>
        <time>2017-09-08T12:58:06.1Z</time>
      </trkpt>
      <trkpt lat="45.87373" lon="4.82611">
        <ele>262</ele>
        <time>2017-09-08T12:58:07.1Z</time>
      </trkpt>
      <trkpt lat="45.87371" lon="4.82605">
        <ele>262</ele>
        <time>2017-09-08T12:58:08.1Z</time>
      </trkpt>
      <trkpt lat="45.87368" lon="4.82599">
        <ele>262</ele>
        <time>2017-09-08T12:58:09.1Z</time>
      </trkpt>
      <trkpt lat="45.87365" lon="4.82594">
        <ele>262</ele>
        <time>2017-09-08T12:58:10.1Z</time>
      </trkpt>
      <trkpt lat="45.8736" lon="4.82583">
        <ele>263</ele>
        <time>2017-09-08T12:58:12.1Z</time>
      </trkpt>
      <trkpt lat="45.87357" lon="4.82577">
        <ele>263</ele>
        <time>2017-09-08T12:58:13.1Z</time>
      </trkpt>
      <trkpt lat="45.87355" lon="4.82571">
        <ele>263</ele>
        <time>2017-09-08T12:58:14.1Z</time>
      </trkpt>
      <trkpt lat="45.87352" lon="4.82565">
        <ele>263</ele>
        <time>2017-09-08T12:58:15.1Z</time>
      </trkpt>
      <trkpt lat="45.87349" lon="4.82559">
        <ele>263</ele>
        <time>2017-09-08T12:58:16.1Z</time>
      </trkpt>
      <trkpt lat="45.87344" lon="4.82546">
        <ele>263</ele>
        <time>2017-09-08T12:58:18.1Z</time>
      </trkpt>
      <trkpt lat="45.87342" lon="4.8254">
        <ele>264</ele>
        <time>2017-09-08T12:58:19.1Z</time>
      </trkpt>
      <trkpt lat="45.87339" lon="4.82534">
        <ele>264</ele>
        <time>2017-09-08T12:58:20.1Z</time>
      </trkpt>
      <trkpt lat="45.87336" lon="4.82527">
        <ele>264</ele>
        <time>2017-09-08T12:58:21.1Z</time>
      </trkpt>
      <trkpt lat="45.87333" lon="4.8252">
        <ele>264</ele>
        <time>2017-09-08T12:58:22.1Z</time>
      </trkpt>
      <trkpt lat="45.8733" lon="4.82514">
        <ele>264</ele>
        <time>2017-09-08T12:58:23.1Z</time>
      </trkpt>
      <trkpt lat="45.87327" lon="4.82507">
        <ele>264</ele>
        <time>2017-09-08T12:58:24.1Z</time>
      </trkpt>
      <trkpt lat="45.8732" lon="4.82493">
        <ele>264</ele>
        <time>2017-09-08T12:58:26.1Z</time>
      </trkpt>
      <trkpt lat="45.87316" lon="4.82485">
        <ele>264</ele>
        <time>2017-09-08T12:58:27.1Z</time>
      </trkpt>
      <trkpt lat="45.87308" lon="4.82471">
        <ele>264</ele>
        <time>2017-09-08T12:58:29.1Z</time>
      </trkpt>
      <trkpt lat="45.87299" lon="4.82456">
        <ele>264</ele>
        <time>2017-09-08T12:58:31.1Z</time>
      </trkpt>
      <trkpt lat="45.87291" lon="4.82441">
        <ele>264</ele>
        <time>2017-09-08T12:58:33.1Z</time>
      </trkpt>
      <trkpt lat="45.87286" lon="4.82433">
        <ele>264</ele>
        <time>2017-09-08T12:58:34.1Z</time>
      </trkpt>
      <trkpt lat="45.87281" lon="4.82425">
        <ele>264</ele>
        <time>2017-09-08T12:58:35.1Z</time>
      </trkpt>
      <trkpt lat="45.87276" lon="4.82416">
        <ele>263</ele>
        <time>2017-09-08T12:58:36.1Z</time>
      </trkpt>
      <trkpt lat="45.87266" lon="4.82399">
        <ele>263</ele>
        <time>2017-09-08T12:58:38.1Z</time>
      </trkpt>
      <trkpt lat="45.87255" lon="4.8238">
        <ele>262</ele>
        <time>2017-09-08T12:58:40.1Z</time>
      </trkpt>
      <trkpt lat="45.87243" lon="4.8236">
        <ele>261</ele>
        <time>2017-09-08T12:58:42.1Z</time>
      </trkpt>
      <trkpt lat="45.87231" lon="4.8234">
        <ele>260</ele>
        <time>2017-09-08T12:58:44.1Z</time>
      </trkpt>
      <trkpt lat="45.87218" lon="4.82318">
        <ele>259</ele>
        <time>2017-09-08T12:58:46.1Z</time>
      </trkpt>
      <trkpt lat="45.87208" lon="4.82295">
        <ele>257</ele>
        <time>2017-09-08T12:58:48.1Z</time>
      </trkpt>
      <trkpt lat="45.87203" lon="4.82283">
        <ele>257</ele>
        <time>2017-09-08T12:58:49.1Z</time>
      </trkpt>
      <trkpt lat="45.87199" lon="4.82271">
        <ele>257</ele>
        <time>2017-09-08T12:58:50.1Z</time>
      </trkpt>
      <trkpt lat="45.8719" lon="4.82246">
        <ele>256</ele>
        <time>2017-09-08T12:58:52.1Z</time>
      </trkpt>
      <trkpt lat="45.87186" lon="4.82234">
        <ele>256</ele>
        <time>2017-09-08T12:58:53.1Z</time>
      </trkpt>
      <trkpt lat="45.87182" lon="4.82223">
        <ele>255</ele>
        <time>2017-09-08T12:58:54.1Z</time>
      </trkpt>
      <trkpt lat="45.87175" lon="4.82202">
        <ele>255</ele>
        <time>2017-09-08T12:58:56.1Z</time>
      </trkpt>
      <trkpt lat="45.87169" lon="4.82182">
        <ele>255</ele>
        <time>2017-09-08T12:58:58.1Z</time>
      </trkpt>
      <trkpt lat="45.87163" lon="4.82164">
        <ele>254</ele>
        <time>2017-09-08T12:59:00.1Z</time>
      </trkpt>
      <trkpt lat="45.87156" lon="4.82148">
        <ele>254</ele>
        <time>2017-09-08T12:59:02.1Z</time>
      </trkpt>
      <trkpt lat="45.87152" lon="4.82141">
        <ele>255</ele>
        <time>2017-09-08T12:59:03.1Z</time>
      </trkpt>
      <trkpt lat="45.87148" lon="4.82134">
        <ele>255</ele>
        <time>2017-09-08T12:59:04.1Z</time>
      </trkpt>
      <trkpt lat="45.87143" lon="4.82129">
        <ele>255</ele>
        <time>2017-09-08T12:59:05.1Z</time>
      </trkpt>
      <trkpt lat="45.87133" lon="4.8212">
        <ele>256</ele>
        <time>2017-09-08T12:59:07.1Z</time>
      </trkpt>
      <trkpt lat="45.87128" lon="4.82116">
        <ele>256</ele>
        <time>2017-09-08T12:59:08.1Z</time>
      </trkpt>
      <trkpt lat="45.87123" lon="4.82112">
        <ele>256</ele>
        <time>2017-09-08T12:59:09.1Z</time>
      </trkpt>
      <trkpt lat="45.87117" lon="4.82108">
        <ele>257</ele>
        <time>2017-09-08T12:59:10.1Z</time>
      </trkpt>
      <trkpt lat="45.87108" lon="4.82101">
        <ele>257</ele>
        <time>2017-09-08T12:59:12.1Z</time>
      </trkpt>
      <trkpt lat="45.87103" lon="4.82097">
        <ele>257</ele>
        <time>2017-09-08T12:59:13.1Z</time>
      </trkpt>
      <trkpt lat="45.87098" lon="4.82094">
        <ele>257</ele>
        <time>2017-09-08T12:59:14.1Z</time>
      </trkpt>
      <trkpt lat="45.87093" lon="4.82091">
        <ele>258</ele>
        <time>2017-09-08T12:59:15.1Z</time>
      </trkpt>
      <trkpt lat="45.87088" lon="4.82088">
        <ele>258</ele>
        <time>2017-09-08T12:59:16.1Z</time>
      </trkpt>
      <trkpt lat="45.87079" lon="4.82082">
        <ele>258</ele>
        <time>2017-09-08T12:59:18.1Z</time>
      </trkpt>
      <trkpt lat="45.87074" lon="4.82079">
        <ele>259</ele>
        <time>2017-09-08T12:59:19.1Z</time>
      </trkpt>
      <trkpt lat="45.87065" lon="4.82072">
        <ele>259</ele>
        <time>2017-09-08T12:59:21.1Z</time>
      </trkpt>
      <trkpt lat="45.87061" lon="4.82069">
        <ele>259</ele>
        <time>2017-09-08T12:59:22.1Z</time>
      </trkpt>
      <trkpt lat="45.87056" lon="4.82066">
        <ele>259</ele>
        <time>2017-09-08T12:59:23.1Z</time>
      </trkpt>
      <trkpt lat="45.87052" lon="4.82063">
        <ele>260</ele>
        <time>2017-09-08T12:59:24.1Z</time>
      </trkpt>
      <trkpt lat="45.87048" lon="4.8206">
        <ele>260</ele>
        <time>2017-09-08T12:59:25.1Z</time>
      </trkpt>
      <trkpt lat="45.87045" lon="4.82058">
        <ele>260</ele>
        <time>2017-09-08T12:59:26.1Z</time>
      </trkpt>
      <trkpt lat="45.87041" lon="4.82055">
        <ele>260</ele>
        <time>2017-09-08T12:59:27.1Z</time>
      </trkpt>
      <trkpt lat="45.87039" lon="4.82054">
        <ele>261</ele>
        <time>2017-09-08T12:59:28.1Z</time>
      </trkpt>
      <trkpt lat="45.87037" lon="4.82051">
        <ele>261</ele>
        <time>2017-09-08T12:59:29.1Z</time>
      </trkpt>
      <trkpt lat="45.87037" lon="4.82045">
        <ele>261</ele>
        <time>2017-09-08T12:59:31.1Z</time>
      </trkpt>
      <trkpt lat="45.87039" lon="4.82037">
        <ele>261</ele>
        <time>2017-09-08T12:59:33.1Z</time>
      </trkpt>
      <trkpt lat="45.87041" lon="4.82033">
        <ele>262</ele>
        <time>2017-09-08T12:59:34.1Z</time>
      </trkpt>
      <trkpt lat="45.87042" lon="4.82029">
        <ele>262</ele>
        <time>2017-09-08T12:59:35.1Z</time>
      </trkpt>
      <trkpt lat="45.87043" lon="4.82026">
        <ele>262</ele>
        <time>2017-09-08T12:59:36.1Z</time>
      </trkpt>
      <trkpt lat="45.87043" lon="4.82022">
        <ele>262</ele>
        <time>2017-09-08T12:59:37.1Z</time>
      </trkpt>
      <trkpt lat="45.87041" lon="4.82018">
        <ele>262</ele>
        <time>2017-09-08T12:59:38.1Z</time>
      </trkpt>
      <trkpt lat="45.87037" lon="4.82013">
        <ele>262</ele>
        <time>2017-09-08T12:59:40.1Z</time>
      </trkpt>
      <trkpt lat="45.87034" lon="4.82011">
        <ele>262</ele>
        <time>2017-09-08T12:59:41.1Z</time>
      </trkpt>
      <trkpt lat="45.87028" lon="4.82006">
        <ele>262</ele>
        <time>2017-09-08T12:59:43.1Z</time>
      </trkpt>
      <trkpt lat="45.87025" lon="4.82004">
        <ele>262</ele>
        <time>2017-09-08T12:59:44.1Z</time>
      </trkpt>
      <trkpt lat="45.87022" lon="4.82001">
        <ele>262</ele>
        <time>2017-09-08T12:59:45.1Z</time>
      </trkpt>
      <trkpt lat="45.87019" lon="4.81999">
        <ele>262</ele>
        <time>2017-09-08T12:59:46.1Z</time>
      </trkpt>
      <trkpt lat="45.87014" lon="4.81995">
        <ele>262</ele>
        <time>2017-09-08T12:59:48.1Z</time>
      </trkpt>
      <trkpt lat="45.87012" lon="4.81993">
        <ele>262</ele>
        <time>2017-09-08T12:59:49.1Z</time>
      </trkpt>
      <trkpt lat="45.8701" lon="4.81992">
        <ele>263</ele>
        <time>2017-09-08T12:59:50.1Z</time>
      </trkpt>
      <trkpt lat="45.87008" lon="4.8199">
        <ele>263</ele>
        <time>2017-09-08T12:59:51.1Z</time>
      </trkpt>
      <trkpt lat="45.87006" lon="4.81989">
        <ele>263</ele>
        <time>2017-09-08T12:59:52.1Z</time>
      </trkpt>
      <trkpt lat="45.87004" lon="4.81987">
        <ele>264</ele>
        <time>2017-09-08T12:59:53.1Z</time>
      </trkpt>
      <trkpt lat="45.87002" lon="4.81985">
        <ele>264</ele>
        <time>2017-09-08T12:59:54.1Z</time>
      </trkpt>
      <trkpt lat="45.87" lon="4.81984">
        <ele>264</ele>
        <time>2017-09-08T12:59:55.1Z</time>
      </trkpt>
      <trkpt lat="45.86998" lon="4.81983">
        <ele>264</ele>
        <time>2017-09-08T12:59:56.1Z</time>
      </trkpt>
      <trkpt lat="45.86996" lon="4.81981">
        <ele>264</ele>
        <time>2017-09-08T12:59:58.1Z</time>
      </trkpt>
      <trkpt lat="45.86996" lon="4.81981">
        <ele>264</ele>
        <time>2017-09-08T12:59:59.1Z</time>
      </trkpt>
      <trkpt lat="45.86996" lon="4.8198">
        <ele>264</ele>
        <time>2017-09-08T13:00:00.1Z</time>
      </trkpt>
      <trkpt lat="45.86995" lon="4.8198">
        <ele>264</ele>
        <time>2017-09-08T13:00:01.1Z</time>
      </trkpt>
      <trkpt lat="45.86994" lon="4.81979">
        <ele>264</ele>
        <time>2017-09-08T13:00:03.1Z</time>
      </trkpt>
      <trkpt lat="45.86993" lon="4.81979">
        <ele>264</ele>
        <time>2017-09-08T13:00:04.1Z</time>
      </trkpt>
      <trkpt lat="45.86993" lon="4.81978">
        <ele>265</ele>
        <time>2017-09-08T13:00:05.1Z</time>
      </trkpt>
      <trkpt lat="45.86991" lon="4.81977">
        <ele>265</ele>
        <time>2017-09-08T13:00:07.1Z</time>
      </trkpt>
      <trkpt lat="45.86988" lon="4.81977">
        <ele>265</ele>
        <time>2017-09-08T13:00:09.1Z</time>
      </trkpt>
      <trkpt lat="45.86984" lon="4.81976">
        <ele>265</ele>
        <time>2017-09-08T13:00:11.1Z</time>
      </trkpt>
      <trkpt lat="45.86981" lon="4.81977">
        <ele>265</ele>
        <time>2017-09-08T13:00:13.1Z</time>
      </trkpt>
      <trkpt lat="45.8698" lon="4.81976">
        <ele>264</ele>
        <time>2017-09-08T13:00:14.1Z</time>
      </trkpt>
      <trkpt lat="45.86978" lon="4.81975">
        <ele>264</ele>
        <time>2017-09-08T13:00:16.1Z</time>
      </trkpt>
      <trkpt lat="45.86978" lon="4.81975">
        <ele>264</ele>
        <time>2017-09-08T13:00:17.1Z</time>
      </trkpt>
      <trkpt lat="45.86977" lon="4.81974">
        <ele>265</ele>
        <time>2017-09-08T13:00:19.1Z</time>
      </trkpt>
      <trkpt lat="45.86977" lon="4.81974">
        <ele>265</ele>
        <time>2017-09-08T13:00:20.1Z</time>
      </trkpt>
      <trkpt lat="45.86977" lon="4.81974">
        <ele>265</ele>
        <time>2017-09-08T13:00:21.1Z</time>
      </trkpt>
      <trkpt lat="45.86976" lon="4.81973">
        <ele>265</ele>
        <time>2017-09-08T13:00:23.1Z</time>
      </trkpt>
      <trkpt lat="45.86976" lon="4.81975">
        <ele>265</ele>
        <time>2017-09-08T13:00:24.1Z</time>
      </trkpt>
      <trkpt lat="45.86976" lon="4.81976">
        <ele>265</ele>
        <time>2017-09-08T13:00:25.1Z</time>
      </trkpt>
      <trkpt lat="45.86976" lon="4.81976">
        <ele>265</ele>
        <time>2017-09-08T13:00:26.1Z</time>
      </trkpt>
      <trkpt lat="45.86978" lon="4.81974">
        <ele>265</ele>
        <time>2017-09-08T13:00:28.1Z</time>
      </trkpt>
      <trkpt lat="45.8698" lon="4.81973">
        <ele>265</ele>
        <time>2017-09-08T13:00:30.1Z</time>
      </trkpt>
      <trkpt lat="45.86984" lon="4.81973">
        <ele>265</ele>
        <time>2017-09-08T13:00:32.1Z</time>
      </trkpt>
      <trkpt lat="45.86987" lon="4.81972">
        <ele>265</ele>
        <time>2017-09-08T13:00:34.1Z</time>
      </trkpt>
      <trkpt lat="45.86989" lon="4.81971">
        <ele>266</ele>
        <time>2017-09-08T13:00:35.1Z</time>
      </trkpt>
      <trkpt lat="45.86994" lon="4.81964">
        <ele>266</ele>
        <time>2017-09-08T13:00:37.1Z</time>
      </trkpt>
      <trkpt lat="45.86996" lon="4.81961">
        <ele>266</ele>
        <time>2017-09-08T13:00:38.1Z</time>
      </trkpt>
      <trkpt lat="45.87003" lon="4.81956">
        <ele>267</ele>
        <time>2017-09-08T13:00:40.1Z</time>
      </trkpt>
      <trkpt lat="45.87006" lon="4.81955">
        <ele>267</ele>
        <time>2017-09-08T13:00:41.1Z</time>
      </trkpt>
      <trkpt lat="45.87012" lon="4.81954">
        <ele>268</ele>
        <time>2017-09-08T13:00:43.1Z</time>
      </trkpt>
      <trkpt lat="45.87019" lon="4.81954">
        <ele>268</ele>
        <time>2017-09-08T13:00:45.1Z</time>
      </trkpt>
      <trkpt lat="45.87025" lon="4.81955">
        <ele>269</ele>
        <time>2017-09-08T13:00:47.1Z</time>
      </trkpt>
      <trkpt lat="45.8703" lon="4.81957">
        <ele>269</ele>
        <time>2017-09-08T13:00:49.1Z</time>
      </trkpt>
      <trkpt lat="45.87036" lon="4.81958">
        <ele>270</ele>
        <time>2017-09-08T13:00:51.1Z</time>
      </trkpt>
      <trkpt lat="45.87041" lon="4.81959">
        <ele>270</ele>
        <time>2017-09-08T13:00:53.1Z</time>
      </trkpt>
      <trkpt lat="45.87046" lon="4.81961">
        <ele>270</ele>
        <time>2017-09-08T13:00:55.1Z</time>
      </trkpt>
      <trkpt lat="45.87049" lon="4.81961">
        <ele>270</ele>
        <time>2017-09-08T13:00:56.1Z</time>
      </trkpt>
      <trkpt lat="45.87052" lon="4.81962">
        <ele>270</ele>
        <time>2017-09-08T13:00:57.1Z</time>
      </trkpt>
      <trkpt lat="45.87057" lon="4.81964">
        <ele>271</ele>
        <time>2017-09-08T13:00:59.1Z</time>
      </trkpt>
      <trkpt lat="45.87062" lon="4.81966">
        <ele>271</ele>
        <time>2017-09-08T13:01:01.1Z</time>
      </trkpt>
      <trkpt lat="45.87068" lon="4.81969">
        <ele>271</ele>
        <time>2017-09-08T13:01:03.1Z</time>
      </trkpt>
      <trkpt lat="45.87074" lon="4.81971">
        <ele>271</ele>
        <time>2017-09-08T13:01:05.1Z</time>
      </trkpt>
      <trkpt lat="45.8708" lon="4.81972">
        <ele>272</ele>
        <time>2017-09-08T13:01:07.1Z</time>
      </trkpt>
      <trkpt lat="45.87082" lon="4.81973">
        <ele>272</ele>
        <time>2017-09-08T13:01:08.1Z</time>
      </trkpt>
      <trkpt lat="45.87088" lon="4.81974">
        <ele>272</ele>
        <time>2017-09-08T13:01:10.1Z</time>
      </trkpt>
      <trkpt lat="45.8709" lon="4.81975">
        <ele>272</ele>
        <time>2017-09-08T13:01:11.1Z</time>
      </trkpt>
      <trkpt lat="45.87093" lon="4.81975">
        <ele>273</ele>
        <time>2017-09-08T13:01:12.1Z</time>
      </trkpt>
      <trkpt lat="45.87095" lon="4.81975">
        <ele>273</ele>
        <time>2017-09-08T13:01:13.1Z</time>
      </trkpt>
      <trkpt lat="45.87097" lon="4.81976">
        <ele>273</ele>
        <time>2017-09-08T13:01:14.1Z</time>
      </trkpt>
      <trkpt lat="45.87099" lon="4.81976">
        <ele>273</ele>
        <time>2017-09-08T13:01:15.1Z</time>
      </trkpt>
      <trkpt lat="45.87102" lon="4.81976">
        <ele>274</ele>
        <time>2017-09-08T13:01:16.1Z</time>
      </trkpt>
      <trkpt lat="45.87107" lon="4.81977">
        <ele>274</ele>
        <time>2017-09-08T13:01:18.1Z</time>
      </trkpt>
      <trkpt lat="45.87112" lon="4.81977">
        <ele>274</ele>
        <time>2017-09-08T13:01:20.1Z</time>
      </trkpt>
      <trkpt lat="45.87115" lon="4.81977">
        <ele>274</ele>
        <time>2017-09-08T13:01:21.1Z</time>
      </trkpt>
      <trkpt lat="45.87117" lon="4.81977">
        <ele>274</ele>
        <time>2017-09-08T13:01:22.1Z</time>
      </trkpt>
      <trkpt lat="45.8712" lon="4.81977">
        <ele>275</ele>
        <time>2017-09-08T13:01:23.1Z</time>
      </trkpt>
      <trkpt lat="45.87122" lon="4.81977">
        <ele>275</ele>
        <time>2017-09-08T13:01:24.1Z</time>
      </trkpt>
      <trkpt lat="45.87125" lon="4.81977">
        <ele>275</ele>
        <time>2017-09-08T13:01:25.1Z</time>
      </trkpt>
      <trkpt lat="45.87127" lon="4.81977">
        <ele>276</ele>
        <time>2017-09-08T13:01:26.1Z</time>
      </trkpt>
      <trkpt lat="45.8713" lon="4.81977">
        <ele>276</ele>
        <time>2017-09-08T13:01:27.1Z</time>
      </trkpt>
      <trkpt lat="45.87133" lon="4.81977">
        <ele>276</ele>
        <time>2017-09-08T13:01:28.1Z</time>
      </trkpt>
      <trkpt lat="45.87136" lon="4.81977">
        <ele>276</ele>
        <time>2017-09-08T13:01:29.1Z</time>
      </trkpt>
      <trkpt lat="45.87141" lon="4.81977">
        <ele>276</ele>
        <time>2017-09-08T13:01:31.1Z</time>
      </trkpt>
      <trkpt lat="45.87144" lon="4.81976">
        <ele>276</ele>
        <time>2017-09-08T13:01:32.1Z</time>
      </trkpt>
      <trkpt lat="45.87147" lon="4.81976">
        <ele>276</ele>
        <time>2017-09-08T13:01:33.1Z</time>
      </trkpt>
      <trkpt lat="45.8715" lon="4.81976">
        <ele>276</ele>
        <time>2017-09-08T13:01:34.1Z</time>
      </trkpt>
      <trkpt lat="45.87153" lon="4.81976">
        <ele>277</ele>
        <time>2017-09-08T13:01:35.1Z</time>
      </trkpt>
      <trkpt lat="45.87158" lon="4.81975">
        <ele>277</ele>
        <time>2017-09-08T13:01:37.1Z</time>
      </trkpt>
      <trkpt lat="45.87161" lon="4.81975">
        <ele>277</ele>
        <time>2017-09-08T13:01:38.1Z</time>
      </trkpt>
      <trkpt lat="45.87164" lon="4.81975">
        <ele>277</ele>
        <time>2017-09-08T13:01:39.1Z</time>
      </trkpt>
      <trkpt lat="45.87166" lon="4.81974">
        <ele>277</ele>
        <time>2017-09-08T13:01:40.1Z</time>
      </trkpt>
      <trkpt lat="45.87169" lon="4.81974">
        <ele>277</ele>
        <time>2017-09-08T13:01:41.1Z</time>
      </trkpt>
      <trkpt lat="45.87172" lon="4.81974">
        <ele>277</ele>
        <time>2017-09-08T13:01:42.1Z</time>
      </trkpt>
      <trkpt lat="45.87174" lon="4.81974">
        <ele>277</ele>
        <time>2017-09-08T13:01:43.1Z</time>
      </trkpt>
      <trkpt lat="45.87179" lon="4.81973">
        <ele>277</ele>
        <time>2017-09-08T13:01:45.1Z</time>
      </trkpt>
      <trkpt lat="45.87181" lon="4.81973">
        <ele>277</ele>
        <time>2017-09-08T13:01:46.1Z</time>
      </trkpt>
      <trkpt lat="45.87183" lon="4.81972">
        <ele>277</ele>
        <time>2017-09-08T13:01:47.1Z</time>
      </trkpt>
      <trkpt lat="45.87188" lon="4.81971">
        <ele>277</ele>
        <time>2017-09-08T13:01:49.1Z</time>
      </trkpt>
      <trkpt lat="45.87191" lon="4.81971">
        <ele>277</ele>
        <time>2017-09-08T13:01:50.1Z</time>
      </trkpt>
      <trkpt lat="45.87195" lon="4.81969">
        <ele>277</ele>
        <time>2017-09-08T13:01:52.1Z</time>
      </trkpt>
      <trkpt lat="45.87197" lon="4.81968">
        <ele>277</ele>
        <time>2017-09-08T13:01:53.1Z</time>
      </trkpt>
      <trkpt lat="45.87201" lon="4.81965">
        <ele>278</ele>
        <time>2017-09-08T13:01:55.1Z</time>
      </trkpt>
      <trkpt lat="45.87206" lon="4.81962">
        <ele>278</ele>
        <time>2017-09-08T13:01:57.1Z</time>
      </trkpt>
      <trkpt lat="45.8721" lon="4.81959">
        <ele>278</ele>
        <time>2017-09-08T13:01:59.1Z</time>
      </trkpt>
      <trkpt lat="45.87212" lon="4.81957">
        <ele>278</ele>
        <time>2017-09-08T13:02:00.1Z</time>
      </trkpt>
      <trkpt lat="45.87217" lon="4.81954">
        <ele>279</ele>
        <time>2017-09-08T13:02:02.1Z</time>
      </trkpt>
      <trkpt lat="45.8722" lon="4.8195">
        <ele>279</ele>
        <time>2017-09-08T13:02:04.1Z</time>
      </trkpt>
      <trkpt lat="45.87222" lon="4.81948">
        <ele>279</ele>
        <time>2017-09-08T13:02:05.1Z</time>
      </trkpt>
      <trkpt lat="45.87226" lon="4.81944">
        <ele>280</ele>
        <time>2017-09-08T13:02:07.1Z</time>
      </trkpt>
      <trkpt lat="45.87232" lon="4.81941">
        <ele>280</ele>
        <time>2017-09-08T13:02:09.1Z</time>
      </trkpt>
      <trkpt lat="45.87238" lon="4.81938">
        <ele>281</ele>
        <time>2017-09-08T13:02:11.1Z</time>
      </trkpt>
      <trkpt lat="45.87241" lon="4.81937">
        <ele>281</ele>
        <time>2017-09-08T13:02:12.1Z</time>
      </trkpt>
      <trkpt lat="45.87244" lon="4.81935">
        <ele>281</ele>
        <time>2017-09-08T13:02:13.1Z</time>
      </trkpt>
      <trkpt lat="45.87251" lon="4.81932">
        <ele>281</ele>
        <time>2017-09-08T13:02:15.1Z</time>
      </trkpt>
      <trkpt lat="45.87257" lon="4.81927">
        <ele>281</ele>
        <time>2017-09-08T13:02:17.1Z</time>
      </trkpt>
      <trkpt lat="45.87264" lon="4.81921">
        <ele>281</ele>
        <time>2017-09-08T13:02:19.1Z</time>
      </trkpt>
      <trkpt lat="45.87271" lon="4.81915">
        <ele>281</ele>
        <time>2017-09-08T13:02:21.1Z</time>
      </trkpt>
      <trkpt lat="45.87279" lon="4.81909">
        <ele>281</ele>
        <time>2017-09-08T13:02:23.1Z</time>
      </trkpt>
      <trkpt lat="45.87286" lon="4.81903">
        <ele>281</ele>
        <time>2017-09-08T13:02:25.1Z</time>
      </trkpt>
      <trkpt lat="45.87291" lon="4.81892">
        <ele>281</ele>
        <time>2017-09-08T13:02:27.1Z</time>
      </trkpt>
      <trkpt lat="45.87293" lon="4.8188">
        <ele>282</ele>
        <time>2017-09-08T13:02:29.1Z</time>
      </trkpt>
      <trkpt lat="45.87294" lon="4.81875">
        <ele>282</ele>
        <time>2017-09-08T13:02:30.1Z</time>
      </trkpt>
      <trkpt lat="45.87295" lon="4.81869">
        <ele>282</ele>
        <time>2017-09-08T13:02:31.1Z</time>
      </trkpt>
      <trkpt lat="45.87297" lon="4.81858">
        <ele>282</ele>
        <time>2017-09-08T13:02:33.1Z</time>
      </trkpt>
      <trkpt lat="45.87298" lon="4.81854">
        <ele>282</ele>
        <time>2017-09-08T13:02:34.1Z</time>
      </trkpt>
      <trkpt lat="45.873" lon="4.81844">
        <ele>282</ele>
        <time>2017-09-08T13:02:36.1Z</time>
      </trkpt>
      <trkpt lat="45.87302" lon="4.8184">
        <ele>282</ele>
        <time>2017-09-08T13:02:37.1Z</time>
      </trkpt>
      <trkpt lat="45.87303" lon="4.81835">
        <ele>282</ele>
        <time>2017-09-08T13:02:38.1Z</time>
      </trkpt>
      <trkpt lat="45.87305" lon="4.81831">
        <ele>282</ele>
        <time>2017-09-08T13:02:39.1Z</time>
      </trkpt>
      <trkpt lat="45.87306" lon="4.81827">
        <ele>282</ele>
        <time>2017-09-08T13:02:40.1Z</time>
      </trkpt>
      <trkpt lat="45.8731" lon="4.81819">
        <ele>283</ele>
        <time>2017-09-08T13:02:42.1Z</time>
      </trkpt>
      <trkpt lat="45.87312" lon="4.81811">
        <ele>283</ele>
        <time>2017-09-08T13:02:44.1Z</time>
      </trkpt>
      <trkpt lat="45.87316" lon="4.81803">
        <ele>283</ele>
        <time>2017-09-08T13:02:46.1Z</time>
      </trkpt>
      <trkpt lat="45.87317" lon="4.81798">
        <ele>283</ele>
        <time>2017-09-08T13:02:47.1Z</time>
      </trkpt>
      <trkpt lat="45.87319" lon="4.81794">
        <ele>283</ele>
        <time>2017-09-08T13:02:48.1Z</time>
      </trkpt>
      <trkpt lat="45.8732" lon="4.8179">
        <ele>283</ele>
        <time>2017-09-08T13:02:49.1Z</time>
      </trkpt>
      <trkpt lat="45.87324" lon="4.81782">
        <ele>283</ele>
        <time>2017-09-08T13:02:51.1Z</time>
      </trkpt>
      <trkpt lat="45.87326" lon="4.81777">
        <ele>283</ele>
        <time>2017-09-08T13:02:52.1Z</time>
      </trkpt>
      <trkpt lat="45.87328" lon="4.81773">
        <ele>283</ele>
        <time>2017-09-08T13:02:53.1Z</time>
      </trkpt>
      <trkpt lat="45.87329" lon="4.81769">
        <ele>283</ele>
        <time>2017-09-08T13:02:54.1Z</time>
      </trkpt>
      <trkpt lat="45.87331" lon="4.81765">
        <ele>283</ele>
        <time>2017-09-08T13:02:55.1Z</time>
      </trkpt>
      <trkpt lat="45.87334" lon="4.81756">
        <ele>284</ele>
        <time>2017-09-08T13:02:57.1Z</time>
      </trkpt>
      <trkpt lat="45.87336" lon="4.81752">
        <ele>284</ele>
        <time>2017-09-08T13:02:58.1Z</time>
      </trkpt>
      <trkpt lat="45.87337" lon="4.81747">
        <ele>284</ele>
        <time>2017-09-08T13:02:59.1Z</time>
      </trkpt>
      <trkpt lat="45.8734" lon="4.81739">
        <ele>284</ele>
        <time>2017-09-08T13:03:01.1Z</time>
      </trkpt>
      <trkpt lat="45.87342" lon="4.81735">
        <ele>285</ele>
        <time>2017-09-08T13:03:02.1Z</time>
      </trkpt>
      <trkpt lat="45.87343" lon="4.8173">
        <ele>285</ele>
        <time>2017-09-08T13:03:03.1Z</time>
      </trkpt>
      <trkpt lat="45.87344" lon="4.81725">
        <ele>285</ele>
        <time>2017-09-08T13:03:04.1Z</time>
      </trkpt>
      <trkpt lat="45.87346" lon="4.8172">
        <ele>285</ele>
        <time>2017-09-08T13:03:05.1Z</time>
      </trkpt>
      <trkpt lat="45.87349" lon="4.81709">
        <ele>285</ele>
        <time>2017-09-08T13:03:07.1Z</time>
      </trkpt>
      <trkpt lat="45.87351" lon="4.81704">
        <ele>285</ele>
        <time>2017-09-08T13:03:08.1Z</time>
      </trkpt>
      <trkpt lat="45.87352" lon="4.81698">
        <ele>285</ele>
        <time>2017-09-08T13:03:09.1Z</time>
      </trkpt>
      <trkpt lat="45.87354" lon="4.81693">
        <ele>284</ele>
        <time>2017-09-08T13:03:10.1Z</time>
      </trkpt>
      <trkpt lat="45.87357" lon="4.81683">
        <ele>284</ele>
        <time>2017-09-08T13:03:12.1Z</time>
      </trkpt>
      <trkpt lat="45.87358" lon="4.81679">
        <ele>285</ele>
        <time>2017-09-08T13:03:13.1Z</time>
      </trkpt>
      <trkpt lat="45.87361" lon="4.81669">
        <ele>285</ele>
        <time>2017-09-08T13:03:15.1Z</time>
      </trkpt>
      <trkpt lat="45.87362" lon="4.81665">
        <ele>285</ele>
        <time>2017-09-08T13:03:16.1Z</time>
      </trkpt>
      <trkpt lat="45.87364" lon="4.8166">
        <ele>285</ele>
        <time>2017-09-08T13:03:17.1Z</time>
      </trkpt>
      <trkpt lat="45.87365" lon="4.81656">
        <ele>285</ele>
        <time>2017-09-08T13:03:18.1Z</time>
      </trkpt>
      <trkpt lat="45.87367" lon="4.81651">
        <ele>285</ele>
        <time>2017-09-08T13:03:19.1Z</time>
      </trkpt>
      <trkpt lat="45.87371" lon="4.81643">
        <ele>286</ele>
        <time>2017-09-08T13:03:21.1Z</time>
      </trkpt>
      <trkpt lat="45.87373" lon="4.81639">
        <ele>286</ele>
        <time>2017-09-08T13:03:22.1Z</time>
      </trkpt>
      <trkpt lat="45.87375" lon="4.81635">
        <ele>286</ele>
        <time>2017-09-08T13:03:23.1Z</time>
      </trkpt>
      <trkpt lat="45.87378" lon="4.81627">
        <ele>286</ele>
        <time>2017-09-08T13:03:25.1Z</time>
      </trkpt>
      <trkpt lat="45.87379" lon="4.81622">
        <ele>286</ele>
        <time>2017-09-08T13:03:26.1Z</time>
      </trkpt>
      <trkpt lat="45.87381" lon="4.81618">
        <ele>286</ele>
        <time>2017-09-08T13:03:27.1Z</time>
      </trkpt>
      <trkpt lat="45.87382" lon="4.81613">
        <ele>286</ele>
        <time>2017-09-08T13:03:28.1Z</time>
      </trkpt>
      <trkpt lat="45.87383" lon="4.81609">
        <ele>286</ele>
        <time>2017-09-08T13:03:29.1Z</time>
      </trkpt>
      <trkpt lat="45.87384" lon="4.81605">
        <ele>286</ele>
        <time>2017-09-08T13:03:30.1Z</time>
      </trkpt>
      <trkpt lat="45.87386" lon="4.81596">
        <ele>287</ele>
        <time>2017-09-08T13:03:32.1Z</time>
      </trkpt>
      <trkpt lat="45.87386" lon="4.81592">
        <ele>287</ele>
        <time>2017-09-08T13:03:33.1Z</time>
      </trkpt>
      <trkpt lat="45.87388" lon="4.81583">
        <ele>287</ele>
        <time>2017-09-08T13:03:35.1Z</time>
      </trkpt>
      <trkpt lat="45.87389" lon="4.81579">
        <ele>287</ele>
        <time>2017-09-08T13:03:36.1Z</time>
      </trkpt>
      <trkpt lat="45.8739" lon="4.81575">
        <ele>287</ele>
        <time>2017-09-08T13:03:37.1Z</time>
      </trkpt>
      <trkpt lat="45.8739" lon="4.81571">
        <ele>288</ele>
        <time>2017-09-08T13:03:38.1Z</time>
      </trkpt>
      <trkpt lat="45.87392" lon="4.81564">
        <ele>288</ele>
        <time>2017-09-08T13:03:40.1Z</time>
      </trkpt>
      <trkpt lat="45.87393" lon="4.8156">
        <ele>288</ele>
        <time>2017-09-08T13:03:41.1Z</time>
      </trkpt>
      <trkpt lat="45.87394" lon="4.81556">
        <ele>288</ele>
        <time>2017-09-08T13:03:42.1Z</time>
      </trkpt>
      <trkpt lat="45.87397" lon="4.81548">
        <ele>289</ele>
        <time>2017-09-08T13:03:44.1Z</time>
      </trkpt>
      <trkpt lat="45.87398" lon="4.81544">
        <ele>289</ele>
        <time>2017-09-08T13:03:45.1Z</time>
      </trkpt>
      <trkpt lat="45.87399" lon="4.8154">
        <ele>289</ele>
        <time>2017-09-08T13:03:46.1Z</time>
      </trkpt>
      <trkpt lat="45.87401" lon="4.81536">
        <ele>289</ele>
        <time>2017-09-08T13:03:47.1Z</time>
      </trkpt>
      <trkpt lat="45.87402" lon="4.81532">
        <ele>290</ele>
        <time>2017-09-08T13:03:48.1Z</time>
      </trkpt>
      <trkpt lat="45.87405" lon="4.81524">
        <ele>290</ele>
        <time>2017-09-08T13:03:50.1Z</time>
      </trkpt>
      <trkpt lat="45.87407" lon="4.8152">
        <ele>290</ele>
        <time>2017-09-08T13:03:51.1Z</time>
      </trkpt>
      <trkpt lat="45.87408" lon="4.81516">
        <ele>290</ele>
        <time>2017-09-08T13:03:52.1Z</time>
      </trkpt>
      <trkpt lat="45.8741" lon="4.81511">
        <ele>290</ele>
        <time>2017-09-08T13:03:53.1Z</time>
      </trkpt>
      <trkpt lat="45.87411" lon="4.81507">
        <ele>290</ele>
        <time>2017-09-08T13:03:54.1Z</time>
      </trkpt>
      <trkpt lat="45.87412" lon="4.81503">
        <ele>290</ele>
        <time>2017-09-08T13:03:55.1Z</time>
      </trkpt>
      <trkpt lat="45.87414" lon="4.81499">
        <ele>290</ele>
        <time>2017-09-08T13:03:56.1Z</time>
      </trkpt>
      <trkpt lat="45.87415" lon="4.81496">
        <ele>290</ele>
        <time>2017-09-08T13:03:57.1Z</time>
      </trkpt>
      <trkpt lat="45.87419" lon="4.81488">
        <ele>290</ele>
        <time>2017-09-08T13:03:59.1Z</time>
      </trkpt>
      <trkpt lat="45.87422" lon="4.81479">
        <ele>291</ele>
        <time>2017-09-08T13:04:01.1Z</time>
      </trkpt>
      <trkpt lat="45.87424" lon="4.81475">
        <ele>291</ele>
        <time>2017-09-08T13:04:02.1Z</time>
      </trkpt>
      <trkpt lat="45.87428" lon="4.81466">
        <ele>291</ele>
        <time>2017-09-08T13:04:04.1Z</time>
      </trkpt>
      <trkpt lat="45.87429" lon="4.81462">
        <ele>291</ele>
        <time>2017-09-08T13:04:05.1Z</time>
      </trkpt>
      <trkpt lat="45.87431" lon="4.81458">
        <ele>292</ele>
        <time>2017-09-08T13:04:06.1Z</time>
      </trkpt>
      <trkpt lat="45.87435" lon="4.81449">
        <ele>292</ele>
        <time>2017-09-08T13:04:08.1Z</time>
      </trkpt>
      <trkpt lat="45.87437" lon="4.81444">
        <ele>292</ele>
        <time>2017-09-08T13:04:09.1Z</time>
      </trkpt>
      <trkpt lat="45.87439" lon="4.81439">
        <ele>292</ele>
        <time>2017-09-08T13:04:10.1Z</time>
      </trkpt>
      <trkpt lat="45.87442" lon="4.81435">
        <ele>292</ele>
        <time>2017-09-08T13:04:11.1Z</time>
      </trkpt>
      <trkpt lat="45.87444" lon="4.81431">
        <ele>292</ele>
        <time>2017-09-08T13:04:12.1Z</time>
      </trkpt>
      <trkpt lat="45.87449" lon="4.81423">
        <ele>292</ele>
        <time>2017-09-08T13:04:14.1Z</time>
      </trkpt>
      <trkpt lat="45.87454" lon="4.81415">
        <ele>293</ele>
        <time>2017-09-08T13:04:16.1Z</time>
      </trkpt>
      <trkpt lat="45.87459" lon="4.81407">
        <ele>293</ele>
        <time>2017-09-08T13:04:18.1Z</time>
      </trkpt>
      <trkpt lat="45.87463" lon="4.81399">
        <ele>293</ele>
        <time>2017-09-08T13:04:20.1Z</time>
      </trkpt>
      <trkpt lat="45.87468" lon="4.81392">
        <ele>293</ele>
        <time>2017-09-08T13:04:22.1Z</time>
      </trkpt>
      <trkpt lat="45.87472" lon="4.81385">
        <ele>294</ele>
        <time>2017-09-08T13:04:24.1Z</time>
      </trkpt>
      <trkpt lat="45.87476" lon="4.81377">
        <ele>294</ele>
        <time>2017-09-08T13:04:26.1Z</time>
      </trkpt>
      <trkpt lat="45.87478" lon="4.81373">
        <ele>294</ele>
        <time>2017-09-08T13:04:27.1Z</time>
      </trkpt>
      <trkpt lat="45.87482" lon="4.81365">
        <ele>294</ele>
        <time>2017-09-08T13:04:29.1Z</time>
      </trkpt>
      <trkpt lat="45.87484" lon="4.81361">
        <ele>294</ele>
        <time>2017-09-08T13:04:30.1Z</time>
      </trkpt>
      <trkpt lat="45.87486" lon="4.81357">
        <ele>294</ele>
        <time>2017-09-08T13:04:31.1Z</time>
      </trkpt>
      <trkpt lat="45.8749" lon="4.81348">
        <ele>294</ele>
        <time>2017-09-08T13:04:33.1Z</time>
      </trkpt>
      <trkpt lat="45.87491" lon="4.81344">
        <ele>294</ele>
        <time>2017-09-08T13:04:34.1Z</time>
      </trkpt>
      <trkpt lat="45.87493" lon="4.8134">
        <ele>294</ele>
        <time>2017-09-08T13:04:35.1Z</time>
      </trkpt>
      <trkpt lat="45.87495" lon="4.81336">
        <ele>295</ele>
        <time>2017-09-08T13:04:36.1Z</time>
      </trkpt>
      <trkpt lat="45.87496" lon="4.81332">
        <ele>295</ele>
        <time>2017-09-08T13:04:37.1Z</time>
      </trkpt>
      <trkpt lat="45.87497" lon="4.81328">
        <ele>295</ele>
        <time>2017-09-08T13:04:38.1Z</time>
      </trkpt>
      <trkpt lat="45.87499" lon="4.81319">
        <ele>296</ele>
        <time>2017-09-08T13:04:40.1Z</time>
      </trkpt>
      <trkpt lat="45.875" lon="4.81315">
        <ele>296</ele>
        <time>2017-09-08T13:04:41.1Z</time>
      </trkpt>
      <trkpt lat="45.87501" lon="4.81307">
        <ele>296</ele>
        <time>2017-09-08T13:04:43.1Z</time>
      </trkpt>
      <trkpt lat="45.87502" lon="4.81302">
        <ele>297</ele>
        <time>2017-09-08T13:04:44.1Z</time>
      </trkpt>
      <trkpt lat="45.87502" lon="4.81298">
        <ele>297</ele>
        <time>2017-09-08T13:04:45.1Z</time>
      </trkpt>
      <trkpt lat="45.87503" lon="4.8129">
        <ele>297</ele>
        <time>2017-09-08T13:04:47.1Z</time>
      </trkpt>
      <trkpt lat="45.87505" lon="4.81282">
        <ele>298</ele>
        <time>2017-09-08T13:04:49.1Z</time>
      </trkpt>
      <trkpt lat="45.87506" lon="4.81273">
        <ele>298</ele>
        <time>2017-09-08T13:04:51.1Z</time>
      </trkpt>
      <trkpt lat="45.87508" lon="4.81265">
        <ele>298</ele>
        <time>2017-09-08T13:04:53.1Z</time>
      </trkpt>
      <trkpt lat="45.87509" lon="4.81261">
        <ele>298</ele>
        <time>2017-09-08T13:04:54.1Z</time>
      </trkpt>
      <trkpt lat="45.8751" lon="4.81252">
        <ele>298</ele>
        <time>2017-09-08T13:04:56.1Z</time>
      </trkpt>
      <trkpt lat="45.87512" lon="4.81244">
        <ele>299</ele>
        <time>2017-09-08T13:04:58.1Z</time>
      </trkpt>
      <trkpt lat="45.87513" lon="4.8124">
        <ele>299</ele>
        <time>2017-09-08T13:04:59.1Z</time>
      </trkpt>
      <trkpt lat="45.87514" lon="4.81236">
        <ele>299</ele>
        <time>2017-09-08T13:05:00.1Z</time>
      </trkpt>
      <trkpt lat="45.87515" lon="4.81231">
        <ele>299</ele>
        <time>2017-09-08T13:05:01.1Z</time>
      </trkpt>
      <trkpt lat="45.87516" lon="4.81227">
        <ele>299</ele>
        <time>2017-09-08T13:05:02.1Z</time>
      </trkpt>
      <trkpt lat="45.87518" lon="4.81219">
        <ele>299</ele>
        <time>2017-09-08T13:05:04.1Z</time>
      </trkpt>
      <trkpt lat="45.87519" lon="4.81215">
        <ele>299</ele>
        <time>2017-09-08T13:05:05.1Z</time>
      </trkpt>
      <trkpt lat="45.87521" lon="4.81211">
        <ele>300</ele>
        <time>2017-09-08T13:05:06.1Z</time>
      </trkpt>
      <trkpt lat="45.87522" lon="4.81208">
        <ele>299</ele>
        <time>2017-09-08T13:05:07.1Z</time>
      </trkpt>
      <trkpt lat="45.87523" lon="4.81204">
        <ele>300</ele>
        <time>2017-09-08T13:05:08.1Z</time>
      </trkpt>
      <trkpt lat="45.87525" lon="4.81196">
        <ele>300</ele>
        <time>2017-09-08T13:05:10.1Z</time>
      </trkpt>
      <trkpt lat="45.87527" lon="4.81192">
        <ele>300</ele>
        <time>2017-09-08T13:05:11.1Z</time>
      </trkpt>
      <trkpt lat="45.87528" lon="4.81189">
        <ele>300</ele>
        <time>2017-09-08T13:05:12.1Z</time>
      </trkpt>
      <trkpt lat="45.87529" lon="4.81185">
        <ele>300</ele>
        <time>2017-09-08T13:05:13.1Z</time>
      </trkpt>
      <trkpt lat="45.8753" lon="4.81182">
        <ele>300</ele>
        <time>2017-09-08T13:05:14.1Z</time>
      </trkpt>
      <trkpt lat="45.87532" lon="4.81179">
        <ele>301</ele>
        <time>2017-09-08T13:05:15.1Z</time>
      </trkpt>
      <trkpt lat="45.87534" lon="4.81173">
        <ele>301</ele>
        <time>2017-09-08T13:05:17.1Z</time>
      </trkpt>
      <trkpt lat="45.87536" lon="4.8117">
        <ele>301</ele>
        <time>2017-09-08T13:05:18.1Z</time>
      </trkpt>
      <trkpt lat="45.87538" lon="4.81163">
        <ele>302</ele>
        <time>2017-09-08T13:05:20.1Z</time>
      </trkpt>
      <trkpt lat="45.8754" lon="4.8116">
        <ele>302</ele>
        <time>2017-09-08T13:05:21.1Z</time>
      </trkpt>
      <trkpt lat="45.87541" lon="4.81157">
        <ele>302</ele>
        <time>2017-09-08T13:05:22.1Z</time>
      </trkpt>
      <trkpt lat="45.87542" lon="4.81155">
        <ele>303</ele>
        <time>2017-09-08T13:05:23.1Z</time>
      </trkpt>
      <trkpt lat="45.87543" lon="4.81149">
        <ele>303</ele>
        <time>2017-09-08T13:05:25.1Z</time>
      </trkpt>
      <trkpt lat="45.87545" lon="4.81143">
        <ele>303</ele>
        <time>2017-09-08T13:05:27.1Z</time>
      </trkpt>
      <trkpt lat="45.87547" lon="4.81137">
        <ele>304</ele>
        <time>2017-09-08T13:05:29.1Z</time>
      </trkpt>
      <trkpt lat="45.87549" lon="4.81132">
        <ele>304</ele>
        <time>2017-09-08T13:05:31.1Z</time>
      </trkpt>
      <trkpt lat="45.8755" lon="4.81126">
        <ele>305</ele>
        <time>2017-09-08T13:05:33.1Z</time>
      </trkpt>
      <trkpt lat="45.87551" lon="4.81123">
        <ele>305</ele>
        <time>2017-09-08T13:05:34.1Z</time>
      </trkpt>
      <trkpt lat="45.87553" lon="4.81117">
        <ele>305</ele>
        <time>2017-09-08T13:05:36.1Z</time>
      </trkpt>
      <trkpt lat="45.87555" lon="4.81111">
        <ele>306</ele>
        <time>2017-09-08T13:05:38.1Z</time>
      </trkpt>
      <trkpt lat="45.87557" lon="4.81106">
        <ele>306</ele>
        <time>2017-09-08T13:05:40.1Z</time>
      </trkpt>
      <trkpt lat="45.87558" lon="4.81103">
        <ele>306</ele>
        <time>2017-09-08T13:05:41.1Z</time>
      </trkpt>
      <trkpt lat="45.8756" lon="4.81097">
        <ele>307</ele>
        <time>2017-09-08T13:05:43.1Z</time>
      </trkpt>
      <trkpt lat="45.87561" lon="4.81092">
        <ele>307</ele>
        <time>2017-09-08T13:05:45.1Z</time>
      </trkpt>
      <trkpt lat="45.87562" lon="4.81089">
        <ele>307</ele>
        <time>2017-09-08T13:05:46.1Z</time>
      </trkpt>
      <trkpt lat="45.87564" lon="4.81083">
        <ele>308</ele>
        <time>2017-09-08T13:05:48.1Z</time>
      </trkpt>
      <trkpt lat="45.87566" lon="4.81078">
        <ele>308</ele>
        <time>2017-09-08T13:05:50.1Z</time>
      </trkpt>
      <trkpt lat="45.87567" lon="4.81075">
        <ele>308</ele>
        <time>2017-09-08T13:05:51.1Z</time>
      </trkpt>
      <trkpt lat="45.87568" lon="4.81071">
        <ele>309</ele>
        <time>2017-09-08T13:05:53.1Z</time>
      </trkpt>
      <trkpt lat="45.87569" lon="4.81066">
        <ele>309</ele>
        <time>2017-09-08T13:05:55.1Z</time>
      </trkpt>
      <trkpt lat="45.8757" lon="4.81063">
        <ele>309</ele>
        <time>2017-09-08T13:05:56.1Z</time>
      </trkpt>
      <trkpt lat="45.87571" lon="4.81058">
        <ele>310</ele>
        <time>2017-09-08T13:05:58.1Z</time>
      </trkpt>
      <trkpt lat="45.87571" lon="4.81055">
        <ele>310</ele>
        <time>2017-09-08T13:05:59.1Z</time>
      </trkpt>
      <trkpt lat="45.87572" lon="4.81052">
        <ele>310</ele>
        <time>2017-09-08T13:06:00.1Z</time>
      </trkpt>
      <trkpt lat="45.87573" lon="4.81047">
        <ele>310</ele>
        <time>2017-09-08T13:06:02.1Z</time>
      </trkpt>
      <trkpt lat="45.87574" lon="4.81044">
        <ele>310</ele>
        <time>2017-09-08T13:06:03.1Z</time>
      </trkpt>
      <trkpt lat="45.87575" lon="4.81039">
        <ele>310</ele>
        <time>2017-09-08T13:06:05.1Z</time>
      </trkpt>
      <trkpt lat="45.87576" lon="4.81036">
        <ele>310</ele>
        <time>2017-09-08T13:06:06.1Z</time>
      </trkpt>
      <trkpt lat="45.87577" lon="4.81032">
        <ele>310</ele>
        <time>2017-09-08T13:06:07.1Z</time>
      </trkpt>
      <trkpt lat="45.87578" lon="4.81026">
        <ele>310</ele>
        <time>2017-09-08T13:06:09.1Z</time>
      </trkpt>
      <trkpt lat="45.87579" lon="4.81022">
        <ele>310</ele>
        <time>2017-09-08T13:06:10.1Z</time>
      </trkpt>
      <trkpt lat="45.8758" lon="4.81015">
        <ele>311</ele>
        <time>2017-09-08T13:06:12.1Z</time>
      </trkpt>
      <trkpt lat="45.87582" lon="4.81009">
        <ele>311</ele>
        <time>2017-09-08T13:06:14.1Z</time>
      </trkpt>
      <trkpt lat="45.87584" lon="4.81003">
        <ele>311</ele>
        <time>2017-09-08T13:06:16.1Z</time>
      </trkpt>
      <trkpt lat="45.87585" lon="4.81">
        <ele>311</ele>
        <time>2017-09-08T13:06:17.1Z</time>
      </trkpt>
      <trkpt lat="45.87586" lon="4.80996">
        <ele>311</ele>
        <time>2017-09-08T13:06:18.1Z</time>
      </trkpt>
      <trkpt lat="45.87587" lon="4.8099">
        <ele>312</ele>
        <time>2017-09-08T13:06:20.1Z</time>
      </trkpt>
      <trkpt lat="45.8759" lon="4.80984">
        <ele>312</ele>
        <time>2017-09-08T13:06:22.1Z</time>
      </trkpt>
      <trkpt lat="45.87593" lon="4.80979">
        <ele>312</ele>
        <time>2017-09-08T13:06:24.1Z</time>
      </trkpt>
      <trkpt lat="45.87594" lon="4.80976">
        <ele>312</ele>
        <time>2017-09-08T13:06:25.1Z</time>
      </trkpt>
      <trkpt lat="45.87598" lon="4.80971">
        <ele>312</ele>
        <time>2017-09-08T13:06:27.1Z</time>
      </trkpt>
      <trkpt lat="45.876" lon="4.80969">
        <ele>312</ele>
        <time>2017-09-08T13:06:28.1Z</time>
      </trkpt>
      <trkpt lat="45.87601" lon="4.80966">
        <ele>313</ele>
        <time>2017-09-08T13:06:29.1Z</time>
      </trkpt>
      <trkpt lat="45.87603" lon="4.80964">
        <ele>313</ele>
        <time>2017-09-08T13:06:30.1Z</time>
      </trkpt>
      <trkpt lat="45.87606" lon="4.80958">
        <ele>313</ele>
        <time>2017-09-08T13:06:32.1Z</time>
      </trkpt>
      <trkpt lat="45.87608" lon="4.80952">
        <ele>313</ele>
        <time>2017-09-08T13:06:34.1Z</time>
      </trkpt>
      <trkpt lat="45.87611" lon="4.80945">
        <ele>313</ele>
        <time>2017-09-08T13:06:36.1Z</time>
      </trkpt>
      <trkpt lat="45.87613" lon="4.80937">
        <ele>314</ele>
        <time>2017-09-08T13:06:38.1Z</time>
      </trkpt>
      <trkpt lat="45.87615" lon="4.80931">
        <ele>314</ele>
        <time>2017-09-08T13:06:40.1Z</time>
      </trkpt>
      <trkpt lat="45.87616" lon="4.80926">
        <ele>314</ele>
        <time>2017-09-08T13:06:41.1Z</time>
      </trkpt>
      <trkpt lat="45.87618" lon="4.80922">
        <ele>314</ele>
        <time>2017-09-08T13:06:42.1Z</time>
      </trkpt>
      <trkpt lat="45.87619" lon="4.80918">
        <ele>314</ele>
        <time>2017-09-08T13:06:43.1Z</time>
      </trkpt>
      <trkpt lat="45.8762" lon="4.80914">
        <ele>314</ele>
        <time>2017-09-08T13:06:44.1Z</time>
      </trkpt>
      <trkpt lat="45.87621" lon="4.8091">
        <ele>314</ele>
        <time>2017-09-08T13:06:45.1Z</time>
      </trkpt>
      <trkpt lat="45.87624" lon="4.809">
        <ele>313</ele>
        <time>2017-09-08T13:06:47.1Z</time>
      </trkpt>
      <trkpt lat="45.87625" lon="4.80895">
        <ele>313</ele>
        <time>2017-09-08T13:06:48.1Z</time>
      </trkpt>
      <trkpt lat="45.87627" lon="4.8089">
        <ele>313</ele>
        <time>2017-09-08T13:06:49.1Z</time>
      </trkpt>
      <trkpt lat="45.87629" lon="4.80883">
        <ele>313</ele>
        <time>2017-09-08T13:06:50.1Z</time>
      </trkpt>
      <trkpt lat="45.87632" lon="4.80876">
        <ele>313</ele>
        <time>2017-09-08T13:06:51.1Z</time>
      </trkpt>
      <trkpt lat="45.87634" lon="4.80869">
        <ele>312</ele>
        <time>2017-09-08T13:06:52.1Z</time>
      </trkpt>
      <trkpt lat="45.87638" lon="4.80854">
        <ele>312</ele>
        <time>2017-09-08T13:06:54.1Z</time>
      </trkpt>
      <trkpt lat="45.87641" lon="4.80846">
        <ele>311</ele>
        <time>2017-09-08T13:06:55.1Z</time>
      </trkpt>
      <trkpt lat="45.87645" lon="4.80829">
        <ele>311</ele>
        <time>2017-09-08T13:06:57.1Z</time>
      </trkpt>
      <trkpt lat="45.87648" lon="4.80812">
        <ele>310</ele>
        <time>2017-09-08T13:06:59.1Z</time>
      </trkpt>
      <trkpt lat="45.87651" lon="4.80797">
        <ele>310</ele>
        <time>2017-09-08T13:07:01.1Z</time>
      </trkpt>
      <trkpt lat="45.87653" lon="4.80789">
        <ele>310</ele>
        <time>2017-09-08T13:07:02.1Z</time>
      </trkpt>
      <trkpt lat="45.87656" lon="4.80774">
        <ele>310</ele>
        <time>2017-09-08T13:07:04.1Z</time>
      </trkpt>
      <trkpt lat="45.87658" lon="4.80768">
        <ele>311</ele>
        <time>2017-09-08T13:07:05.1Z</time>
      </trkpt>
      <trkpt lat="45.87659" lon="4.80762">
        <ele>311</ele>
        <time>2017-09-08T13:07:06.1Z</time>
      </trkpt>
      <trkpt lat="45.87661" lon="4.80757">
        <ele>311</ele>
        <time>2017-09-08T13:07:07.1Z</time>
      </trkpt>
      <trkpt lat="45.87662" lon="4.80751">
        <ele>312</ele>
        <time>2017-09-08T13:07:08.1Z</time>
      </trkpt>
      <trkpt lat="45.87663" lon="4.80746">
        <ele>312</ele>
        <time>2017-09-08T13:07:09.1Z</time>
      </trkpt>
      <trkpt lat="45.87665" lon="4.80734">
        <ele>312</ele>
        <time>2017-09-08T13:07:11.1Z</time>
      </trkpt>
      <trkpt lat="45.87668" lon="4.80724">
        <ele>313</ele>
        <time>2017-09-08T13:07:13.1Z</time>
      </trkpt>
      <trkpt lat="45.87669" lon="4.80719">
        <ele>313</ele>
        <time>2017-09-08T13:07:14.1Z</time>
      </trkpt>
      <trkpt lat="45.8767" lon="4.80714">
        <ele>313</ele>
        <time>2017-09-08T13:07:15.1Z</time>
      </trkpt>
      <trkpt lat="45.87671" lon="4.80711">
        <ele>313</ele>
        <time>2017-09-08T13:07:16.1Z</time>
      </trkpt>
      <trkpt lat="45.87671" lon="4.80707">
        <ele>313</ele>
        <time>2017-09-08T13:07:17.1Z</time>
      </trkpt>
      <trkpt lat="45.87672" lon="4.80702">
        <ele>314</ele>
        <time>2017-09-08T13:07:18.1Z</time>
      </trkpt>
      <trkpt lat="45.87673" lon="4.80699">
        <ele>314</ele>
        <time>2017-09-08T13:07:19.1Z</time>
      </trkpt>
      <trkpt lat="45.87675" lon="4.80692">
        <ele>314</ele>
        <time>2017-09-08T13:07:21.1Z</time>
      </trkpt>
      <trkpt lat="45.87676" lon="4.80687">
        <ele>314</ele>
        <time>2017-09-08T13:07:22.1Z</time>
      </trkpt>
      <trkpt lat="45.87677" lon="4.80683">
        <ele>314</ele>
        <time>2017-09-08T13:07:23.1Z</time>
      </trkpt>
      <trkpt lat="45.87678" lon="4.80678">
        <ele>314</ele>
        <time>2017-09-08T13:07:24.1Z</time>
      </trkpt>
      <trkpt lat="45.87679" lon="4.80673">
        <ele>314</ele>
        <time>2017-09-08T13:07:25.1Z</time>
      </trkpt>
      <trkpt lat="45.87681" lon="4.80662">
        <ele>314</ele>
        <time>2017-09-08T13:07:27.1Z</time>
      </trkpt>
      <trkpt lat="45.87682" lon="4.80656">
        <ele>314</ele>
        <time>2017-09-08T13:07:28.1Z</time>
      </trkpt>
      <trkpt lat="45.87682" lon="4.80643">
        <ele>314</ele>
        <time>2017-09-08T13:07:30.1Z</time>
      </trkpt>
      <trkpt lat="45.87684" lon="4.80629">
        <ele>313</ele>
        <time>2017-09-08T13:07:32.1Z</time>
      </trkpt>
      <trkpt lat="45.87686" lon="4.80616">
        <ele>312</ele>
        <time>2017-09-08T13:07:34.1Z</time>
      </trkpt>
      <trkpt lat="45.87687" lon="4.80604">
        <ele>312</ele>
        <time>2017-09-08T13:07:36.1Z</time>
      </trkpt>
      <trkpt lat="45.87688" lon="4.80598">
        <ele>312</ele>
        <time>2017-09-08T13:07:37.1Z</time>
      </trkpt>
      <trkpt lat="45.8769" lon="4.80585">
        <ele>311</ele>
        <time>2017-09-08T13:07:39.1Z</time>
      </trkpt>
      <trkpt lat="45.87691" lon="4.80578">
        <ele>311</ele>
        <time>2017-09-08T13:07:40.1Z</time>
      </trkpt>
      <trkpt lat="45.87693" lon="4.80564">
        <ele>310</ele>
        <time>2017-09-08T13:07:42.1Z</time>
      </trkpt>
      <trkpt lat="45.87693" lon="4.80557">
        <ele>309</ele>
        <time>2017-09-08T13:07:43.1Z</time>
      </trkpt>
      <trkpt lat="45.87695" lon="4.80541">
        <ele>309</ele>
        <time>2017-09-08T13:07:45.1Z</time>
      </trkpt>
      <trkpt lat="45.87698" lon="4.80524">
        <ele>307</ele>
        <time>2017-09-08T13:07:47.1Z</time>
      </trkpt>
      <trkpt lat="45.87701" lon="4.80509">
        <ele>306</ele>
        <time>2017-09-08T13:07:49.1Z</time>
      </trkpt>
      <trkpt lat="45.87703" lon="4.80502">
        <ele>306</ele>
        <time>2017-09-08T13:07:50.1Z</time>
      </trkpt>
      <trkpt lat="45.8771" lon="4.80489">
        <ele>305</ele>
        <time>2017-09-08T13:07:52.1Z</time>
      </trkpt>
      <trkpt lat="45.87714" lon="4.80485">
        <ele>304</ele>
        <time>2017-09-08T13:07:53.1Z</time>
      </trkpt>
      <trkpt lat="45.87725" lon="4.80476">
        <ele>304</ele>
        <time>2017-09-08T13:07:55.1Z</time>
      </trkpt>
      <trkpt lat="45.87729" lon="4.8047">
        <ele>303</ele>
        <time>2017-09-08T13:07:56.1Z</time>
      </trkpt>
      <trkpt lat="45.87737" lon="4.80456">
        <ele>303</ele>
        <time>2017-09-08T13:07:58.1Z</time>
      </trkpt>
      <trkpt lat="45.87745" lon="4.80443">
        <ele>303</ele>
        <time>2017-09-08T13:08:00.1Z</time>
      </trkpt>
      <trkpt lat="45.87753" lon="4.80431">
        <ele>302</ele>
        <time>2017-09-08T13:08:02.1Z</time>
      </trkpt>
      <trkpt lat="45.87757" lon="4.80424">
        <ele>302</ele>
        <time>2017-09-08T13:08:03.1Z</time>
      </trkpt>
      <trkpt lat="45.87765" lon="4.80412">
        <ele>302</ele>
        <time>2017-09-08T13:08:05.1Z</time>
      </trkpt>
      <trkpt lat="45.87769" lon="4.80407">
        <ele>302</ele>
        <time>2017-09-08T13:08:06.1Z</time>
      </trkpt>
      <trkpt lat="45.87773" lon="4.80401">
        <ele>302</ele>
        <time>2017-09-08T13:08:07.1Z</time>
      </trkpt>
      <trkpt lat="45.87777" lon="4.80395">
        <ele>302</ele>
        <time>2017-09-08T13:08:08.1Z</time>
      </trkpt>
      <trkpt lat="45.87784" lon="4.80383">
        <ele>302</ele>
        <time>2017-09-08T13:08:10.1Z</time>
      </trkpt>
      <trkpt lat="45.87788" lon="4.80377">
        <ele>302</ele>
        <time>2017-09-08T13:08:11.1Z</time>
      </trkpt>
      <trkpt lat="45.87795" lon="4.80367">
        <ele>302</ele>
        <time>2017-09-08T13:08:13.1Z</time>
      </trkpt>
      <trkpt lat="45.87798" lon="4.80361">
        <ele>302</ele>
        <time>2017-09-08T13:08:14.1Z</time>
      </trkpt>
      <trkpt lat="45.87801" lon="4.80355">
        <ele>302</ele>
        <time>2017-09-08T13:08:15.1Z</time>
      </trkpt>
      <trkpt lat="45.87805" lon="4.80341">
        <ele>303</ele>
        <time>2017-09-08T13:08:17.1Z</time>
      </trkpt>
      <trkpt lat="45.87809" lon="4.80328">
        <ele>303</ele>
        <time>2017-09-08T13:08:19.1Z</time>
      </trkpt>
      <trkpt lat="45.87814" lon="4.80315">
        <ele>303</ele>
        <time>2017-09-08T13:08:21.1Z</time>
      </trkpt>
      <trkpt lat="45.87817" lon="4.80302">
        <ele>303</ele>
        <time>2017-09-08T13:08:23.1Z</time>
      </trkpt>
      <trkpt lat="45.87819" lon="4.80295">
        <ele>303</ele>
        <time>2017-09-08T13:08:24.1Z</time>
      </trkpt>
      <trkpt lat="45.8782" lon="4.80287">
        <ele>303</ele>
        <time>2017-09-08T13:08:25.1Z</time>
      </trkpt>
      <trkpt lat="45.87822" lon="4.80278">
        <ele>303</ele>
        <time>2017-09-08T13:08:26.1Z</time>
      </trkpt>
      <trkpt lat="45.87824" lon="4.80263">
        <ele>303</ele>
        <time>2017-09-08T13:08:28.1Z</time>
      </trkpt>
      <trkpt lat="45.87825" lon="4.80256">
        <ele>303</ele>
        <time>2017-09-08T13:08:29.1Z</time>
      </trkpt>
      <trkpt lat="45.87826" lon="4.80249">
        <ele>303</ele>
        <time>2017-09-08T13:08:30.1Z</time>
      </trkpt>
      <trkpt lat="45.87827" lon="4.80242">
        <ele>303</ele>
        <time>2017-09-08T13:08:31.1Z</time>
      </trkpt>
      <trkpt lat="45.87828" lon="4.80229">
        <ele>303</ele>
        <time>2017-09-08T13:08:33.1Z</time>
      </trkpt>
      <trkpt lat="45.8783" lon="4.80216">
        <ele>303</ele>
        <time>2017-09-08T13:08:35.1Z</time>
      </trkpt>
      <trkpt lat="45.87831" lon="4.80209">
        <ele>304</ele>
        <time>2017-09-08T13:08:36.1Z</time>
      </trkpt>
      <trkpt lat="45.87832" lon="4.80203">
        <ele>304</ele>
        <time>2017-09-08T13:08:37.1Z</time>
      </trkpt>
      <trkpt lat="45.87833" lon="4.80197">
        <ele>304</ele>
        <time>2017-09-08T13:08:38.1Z</time>
      </trkpt>
      <trkpt lat="45.87835" lon="4.80187">
        <ele>304</ele>
        <time>2017-09-08T13:08:40.1Z</time>
      </trkpt>
      <trkpt lat="45.87835" lon="4.80181">
        <ele>304</ele>
        <time>2017-09-08T13:08:41.1Z</time>
      </trkpt>
      <trkpt lat="45.87836" lon="4.80176">
        <ele>305</ele>
        <time>2017-09-08T13:08:42.1Z</time>
      </trkpt>
      <trkpt lat="45.87837" lon="4.80172">
        <ele>305</ele>
        <time>2017-09-08T13:08:43.1Z</time>
      </trkpt>
      <trkpt lat="45.8784" lon="4.80163">
        <ele>305</ele>
        <time>2017-09-08T13:08:45.1Z</time>
      </trkpt>
      <trkpt lat="45.87843" lon="4.80155">
        <ele>306</ele>
        <time>2017-09-08T13:08:47.1Z</time>
      </trkpt>
      <trkpt lat="45.87847" lon="4.80148">
        <ele>306</ele>
        <time>2017-09-08T13:08:49.1Z</time>
      </trkpt>
      <trkpt lat="45.87851" lon="4.80145">
        <ele>307</ele>
        <time>2017-09-08T13:08:51.1Z</time>
      </trkpt>
      <trkpt lat="45.87853" lon="4.80144">
        <ele>308</ele>
        <time>2017-09-08T13:08:52.1Z</time>
      </trkpt>
      <trkpt lat="45.87854" lon="4.80143">
        <ele>308</ele>
        <time>2017-09-08T13:08:53.1Z</time>
      </trkpt>
      <trkpt lat="45.87854" lon="4.80143">
        <ele>308</ele>
        <time>2017-09-08T13:08:54.1Z</time>
      </trkpt>
      <trkpt lat="45.87855" lon="4.80143">
        <ele>308</ele>
        <time>2017-09-08T13:08:55.1Z</time>
      </trkpt>
      <trkpt lat="45.87855" lon="4.80143">
        <ele>308</ele>
        <time>2017-09-08T13:08:56.1Z</time>
      </trkpt>
      <trkpt lat="45.87855" lon="4.80143">
        <ele>308</ele>
        <time>2017-09-08T13:08:57.1Z</time>
      </trkpt>
      <trkpt lat="45.87856" lon="4.80142">
        <ele>308</ele>
        <time>2017-09-08T13:09:00.1Z</time>
      </trkpt>
      <trkpt lat="45.87856" lon="4.80142">
        <ele>308</ele>
        <time>2017-09-08T13:09:01.1Z</time>
      </trkpt>
      <trkpt lat="45.87856" lon="4.80142">
        <ele>309</ele>
        <time>2017-09-08T13:09:03.1Z</time>
      </trkpt>
      <trkpt lat="45.87856" lon="4.80142">
        <ele>309</ele>
        <time>2017-09-08T13:09:08.1Z</time>
      </trkpt>
      <trkpt lat="45.87856" lon="4.80143">
        <ele>308</ele>
        <time>2017-09-08T13:09:09.1Z</time>
      </trkpt>
      <trkpt lat="45.87857" lon="4.80143">
        <ele>308</ele>
        <time>2017-09-08T13:09:10.1Z</time>
      </trkpt>
      <trkpt lat="45.87857" lon="4.80143">
        <ele>308</ele>
        <time>2017-09-08T13:09:12.1Z</time>
      </trkpt>
      <trkpt lat="45.87857" lon="4.80143">
        <ele>309</ele>
        <time>2017-09-08T13:09:17.1Z</time>
      </trkpt>
      <trkpt lat="45.87857" lon="4.80143">
        <ele>309</ele>
        <time>2017-09-08T13:09:18.1Z</time>
      </trkpt>
      <trkpt lat="45.87857" lon="4.80143">
        <ele>309</ele>
        <time>2017-09-08T13:09:20.1Z</time>
      </trkpt>
      <trkpt lat="45.87857" lon="4.80143">
        <ele>309</ele>
        <time>2017-09-08T13:09:21.1Z</time>
      </trkpt>
      <trkpt lat="45.87857" lon="4.80143">
        <ele>309</ele>
        <time>2017-09-08T13:09:22.1Z</time>
      </trkpt>
      <trkpt lat="45.87857" lon="4.80143">
        <ele>309</ele>
        <time>2017-09-08T13:09:25.1Z</time>
      </trkpt>
      <trkpt lat="45.87857" lon="4.80143">
        <ele>309</ele>
        <time>2017-09-08T13:09:26.1Z</time>
      </trkpt>
      <trkpt lat="45.87857" lon="4.80143">
        <ele>309</ele>
        <time>2017-09-08T13:09:29.1Z</time>
      </trkpt>
      <trkpt lat="45.87857" lon="4.80143">
        <ele>309</ele>
        <time>2017-09-08T13:09:31.1Z</time>
      </trkpt>
      <trkpt lat="45.87856" lon="4.80143">
        <ele>308</ele>
        <time>2017-09-08T13:09:34.1Z</time>
      </trkpt>
      <trkpt lat="45.87857" lon="4.80143">
        <ele>308</ele>
        <time>2017-09-08T13:09:35.1Z</time>
      </trkpt>
      <trkpt lat="45.87857" lon="4.80144">
        <ele>309</ele>
        <time>2017-09-08T13:09:39.1Z</time>
      </trkpt>
      <trkpt lat="45.87857" lon="4.80144">
        <ele>309</ele>
        <time>2017-09-08T13:09:43.1Z</time>
      </trkpt>
      <trkpt lat="45.87856" lon="4.80144">
        <ele>309</ele>
        <time>2017-09-08T13:09:45.1Z</time>
      </trkpt>
      <trkpt lat="45.87857" lon="4.80144">
        <ele>309</ele>
        <time>2017-09-08T13:09:46.1Z</time>
      </trkpt>
      <trkpt lat="45.87856" lon="4.80144">
        <ele>309</ele>
        <time>2017-09-08T13:09:47.1Z</time>
      </trkpt>
      <trkpt lat="45.87856" lon="4.80144">
        <ele>309</ele>
        <time>2017-09-08T13:09:48.1Z</time>
      </trkpt>
      <trkpt lat="45.87856" lon="4.80144">
        <ele>309</ele>
        <time>2017-09-08T13:09:50.1Z</time>
      </trkpt>
      <trkpt lat="45.87856" lon="4.80145">
        <ele>309</ele>
        <time>2017-09-08T13:09:53.1Z</time>
      </trkpt>
      <trkpt lat="45.87856" lon="4.80145">
        <ele>309</ele>
        <time>2017-09-08T13:09:55.1Z</time>
      </trkpt>
      <trkpt lat="45.87856" lon="4.80145">
        <ele>309</ele>
        <time>2017-09-08T13:09:56.1Z</time>
      </trkpt>
      <trkpt lat="45.87856" lon="4.80145">
        <ele>309</ele>
        <time>2017-09-08T13:09:57.1Z</time>
      </trkpt>
      <trkpt lat="45.87856" lon="4.80145">
        <ele>308</ele>
        <time>2017-09-08T13:09:58.1Z</time>
      </trkpt>
      <trkpt lat="45.87855" lon="4.80145">
        <ele>308</ele>
        <time>2017-09-08T13:09:59.1Z</time>
      </trkpt>
      <trkpt lat="45.87854" lon="4.80145">
        <ele>308</ele>
        <time>2017-09-08T13:10:01.1Z</time>
      </trkpt>
      <trkpt lat="45.87852" lon="4.80145">
        <ele>308</ele>
        <time>2017-09-08T13:10:02.1Z</time>
      </trkpt>
      <trkpt lat="45.87849" lon="4.80147">
        <ele>309</ele>
        <time>2017-09-08T13:10:04.1Z</time>
      </trkpt>
      <trkpt lat="45.87848" lon="4.80148">
        <ele>309</ele>
        <time>2017-09-08T13:10:05.1Z</time>
      </trkpt>
      <trkpt lat="45.87847" lon="4.8015">
        <ele>309</ele>
        <time>2017-09-08T13:10:06.1Z</time>
      </trkpt>
      <trkpt lat="45.87844" lon="4.80157">
        <ele>309</ele>
        <time>2017-09-08T13:10:08.1Z</time>
      </trkpt>
      <trkpt lat="45.87841" lon="4.80165">
        <ele>308</ele>
        <time>2017-09-08T13:10:10.1Z</time>
      </trkpt>
      <trkpt lat="45.87839" lon="4.80172">
        <ele>308</ele>
        <time>2017-09-08T13:10:12.1Z</time>
      </trkpt>
      <trkpt lat="45.87837" lon="4.80181">
        <ele>307</ele>
        <time>2017-09-08T13:10:14.1Z</time>
      </trkpt>
      <trkpt lat="45.87834" lon="4.8019">
        <ele>307</ele>
        <time>2017-09-08T13:10:16.1Z</time>
      </trkpt>
      <trkpt lat="45.87832" lon="4.80198">
        <ele>306</ele>
        <time>2017-09-08T13:10:18.1Z</time>
      </trkpt>
      <trkpt lat="45.8783" lon="4.80206">
        <ele>305</ele>
        <time>2017-09-08T13:10:20.1Z</time>
      </trkpt>
      <trkpt lat="45.8783" lon="4.8021">
        <ele>305</ele>
        <time>2017-09-08T13:10:21.1Z</time>
      </trkpt>
      <trkpt lat="45.8783" lon="4.80212">
        <ele>304</ele>
        <time>2017-09-08T13:10:22.1Z</time>
      </trkpt>
      <trkpt lat="45.87832" lon="4.80213">
        <ele>304</ele>
        <time>2017-09-08T13:10:23.1Z</time>
      </trkpt>
      <trkpt lat="45.87835" lon="4.80207">
        <ele>304</ele>
        <time>2017-09-08T13:10:25.1Z</time>
      </trkpt>
      <trkpt lat="45.87839" lon="4.80199">
        <ele>304</ele>
        <time>2017-09-08T13:10:27.1Z</time>
      </trkpt>
      <trkpt lat="45.87841" lon="4.80194">
        <ele>303</ele>
        <time>2017-09-08T13:10:28.1Z</time>
      </trkpt>
      <trkpt lat="45.87847" lon="4.80186">
        <ele>303</ele>
        <time>2017-09-08T13:10:30.1Z</time>
      </trkpt>
      <trkpt lat="45.87854" lon="4.80175">
        <ele>303</ele>
        <time>2017-09-08T13:10:32.1Z</time>
      </trkpt>
      <trkpt lat="45.87856" lon="4.8017">
        <ele>303</ele>
        <time>2017-09-08T13:10:33.1Z</time>
      </trkpt>
      <trkpt lat="45.87859" lon="4.80165">
        <ele>303</ele>
        <time>2017-09-08T13:10:34.1Z</time>
      </trkpt>
      <trkpt lat="45.87865" lon="4.80157">
        <ele>304</ele>
        <time>2017-09-08T13:10:36.1Z</time>
      </trkpt>
      <trkpt lat="45.87868" lon="4.80153">
        <ele>304</ele>
        <time>2017-09-08T13:10:37.1Z</time>
      </trkpt>
      <trkpt lat="45.87871" lon="4.80149">
        <ele>304</ele>
        <time>2017-09-08T13:10:38.1Z</time>
      </trkpt>
      <trkpt lat="45.87875" lon="4.80145">
        <ele>304</ele>
        <time>2017-09-08T13:10:39.1Z</time>
      </trkpt>
      <trkpt lat="45.87878" lon="4.80141">
        <ele>304</ele>
        <time>2017-09-08T13:10:40.1Z</time>
      </trkpt>
      <trkpt lat="45.87885" lon="4.80133">
        <ele>304</ele>
        <time>2017-09-08T13:10:42.1Z</time>
      </trkpt>
      <trkpt lat="45.87888" lon="4.8013">
        <ele>304</ele>
        <time>2017-09-08T13:10:43.1Z</time>
      </trkpt>
      <trkpt lat="45.87891" lon="4.80127">
        <ele>304</ele>
        <time>2017-09-08T13:10:44.1Z</time>
      </trkpt>
      <trkpt lat="45.87898" lon="4.80121">
        <ele>304</ele>
        <time>2017-09-08T13:10:46.1Z</time>
      </trkpt>
      <trkpt lat="45.87907" lon="4.80112">
        <ele>304</ele>
        <time>2017-09-08T13:10:48.1Z</time>
      </trkpt>
      <trkpt lat="45.87912" lon="4.80107">
        <ele>304</ele>
        <time>2017-09-08T13:10:49.1Z</time>
      </trkpt>
      <trkpt lat="45.87923" lon="4.80097">
        <ele>305</ele>
        <time>2017-09-08T13:10:51.1Z</time>
      </trkpt>
      <trkpt lat="45.87935" lon="4.80089">
        <ele>304</ele>
        <time>2017-09-08T13:10:53.1Z</time>
      </trkpt>
      <trkpt lat="45.87946" lon="4.80082">
        <ele>304</ele>
        <time>2017-09-08T13:10:55.1Z</time>
      </trkpt>
      <trkpt lat="45.87952" lon="4.80077">
        <ele>304</ele>
        <time>2017-09-08T13:10:56.1Z</time>
      </trkpt>
      <trkpt lat="45.87957" lon="4.80072">
        <ele>303</ele>
        <time>2017-09-08T13:10:57.1Z</time>
      </trkpt>
      <trkpt lat="45.87963" lon="4.80066">
        <ele>303</ele>
        <time>2017-09-08T13:10:58.1Z</time>
      </trkpt>
      <trkpt lat="45.87968" lon="4.8006">
        <ele>303</ele>
        <time>2017-09-08T13:10:59.1Z</time>
      </trkpt>
      <trkpt lat="45.87973" lon="4.80054">
        <ele>303</ele>
        <time>2017-09-08T13:11:00.1Z</time>
      </trkpt>
      <trkpt lat="45.87983" lon="4.80041">
        <ele>303</ele>
        <time>2017-09-08T13:11:02.1Z</time>
      </trkpt>
      <trkpt lat="45.87991" lon="4.80025">
        <ele>303</ele>
        <time>2017-09-08T13:11:04.1Z</time>
      </trkpt>
      <trkpt lat="45.87995" lon="4.80017">
        <ele>302</ele>
        <time>2017-09-08T13:11:05.1Z</time>
      </trkpt>
      <trkpt lat="45.88001" lon="4.79998">
        <ele>302</ele>
        <time>2017-09-08T13:11:07.1Z</time>
      </trkpt>
      <trkpt lat="45.88006" lon="4.79979">
        <ele>302</ele>
        <time>2017-09-08T13:11:09.1Z</time>
      </trkpt>
      <trkpt lat="45.88012" lon="4.79958">
        <ele>301</ele>
        <time>2017-09-08T13:11:11.1Z</time>
      </trkpt>
      <trkpt lat="45.88018" lon="4.79937">
        <ele>301</ele>
        <time>2017-09-08T13:11:13.1Z</time>
      </trkpt>
      <trkpt lat="45.8802" lon="4.79926">
        <ele>300</ele>
        <time>2017-09-08T13:11:14.1Z</time>
      </trkpt>
      <trkpt lat="45.88026" lon="4.79905">
        <ele>299</ele>
        <time>2017-09-08T13:11:16.1Z</time>
      </trkpt>
      <trkpt lat="45.88028" lon="4.79894">
        <ele>299</ele>
        <time>2017-09-08T13:11:17.1Z</time>
      </trkpt>
      <trkpt lat="45.8803" lon="4.79883">
        <ele>299</ele>
        <time>2017-09-08T13:11:18.1Z</time>
      </trkpt>
      <trkpt lat="45.88034" lon="4.79862">
        <ele>298</ele>
        <time>2017-09-08T13:11:20.1Z</time>
      </trkpt>
      <trkpt lat="45.88036" lon="4.79845">
        <ele>297</ele>
        <time>2017-09-08T13:11:22.1Z</time>
      </trkpt>
      <trkpt lat="45.88034" lon="4.7983">
        <ele>296</ele>
        <time>2017-09-08T13:11:24.1Z</time>
      </trkpt>
      <trkpt lat="45.88033" lon="4.79821">
        <ele>295</ele>
        <time>2017-09-08T13:11:25.1Z</time>
      </trkpt>
      <trkpt lat="45.88032" lon="4.79812">
        <ele>294</ele>
        <time>2017-09-08T13:11:26.1Z</time>
      </trkpt>
      <trkpt lat="45.88031" lon="4.79802">
        <ele>294</ele>
        <time>2017-09-08T13:11:27.1Z</time>
      </trkpt>
      <trkpt lat="45.88029" lon="4.79792">
        <ele>293</ele>
        <time>2017-09-08T13:11:28.1Z</time>
      </trkpt>
      <trkpt lat="45.88028" lon="4.79782">
        <ele>293</ele>
        <time>2017-09-08T13:11:29.1Z</time>
      </trkpt>
      <trkpt lat="45.88026" lon="4.79771">
        <ele>293</ele>
        <time>2017-09-08T13:11:30.1Z</time>
      </trkpt>
      <trkpt lat="45.88019" lon="4.79749">
        <ele>292</ele>
        <time>2017-09-08T13:11:32.1Z</time>
      </trkpt>
      <trkpt lat="45.88009" lon="4.79727">
        <ele>291</ele>
        <time>2017-09-08T13:11:34.1Z</time>
      </trkpt>
      <trkpt lat="45.88003" lon="4.79716">
        <ele>291</ele>
        <time>2017-09-08T13:11:35.1Z</time>
      </trkpt>
      <trkpt lat="45.87997" lon="4.79705">
        <ele>290</ele>
        <time>2017-09-08T13:11:36.1Z</time>
      </trkpt>
      <trkpt lat="45.87987" lon="4.79683">
        <ele>290</ele>
        <time>2017-09-08T13:11:38.1Z</time>
      </trkpt>
      <trkpt lat="45.87982" lon="4.79672">
        <ele>289</ele>
        <time>2017-09-08T13:11:39.1Z</time>
      </trkpt>
      <trkpt lat="45.87978" lon="4.79661">
        <ele>289</ele>
        <time>2017-09-08T13:11:40.1Z</time>
      </trkpt>
      <trkpt lat="45.87969" lon="4.79641">
        <ele>288</ele>
        <time>2017-09-08T13:11:42.1Z</time>
      </trkpt>
      <trkpt lat="45.87965" lon="4.79632">
        <ele>288</ele>
        <time>2017-09-08T13:11:43.1Z</time>
      </trkpt>
      <trkpt lat="45.87961" lon="4.79624">
        <ele>287</ele>
        <time>2017-09-08T13:11:44.1Z</time>
      </trkpt>
      <trkpt lat="45.87958" lon="4.79616">
        <ele>287</ele>
        <time>2017-09-08T13:11:45.1Z</time>
      </trkpt>
      <trkpt lat="45.87952" lon="4.796">
        <ele>287</ele>
        <time>2017-09-08T13:11:47.1Z</time>
      </trkpt>
      <trkpt lat="45.87947" lon="4.79587">
        <ele>288</ele>
        <time>2017-09-08T13:11:49.1Z</time>
      </trkpt>
      <trkpt lat="45.87943" lon="4.79574">
        <ele>288</ele>
        <time>2017-09-08T13:11:51.1Z</time>
      </trkpt>
      <trkpt lat="45.87939" lon="4.79562">
        <ele>289</ele>
        <time>2017-09-08T13:11:53.1Z</time>
      </trkpt>
      <trkpt lat="45.87938" lon="4.79556">
        <ele>289</ele>
        <time>2017-09-08T13:11:54.1Z</time>
      </trkpt>
      <trkpt lat="45.87936" lon="4.7955">
        <ele>289</ele>
        <time>2017-09-08T13:11:55.1Z</time>
      </trkpt>
      <trkpt lat="45.87932" lon="4.79537">
        <ele>290</ele>
        <time>2017-09-08T13:11:57.1Z</time>
      </trkpt>
      <trkpt lat="45.87929" lon="4.79525">
        <ele>290</ele>
        <time>2017-09-08T13:11:59.1Z</time>
      </trkpt>
      <trkpt lat="45.87925" lon="4.79512">
        <ele>290</ele>
        <time>2017-09-08T13:12:01.1Z</time>
      </trkpt>
      <trkpt lat="45.87921" lon="4.79497">
        <ele>291</ele>
        <time>2017-09-08T13:12:03.1Z</time>
      </trkpt>
      <trkpt lat="45.87917" lon="4.79481">
        <ele>291</ele>
        <time>2017-09-08T13:12:05.1Z</time>
      </trkpt>
      <trkpt lat="45.87912" lon="4.79464">
        <ele>291</ele>
        <time>2017-09-08T13:12:07.1Z</time>
      </trkpt>
      <trkpt lat="45.87908" lon="4.79446">
        <ele>291</ele>
        <time>2017-09-08T13:12:09.1Z</time>
      </trkpt>
      <trkpt lat="45.87904" lon="4.79426">
        <ele>291</ele>
        <time>2017-09-08T13:12:11.1Z</time>
      </trkpt>
      <trkpt lat="45.87902" lon="4.79416">
        <ele>291</ele>
        <time>2017-09-08T13:12:12.1Z</time>
      </trkpt>
      <trkpt lat="45.87901" lon="4.79406">
        <ele>291</ele>
        <time>2017-09-08T13:12:13.1Z</time>
      </trkpt>
      <trkpt lat="45.87899" lon="4.79396">
        <ele>291</ele>
        <time>2017-09-08T13:12:14.1Z</time>
      </trkpt>
      <trkpt lat="45.87896" lon="4.79375">
        <ele>290</ele>
        <time>2017-09-08T13:12:16.1Z</time>
      </trkpt>
      <trkpt lat="45.87894" lon="4.79363">
        <ele>290</ele>
        <time>2017-09-08T13:12:17.1Z</time>
      </trkpt>
      <trkpt lat="45.87891" lon="4.79342">
        <ele>289</ele>
        <time>2017-09-08T13:12:19.1Z</time>
      </trkpt>
      <trkpt lat="45.87888" lon="4.79319">
        <ele>288</ele>
        <time>2017-09-08T13:12:21.1Z</time>
      </trkpt>
      <trkpt lat="45.87886" lon="4.79308">
        <ele>288</ele>
        <time>2017-09-08T13:12:22.1Z</time>
      </trkpt>
      <trkpt lat="45.87883" lon="4.79284">
        <ele>288</ele>
        <time>2017-09-08T13:12:24.1Z</time>
      </trkpt>
      <trkpt lat="45.87879" lon="4.79261">
        <ele>287</ele>
        <time>2017-09-08T13:12:26.1Z</time>
      </trkpt>
      <trkpt lat="45.87876" lon="4.79237">
        <ele>286</ele>
        <time>2017-09-08T13:12:28.1Z</time>
      </trkpt>
      <trkpt lat="45.87874" lon="4.79225">
        <ele>286</ele>
        <time>2017-09-08T13:12:29.1Z</time>
      </trkpt>
      <trkpt lat="45.87873" lon="4.79213">
        <ele>286</ele>
        <time>2017-09-08T13:12:30.1Z</time>
      </trkpt>
      <trkpt lat="45.87869" lon="4.7919">
        <ele>285</ele>
        <time>2017-09-08T13:12:32.1Z</time>
      </trkpt>
      <trkpt lat="45.87865" lon="4.79166">
        <ele>285</ele>
        <time>2017-09-08T13:12:34.1Z</time>
      </trkpt>
      <trkpt lat="45.87862" lon="4.79142">
        <ele>284</ele>
        <time>2017-09-08T13:12:36.1Z</time>
      </trkpt>
      <trkpt lat="45.87858" lon="4.79118">
        <ele>284</ele>
        <time>2017-09-08T13:12:38.1Z</time>
      </trkpt>
      <trkpt lat="45.87856" lon="4.79106">
        <ele>285</ele>
        <time>2017-09-08T13:12:39.1Z</time>
      </trkpt>
      <trkpt lat="45.87853" lon="4.79081">
        <ele>284</ele>
        <time>2017-09-08T13:12:41.1Z</time>
      </trkpt>
      <trkpt lat="45.87849" lon="4.79055">
        <ele>283</ele>
        <time>2017-09-08T13:12:43.1Z</time>
      </trkpt>
      <trkpt lat="45.87846" lon="4.79029">
        <ele>282</ele>
        <time>2017-09-08T13:12:45.1Z</time>
      </trkpt>
      <trkpt lat="45.87844" lon="4.79016">
        <ele>282</ele>
        <time>2017-09-08T13:12:46.1Z</time>
      </trkpt>
      <trkpt lat="45.87843" lon="4.79003">
        <ele>281</ele>
        <time>2017-09-08T13:12:47.1Z</time>
      </trkpt>
      <trkpt lat="45.8784" lon="4.78976">
        <ele>280</ele>
        <time>2017-09-08T13:12:49.1Z</time>
      </trkpt>
      <trkpt lat="45.87841" lon="4.78949">
        <ele>279</ele>
        <time>2017-09-08T13:12:51.1Z</time>
      </trkpt>
      <trkpt lat="45.87841" lon="4.78935">
        <ele>279</ele>
        <time>2017-09-08T13:12:52.1Z</time>
      </trkpt>
      <trkpt lat="45.87844" lon="4.7891">
        <ele>278</ele>
        <time>2017-09-08T13:12:54.1Z</time>
      </trkpt>
      <trkpt lat="45.87848" lon="4.78886">
        <ele>277</ele>
        <time>2017-09-08T13:12:56.1Z</time>
      </trkpt>
      <trkpt lat="45.8785" lon="4.78862">
        <ele>277</ele>
        <time>2017-09-08T13:12:58.1Z</time>
      </trkpt>
      <trkpt lat="45.87851" lon="4.78851">
        <ele>277</ele>
        <time>2017-09-08T13:12:59.1Z</time>
      </trkpt>
      <trkpt lat="45.87852" lon="4.7884">
        <ele>277</ele>
        <time>2017-09-08T13:13:00.1Z</time>
      </trkpt>
      <trkpt lat="45.87853" lon="4.78829">
        <ele>277</ele>
        <time>2017-09-08T13:13:01.1Z</time>
      </trkpt>
      <trkpt lat="45.87854" lon="4.78818">
        <ele>277</ele>
        <time>2017-09-08T13:13:02.1Z</time>
      </trkpt>
      <trkpt lat="45.87854" lon="4.78795">
        <ele>276</ele>
        <time>2017-09-08T13:13:04.1Z</time>
      </trkpt>
      <trkpt lat="45.87854" lon="4.78784">
        <ele>276</ele>
        <time>2017-09-08T13:13:05.1Z</time>
      </trkpt>
      <trkpt lat="45.87854" lon="4.78772">
        <ele>276</ele>
        <time>2017-09-08T13:13:06.1Z</time>
      </trkpt>
      <trkpt lat="45.87853" lon="4.7875">
        <ele>276</ele>
        <time>2017-09-08T13:13:08.1Z</time>
      </trkpt>
      <trkpt lat="45.87852" lon="4.78728">
        <ele>276</ele>
        <time>2017-09-08T13:13:10.1Z</time>
      </trkpt>
      <trkpt lat="45.8785" lon="4.78706">
        <ele>276</ele>
        <time>2017-09-08T13:13:12.1Z</time>
      </trkpt>
      <trkpt lat="45.87848" lon="4.78685">
        <ele>276</ele>
        <time>2017-09-08T13:13:14.1Z</time>
      </trkpt>
      <trkpt lat="45.87846" lon="4.78675">
        <ele>277</ele>
        <time>2017-09-08T13:13:15.1Z</time>
      </trkpt>
      <trkpt lat="45.87843" lon="4.78655">
        <ele>277</ele>
        <time>2017-09-08T13:13:17.1Z</time>
      </trkpt>
      <trkpt lat="45.87841" lon="4.78636">
        <ele>277</ele>
        <time>2017-09-08T13:13:19.1Z</time>
      </trkpt>
      <trkpt lat="45.87838" lon="4.78619">
        <ele>276</ele>
        <time>2017-09-08T13:13:21.1Z</time>
      </trkpt>
      <trkpt lat="45.87836" lon="4.7861">
        <ele>276</ele>
        <time>2017-09-08T13:13:22.1Z</time>
      </trkpt>
      <trkpt lat="45.87835" lon="4.78601">
        <ele>276</ele>
        <time>2017-09-08T13:13:23.1Z</time>
      </trkpt>
      <trkpt lat="45.87833" lon="4.78583">
        <ele>276</ele>
        <time>2017-09-08T13:13:25.1Z</time>
      </trkpt>
      <trkpt lat="45.8783" lon="4.78565">
        <ele>276</ele>
        <time>2017-09-08T13:13:27.1Z</time>
      </trkpt>
      <trkpt lat="45.87826" lon="4.78546">
        <ele>276</ele>
        <time>2017-09-08T13:13:29.1Z</time>
      </trkpt>
      <trkpt lat="45.87823" lon="4.78536">
        <ele>276</ele>
        <time>2017-09-08T13:13:30.1Z</time>
      </trkpt>
      <trkpt lat="45.87819" lon="4.78517">
        <ele>276</ele>
        <time>2017-09-08T13:13:32.1Z</time>
      </trkpt>
      <trkpt lat="45.87815" lon="4.78498">
        <ele>275</ele>
        <time>2017-09-08T13:13:34.1Z</time>
      </trkpt>
      <trkpt lat="45.87812" lon="4.78479">
        <ele>275</ele>
        <time>2017-09-08T13:13:36.1Z</time>
      </trkpt>
      <trkpt lat="45.87812" lon="4.78471">
        <ele>275</ele>
        <time>2017-09-08T13:13:37.1Z</time>
      </trkpt>
      <trkpt lat="45.87809" lon="4.7846">
        <ele>275</ele>
        <time>2017-09-08T13:13:39.1Z</time>
      </trkpt>
      <trkpt lat="45.87808" lon="4.78453">
        <ele>275</ele>
        <time>2017-09-08T13:13:40.1Z</time>
      </trkpt>
      <trkpt lat="45.87806" lon="4.78446">
        <ele>275</ele>
        <time>2017-09-08T13:13:41.1Z</time>
      </trkpt>
      <trkpt lat="45.87804" lon="4.78438">
        <ele>275</ele>
        <time>2017-09-08T13:13:42.1Z</time>
      </trkpt>
      <trkpt lat="45.87798" lon="4.78423">
        <ele>275</ele>
        <time>2017-09-08T13:13:44.1Z</time>
      </trkpt>
      <trkpt lat="45.87794" lon="4.78414">
        <ele>275</ele>
        <time>2017-09-08T13:13:45.1Z</time>
      </trkpt>
      <trkpt lat="45.87791" lon="4.78406">
        <ele>275</ele>
        <time>2017-09-08T13:13:46.1Z</time>
      </trkpt>
      <trkpt lat="45.87788" lon="4.78398">
        <ele>275</ele>
        <time>2017-09-08T13:13:47.1Z</time>
      </trkpt>
      <trkpt lat="45.87781" lon="4.78381">
        <ele>275</ele>
        <time>2017-09-08T13:13:49.1Z</time>
      </trkpt>
      <trkpt lat="45.87778" lon="4.78373">
        <ele>276</ele>
        <time>2017-09-08T13:13:50.1Z</time>
      </trkpt>
      <trkpt lat="45.87774" lon="4.78365">
        <ele>276</ele>
        <time>2017-09-08T13:13:51.1Z</time>
      </trkpt>
      <trkpt lat="45.87771" lon="4.78357">
        <ele>276</ele>
        <time>2017-09-08T13:13:52.1Z</time>
      </trkpt>
      <trkpt lat="45.87767" lon="4.78349">
        <ele>276</ele>
        <time>2017-09-08T13:13:53.1Z</time>
      </trkpt>
      <trkpt lat="45.87764" lon="4.78341">
        <ele>276</ele>
        <time>2017-09-08T13:13:54.1Z</time>
      </trkpt>
      <trkpt lat="45.8776" lon="4.78333">
        <ele>276</ele>
        <time>2017-09-08T13:13:55.1Z</time>
      </trkpt>
      <trkpt lat="45.87753" lon="4.78317">
        <ele>276</ele>
        <time>2017-09-08T13:13:57.1Z</time>
      </trkpt>
      <trkpt lat="45.87746" lon="4.78301">
        <ele>275</ele>
        <time>2017-09-08T13:13:59.1Z</time>
      </trkpt>
      <trkpt lat="45.87743" lon="4.78293">
        <ele>275</ele>
        <time>2017-09-08T13:14:00.1Z</time>
      </trkpt>
      <trkpt lat="45.87739" lon="4.78285">
        <ele>275</ele>
        <time>2017-09-08T13:14:01.1Z</time>
      </trkpt>
      <trkpt lat="45.87735" lon="4.78277">
        <ele>275</ele>
        <time>2017-09-08T13:14:02.1Z</time>
      </trkpt>
      <trkpt lat="45.87732" lon="4.7827">
        <ele>276</ele>
        <time>2017-09-08T13:14:03.1Z</time>
      </trkpt>
      <trkpt lat="45.87725" lon="4.78254">
        <ele>276</ele>
        <time>2017-09-08T13:14:05.1Z</time>
      </trkpt>
      <trkpt lat="45.87722" lon="4.78246">
        <ele>276</ele>
        <time>2017-09-08T13:14:06.1Z</time>
      </trkpt>
      <trkpt lat="45.87719" lon="4.78238">
        <ele>276</ele>
        <time>2017-09-08T13:14:07.1Z</time>
      </trkpt>
      <trkpt lat="45.87716" lon="4.78231">
        <ele>276</ele>
        <time>2017-09-08T13:14:08.1Z</time>
      </trkpt>
      <trkpt lat="45.8771" lon="4.78215">
        <ele>276</ele>
        <time>2017-09-08T13:14:10.1Z</time>
      </trkpt>
      <trkpt lat="45.87707" lon="4.78207">
        <ele>277</ele>
        <time>2017-09-08T13:14:11.1Z</time>
      </trkpt>
      <trkpt lat="45.87705" lon="4.78199">
        <ele>277</ele>
        <time>2017-09-08T13:14:12.1Z</time>
      </trkpt>
      <trkpt lat="45.87702" lon="4.78192">
        <ele>277</ele>
        <time>2017-09-08T13:14:13.1Z</time>
      </trkpt>
      <trkpt lat="45.87697" lon="4.78176">
        <ele>277</ele>
        <time>2017-09-08T13:14:15.1Z</time>
      </trkpt>
      <trkpt lat="45.87693" lon="4.78161">
        <ele>277</ele>
        <time>2017-09-08T13:14:17.1Z</time>
      </trkpt>
      <trkpt lat="45.87688" lon="4.78145">
        <ele>277</ele>
        <time>2017-09-08T13:14:19.1Z</time>
      </trkpt>
      <trkpt lat="45.87685" lon="4.78129">
        <ele>277</ele>
        <time>2017-09-08T13:14:21.1Z</time>
      </trkpt>
      <trkpt lat="45.87682" lon="4.78115">
        <ele>277</ele>
        <time>2017-09-08T13:14:23.1Z</time>
      </trkpt>
      <trkpt lat="45.8768" lon="4.78102">
        <ele>278</ele>
        <time>2017-09-08T13:14:25.1Z</time>
      </trkpt>
      <trkpt lat="45.87679" lon="4.78088">
        <ele>278</ele>
        <time>2017-09-08T13:14:27.1Z</time>
      </trkpt>
      <trkpt lat="45.87678" lon="4.78075">
        <ele>278</ele>
        <time>2017-09-08T13:14:29.1Z</time>
      </trkpt>
      <trkpt lat="45.87677" lon="4.78068">
        <ele>279</ele>
        <time>2017-09-08T13:14:30.1Z</time>
      </trkpt>
      <trkpt lat="45.87677" lon="4.78061">
        <ele>279</ele>
        <time>2017-09-08T13:14:31.1Z</time>
      </trkpt>
      <trkpt lat="45.87676" lon="4.78047">
        <ele>279</ele>
        <time>2017-09-08T13:14:33.1Z</time>
      </trkpt>
      <trkpt lat="45.87675" lon="4.78032">
        <ele>279</ele>
        <time>2017-09-08T13:14:35.1Z</time>
      </trkpt>
      <trkpt lat="45.87674" lon="4.78018">
        <ele>279</ele>
        <time>2017-09-08T13:14:37.1Z</time>
      </trkpt>
      <trkpt lat="45.87673" lon="4.78004">
        <ele>279</ele>
        <time>2017-09-08T13:14:39.1Z</time>
      </trkpt>
      <trkpt lat="45.87672" lon="4.77989">
        <ele>279</ele>
        <time>2017-09-08T13:14:41.1Z</time>
      </trkpt>
      <trkpt lat="45.87672" lon="4.77976">
        <ele>279</ele>
        <time>2017-09-08T13:14:43.1Z</time>
      </trkpt>
      <trkpt lat="45.87675" lon="4.77966">
        <ele>279</ele>
        <time>2017-09-08T13:14:45.1Z</time>
      </trkpt>
      <trkpt lat="45.87682" lon="4.77961">
        <ele>279</ele>
        <time>2017-09-08T13:14:47.1Z</time>
      </trkpt>
      <trkpt lat="45.87686" lon="4.7796">
        <ele>279</ele>
        <time>2017-09-08T13:14:48.1Z</time>
      </trkpt>
      <trkpt lat="45.8769" lon="4.7796">
        <ele>279</ele>
        <time>2017-09-08T13:14:49.1Z</time>
      </trkpt>
      <trkpt lat="45.87698" lon="4.77959">
        <ele>279</ele>
        <time>2017-09-08T13:14:51.1Z</time>
      </trkpt>
      <trkpt lat="45.87705" lon="4.77958">
        <ele>278</ele>
        <time>2017-09-08T13:14:53.1Z</time>
      </trkpt>
      <trkpt lat="45.87712" lon="4.77959">
        <ele>278</ele>
        <time>2017-09-08T13:14:55.1Z</time>
      </trkpt>
      <trkpt lat="45.8772" lon="4.77959">
        <ele>278</ele>
        <time>2017-09-08T13:14:57.1Z</time>
      </trkpt>
      <trkpt lat="45.87729" lon="4.77959">
        <ele>278</ele>
        <time>2017-09-08T13:14:59.1Z</time>
      </trkpt>
      <trkpt lat="45.87737" lon="4.7796">
        <ele>277</ele>
        <time>2017-09-08T13:15:01.1Z</time>
      </trkpt>
      <trkpt lat="45.87746" lon="4.77962">
        <ele>277</ele>
        <time>2017-09-08T13:15:03.1Z</time>
      </trkpt>
      <trkpt lat="45.87756" lon="4.77963">
        <ele>277</ele>
        <time>2017-09-08T13:15:05.1Z</time>
      </trkpt>
      <trkpt lat="45.87761" lon="4.77964">
        <ele>277</ele>
        <time>2017-09-08T13:15:06.1Z</time>
      </trkpt>
      <trkpt lat="45.87767" lon="4.77964">
        <ele>276</ele>
        <time>2017-09-08T13:15:07.1Z</time>
      </trkpt>
      <trkpt lat="45.87778" lon="4.77964">
        <ele>276</ele>
        <time>2017-09-08T13:15:09.1Z</time>
      </trkpt>
      <trkpt lat="45.8779" lon="4.77964">
        <ele>276</ele>
        <time>2017-09-08T13:15:11.1Z</time>
      </trkpt>
      <trkpt lat="45.87796" lon="4.77964">
        <ele>276</ele>
        <time>2017-09-08T13:15:12.1Z</time>
      </trkpt>
      <trkpt lat="45.87802" lon="4.77964">
        <ele>275</ele>
        <time>2017-09-08T13:15:13.1Z</time>
      </trkpt>
      <trkpt lat="45.87808" lon="4.77963">
        <ele>275</ele>
        <time>2017-09-08T13:15:14.1Z</time>
      </trkpt>
      <trkpt lat="45.87814" lon="4.77963">
        <ele>275</ele>
        <time>2017-09-08T13:15:15.1Z</time>
      </trkpt>
      <trkpt lat="45.8782" lon="4.77963">
        <ele>275</ele>
        <time>2017-09-08T13:15:16.1Z</time>
      </trkpt>
      <trkpt lat="45.87826" lon="4.77963">
        <ele>275</ele>
        <time>2017-09-08T13:15:17.1Z</time>
      </trkpt>
      <trkpt lat="45.87838" lon="4.77961">
        <ele>274</ele>
        <time>2017-09-08T13:15:19.1Z</time>
      </trkpt>
      <trkpt lat="45.87844" lon="4.7796">
        <ele>274</ele>
        <time>2017-09-08T13:15:20.1Z</time>
      </trkpt>
      <trkpt lat="45.87849" lon="4.7796">
        <ele>274</ele>
        <time>2017-09-08T13:15:21.1Z</time>
      </trkpt>
      <trkpt lat="45.87855" lon="4.7796">
        <ele>273</ele>
        <time>2017-09-08T13:15:22.1Z</time>
      </trkpt>
      <trkpt lat="45.87861" lon="4.7796">
        <ele>273</ele>
        <time>2017-09-08T13:15:23.1Z</time>
      </trkpt>
      <trkpt lat="45.87867" lon="4.7796">
        <ele>273</ele>
        <time>2017-09-08T13:15:24.1Z</time>
      </trkpt>
      <trkpt lat="45.87878" lon="4.7796">
        <ele>273</ele>
        <time>2017-09-08T13:15:26.1Z</time>
      </trkpt>
      <trkpt lat="45.87884" lon="4.7796">
        <ele>273</ele>
        <time>2017-09-08T13:15:27.1Z</time>
      </trkpt>
      <trkpt lat="45.8789" lon="4.7796">
        <ele>273</ele>
        <time>2017-09-08T13:15:28.1Z</time>
      </trkpt>
      <trkpt lat="45.87902" lon="4.7796">
        <ele>272</ele>
        <time>2017-09-08T13:15:30.1Z</time>
      </trkpt>
      <trkpt lat="45.87908" lon="4.7796">
        <ele>272</ele>
        <time>2017-09-08T13:15:31.1Z</time>
      </trkpt>
      <trkpt lat="45.87914" lon="4.7796">
        <ele>272</ele>
        <time>2017-09-08T13:15:32.1Z</time>
      </trkpt>
      <trkpt lat="45.8792" lon="4.7796">
        <ele>271</ele>
        <time>2017-09-08T13:15:33.1Z</time>
      </trkpt>
      <trkpt lat="45.87926" lon="4.7796">
        <ele>271</ele>
        <time>2017-09-08T13:15:34.1Z</time>
      </trkpt>
      <trkpt lat="45.87933" lon="4.7796">
        <ele>271</ele>
        <time>2017-09-08T13:15:35.1Z</time>
      </trkpt>
      <trkpt lat="45.87944" lon="4.77959">
        <ele>271</ele>
        <time>2017-09-08T13:15:37.1Z</time>
      </trkpt>
      <trkpt lat="45.8795" lon="4.77959">
        <ele>271</ele>
        <time>2017-09-08T13:15:38.1Z</time>
      </trkpt>
      <trkpt lat="45.87955" lon="4.77959">
        <ele>271</ele>
        <time>2017-09-08T13:15:39.1Z</time>
      </trkpt>
      <trkpt lat="45.87963" lon="4.77959">
        <ele>271</ele>
        <time>2017-09-08T13:15:41.1Z</time>
      </trkpt>
      <trkpt lat="45.87965" lon="4.77959">
        <ele>271</ele>
        <time>2017-09-08T13:15:42.1Z</time>
      </trkpt>
      <trkpt lat="45.87967" lon="4.77957">
        <ele>270</ele>
        <time>2017-09-08T13:15:43.1Z</time>
      </trkpt>
      <trkpt lat="45.87968" lon="4.77954">
        <ele>270</ele>
        <time>2017-09-08T13:15:44.1Z</time>
      </trkpt>
      <trkpt lat="45.87968" lon="4.77945">
        <ele>270</ele>
        <time>2017-09-08T13:15:46.1Z</time>
      </trkpt>
      <trkpt lat="45.87967" lon="4.7794">
        <ele>270</ele>
        <time>2017-09-08T13:15:47.1Z</time>
      </trkpt>
      <trkpt lat="45.87966" lon="4.7793">
        <ele>269</ele>
        <time>2017-09-08T13:15:49.1Z</time>
      </trkpt>
      <trkpt lat="45.87965" lon="4.77923">
        <ele>270</ele>
        <time>2017-09-08T13:15:50.1Z</time>
      </trkpt>
      <trkpt lat="45.87965" lon="4.77916">
        <ele>270</ele>
        <time>2017-09-08T13:15:51.1Z</time>
      </trkpt>
      <trkpt lat="45.87965" lon="4.77908">
        <ele>270</ele>
        <time>2017-09-08T13:15:52.1Z</time>
      </trkpt>
      <trkpt lat="45.87965" lon="4.779">
        <ele>269</ele>
        <time>2017-09-08T13:15:53.1Z</time>
      </trkpt>
      <trkpt lat="45.87965" lon="4.77881">
        <ele>269</ele>
        <time>2017-09-08T13:15:55.1Z</time>
      </trkpt>
      <trkpt lat="45.87965" lon="4.77872">
        <ele>269</ele>
        <time>2017-09-08T13:15:56.1Z</time>
      </trkpt>
      <trkpt lat="45.87965" lon="4.77862">
        <ele>269</ele>
        <time>2017-09-08T13:15:57.1Z</time>
      </trkpt>
      <trkpt lat="45.87965" lon="4.77851">
        <ele>270</ele>
        <time>2017-09-08T13:15:58.1Z</time>
      </trkpt>
      <trkpt lat="45.87965" lon="4.77841">
        <ele>269</ele>
        <time>2017-09-08T13:15:59.1Z</time>
      </trkpt>
      <trkpt lat="45.87964" lon="4.77831">
        <ele>269</ele>
        <time>2017-09-08T13:16:00.1Z</time>
      </trkpt>
      <trkpt lat="45.87963" lon="4.7782">
        <ele>270</ele>
        <time>2017-09-08T13:16:01.1Z</time>
      </trkpt>
      <trkpt lat="45.8796" lon="4.778">
        <ele>269</ele>
        <time>2017-09-08T13:16:03.1Z</time>
      </trkpt>
      <trkpt lat="45.87959" lon="4.7779">
        <ele>270</ele>
        <time>2017-09-08T13:16:04.1Z</time>
      </trkpt>
      <trkpt lat="45.87957" lon="4.7777">
        <ele>270</ele>
        <time>2017-09-08T13:16:06.1Z</time>
      </trkpt>
      <trkpt lat="45.87956" lon="4.77761">
        <ele>269</ele>
        <time>2017-09-08T13:16:07.1Z</time>
      </trkpt>
      <trkpt lat="45.87955" lon="4.77751">
        <ele>269</ele>
        <time>2017-09-08T13:16:08.1Z</time>
      </trkpt>
      <trkpt lat="45.87955" lon="4.77742">
        <ele>269</ele>
        <time>2017-09-08T13:16:09.1Z</time>
      </trkpt>
      <trkpt lat="45.87954" lon="4.77733">
        <ele>269</ele>
        <time>2017-09-08T13:16:10.1Z</time>
      </trkpt>
      <trkpt lat="45.87953" lon="4.77716">
        <ele>269</ele>
        <time>2017-09-08T13:16:12.1Z</time>
      </trkpt>
      <trkpt lat="45.87955" lon="4.77709">
        <ele>269</ele>
        <time>2017-09-08T13:16:13.1Z</time>
      </trkpt>
      <trkpt lat="45.87958" lon="4.77703">
        <ele>269</ele>
        <time>2017-09-08T13:16:14.1Z</time>
      </trkpt>
      <trkpt lat="45.87965" lon="4.77692">
        <ele>269</ele>
        <time>2017-09-08T13:16:16.1Z</time>
      </trkpt>
      <trkpt lat="45.87968" lon="4.77684">
        <ele>268</ele>
        <time>2017-09-08T13:16:17.1Z</time>
      </trkpt>
      <trkpt lat="45.87968" lon="4.77677">
        <ele>268</ele>
        <time>2017-09-08T13:16:18.1Z</time>
      </trkpt>
      <trkpt lat="45.87968" lon="4.7766">
        <ele>268</ele>
        <time>2017-09-08T13:16:20.1Z</time>
      </trkpt>
      <trkpt lat="45.8797" lon="4.77643">
        <ele>268</ele>
        <time>2017-09-08T13:16:22.1Z</time>
      </trkpt>
      <trkpt lat="45.87973" lon="4.77627">
        <ele>268</ele>
        <time>2017-09-08T13:16:24.1Z</time>
      </trkpt>
      <trkpt lat="45.87975" lon="4.77618">
        <ele>268</ele>
        <time>2017-09-08T13:16:25.1Z</time>
      </trkpt>
      <trkpt lat="45.87977" lon="4.77609">
        <ele>268</ele>
        <time>2017-09-08T13:16:26.1Z</time>
      </trkpt>
      <trkpt lat="45.87981" lon="4.77592">
        <ele>269</ele>
        <time>2017-09-08T13:16:28.1Z</time>
      </trkpt>
      <trkpt lat="45.87985" lon="4.77573">
        <ele>269</ele>
        <time>2017-09-08T13:16:30.1Z</time>
      </trkpt>
      <trkpt lat="45.87988" lon="4.77555">
        <ele>269</ele>
        <time>2017-09-08T13:16:32.1Z</time>
      </trkpt>
      <trkpt lat="45.87989" lon="4.77545">
        <ele>269</ele>
        <time>2017-09-08T13:16:33.1Z</time>
      </trkpt>
      <trkpt lat="45.8799" lon="4.77536">
        <ele>269</ele>
        <time>2017-09-08T13:16:34.1Z</time>
      </trkpt>
      <trkpt lat="45.87993" lon="4.77517">
        <ele>269</ele>
        <time>2017-09-08T13:16:36.1Z</time>
      </trkpt>
      <trkpt lat="45.87994" lon="4.77508">
        <ele>269</ele>
        <time>2017-09-08T13:16:37.1Z</time>
      </trkpt>
      <trkpt lat="45.87996" lon="4.77489">
        <ele>269</ele>
        <time>2017-09-08T13:16:39.1Z</time>
      </trkpt>
      <trkpt lat="45.87997" lon="4.77469">
        <ele>269</ele>
        <time>2017-09-08T13:16:41.1Z</time>
      </trkpt>
      <trkpt lat="45.87999" lon="4.7746">
        <ele>269</ele>
        <time>2017-09-08T13:16:42.1Z</time>
      </trkpt>
      <trkpt lat="45.88" lon="4.7744">
        <ele>269</ele>
        <time>2017-09-08T13:16:44.1Z</time>
      </trkpt>
      <trkpt lat="45.88003" lon="4.77421">
        <ele>269</ele>
        <time>2017-09-08T13:16:46.1Z</time>
      </trkpt>
      <trkpt lat="45.88006" lon="4.77402">
        <ele>269</ele>
        <time>2017-09-08T13:16:48.1Z</time>
      </trkpt>
      <trkpt lat="45.88007" lon="4.77393">
        <ele>269</ele>
        <time>2017-09-08T13:16:49.1Z</time>
      </trkpt>
      <trkpt lat="45.88009" lon="4.77384">
        <ele>269</ele>
        <time>2017-09-08T13:16:50.1Z</time>
      </trkpt>
      <trkpt lat="45.88012" lon="4.77365">
        <ele>269</ele>
        <time>2017-09-08T13:16:52.1Z</time>
      </trkpt>
      <trkpt lat="45.88013" lon="4.77356">
        <ele>270</ele>
        <time>2017-09-08T13:16:53.1Z</time>
      </trkpt>
      <trkpt lat="45.88015" lon="4.77347">
        <ele>269</ele>
        <time>2017-09-08T13:16:54.1Z</time>
      </trkpt>
      <trkpt lat="45.88018" lon="4.77328">
        <ele>269</ele>
        <time>2017-09-08T13:16:56.1Z</time>
      </trkpt>
      <trkpt lat="45.8802" lon="4.77319">
        <ele>269</ele>
        <time>2017-09-08T13:16:57.1Z</time>
      </trkpt>
      <trkpt lat="45.88021" lon="4.7731">
        <ele>269</ele>
        <time>2017-09-08T13:16:58.1Z</time>
      </trkpt>
      <trkpt lat="45.88023" lon="4.77301">
        <ele>269</ele>
        <time>2017-09-08T13:16:59.1Z</time>
      </trkpt>
      <trkpt lat="45.88024" lon="4.77291">
        <ele>269</ele>
        <time>2017-09-08T13:17:00.1Z</time>
      </trkpt>
      <trkpt lat="45.88026" lon="4.77282">
        <ele>268</ele>
        <time>2017-09-08T13:17:01.1Z</time>
      </trkpt>
      <trkpt lat="45.88028" lon="4.77263">
        <ele>268</ele>
        <time>2017-09-08T13:17:03.1Z</time>
      </trkpt>
      <trkpt lat="45.88029" lon="4.77253">
        <ele>268</ele>
        <time>2017-09-08T13:17:04.1Z</time>
      </trkpt>
      <trkpt lat="45.88031" lon="4.77235">
        <ele>268</ele>
        <time>2017-09-08T13:17:06.1Z</time>
      </trkpt>
      <trkpt lat="45.88032" lon="4.77226">
        <ele>268</ele>
        <time>2017-09-08T13:17:07.1Z</time>
      </trkpt>
      <trkpt lat="45.88034" lon="4.77207">
        <ele>268</ele>
        <time>2017-09-08T13:17:09.1Z</time>
      </trkpt>
      <trkpt lat="45.88035" lon="4.77197">
        <ele>268</ele>
        <time>2017-09-08T13:17:10.1Z</time>
      </trkpt>
      <trkpt lat="45.88036" lon="4.77178">
        <ele>268</ele>
        <time>2017-09-08T13:17:12.1Z</time>
      </trkpt>
      <trkpt lat="45.88037" lon="4.7716">
        <ele>268</ele>
        <time>2017-09-08T13:17:14.1Z</time>
      </trkpt>
      <trkpt lat="45.88039" lon="4.77143">
        <ele>268</ele>
        <time>2017-09-08T13:17:16.1Z</time>
      </trkpt>
      <trkpt lat="45.88041" lon="4.77135">
        <ele>268</ele>
        <time>2017-09-08T13:17:17.1Z</time>
      </trkpt>
      <trkpt lat="45.88042" lon="4.77126">
        <ele>268</ele>
        <time>2017-09-08T13:17:18.1Z</time>
      </trkpt>
      <trkpt lat="45.88044" lon="4.77118">
        <ele>268</ele>
        <time>2017-09-08T13:17:19.1Z</time>
      </trkpt>
      <trkpt lat="45.88046" lon="4.77109">
        <ele>267</ele>
        <time>2017-09-08T13:17:20.1Z</time>
      </trkpt>
      <trkpt lat="45.8805" lon="4.77093">
        <ele>267</ele>
        <time>2017-09-08T13:17:22.1Z</time>
      </trkpt>
      <trkpt lat="45.88052" lon="4.77085">
        <ele>267</ele>
        <time>2017-09-08T13:17:23.1Z</time>
      </trkpt>
      <trkpt lat="45.88056" lon="4.77069">
        <ele>267</ele>
        <time>2017-09-08T13:17:25.1Z</time>
      </trkpt>
      <trkpt lat="45.8806" lon="4.77053">
        <ele>267</ele>
        <time>2017-09-08T13:17:27.1Z</time>
      </trkpt>
      <trkpt lat="45.88062" lon="4.77046">
        <ele>267</ele>
        <time>2017-09-08T13:17:28.1Z</time>
      </trkpt>
      <trkpt lat="45.88063" lon="4.77038">
        <ele>267</ele>
        <time>2017-09-08T13:17:29.1Z</time>
      </trkpt>
      <trkpt lat="45.88066" lon="4.77025">
        <ele>267</ele>
        <time>2017-09-08T13:17:31.1Z</time>
      </trkpt>
      <trkpt lat="45.88068" lon="4.77018">
        <ele>267</ele>
        <time>2017-09-08T13:17:32.1Z</time>
      </trkpt>
      <trkpt lat="45.88071" lon="4.77005">
        <ele>266</ele>
        <time>2017-09-08T13:17:34.1Z</time>
      </trkpt>
      <trkpt lat="45.88076" lon="4.7699">
        <ele>266</ele>
        <time>2017-09-08T13:17:36.1Z</time>
      </trkpt>
      <trkpt lat="45.88079" lon="4.76974">
        <ele>266</ele>
        <time>2017-09-08T13:17:38.1Z</time>
      </trkpt>
      <trkpt lat="45.88081" lon="4.76966">
        <ele>266</ele>
        <time>2017-09-08T13:17:39.1Z</time>
      </trkpt>
      <trkpt lat="45.88083" lon="4.76958">
        <ele>266</ele>
        <time>2017-09-08T13:17:40.1Z</time>
      </trkpt>
      <trkpt lat="45.88086" lon="4.7694">
        <ele>266</ele>
        <time>2017-09-08T13:17:42.1Z</time>
      </trkpt>
      <trkpt lat="45.88087" lon="4.76932">
        <ele>265</ele>
        <time>2017-09-08T13:17:43.1Z</time>
      </trkpt>
      <trkpt lat="45.88089" lon="4.76923">
        <ele>265</ele>
        <time>2017-09-08T13:17:44.1Z</time>
      </trkpt>
      <trkpt lat="45.8809" lon="4.76915">
        <ele>265</ele>
        <time>2017-09-08T13:17:45.1Z</time>
      </trkpt>
      <trkpt lat="45.88092" lon="4.76906">
        <ele>265</ele>
        <time>2017-09-08T13:17:46.1Z</time>
      </trkpt>
      <trkpt lat="45.88094" lon="4.76898">
        <ele>265</ele>
        <time>2017-09-08T13:17:47.1Z</time>
      </trkpt>
      <trkpt lat="45.88095" lon="4.76889">
        <ele>265</ele>
        <time>2017-09-08T13:17:48.1Z</time>
      </trkpt>
      <trkpt lat="45.88098" lon="4.76871">
        <ele>265</ele>
        <time>2017-09-08T13:17:50.1Z</time>
      </trkpt>
      <trkpt lat="45.881" lon="4.76862">
        <ele>265</ele>
        <time>2017-09-08T13:17:51.1Z</time>
      </trkpt>
      <trkpt lat="45.88101" lon="4.76853">
        <ele>265</ele>
        <time>2017-09-08T13:17:52.1Z</time>
      </trkpt>
      <trkpt lat="45.88102" lon="4.76844">
        <ele>265</ele>
        <time>2017-09-08T13:17:53.1Z</time>
      </trkpt>
      <trkpt lat="45.88104" lon="4.76835">
        <ele>265</ele>
        <time>2017-09-08T13:17:54.1Z</time>
      </trkpt>
      <trkpt lat="45.88105" lon="4.76826">
        <ele>265</ele>
        <time>2017-09-08T13:17:55.1Z</time>
      </trkpt>
      <trkpt lat="45.88107" lon="4.76807">
        <ele>265</ele>
        <time>2017-09-08T13:17:57.1Z</time>
      </trkpt>
      <trkpt lat="45.88108" lon="4.76788">
        <ele>265</ele>
        <time>2017-09-08T13:17:59.1Z</time>
      </trkpt>
      <trkpt lat="45.8811" lon="4.7677">
        <ele>265</ele>
        <time>2017-09-08T13:18:01.1Z</time>
      </trkpt>
      <trkpt lat="45.88113" lon="4.76751">
        <ele>265</ele>
        <time>2017-09-08T13:18:03.1Z</time>
      </trkpt>
      <trkpt lat="45.88116" lon="4.76743">
        <ele>265</ele>
        <time>2017-09-08T13:18:04.1Z</time>
      </trkpt>
      <trkpt lat="45.88119" lon="4.76734">
        <ele>265</ele>
        <time>2017-09-08T13:18:05.1Z</time>
      </trkpt>
      <trkpt lat="45.88123" lon="4.76726">
        <ele>265</ele>
        <time>2017-09-08T13:18:06.1Z</time>
      </trkpt>
      <trkpt lat="45.88131" lon="4.76711">
        <ele>264</ele>
        <time>2017-09-08T13:18:08.1Z</time>
      </trkpt>
      <trkpt lat="45.88134" lon="4.76703">
        <ele>264</ele>
        <time>2017-09-08T13:18:09.1Z</time>
      </trkpt>
      <trkpt lat="45.88138" lon="4.76695">
        <ele>264</ele>
        <time>2017-09-08T13:18:10.1Z</time>
      </trkpt>
      <trkpt lat="45.88141" lon="4.76688">
        <ele>264</ele>
        <time>2017-09-08T13:18:11.1Z</time>
      </trkpt>
      <trkpt lat="45.88144" lon="4.7668">
        <ele>264</ele>
        <time>2017-09-08T13:18:12.1Z</time>
      </trkpt>
      <trkpt lat="45.88151" lon="4.76664">
        <ele>265</ele>
        <time>2017-09-08T13:18:14.1Z</time>
      </trkpt>
      <trkpt lat="45.88154" lon="4.76656">
        <ele>265</ele>
        <time>2017-09-08T13:18:15.1Z</time>
      </trkpt>
      <trkpt lat="45.88157" lon="4.76649">
        <ele>265</ele>
        <time>2017-09-08T13:18:16.1Z</time>
      </trkpt>
      <trkpt lat="45.88163" lon="4.76633">
        <ele>266</ele>
        <time>2017-09-08T13:18:18.1Z</time>
      </trkpt>
      <trkpt lat="45.88166" lon="4.76625">
        <ele>266</ele>
        <time>2017-09-08T13:18:19.1Z</time>
      </trkpt>
      <trkpt lat="45.88172" lon="4.76609">
        <ele>266</ele>
        <time>2017-09-08T13:18:21.1Z</time>
      </trkpt>
      <trkpt lat="45.88174" lon="4.76601">
        <ele>266</ele>
        <time>2017-09-08T13:18:22.1Z</time>
      </trkpt>
      <trkpt lat="45.8818" lon="4.76583">
        <ele>266</ele>
        <time>2017-09-08T13:18:24.1Z</time>
      </trkpt>
      <trkpt lat="45.88184" lon="4.76566">
        <ele>265</ele>
        <time>2017-09-08T13:18:26.1Z</time>
      </trkpt>
      <trkpt lat="45.88187" lon="4.76557">
        <ele>266</ele>
        <time>2017-09-08T13:18:27.1Z</time>
      </trkpt>
      <trkpt lat="45.88189" lon="4.76549">
        <ele>265</ele>
        <time>2017-09-08T13:18:28.1Z</time>
      </trkpt>
      <trkpt lat="45.88192" lon="4.76541">
        <ele>265</ele>
        <time>2017-09-08T13:18:29.1Z</time>
      </trkpt>
      <trkpt lat="45.88197" lon="4.76524">
        <ele>265</ele>
        <time>2017-09-08T13:18:31.1Z</time>
      </trkpt>
      <trkpt lat="45.882" lon="4.76516">
        <ele>265</ele>
        <time>2017-09-08T13:18:32.1Z</time>
      </trkpt>
      <trkpt lat="45.88203" lon="4.76509">
        <ele>266</ele>
        <time>2017-09-08T13:18:33.1Z</time>
      </trkpt>
      <trkpt lat="45.88208" lon="4.76494">
        <ele>266</ele>
        <time>2017-09-08T13:18:35.1Z</time>
      </trkpt>
      <trkpt lat="45.8821" lon="4.76486">
        <ele>266</ele>
        <time>2017-09-08T13:18:36.1Z</time>
      </trkpt>
      <trkpt lat="45.88213" lon="4.76479">
        <ele>266</ele>
        <time>2017-09-08T13:18:37.1Z</time>
      </trkpt>
      <trkpt lat="45.88215" lon="4.76472">
        <ele>266</ele>
        <time>2017-09-08T13:18:38.1Z</time>
      </trkpt>
      <trkpt lat="45.88221" lon="4.76456">
        <ele>266</ele>
        <time>2017-09-08T13:18:40.1Z</time>
      </trkpt>
      <trkpt lat="45.88223" lon="4.76449">
        <ele>266</ele>
        <time>2017-09-08T13:18:41.1Z</time>
      </trkpt>
      <trkpt lat="45.88226" lon="4.76441">
        <ele>266</ele>
        <time>2017-09-08T13:18:42.1Z</time>
      </trkpt>
      <trkpt lat="45.88229" lon="4.76434">
        <ele>266</ele>
        <time>2017-09-08T13:18:43.1Z</time>
      </trkpt>
      <trkpt lat="45.88232" lon="4.76426">
        <ele>266</ele>
        <time>2017-09-08T13:18:44.1Z</time>
      </trkpt>
      <trkpt lat="45.88234" lon="4.76417">
        <ele>266</ele>
        <time>2017-09-08T13:18:45.1Z</time>
      </trkpt>
      <trkpt lat="45.88237" lon="4.76409">
        <ele>266</ele>
        <time>2017-09-08T13:18:46.1Z</time>
      </trkpt>
      <trkpt lat="45.88243" lon="4.76394">
        <ele>266</ele>
        <time>2017-09-08T13:18:48.1Z</time>
      </trkpt>
      <trkpt lat="45.88246" lon="4.76385">
        <ele>267</ele>
        <time>2017-09-08T13:18:49.1Z</time>
      </trkpt>
      <trkpt lat="45.88253" lon="4.76369">
        <ele>267</ele>
        <time>2017-09-08T13:18:51.1Z</time>
      </trkpt>
      <trkpt lat="45.88256" lon="4.76361">
        <ele>267</ele>
        <time>2017-09-08T13:18:52.1Z</time>
      </trkpt>
      <trkpt lat="45.88258" lon="4.76353">
        <ele>267</ele>
        <time>2017-09-08T13:18:53.1Z</time>
      </trkpt>
      <trkpt lat="45.88264" lon="4.76335">
        <ele>266</ele>
        <time>2017-09-08T13:18:55.1Z</time>
      </trkpt>
      <trkpt lat="45.88266" lon="4.76327">
        <ele>266</ele>
        <time>2017-09-08T13:18:56.1Z</time>
      </trkpt>
      <trkpt lat="45.88271" lon="4.7631">
        <ele>267</ele>
        <time>2017-09-08T13:18:58.1Z</time>
      </trkpt>
      <trkpt lat="45.88274" lon="4.76291">
        <ele>266</ele>
        <time>2017-09-08T13:19:00.1Z</time>
      </trkpt>
      <trkpt lat="45.88277" lon="4.76272">
        <ele>266</ele>
        <time>2017-09-08T13:19:02.1Z</time>
      </trkpt>
      <trkpt lat="45.88278" lon="4.76263">
        <ele>266</ele>
        <time>2017-09-08T13:19:03.1Z</time>
      </trkpt>
      <trkpt lat="45.8828" lon="4.76245">
        <ele>266</ele>
        <time>2017-09-08T13:19:05.1Z</time>
      </trkpt>
      <trkpt lat="45.88282" lon="4.76228">
        <ele>266</ele>
        <time>2017-09-08T13:19:07.1Z</time>
      </trkpt>
      <trkpt lat="45.88284" lon="4.7621">
        <ele>265</ele>
        <time>2017-09-08T13:19:09.1Z</time>
      </trkpt>
      <trkpt lat="45.88285" lon="4.76193">
        <ele>265</ele>
        <time>2017-09-08T13:19:11.1Z</time>
      </trkpt>
      <trkpt lat="45.88285" lon="4.76176">
        <ele>265</ele>
        <time>2017-09-08T13:19:13.1Z</time>
      </trkpt>
      <trkpt lat="45.88286" lon="4.76159">
        <ele>264</ele>
        <time>2017-09-08T13:19:15.1Z</time>
      </trkpt>
      <trkpt lat="45.88287" lon="4.76142">
        <ele>264</ele>
        <time>2017-09-08T13:19:17.1Z</time>
      </trkpt>
      <trkpt lat="45.88288" lon="4.76124">
        <ele>264</ele>
        <time>2017-09-08T13:19:19.1Z</time>
      </trkpt>
      <trkpt lat="45.88289" lon="4.76115">
        <ele>263</ele>
        <time>2017-09-08T13:19:20.1Z</time>
      </trkpt>
      <trkpt lat="45.88289" lon="4.76106">
        <ele>263</ele>
        <time>2017-09-08T13:19:21.1Z</time>
      </trkpt>
      <trkpt lat="45.8829" lon="4.76087">
        <ele>263</ele>
        <time>2017-09-08T13:19:23.1Z</time>
      </trkpt>
      <trkpt lat="45.88291" lon="4.76077">
        <ele>262</ele>
        <time>2017-09-08T13:19:24.1Z</time>
      </trkpt>
      <trkpt lat="45.88292" lon="4.76066">
        <ele>262</ele>
        <time>2017-09-08T13:19:25.1Z</time>
      </trkpt>
      <trkpt lat="45.88292" lon="4.76055">
        <ele>262</ele>
        <time>2017-09-08T13:19:26.1Z</time>
      </trkpt>
      <trkpt lat="45.88295" lon="4.76034">
        <ele>261</ele>
        <time>2017-09-08T13:19:28.1Z</time>
      </trkpt>
      <trkpt lat="45.88298" lon="4.76012">
        <ele>261</ele>
        <time>2017-09-08T13:19:30.1Z</time>
      </trkpt>
      <trkpt lat="45.88303" lon="4.75991">
        <ele>261</ele>
        <time>2017-09-08T13:19:32.1Z</time>
      </trkpt>
      <trkpt lat="45.8831" lon="4.75971">
        <ele>260</ele>
        <time>2017-09-08T13:19:34.1Z</time>
      </trkpt>
      <trkpt lat="45.88314" lon="4.75961">
        <ele>260</ele>
        <time>2017-09-08T13:19:35.1Z</time>
      </trkpt>
      <trkpt lat="45.88317" lon="4.75951">
        <ele>260</ele>
        <time>2017-09-08T13:19:36.1Z</time>
      </trkpt>
      <trkpt lat="45.8832" lon="4.75941">
        <ele>260</ele>
        <time>2017-09-08T13:19:37.1Z</time>
      </trkpt>
      <trkpt lat="45.88322" lon="4.75931">
        <ele>260</ele>
        <time>2017-09-08T13:19:38.1Z</time>
      </trkpt>
      <trkpt lat="45.88327" lon="4.75911">
        <ele>259</ele>
        <time>2017-09-08T13:19:40.1Z</time>
      </trkpt>
      <trkpt lat="45.88331" lon="4.75889">
        <ele>259</ele>
        <time>2017-09-08T13:19:42.1Z</time>
      </trkpt>
      <trkpt lat="45.88333" lon="4.75879">
        <ele>259</ele>
        <time>2017-09-08T13:19:43.1Z</time>
      </trkpt>
      <trkpt lat="45.88335" lon="4.75858">
        <ele>259</ele>
        <time>2017-09-08T13:19:45.1Z</time>
      </trkpt>
      <trkpt lat="45.88337" lon="4.75839">
        <ele>259</ele>
        <time>2017-09-08T13:19:47.1Z</time>
      </trkpt>
      <trkpt lat="45.88338" lon="4.75819">
        <ele>258</ele>
        <time>2017-09-08T13:19:49.1Z</time>
      </trkpt>
      <trkpt lat="45.88339" lon="4.75809">
        <ele>258</ele>
        <time>2017-09-08T13:19:50.1Z</time>
      </trkpt>
      <trkpt lat="45.88339" lon="4.75799">
        <ele>258</ele>
        <time>2017-09-08T13:19:51.1Z</time>
      </trkpt>
      <trkpt lat="45.8834" lon="4.7579">
        <ele>258</ele>
        <time>2017-09-08T13:19:52.1Z</time>
      </trkpt>
      <trkpt lat="45.88342" lon="4.7577">
        <ele>258</ele>
        <time>2017-09-08T13:19:54.1Z</time>
      </trkpt>
      <trkpt lat="45.88344" lon="4.75751">
        <ele>258</ele>
        <time>2017-09-08T13:19:56.1Z</time>
      </trkpt>
      <trkpt lat="45.88346" lon="4.75742">
        <ele>258</ele>
        <time>2017-09-08T13:19:57.1Z</time>
      </trkpt>
      <trkpt lat="45.88348" lon="4.75732">
        <ele>258</ele>
        <time>2017-09-08T13:19:58.1Z</time>
      </trkpt>
      <trkpt lat="45.88352" lon="4.75713">
        <ele>257</ele>
        <time>2017-09-08T13:20:00.1Z</time>
      </trkpt>
      <trkpt lat="45.88356" lon="4.75695">
        <ele>257</ele>
        <time>2017-09-08T13:20:02.1Z</time>
      </trkpt>
      <trkpt lat="45.88359" lon="4.75676">
        <ele>257</ele>
        <time>2017-09-08T13:20:04.1Z</time>
      </trkpt>
      <trkpt lat="45.8836" lon="4.75666">
        <ele>257</ele>
        <time>2017-09-08T13:20:05.1Z</time>
      </trkpt>
      <trkpt lat="45.88361" lon="4.75657">
        <ele>257</ele>
        <time>2017-09-08T13:20:06.1Z</time>
      </trkpt>
      <trkpt lat="45.88361" lon="4.75637">
        <ele>257</ele>
        <time>2017-09-08T13:20:08.1Z</time>
      </trkpt>
      <trkpt lat="45.88361" lon="4.75619">
        <ele>257</ele>
        <time>2017-09-08T13:20:10.1Z</time>
      </trkpt>
      <trkpt lat="45.88361" lon="4.756">
        <ele>257</ele>
        <time>2017-09-08T13:20:12.1Z</time>
      </trkpt>
      <trkpt lat="45.88362" lon="4.75582">
        <ele>256</ele>
        <time>2017-09-08T13:20:14.1Z</time>
      </trkpt>
      <trkpt lat="45.88362" lon="4.75573">
        <ele>257</ele>
        <time>2017-09-08T13:20:15.1Z</time>
      </trkpt>
      <trkpt lat="45.88362" lon="4.75555">
        <ele>256</ele>
        <time>2017-09-08T13:20:17.1Z</time>
      </trkpt>
      <trkpt lat="45.88362" lon="4.75536">
        <ele>256</ele>
        <time>2017-09-08T13:20:19.1Z</time>
      </trkpt>
      <trkpt lat="45.88362" lon="4.75518">
        <ele>256</ele>
        <time>2017-09-08T13:20:21.1Z</time>
      </trkpt>
      <trkpt lat="45.88362" lon="4.75509">
        <ele>256</ele>
        <time>2017-09-08T13:20:22.1Z</time>
      </trkpt>
      <trkpt lat="45.88362" lon="4.755">
        <ele>256</ele>
        <time>2017-09-08T13:20:23.1Z</time>
      </trkpt>
      <trkpt lat="45.88364" lon="4.75481">
        <ele>255</ele>
        <time>2017-09-08T13:20:25.1Z</time>
      </trkpt>
      <trkpt lat="45.88365" lon="4.75472">
        <ele>255</ele>
        <time>2017-09-08T13:20:26.1Z</time>
      </trkpt>
      <trkpt lat="45.88366" lon="4.75463">
        <ele>255</ele>
        <time>2017-09-08T13:20:27.1Z</time>
      </trkpt>
      <trkpt lat="45.88367" lon="4.75454">
        <ele>255</ele>
        <time>2017-09-08T13:20:28.1Z</time>
      </trkpt>
      <trkpt lat="45.88369" lon="4.75444">
        <ele>255</ele>
        <time>2017-09-08T13:20:29.1Z</time>
      </trkpt>
      <trkpt lat="45.88372" lon="4.75426">
        <ele>255</ele>
        <time>2017-09-08T13:20:31.1Z</time>
      </trkpt>
      <trkpt lat="45.88375" lon="4.75408">
        <ele>255</ele>
        <time>2017-09-08T13:20:33.1Z</time>
      </trkpt>
      <trkpt lat="45.88377" lon="4.75399">
        <ele>255</ele>
        <time>2017-09-08T13:20:34.1Z</time>
      </trkpt>
      <trkpt lat="45.88382" lon="4.75382">
        <ele>255</ele>
        <time>2017-09-08T13:20:36.1Z</time>
      </trkpt>
      <trkpt lat="45.88389" lon="4.75366">
        <ele>255</ele>
        <time>2017-09-08T13:20:38.1Z</time>
      </trkpt>
      <trkpt lat="45.88393" lon="4.75359">
        <ele>255</ele>
        <time>2017-09-08T13:20:39.1Z</time>
      </trkpt>
      <trkpt lat="45.88397" lon="4.75352">
        <ele>255</ele>
        <time>2017-09-08T13:20:40.1Z</time>
      </trkpt>
      <trkpt lat="45.88404" lon="4.75336">
        <ele>255</ele>
        <time>2017-09-08T13:20:42.1Z</time>
      </trkpt>
      <trkpt lat="45.88408" lon="4.75328">
        <ele>255</ele>
        <time>2017-09-08T13:20:43.1Z</time>
      </trkpt>
      <trkpt lat="45.88412" lon="4.7532">
        <ele>255</ele>
        <time>2017-09-08T13:20:44.1Z</time>
      </trkpt>
      <trkpt lat="45.88416" lon="4.75312">
        <ele>255</ele>
        <time>2017-09-08T13:20:45.1Z</time>
      </trkpt>
      <trkpt lat="45.8842" lon="4.75305">
        <ele>255</ele>
        <time>2017-09-08T13:20:46.1Z</time>
      </trkpt>
      <trkpt lat="45.88431" lon="4.75293">
        <ele>255</ele>
        <time>2017-09-08T13:20:48.1Z</time>
      </trkpt>
      <trkpt lat="45.88437" lon="4.75288">
        <ele>255</ele>
        <time>2017-09-08T13:20:49.1Z</time>
      </trkpt>
      <trkpt lat="45.88449" lon="4.7528">
        <ele>255</ele>
        <time>2017-09-08T13:20:51.1Z</time>
      </trkpt>
      <trkpt lat="45.88462" lon="4.75273">
        <ele>255</ele>
        <time>2017-09-08T13:20:53.1Z</time>
      </trkpt>
      <trkpt lat="45.88468" lon="4.7527">
        <ele>255</ele>
        <time>2017-09-08T13:20:54.1Z</time>
      </trkpt>
      <trkpt lat="45.88481" lon="4.75262">
        <ele>255</ele>
        <time>2017-09-08T13:20:56.1Z</time>
      </trkpt>
      <trkpt lat="45.88493" lon="4.75255">
        <ele>255</ele>
        <time>2017-09-08T13:20:58.1Z</time>
      </trkpt>
      <trkpt lat="45.88505" lon="4.75245">
        <ele>255</ele>
        <time>2017-09-08T13:21:00.1Z</time>
      </trkpt>
      <trkpt lat="45.88511" lon="4.7524">
        <ele>255</ele>
        <time>2017-09-08T13:21:01.1Z</time>
      </trkpt>
      <trkpt lat="45.88515" lon="4.75233">
        <ele>255</ele>
        <time>2017-09-08T13:21:02.1Z</time>
      </trkpt>
      <trkpt lat="45.88524" lon="4.75218">
        <ele>255</ele>
        <time>2017-09-08T13:21:04.1Z</time>
      </trkpt>
      <trkpt lat="45.88528" lon="4.7521">
        <ele>255</ele>
        <time>2017-09-08T13:21:05.1Z</time>
      </trkpt>
      <trkpt lat="45.88535" lon="4.75194">
        <ele>255</ele>
        <time>2017-09-08T13:21:07.1Z</time>
      </trkpt>
      <trkpt lat="45.88543" lon="4.75178">
        <ele>255</ele>
        <time>2017-09-08T13:21:09.1Z</time>
      </trkpt>
      <trkpt lat="45.88547" lon="4.7517">
        <ele>255</ele>
        <time>2017-09-08T13:21:10.1Z</time>
      </trkpt>
      <trkpt lat="45.88555" lon="4.75155">
        <ele>255</ele>
        <time>2017-09-08T13:21:12.1Z</time>
      </trkpt>
      <trkpt lat="45.88564" lon="4.75141">
        <ele>255</ele>
        <time>2017-09-08T13:21:14.1Z</time>
      </trkpt>
      <trkpt lat="45.88573" lon="4.75128">
        <ele>255</ele>
        <time>2017-09-08T13:21:16.1Z</time>
      </trkpt>
      <trkpt lat="45.88578" lon="4.75123">
        <ele>255</ele>
        <time>2017-09-08T13:21:17.1Z</time>
      </trkpt>
      <trkpt lat="45.88588" lon="4.75112">
        <ele>255</ele>
        <time>2017-09-08T13:21:19.1Z</time>
      </trkpt>
      <trkpt lat="45.88592" lon="4.75107">
        <ele>255</ele>
        <time>2017-09-08T13:21:20.1Z</time>
      </trkpt>
      <trkpt lat="45.88597" lon="4.75102">
        <ele>255</ele>
        <time>2017-09-08T13:21:21.1Z</time>
      </trkpt>
      <trkpt lat="45.88606" lon="4.75091">
        <ele>256</ele>
        <time>2017-09-08T13:21:23.1Z</time>
      </trkpt>
      <trkpt lat="45.8861" lon="4.75084">
        <ele>256</ele>
        <time>2017-09-08T13:21:24.1Z</time>
      </trkpt>
      <trkpt lat="45.88613" lon="4.75077">
        <ele>256</ele>
        <time>2017-09-08T13:21:25.1Z</time>
      </trkpt>
      <trkpt lat="45.88617" lon="4.75061">
        <ele>255</ele>
        <time>2017-09-08T13:21:27.1Z</time>
      </trkpt>
      <trkpt lat="45.88618" lon="4.75053">
        <ele>255</ele>
        <time>2017-09-08T13:21:28.1Z</time>
      </trkpt>
      <trkpt lat="45.88621" lon="4.75037">
        <ele>255</ele>
        <time>2017-09-08T13:21:30.1Z</time>
      </trkpt>
      <trkpt lat="45.88623" lon="4.7503">
        <ele>256</ele>
        <time>2017-09-08T13:21:31.1Z</time>
      </trkpt>
      <trkpt lat="45.88624" lon="4.75021">
        <ele>256</ele>
        <time>2017-09-08T13:21:32.1Z</time>
      </trkpt>
      <trkpt lat="45.88627" lon="4.75005">
        <ele>256</ele>
        <time>2017-09-08T13:21:34.1Z</time>
      </trkpt>
      <trkpt lat="45.88631" lon="4.74988">
        <ele>256</ele>
        <time>2017-09-08T13:21:36.1Z</time>
      </trkpt>
      <trkpt lat="45.88635" lon="4.74971">
        <ele>256</ele>
        <time>2017-09-08T13:21:38.1Z</time>
      </trkpt>
      <trkpt lat="45.88638" lon="4.74964">
        <ele>256</ele>
        <time>2017-09-08T13:21:39.1Z</time>
      </trkpt>
      <trkpt lat="45.88643" lon="4.74949">
        <ele>256</ele>
        <time>2017-09-08T13:21:41.1Z</time>
      </trkpt>
      <trkpt lat="45.88646" lon="4.74942">
        <ele>255</ele>
        <time>2017-09-08T13:21:42.1Z</time>
      </trkpt>
      <trkpt lat="45.8865" lon="4.74935">
        <ele>255</ele>
        <time>2017-09-08T13:21:43.1Z</time>
      </trkpt>
      <trkpt lat="45.8866" lon="4.74924">
        <ele>255</ele>
        <time>2017-09-08T13:21:45.1Z</time>
      </trkpt>
      <trkpt lat="45.8867" lon="4.74914">
        <ele>255</ele>
        <time>2017-09-08T13:21:47.1Z</time>
      </trkpt>
      <trkpt lat="45.88676" lon="4.749">
        <ele>255</ele>
        <time>2017-09-08T13:21:49.1Z</time>
      </trkpt>
      <trkpt lat="45.88681" lon="4.74884">
        <ele>254</ele>
        <time>2017-09-08T13:21:51.1Z</time>
      </trkpt>
      <trkpt lat="45.88683" lon="4.74876">
        <ele>254</ele>
        <time>2017-09-08T13:21:52.1Z</time>
      </trkpt>
      <trkpt lat="45.88687" lon="4.7486">
        <ele>254</ele>
        <time>2017-09-08T13:21:54.1Z</time>
      </trkpt>
      <trkpt lat="45.88691" lon="4.74843">
        <ele>254</ele>
        <time>2017-09-08T13:21:56.1Z</time>
      </trkpt>
      <trkpt lat="45.88693" lon="4.74825">
        <ele>254</ele>
        <time>2017-09-08T13:21:58.1Z</time>
      </trkpt>
      <trkpt lat="45.88696" lon="4.74806">
        <ele>253</ele>
        <time>2017-09-08T13:22:00.1Z</time>
      </trkpt>
      <trkpt lat="45.88697" lon="4.74797">
        <ele>253</ele>
        <time>2017-09-08T13:22:01.1Z</time>
      </trkpt>
      <trkpt lat="45.88698" lon="4.74787">
        <ele>252</ele>
        <time>2017-09-08T13:22:02.1Z</time>
      </trkpt>
      <trkpt lat="45.88699" lon="4.74778">
        <ele>252</ele>
        <time>2017-09-08T13:22:03.1Z</time>
      </trkpt>
      <trkpt lat="45.88703" lon="4.74757">
        <ele>251</ele>
        <time>2017-09-08T13:22:05.1Z</time>
      </trkpt>
      <trkpt lat="45.88704" lon="4.74747">
        <ele>251</ele>
        <time>2017-09-08T13:22:06.1Z</time>
      </trkpt>
      <trkpt lat="45.88706" lon="4.74737">
        <ele>250</ele>
        <time>2017-09-08T13:22:07.1Z</time>
      </trkpt>
      <trkpt lat="45.8871" lon="4.74718">
        <ele>250</ele>
        <time>2017-09-08T13:22:09.1Z</time>
      </trkpt>
      <trkpt lat="45.88713" lon="4.74697">
        <ele>249</ele>
        <time>2017-09-08T13:22:11.1Z</time>
      </trkpt>
      <trkpt lat="45.88717" lon="4.74677">
        <ele>249</ele>
        <time>2017-09-08T13:22:13.1Z</time>
      </trkpt>
      <trkpt lat="45.88718" lon="4.74666">
        <ele>248</ele>
        <time>2017-09-08T13:22:14.1Z</time>
      </trkpt>
      <trkpt lat="45.88722" lon="4.74645">
        <ele>248</ele>
        <time>2017-09-08T13:22:16.1Z</time>
      </trkpt>
      <trkpt lat="45.88724" lon="4.74635">
        <ele>248</ele>
        <time>2017-09-08T13:22:17.1Z</time>
      </trkpt>
      <trkpt lat="45.88725" lon="4.74623">
        <ele>247</ele>
        <time>2017-09-08T13:22:18.1Z</time>
      </trkpt>
      <trkpt lat="45.88726" lon="4.74613">
        <ele>247</ele>
        <time>2017-09-08T13:22:19.1Z</time>
      </trkpt>
      <trkpt lat="45.88726" lon="4.74602">
        <ele>247</ele>
        <time>2017-09-08T13:22:20.1Z</time>
      </trkpt>
      <trkpt lat="45.88724" lon="4.7458">
        <ele>246</ele>
        <time>2017-09-08T13:22:22.1Z</time>
      </trkpt>
      <trkpt lat="45.88723" lon="4.7457">
        <ele>245</ele>
        <time>2017-09-08T13:22:23.1Z</time>
      </trkpt>
      <trkpt lat="45.88722" lon="4.74559">
        <ele>245</ele>
        <time>2017-09-08T13:22:24.1Z</time>
      </trkpt>
      <trkpt lat="45.88722" lon="4.74549">
        <ele>245</ele>
        <time>2017-09-08T13:22:25.1Z</time>
      </trkpt>
      <trkpt lat="45.88721" lon="4.74539">
        <ele>244</ele>
        <time>2017-09-08T13:22:26.1Z</time>
      </trkpt>
      <trkpt lat="45.8872" lon="4.74529">
        <ele>244</ele>
        <time>2017-09-08T13:22:27.1Z</time>
      </trkpt>
      <trkpt lat="45.88719" lon="4.74519">
        <ele>244</ele>
        <time>2017-09-08T13:22:28.1Z</time>
      </trkpt>
      <trkpt lat="45.88718" lon="4.745">
        <ele>243</ele>
        <time>2017-09-08T13:22:30.1Z</time>
      </trkpt>
      <trkpt lat="45.88717" lon="4.7449">
        <ele>243</ele>
        <time>2017-09-08T13:22:31.1Z</time>
      </trkpt>
      <trkpt lat="45.88715" lon="4.7448">
        <ele>243</ele>
        <time>2017-09-08T13:22:32.1Z</time>
      </trkpt>
      <trkpt lat="45.88714" lon="4.74471">
        <ele>243</ele>
        <time>2017-09-08T13:22:33.1Z</time>
      </trkpt>
      <trkpt lat="45.88711" lon="4.74452">
        <ele>243</ele>
        <time>2017-09-08T13:22:35.1Z</time>
      </trkpt>
      <trkpt lat="45.8871" lon="4.74443">
        <ele>243</ele>
        <time>2017-09-08T13:22:36.1Z</time>
      </trkpt>
      <trkpt lat="45.88708" lon="4.74427">
        <ele>243</ele>
        <time>2017-09-08T13:22:38.1Z</time>
      </trkpt>
      <trkpt lat="45.88707" lon="4.74422">
        <ele>243</ele>
        <time>2017-09-08T13:22:39.1Z</time>
      </trkpt>
      <trkpt lat="45.88708" lon="4.74418">
        <ele>243</ele>
        <time>2017-09-08T13:22:40.1Z</time>
      </trkpt>
      <trkpt lat="45.88708" lon="4.74411">
        <ele>242</ele>
        <time>2017-09-08T13:22:42.1Z</time>
      </trkpt>
      <trkpt lat="45.88708" lon="4.74408">
        <ele>242</ele>
        <time>2017-09-08T13:22:43.1Z</time>
      </trkpt>
      <trkpt lat="45.88708" lon="4.74402">
        <ele>242</ele>
        <time>2017-09-08T13:22:45.1Z</time>
      </trkpt>
      <trkpt lat="45.88709" lon="4.74398">
        <ele>242</ele>
        <time>2017-09-08T13:22:46.1Z</time>
      </trkpt>
      <trkpt lat="45.88709" lon="4.74394">
        <ele>242</ele>
        <time>2017-09-08T13:22:48.1Z</time>
      </trkpt>
      <trkpt lat="45.88709" lon="4.74393">
        <ele>242</ele>
        <time>2017-09-08T13:22:49.1Z</time>
      </trkpt>
      <trkpt lat="45.88709" lon="4.74393">
        <ele>242</ele>
        <time>2017-09-08T13:22:50.1Z</time>
      </trkpt>
      <trkpt lat="45.88709" lon="4.74392">
        <ele>242</ele>
        <time>2017-09-08T13:22:52.1Z</time>
      </trkpt>
      <trkpt lat="45.88709" lon="4.74392">
        <ele>242</ele>
        <time>2017-09-08T13:22:53.1Z</time>
      </trkpt>
      <trkpt lat="45.88709" lon="4.74391">
        <ele>242</ele>
        <time>2017-09-08T13:22:54.1Z</time>
      </trkpt>
      <trkpt lat="45.88708" lon="4.74391">
        <ele>242</ele>
        <time>2017-09-08T13:22:55.1Z</time>
      </trkpt>
      <trkpt lat="45.88708" lon="4.7439">
        <ele>242</ele>
        <time>2017-09-08T13:22:56.1Z</time>
      </trkpt>
      <trkpt lat="45.88708" lon="4.74389">
        <ele>242</ele>
        <time>2017-09-08T13:22:58.1Z</time>
      </trkpt>
      <trkpt lat="45.88708" lon="4.74387">
        <ele>242</ele>
        <time>2017-09-08T13:22:59.1Z</time>
      </trkpt>
      <trkpt lat="45.88708" lon="4.74384">
        <ele>242</ele>
        <time>2017-09-08T13:23:01.1Z</time>
      </trkpt>
      <trkpt lat="45.88708" lon="4.74383">
        <ele>242</ele>
        <time>2017-09-08T13:23:02.1Z</time>
      </trkpt>
      <trkpt lat="45.88708" lon="4.74381">
        <ele>242</ele>
        <time>2017-09-08T13:23:03.1Z</time>
      </trkpt>
      <trkpt lat="45.88708" lon="4.74377">
        <ele>242</ele>
        <time>2017-09-08T13:23:05.1Z</time>
      </trkpt>
      <trkpt lat="45.88708" lon="4.74372">
        <ele>242</ele>
        <time>2017-09-08T13:23:07.1Z</time>
      </trkpt>
      <trkpt lat="45.88707" lon="4.74368">
        <ele>242</ele>
        <time>2017-09-08T13:23:08.1Z</time>
      </trkpt>
      <trkpt lat="45.88706" lon="4.7436">
        <ele>242</ele>
        <time>2017-09-08T13:23:10.1Z</time>
      </trkpt>
      <trkpt lat="45.88705" lon="4.74356">
        <ele>242</ele>
        <time>2017-09-08T13:23:11.1Z</time>
      </trkpt>
      <trkpt lat="45.88705" lon="4.74344">
        <ele>242</ele>
        <time>2017-09-08T13:23:13.1Z</time>
      </trkpt>
      <trkpt lat="45.88704" lon="4.74338">
        <ele>242</ele>
        <time>2017-09-08T13:23:14.1Z</time>
      </trkpt>
      <trkpt lat="45.88704" lon="4.74331">
        <ele>242</ele>
        <time>2017-09-08T13:23:15.1Z</time>
      </trkpt>
      <trkpt lat="45.88704" lon="4.74324">
        <ele>242</ele>
        <time>2017-09-08T13:23:16.1Z</time>
      </trkpt>
      <trkpt lat="45.88704" lon="4.74307">
        <ele>242</ele>
        <time>2017-09-08T13:23:18.1Z</time>
      </trkpt>
      <trkpt lat="45.88704" lon="4.74298">
        <ele>242</ele>
        <time>2017-09-08T13:23:19.1Z</time>
      </trkpt>
      <trkpt lat="45.88704" lon="4.74281">
        <ele>242</ele>
        <time>2017-09-08T13:23:21.1Z</time>
      </trkpt>
      <trkpt lat="45.88704" lon="4.74263">
        <ele>242</ele>
        <time>2017-09-08T13:23:23.1Z</time>
      </trkpt>
      <trkpt lat="45.88703" lon="4.74254">
        <ele>242</ele>
        <time>2017-09-08T13:23:24.1Z</time>
      </trkpt>
      <trkpt lat="45.88703" lon="4.74244">
        <ele>241</ele>
        <time>2017-09-08T13:23:25.1Z</time>
      </trkpt>
      <trkpt lat="45.88702" lon="4.74236">
        <ele>241</ele>
        <time>2017-09-08T13:23:26.1Z</time>
      </trkpt>
      <trkpt lat="45.88701" lon="4.74219">
        <ele>241</ele>
        <time>2017-09-08T13:23:28.1Z</time>
      </trkpt>
      <trkpt lat="45.887" lon="4.74211">
        <ele>241</ele>
        <time>2017-09-08T13:23:29.1Z</time>
      </trkpt>
      <trkpt lat="45.88699" lon="4.74195">
        <ele>241</ele>
        <time>2017-09-08T13:23:31.1Z</time>
      </trkpt>
      <trkpt lat="45.88698" lon="4.74188">
        <ele>241</ele>
        <time>2017-09-08T13:23:32.1Z</time>
      </trkpt>
      <trkpt lat="45.88697" lon="4.74181">
        <ele>241</ele>
        <time>2017-09-08T13:23:33.1Z</time>
      </trkpt>
      <trkpt lat="45.88695" lon="4.74166">
        <ele>241</ele>
        <time>2017-09-08T13:23:35.1Z</time>
      </trkpt>
      <trkpt lat="45.88694" lon="4.74158">
        <ele>241</ele>
        <time>2017-09-08T13:23:36.1Z</time>
      </trkpt>
      <trkpt lat="45.8869" lon="4.74142">
        <ele>241</ele>
        <time>2017-09-08T13:23:38.1Z</time>
      </trkpt>
      <trkpt lat="45.88688" lon="4.74133">
        <ele>241</ele>
        <time>2017-09-08T13:23:39.1Z</time>
      </trkpt>
      <trkpt lat="45.88682" lon="4.74116">
        <ele>241</ele>
        <time>2017-09-08T13:23:41.1Z</time>
      </trkpt>
      <trkpt lat="45.88679" lon="4.74108">
        <ele>241</ele>
        <time>2017-09-08T13:23:42.1Z</time>
      </trkpt>
      <trkpt lat="45.88676" lon="4.74099">
        <ele>241</ele>
        <time>2017-09-08T13:23:43.1Z</time>
      </trkpt>
      <trkpt lat="45.8867" lon="4.74083">
        <ele>241</ele>
        <time>2017-09-08T13:23:45.1Z</time>
      </trkpt>
      <trkpt lat="45.88664" lon="4.74065">
        <ele>241</ele>
        <time>2017-09-08T13:23:47.1Z</time>
      </trkpt>
      <trkpt lat="45.88661" lon="4.74057">
        <ele>241</ele>
        <time>2017-09-08T13:23:48.1Z</time>
      </trkpt>
      <trkpt lat="45.88657" lon="4.74039">
        <ele>241</ele>
        <time>2017-09-08T13:23:50.1Z</time>
      </trkpt>
      <trkpt lat="45.88653" lon="4.7402">
        <ele>241</ele>
        <time>2017-09-08T13:23:52.1Z</time>
      </trkpt>
      <trkpt lat="45.88651" lon="4.74002">
        <ele>240</ele>
        <time>2017-09-08T13:23:54.1Z</time>
      </trkpt>
      <trkpt lat="45.88649" lon="4.73993">
        <ele>240</ele>
        <time>2017-09-08T13:23:55.1Z</time>
      </trkpt>
      <trkpt lat="45.88648" lon="4.73984">
        <ele>240</ele>
        <time>2017-09-08T13:23:56.1Z</time>
      </trkpt>
      <trkpt lat="45.88647" lon="4.73974">
        <ele>240</ele>
        <time>2017-09-08T13:23:57.1Z</time>
      </trkpt>
      <trkpt lat="45.88646" lon="4.73965">
        <ele>240</ele>
        <time>2017-09-08T13:23:58.1Z</time>
      </trkpt>
      <trkpt lat="45.88645" lon="4.73955">
        <ele>240</ele>
        <time>2017-09-08T13:23:59.1Z</time>
      </trkpt>
      <trkpt lat="45.88643" lon="4.73936">
        <ele>240</ele>
        <time>2017-09-08T13:24:01.1Z</time>
      </trkpt>
      <trkpt lat="45.88643" lon="4.73926">
        <ele>240</ele>
        <time>2017-09-08T13:24:02.1Z</time>
      </trkpt>
      <trkpt lat="45.88641" lon="4.73907">
        <ele>240</ele>
        <time>2017-09-08T13:24:04.1Z</time>
      </trkpt>
      <trkpt lat="45.88641" lon="4.73888">
        <ele>240</ele>
        <time>2017-09-08T13:24:06.1Z</time>
      </trkpt>
      <trkpt lat="45.88641" lon="4.73879">
        <ele>240</ele>
        <time>2017-09-08T13:24:07.1Z</time>
      </trkpt>
      <trkpt lat="45.88642" lon="4.73861">
        <ele>240</ele>
        <time>2017-09-08T13:24:09.1Z</time>
      </trkpt>
      <trkpt lat="45.88641" lon="4.73852">
        <ele>240</ele>
        <time>2017-09-08T13:24:10.1Z</time>
      </trkpt>
      <trkpt lat="45.88642" lon="4.73835">
        <ele>240</ele>
        <time>2017-09-08T13:24:12.1Z</time>
      </trkpt>
      <trkpt lat="45.88642" lon="4.73818">
        <ele>241</ele>
        <time>2017-09-08T13:24:14.1Z</time>
      </trkpt>
      <trkpt lat="45.88642" lon="4.73803">
        <ele>241</ele>
        <time>2017-09-08T13:24:16.1Z</time>
      </trkpt>
      <trkpt lat="45.88642" lon="4.73796">
        <ele>241</ele>
        <time>2017-09-08T13:24:17.1Z</time>
      </trkpt>
      <trkpt lat="45.88643" lon="4.73785">
        <ele>241</ele>
        <time>2017-09-08T13:24:19.1Z</time>
      </trkpt>
      <trkpt lat="45.88644" lon="4.73776">
        <ele>241</ele>
        <time>2017-09-08T13:24:21.1Z</time>
      </trkpt>
      <trkpt lat="45.88644" lon="4.73772">
        <ele>241</ele>
        <time>2017-09-08T13:24:22.1Z</time>
      </trkpt>
      <trkpt lat="45.88644" lon="4.73769">
        <ele>241</ele>
        <time>2017-09-08T13:24:23.1Z</time>
      </trkpt>
      <trkpt lat="45.88644" lon="4.73766">
        <ele>241</ele>
        <time>2017-09-08T13:24:24.1Z</time>
      </trkpt>
      <trkpt lat="45.88644" lon="4.73761">
        <ele>241</ele>
        <time>2017-09-08T13:24:26.1Z</time>
      </trkpt>
      <trkpt lat="45.88644" lon="4.73759">
        <ele>242</ele>
        <time>2017-09-08T13:24:27.1Z</time>
      </trkpt>
      <trkpt lat="45.88644" lon="4.73758">
        <ele>242</ele>
        <time>2017-09-08T13:24:28.1Z</time>
      </trkpt>
      <trkpt lat="45.88644" lon="4.73758">
        <ele>241</ele>
        <time>2017-09-08T13:24:30.1Z</time>
      </trkpt>
      <trkpt lat="45.88644" lon="4.73758">
        <ele>242</ele>
        <time>2017-09-08T13:24:33.1Z</time>
      </trkpt>
      <trkpt lat="45.88644" lon="4.73758">
        <ele>242</ele>
        <time>2017-09-08T13:24:38.1Z</time>
      </trkpt>
      <trkpt lat="45.88644" lon="4.73758">
        <ele>242</ele>
        <time>2017-09-08T13:24:40.1Z</time>
      </trkpt>
      <trkpt lat="45.88645" lon="4.73758">
        <ele>242</ele>
        <time>2017-09-08T13:24:43.1Z</time>
      </trkpt>
      <trkpt lat="45.88645" lon="4.73758">
        <ele>242</ele>
        <time>2017-09-08T13:24:45.1Z</time>
      </trkpt>
      <trkpt lat="45.88645" lon="4.73758">
        <ele>242</ele>
        <time>2017-09-08T13:24:47.1Z</time>
      </trkpt>
      <trkpt lat="45.88645" lon="4.73759">
        <ele>242</ele>
        <time>2017-09-08T13:24:50.1Z</time>
      </trkpt>
      <trkpt lat="45.88645" lon="4.73759">
        <ele>242</ele>
        <time>2017-09-08T13:24:51.1Z</time>
      </trkpt>
      <trkpt lat="45.88645" lon="4.73759">
        <ele>242</ele>
        <time>2017-09-08T13:24:53.1Z</time>
      </trkpt>
      <trkpt lat="45.88645" lon="4.73759">
        <ele>242</ele>
        <time>2017-09-08T13:24:55.1Z</time>
      </trkpt>
      <trkpt lat="45.88645" lon="4.73758">
        <ele>242</ele>
        <time>2017-09-08T13:24:56.1Z</time>
      </trkpt>
      <trkpt lat="45.88646" lon="4.73756">
        <ele>242</ele>
        <time>2017-09-08T13:25:00.1Z</time>
      </trkpt>
      <trkpt lat="45.88646" lon="4.73755">
        <ele>243</ele>
        <time>2017-09-08T13:25:01.1Z</time>
      </trkpt>
      <trkpt lat="45.88646" lon="4.73749">
        <ele>243</ele>
        <time>2017-09-08T13:25:03.1Z</time>
      </trkpt>
      <trkpt lat="45.88646" lon="4.73745">
        <ele>243</ele>
        <time>2017-09-08T13:25:04.1Z</time>
      </trkpt>
      <trkpt lat="45.88646" lon="4.73741">
        <ele>243</ele>
        <time>2017-09-08T13:25:05.1Z</time>
      </trkpt>
      <trkpt lat="45.88646" lon="4.73736">
        <ele>243</ele>
        <time>2017-09-08T13:25:06.1Z</time>
      </trkpt>
      <trkpt lat="45.88646" lon="4.73731">
        <ele>244</ele>
        <time>2017-09-08T13:25:07.1Z</time>
      </trkpt>
      <trkpt lat="45.88646" lon="4.73726">
        <ele>244</ele>
        <time>2017-09-08T13:25:08.1Z</time>
      </trkpt>
      <trkpt lat="45.88646" lon="4.73714">
        <ele>244</ele>
        <time>2017-09-08T13:25:10.1Z</time>
      </trkpt>
      <trkpt lat="45.88646" lon="4.73702">
        <ele>244</ele>
        <time>2017-09-08T13:25:12.1Z</time>
      </trkpt>
      <trkpt lat="45.88647" lon="4.73689">
        <ele>244</ele>
        <time>2017-09-08T13:25:14.1Z</time>
      </trkpt>
      <trkpt lat="45.88647" lon="4.73682">
        <ele>245</ele>
        <time>2017-09-08T13:25:15.1Z</time>
      </trkpt>
      <trkpt lat="45.88647" lon="4.73674">
        <ele>245</ele>
        <time>2017-09-08T13:25:16.1Z</time>
      </trkpt>
      <trkpt lat="45.88647" lon="4.73667">
        <ele>245</ele>
        <time>2017-09-08T13:25:17.1Z</time>
      </trkpt>
      <trkpt lat="45.88647" lon="4.73659">
        <ele>245</ele>
        <time>2017-09-08T13:25:18.1Z</time>
      </trkpt>
      <trkpt lat="45.88647" lon="4.73651">
        <ele>246</ele>
        <time>2017-09-08T13:25:19.1Z</time>
      </trkpt>
      <trkpt lat="45.88646" lon="4.73633">
        <ele>246</ele>
        <time>2017-09-08T13:25:21.1Z</time>
      </trkpt>
      <trkpt lat="45.88645" lon="4.73625">
        <ele>246</ele>
        <time>2017-09-08T13:25:22.1Z</time>
      </trkpt>
      <trkpt lat="45.88645" lon="4.73616">
        <ele>247</ele>
        <time>2017-09-08T13:25:23.1Z</time>
      </trkpt>
      <trkpt lat="45.88646" lon="4.73597">
        <ele>246</ele>
        <time>2017-09-08T13:25:25.1Z</time>
      </trkpt>
      <trkpt lat="45.88647" lon="4.73577">
        <ele>246</ele>
        <time>2017-09-08T13:25:27.1Z</time>
      </trkpt>
      <trkpt lat="45.88648" lon="4.73556">
        <ele>245</ele>
        <time>2017-09-08T13:25:29.1Z</time>
      </trkpt>
      <trkpt lat="45.8865" lon="4.73535">
        <ele>243</ele>
        <time>2017-09-08T13:25:31.1Z</time>
      </trkpt>
      <trkpt lat="45.88652" lon="4.73524">
        <ele>243</ele>
        <time>2017-09-08T13:25:32.1Z</time>
      </trkpt>
      <trkpt lat="45.88656" lon="4.73503">
        <ele>242</ele>
        <time>2017-09-08T13:25:34.1Z</time>
      </trkpt>
      <trkpt lat="45.88658" lon="4.73491">
        <ele>241</ele>
        <time>2017-09-08T13:25:35.1Z</time>
      </trkpt>
      <trkpt lat="45.88659" lon="4.7348">
        <ele>241</ele>
        <time>2017-09-08T13:25:36.1Z</time>
      </trkpt>
      <trkpt lat="45.88658" lon="4.73469">
        <ele>241</ele>
        <time>2017-09-08T13:25:37.1Z</time>
      </trkpt>
      <trkpt lat="45.88655" lon="4.73447">
        <ele>240</ele>
        <time>2017-09-08T13:25:39.1Z</time>
      </trkpt>
      <trkpt lat="45.88652" lon="4.73427">
        <ele>240</ele>
        <time>2017-09-08T13:25:41.1Z</time>
      </trkpt>
      <trkpt lat="45.88647" lon="4.73408">
        <ele>239</ele>
        <time>2017-09-08T13:25:43.1Z</time>
      </trkpt>
      <trkpt lat="45.88643" lon="4.734">
        <ele>239</ele>
        <time>2017-09-08T13:25:44.1Z</time>
      </trkpt>
      <trkpt lat="45.88638" lon="4.73394">
        <ele>239</ele>
        <time>2017-09-08T13:25:45.1Z</time>
      </trkpt>
      <trkpt lat="45.88625" lon="4.73389">
        <ele>239</ele>
        <time>2017-09-08T13:25:47.1Z</time>
      </trkpt>
      <trkpt lat="45.88612" lon="4.7339">
        <ele>239</ele>
        <time>2017-09-08T13:25:49.1Z</time>
      </trkpt>
      <trkpt lat="45.88605" lon="4.73392">
        <ele>239</ele>
        <time>2017-09-08T13:25:50.1Z</time>
      </trkpt>
      <trkpt lat="45.88593" lon="4.73394">
        <ele>239</ele>
        <time>2017-09-08T13:25:52.1Z</time>
      </trkpt>
      <trkpt lat="45.88586" lon="4.73396">
        <ele>239</ele>
        <time>2017-09-08T13:25:53.1Z</time>
      </trkpt>
      <trkpt lat="45.8858" lon="4.73398">
        <ele>239</ele>
        <time>2017-09-08T13:25:54.1Z</time>
      </trkpt>
      <trkpt lat="45.88567" lon="4.73401">
        <ele>239</ele>
        <time>2017-09-08T13:25:56.1Z</time>
      </trkpt>
      <trkpt lat="45.88561" lon="4.73403">
        <ele>239</ele>
        <time>2017-09-08T13:25:57.1Z</time>
      </trkpt>
      <trkpt lat="45.88548" lon="4.73407">
        <ele>239</ele>
        <time>2017-09-08T13:25:59.1Z</time>
      </trkpt>
      <trkpt lat="45.88535" lon="4.7341">
        <ele>239</ele>
        <time>2017-09-08T13:26:01.1Z</time>
      </trkpt>
      <trkpt lat="45.88522" lon="4.73414">
        <ele>239</ele>
        <time>2017-09-08T13:26:03.1Z</time>
      </trkpt>
      <trkpt lat="45.88509" lon="4.73419">
        <ele>239</ele>
        <time>2017-09-08T13:26:05.1Z</time>
      </trkpt>
      <trkpt lat="45.88496" lon="4.73422">
        <ele>239</ele>
        <time>2017-09-08T13:26:07.1Z</time>
      </trkpt>
      <trkpt lat="45.8849" lon="4.73424">
        <ele>239</ele>
        <time>2017-09-08T13:26:08.1Z</time>
      </trkpt>
      <trkpt lat="45.88483" lon="4.73425">
        <ele>239</ele>
        <time>2017-09-08T13:26:09.1Z</time>
      </trkpt>
      <trkpt lat="45.88477" lon="4.73428">
        <ele>239</ele>
        <time>2017-09-08T13:26:10.1Z</time>
      </trkpt>
      <trkpt lat="45.8847" lon="4.7343">
        <ele>239</ele>
        <time>2017-09-08T13:26:11.1Z</time>
      </trkpt>
      <trkpt lat="45.88464" lon="4.73432">
        <ele>239</ele>
        <time>2017-09-08T13:26:12.1Z</time>
      </trkpt>
      <trkpt lat="45.88453" lon="4.73435">
        <ele>239</ele>
        <time>2017-09-08T13:26:14.1Z</time>
      </trkpt>
      <trkpt lat="45.88448" lon="4.73437">
        <ele>239</ele>
        <time>2017-09-08T13:26:15.1Z</time>
      </trkpt>
      <trkpt lat="45.88437" lon="4.7344">
        <ele>239</ele>
        <time>2017-09-08T13:26:17.1Z</time>
      </trkpt>
      <trkpt lat="45.88426" lon="4.73442">
        <ele>239</ele>
        <time>2017-09-08T13:26:19.1Z</time>
      </trkpt>
      <trkpt lat="45.88415" lon="4.73446">
        <ele>239</ele>
        <time>2017-09-08T13:26:21.1Z</time>
      </trkpt>
      <trkpt lat="45.88404" lon="4.73449">
        <ele>239</ele>
        <time>2017-09-08T13:26:23.1Z</time>
      </trkpt>
      <trkpt lat="45.88392" lon="4.73453">
        <ele>239</ele>
        <time>2017-09-08T13:26:25.1Z</time>
      </trkpt>
      <trkpt lat="45.88386" lon="4.73455">
        <ele>239</ele>
        <time>2017-09-08T13:26:26.1Z</time>
      </trkpt>
      <trkpt lat="45.8838" lon="4.73456">
        <ele>239</ele>
        <time>2017-09-08T13:26:27.1Z</time>
      </trkpt>
      <trkpt lat="45.88374" lon="4.73458">
        <ele>239</ele>
        <time>2017-09-08T13:26:28.1Z</time>
      </trkpt>
      <trkpt lat="45.88363" lon="4.73461">
        <ele>240</ele>
        <time>2017-09-08T13:26:30.1Z</time>
      </trkpt>
      <trkpt lat="45.88358" lon="4.73463">
        <ele>239</ele>
        <time>2017-09-08T13:26:31.1Z</time>
      </trkpt>
      <trkpt lat="45.88347" lon="4.73466">
        <ele>239</ele>
        <time>2017-09-08T13:26:33.1Z</time>
      </trkpt>
      <trkpt lat="45.88342" lon="4.73468">
        <ele>239</ele>
        <time>2017-09-08T13:26:34.1Z</time>
      </trkpt>
      <trkpt lat="45.8833" lon="4.73471">
        <ele>239</ele>
        <time>2017-09-08T13:26:36.1Z</time>
      </trkpt>
      <trkpt lat="45.88325" lon="4.73473">
        <ele>239</ele>
        <time>2017-09-08T13:26:37.1Z</time>
      </trkpt>
      <trkpt lat="45.88314" lon="4.73476">
        <ele>240</ele>
        <time>2017-09-08T13:26:39.1Z</time>
      </trkpt>
      <trkpt lat="45.88303" lon="4.7348">
        <ele>240</ele>
        <time>2017-09-08T13:26:41.1Z</time>
      </trkpt>
      <trkpt lat="45.88297" lon="4.73483">
        <ele>240</ele>
        <time>2017-09-08T13:26:42.1Z</time>
      </trkpt>
      <trkpt lat="45.88292" lon="4.73485">
        <ele>240</ele>
        <time>2017-09-08T13:26:43.1Z</time>
      </trkpt>
      <trkpt lat="45.88287" lon="4.73488">
        <ele>240</ele>
        <time>2017-09-08T13:26:44.1Z</time>
      </trkpt>
      <trkpt lat="45.88277" lon="4.73494">
        <ele>240</ele>
        <time>2017-09-08T13:26:46.1Z</time>
      </trkpt>
      <trkpt lat="45.88272" lon="4.73498">
        <ele>240</ele>
        <time>2017-09-08T13:26:47.1Z</time>
      </trkpt>
      <trkpt lat="45.88267" lon="4.73501">
        <ele>240</ele>
        <time>2017-09-08T13:26:48.1Z</time>
      </trkpt>
      <trkpt lat="45.88262" lon="4.73504">
        <ele>240</ele>
        <time>2017-09-08T13:26:49.1Z</time>
      </trkpt>
      <trkpt lat="45.88257" lon="4.73507">
        <ele>241</ele>
        <time>2017-09-08T13:26:50.1Z</time>
      </trkpt>
      <trkpt lat="45.88253" lon="4.7351">
        <ele>241</ele>
        <time>2017-09-08T13:26:51.1Z</time>
      </trkpt>
      <trkpt lat="45.88247" lon="4.73513">
        <ele>241</ele>
        <time>2017-09-08T13:26:52.1Z</time>
      </trkpt>
      <trkpt lat="45.88237" lon="4.7352">
        <ele>241</ele>
        <time>2017-09-08T13:26:54.1Z</time>
      </trkpt>
      <trkpt lat="45.88227" lon="4.73526">
        <ele>241</ele>
        <time>2017-09-08T13:26:56.1Z</time>
      </trkpt>
      <trkpt lat="45.88222" lon="4.73529">
        <ele>241</ele>
        <time>2017-09-08T13:26:57.1Z</time>
      </trkpt>
      <trkpt lat="45.88216" lon="4.73533">
        <ele>241</ele>
        <time>2017-09-08T13:26:58.1Z</time>
      </trkpt>
      <trkpt lat="45.88211" lon="4.73536">
        <ele>241</ele>
        <time>2017-09-08T13:26:59.1Z</time>
      </trkpt>
      <trkpt lat="45.88201" lon="4.73543">
        <ele>241</ele>
        <time>2017-09-08T13:27:01.1Z</time>
      </trkpt>
      <trkpt lat="45.88195" lon="4.73547">
        <ele>241</ele>
        <time>2017-09-08T13:27:02.1Z</time>
      </trkpt>
      <trkpt lat="45.88185" lon="4.73554">
        <ele>241</ele>
        <time>2017-09-08T13:27:04.1Z</time>
      </trkpt>
      <trkpt lat="45.88175" lon="4.73561">
        <ele>241</ele>
        <time>2017-09-08T13:27:06.1Z</time>
      </trkpt>
      <trkpt lat="45.88165" lon="4.73567">
        <ele>241</ele>
        <time>2017-09-08T13:27:08.1Z</time>
      </trkpt>
      <trkpt lat="45.8816" lon="4.7357">
        <ele>241</ele>
        <time>2017-09-08T13:27:09.1Z</time>
      </trkpt>
      <trkpt lat="45.8815" lon="4.73576">
        <ele>241</ele>
        <time>2017-09-08T13:27:11.1Z</time>
      </trkpt>
      <trkpt lat="45.8814" lon="4.73583">
        <ele>241</ele>
        <time>2017-09-08T13:27:13.1Z</time>
      </trkpt>
      <trkpt lat="45.88135" lon="4.73586">
        <ele>241</ele>
        <time>2017-09-08T13:27:14.1Z</time>
      </trkpt>
      <trkpt lat="45.88129" lon="4.7359">
        <ele>241</ele>
        <time>2017-09-08T13:27:15.1Z</time>
      </trkpt>
      <trkpt lat="45.88119" lon="4.73597">
        <ele>241</ele>
        <time>2017-09-08T13:27:17.1Z</time>
      </trkpt>
      <trkpt lat="45.88108" lon="4.73604">
        <ele>242</ele>
        <time>2017-09-08T13:27:19.1Z</time>
      </trkpt>
      <trkpt lat="45.88103" lon="4.73607">
        <ele>242</ele>
        <time>2017-09-08T13:27:20.1Z</time>
      </trkpt>
      <trkpt lat="45.88093" lon="4.73614">
        <ele>242</ele>
        <time>2017-09-08T13:27:22.1Z</time>
      </trkpt>
      <trkpt lat="45.88083" lon="4.7362">
        <ele>242</ele>
        <time>2017-09-08T13:27:24.1Z</time>
      </trkpt>
      <trkpt lat="45.88073" lon="4.73627">
        <ele>242</ele>
        <time>2017-09-08T13:27:26.1Z</time>
      </trkpt>
      <trkpt lat="45.88063" lon="4.73633">
        <ele>242</ele>
        <time>2017-09-08T13:27:28.1Z</time>
      </trkpt>
      <trkpt lat="45.88058" lon="4.73636">
        <ele>242</ele>
        <time>2017-09-08T13:27:29.1Z</time>
      </trkpt>
      <trkpt lat="45.88053" lon="4.7364">
        <ele>242</ele>
        <time>2017-09-08T13:27:30.1Z</time>
      </trkpt>
      <trkpt lat="45.88049" lon="4.73643">
        <ele>242</ele>
        <time>2017-09-08T13:27:31.1Z</time>
      </trkpt>
      <trkpt lat="45.88039" lon="4.73649">
        <ele>242</ele>
        <time>2017-09-08T13:27:33.1Z</time>
      </trkpt>
      <trkpt lat="45.88029" lon="4.73655">
        <ele>242</ele>
        <time>2017-09-08T13:27:35.1Z</time>
      </trkpt>
      <trkpt lat="45.88018" lon="4.73658">
        <ele>242</ele>
        <time>2017-09-08T13:27:37.1Z</time>
      </trkpt>
      <trkpt lat="45.88007" lon="4.73657">
        <ele>243</ele>
        <time>2017-09-08T13:27:39.1Z</time>
      </trkpt>
      <trkpt lat="45.87995" lon="4.73654">
        <ele>243</ele>
        <time>2017-09-08T13:27:41.1Z</time>
      </trkpt>
      <trkpt lat="45.87983" lon="4.73651">
        <ele>243</ele>
        <time>2017-09-08T13:27:43.1Z</time>
      </trkpt>
      <trkpt lat="45.87971" lon="4.73648">
        <ele>243</ele>
        <time>2017-09-08T13:27:45.1Z</time>
      </trkpt>
      <trkpt lat="45.87959" lon="4.73644">
        <ele>243</ele>
        <time>2017-09-08T13:27:47.1Z</time>
      </trkpt>
      <trkpt lat="45.87954" lon="4.73643">
        <ele>243</ele>
        <time>2017-09-08T13:27:48.1Z</time>
      </trkpt>
      <trkpt lat="45.87943" lon="4.7364">
        <ele>243</ele>
        <time>2017-09-08T13:27:50.1Z</time>
      </trkpt>
      <trkpt lat="45.87932" lon="4.73637">
        <ele>243</ele>
        <time>2017-09-08T13:27:52.1Z</time>
      </trkpt>
      <trkpt lat="45.87922" lon="4.73634">
        <ele>243</ele>
        <time>2017-09-08T13:27:54.1Z</time>
      </trkpt>
      <trkpt lat="45.87911" lon="4.73631">
        <ele>243</ele>
        <time>2017-09-08T13:27:56.1Z</time>
      </trkpt>
      <trkpt lat="45.879" lon="4.73627">
        <ele>243</ele>
        <time>2017-09-08T13:27:58.1Z</time>
      </trkpt>
      <trkpt lat="45.87895" lon="4.73626">
        <ele>243</ele>
        <time>2017-09-08T13:27:59.1Z</time>
      </trkpt>
      <trkpt lat="45.87885" lon="4.73623">
        <ele>243</ele>
        <time>2017-09-08T13:28:01.1Z</time>
      </trkpt>
      <trkpt lat="45.87875" lon="4.7362">
        <ele>243</ele>
        <time>2017-09-08T13:28:03.1Z</time>
      </trkpt>
      <trkpt lat="45.8787" lon="4.7362">
        <ele>242</ele>
        <time>2017-09-08T13:28:04.1Z</time>
      </trkpt>
      <trkpt lat="45.8786" lon="4.73626">
        <ele>242</ele>
        <time>2017-09-08T13:28:06.1Z</time>
      </trkpt>
      <trkpt lat="45.87855" lon="4.7363">
        <ele>241</ele>
        <time>2017-09-08T13:28:07.1Z</time>
      </trkpt>
      <trkpt lat="45.8784" lon="4.73638">
        <ele>242</ele>
        <time>2017-09-08T13:28:10.1Z</time>
      </trkpt>
      <trkpt lat="45.87835" lon="4.73636">
        <ele>242</ele>
        <time>2017-09-08T13:28:11.1Z</time>
      </trkpt>
      <trkpt lat="45.87829" lon="4.73624">
        <ele>242</ele>
        <time>2017-09-08T13:28:13.1Z</time>
      </trkpt>
      <trkpt lat="45.87823" lon="4.7361">
        <ele>242</ele>
        <time>2017-09-08T13:28:15.1Z</time>
      </trkpt>
      <trkpt lat="45.8782" lon="4.73603">
        <ele>243</ele>
        <time>2017-09-08T13:28:16.1Z</time>
      </trkpt>
      <trkpt lat="45.87817" lon="4.73596">
        <ele>243</ele>
        <time>2017-09-08T13:28:17.1Z</time>
      </trkpt>
      <trkpt lat="45.8781" lon="4.73582">
        <ele>243</ele>
        <time>2017-09-08T13:28:19.1Z</time>
      </trkpt>
      <trkpt lat="45.87806" lon="4.73575">
        <ele>242</ele>
        <time>2017-09-08T13:28:20.1Z</time>
      </trkpt>
      <trkpt lat="45.87803" lon="4.73568">
        <ele>243</ele>
        <time>2017-09-08T13:28:21.1Z</time>
      </trkpt>
      <trkpt lat="45.87799" lon="4.7356">
        <ele>243</ele>
        <time>2017-09-08T13:28:22.1Z</time>
      </trkpt>
      <trkpt lat="45.87792" lon="4.73546">
        <ele>243</ele>
        <time>2017-09-08T13:28:24.1Z</time>
      </trkpt>
      <trkpt lat="45.87785" lon="4.7353">
        <ele>242</ele>
        <time>2017-09-08T13:28:26.1Z</time>
      </trkpt>
      <trkpt lat="45.87781" lon="4.73523">
        <ele>242</ele>
        <time>2017-09-08T13:28:27.1Z</time>
      </trkpt>
      <trkpt lat="45.87777" lon="4.73515">
        <ele>242</ele>
        <time>2017-09-08T13:28:28.1Z</time>
      </trkpt>
      <trkpt lat="45.87774" lon="4.73507">
        <ele>242</ele>
        <time>2017-09-08T13:28:29.1Z</time>
      </trkpt>
      <trkpt lat="45.8777" lon="4.73499">
        <ele>242</ele>
        <time>2017-09-08T13:28:30.1Z</time>
      </trkpt>
      <trkpt lat="45.87767" lon="4.73492">
        <ele>242</ele>
        <time>2017-09-08T13:28:31.1Z</time>
      </trkpt>
      <trkpt lat="45.87763" lon="4.73484">
        <ele>242</ele>
        <time>2017-09-08T13:28:32.1Z</time>
      </trkpt>
      <trkpt lat="45.87759" lon="4.73477">
        <ele>243</ele>
        <time>2017-09-08T13:28:33.1Z</time>
      </trkpt>
      <trkpt lat="45.87755" lon="4.73469">
        <ele>243</ele>
        <time>2017-09-08T13:28:34.1Z</time>
      </trkpt>
      <trkpt lat="45.87748" lon="4.73454">
        <ele>243</ele>
        <time>2017-09-08T13:28:36.1Z</time>
      </trkpt>
      <trkpt lat="45.87744" lon="4.73447">
        <ele>243</ele>
        <time>2017-09-08T13:28:37.1Z</time>
      </trkpt>
      <trkpt lat="45.87737" lon="4.73431">
        <ele>243</ele>
        <time>2017-09-08T13:28:39.1Z</time>
      </trkpt>
      <trkpt lat="45.87733" lon="4.73423">
        <ele>243</ele>
        <time>2017-09-08T13:28:40.1Z</time>
      </trkpt>
      <trkpt lat="45.8773" lon="4.73416">
        <ele>243</ele>
        <time>2017-09-08T13:28:41.1Z</time>
      </trkpt>
      <trkpt lat="45.87726" lon="4.73408">
        <ele>243</ele>
        <time>2017-09-08T13:28:42.1Z</time>
      </trkpt>
      <trkpt lat="45.87722" lon="4.734">
        <ele>243</ele>
        <time>2017-09-08T13:28:43.1Z</time>
      </trkpt>
      <trkpt lat="45.87715" lon="4.73385">
        <ele>243</ele>
        <time>2017-09-08T13:28:45.1Z</time>
      </trkpt>
      <trkpt lat="45.87712" lon="4.73377">
        <ele>243</ele>
        <time>2017-09-08T13:28:46.1Z</time>
      </trkpt>
      <trkpt lat="45.87709" lon="4.73369">
        <ele>243</ele>
        <time>2017-09-08T13:28:47.1Z</time>
      </trkpt>
      <trkpt lat="45.87701" lon="4.73354">
        <ele>242</ele>
        <time>2017-09-08T13:28:49.1Z</time>
      </trkpt>
      <trkpt lat="45.87698" lon="4.73346">
        <ele>242</ele>
        <time>2017-09-08T13:28:50.1Z</time>
      </trkpt>
      <trkpt lat="45.87694" lon="4.73338">
        <ele>242</ele>
        <time>2017-09-08T13:28:51.1Z</time>
      </trkpt>
      <trkpt lat="45.8769" lon="4.7333">
        <ele>242</ele>
        <time>2017-09-08T13:28:52.1Z</time>
      </trkpt>
      <trkpt lat="45.87687" lon="4.73323">
        <ele>242</ele>
        <time>2017-09-08T13:28:53.1Z</time>
      </trkpt>
      <trkpt lat="45.87683" lon="4.73315">
        <ele>242</ele>
        <time>2017-09-08T13:28:54.1Z</time>
      </trkpt>
      <trkpt lat="45.87676" lon="4.733">
        <ele>242</ele>
        <time>2017-09-08T13:28:56.1Z</time>
      </trkpt>
      <trkpt lat="45.87672" lon="4.73292">
        <ele>242</ele>
        <time>2017-09-08T13:28:57.1Z</time>
      </trkpt>
      <trkpt lat="45.87669" lon="4.73284">
        <ele>243</ele>
        <time>2017-09-08T13:28:58.1Z</time>
      </trkpt>
      <trkpt lat="45.87665" lon="4.73277">
        <ele>243</ele>
        <time>2017-09-08T13:28:59.1Z</time>
      </trkpt>
      <trkpt lat="45.87661" lon="4.73269">
        <ele>243</ele>
        <time>2017-09-08T13:29:00.1Z</time>
      </trkpt>
      <trkpt lat="45.87657" lon="4.73261">
        <ele>243</ele>
        <time>2017-09-08T13:29:01.1Z</time>
      </trkpt>
      <trkpt lat="45.87653" lon="4.73253">
        <ele>243</ele>
        <time>2017-09-08T13:29:02.1Z</time>
      </trkpt>
      <trkpt lat="45.87646" lon="4.73238">
        <ele>243</ele>
        <time>2017-09-08T13:29:04.1Z</time>
      </trkpt>
      <trkpt lat="45.87642" lon="4.73231">
        <ele>244</ele>
        <time>2017-09-08T13:29:05.1Z</time>
      </trkpt>
      <trkpt lat="45.87638" lon="4.73223">
        <ele>243</ele>
        <time>2017-09-08T13:29:06.1Z</time>
      </trkpt>
      <trkpt lat="45.87632" lon="4.73209">
        <ele>243</ele>
        <time>2017-09-08T13:29:08.1Z</time>
      </trkpt>
      <trkpt lat="45.87629" lon="4.73202">
        <ele>243</ele>
        <time>2017-09-08T13:29:09.1Z</time>
      </trkpt>
      <trkpt lat="45.87625" lon="4.73194">
        <ele>243</ele>
        <time>2017-09-08T13:29:10.1Z</time>
      </trkpt>
      <trkpt lat="45.87621" lon="4.73187">
        <ele>243</ele>
        <time>2017-09-08T13:29:11.1Z</time>
      </trkpt>
      <trkpt lat="45.87618" lon="4.73179">
        <ele>243</ele>
        <time>2017-09-08T13:29:12.1Z</time>
      </trkpt>
      <trkpt lat="45.8761" lon="4.73164">
        <ele>243</ele>
        <time>2017-09-08T13:29:14.1Z</time>
      </trkpt>
      <trkpt lat="45.87602" lon="4.73148">
        <ele>243</ele>
        <time>2017-09-08T13:29:16.1Z</time>
      </trkpt>
      <trkpt lat="45.87598" lon="4.7314">
        <ele>243</ele>
        <time>2017-09-08T13:29:17.1Z</time>
      </trkpt>
      <trkpt lat="45.87593" lon="4.73132">
        <ele>243</ele>
        <time>2017-09-08T13:29:18.1Z</time>
      </trkpt>
      <trkpt lat="45.87589" lon="4.73123">
        <ele>243</ele>
        <time>2017-09-08T13:29:19.1Z</time>
      </trkpt>
      <trkpt lat="45.87585" lon="4.73114">
        <ele>243</ele>
        <time>2017-09-08T13:29:20.1Z</time>
      </trkpt>
      <trkpt lat="45.8758" lon="4.73105">
        <ele>243</ele>
        <time>2017-09-08T13:29:21.1Z</time>
      </trkpt>
      <trkpt lat="45.87571" lon="4.73088">
        <ele>242</ele>
        <time>2017-09-08T13:29:23.1Z</time>
      </trkpt>
      <trkpt lat="45.87563" lon="4.73071">
        <ele>241</ele>
        <time>2017-09-08T13:29:25.1Z</time>
      </trkpt>
      <trkpt lat="45.87559" lon="4.73063">
        <ele>241</ele>
        <time>2017-09-08T13:29:26.1Z</time>
      </trkpt>
      <trkpt lat="45.87555" lon="4.73054">
        <ele>240</ele>
        <time>2017-09-08T13:29:27.1Z</time>
      </trkpt>
      <trkpt lat="45.87551" lon="4.73046">
        <ele>240</ele>
        <time>2017-09-08T13:29:28.1Z</time>
      </trkpt>
      <trkpt lat="45.87544" lon="4.7303">
        <ele>241</ele>
        <time>2017-09-08T13:29:30.1Z</time>
      </trkpt>
      <trkpt lat="45.8754" lon="4.73023">
        <ele>241</ele>
        <time>2017-09-08T13:29:31.1Z</time>
      </trkpt>
      <trkpt lat="45.87536" lon="4.73015">
        <ele>241</ele>
        <time>2017-09-08T13:29:32.1Z</time>
      </trkpt>
      <trkpt lat="45.87532" lon="4.73007">
        <ele>241</ele>
        <time>2017-09-08T13:29:33.1Z</time>
      </trkpt>
      <trkpt lat="45.87528" lon="4.72999">
        <ele>241</ele>
        <time>2017-09-08T13:29:34.1Z</time>
      </trkpt>
      <trkpt lat="45.87525" lon="4.72992">
        <ele>241</ele>
        <time>2017-09-08T13:29:35.1Z</time>
      </trkpt>
      <trkpt lat="45.87521" lon="4.72984">
        <ele>241</ele>
        <time>2017-09-08T13:29:36.1Z</time>
      </trkpt>
      <trkpt lat="45.87517" lon="4.72976">
        <ele>241</ele>
        <time>2017-09-08T13:29:37.1Z</time>
      </trkpt>
      <trkpt lat="45.87513" lon="4.72969">
        <ele>241</ele>
        <time>2017-09-08T13:29:38.1Z</time>
      </trkpt>
      <trkpt lat="45.87504" lon="4.72956">
        <ele>241</ele>
        <time>2017-09-08T13:29:40.1Z</time>
      </trkpt>
      <trkpt lat="45.87499" lon="4.7295">
        <ele>241</ele>
        <time>2017-09-08T13:29:41.1Z</time>
      </trkpt>
      <trkpt lat="45.87488" lon="4.72941">
        <ele>241</ele>
        <time>2017-09-08T13:29:43.1Z</time>
      </trkpt>
      <trkpt lat="45.87482" lon="4.72937">
        <ele>241</ele>
        <time>2017-09-08T13:29:44.1Z</time>
      </trkpt>
      <trkpt lat="45.87477" lon="4.72932">
        <ele>241</ele>
        <time>2017-09-08T13:29:45.1Z</time>
      </trkpt>
      <trkpt lat="45.87469" lon="4.72921">
        <ele>241</ele>
        <time>2017-09-08T13:29:47.1Z</time>
      </trkpt>
      <trkpt lat="45.87464" lon="4.72907">
        <ele>242</ele>
        <time>2017-09-08T13:29:49.1Z</time>
      </trkpt>
      <trkpt lat="45.87462" lon="4.729">
        <ele>242</ele>
        <time>2017-09-08T13:29:50.1Z</time>
      </trkpt>
      <trkpt lat="45.87458" lon="4.72887">
        <ele>242</ele>
        <time>2017-09-08T13:29:52.1Z</time>
      </trkpt>
      <trkpt lat="45.87453" lon="4.72872">
        <ele>242</ele>
        <time>2017-09-08T13:29:54.1Z</time>
      </trkpt>
      <trkpt lat="45.8745" lon="4.72864">
        <ele>243</ele>
        <time>2017-09-08T13:29:55.1Z</time>
      </trkpt>
      <trkpt lat="45.87444" lon="4.72848">
        <ele>243</ele>
        <time>2017-09-08T13:29:57.1Z</time>
      </trkpt>
      <trkpt lat="45.87441" lon="4.7284">
        <ele>243</ele>
        <time>2017-09-08T13:29:58.1Z</time>
      </trkpt>
      <trkpt lat="45.87438" lon="4.72832">
        <ele>243</ele>
        <time>2017-09-08T13:29:59.1Z</time>
      </trkpt>
      <trkpt lat="45.87435" lon="4.72825">
        <ele>243</ele>
        <time>2017-09-08T13:30:00.1Z</time>
      </trkpt>
      <trkpt lat="45.87429" lon="4.7281">
        <ele>243</ele>
        <time>2017-09-08T13:30:02.1Z</time>
      </trkpt>
      <trkpt lat="45.87422" lon="4.72795">
        <ele>243</ele>
        <time>2017-09-08T13:30:04.1Z</time>
      </trkpt>
      <trkpt lat="45.87415" lon="4.7278">
        <ele>243</ele>
        <time>2017-09-08T13:30:06.1Z</time>
      </trkpt>
      <trkpt lat="45.87412" lon="4.72774">
        <ele>242</ele>
        <time>2017-09-08T13:30:07.1Z</time>
      </trkpt>
      <trkpt lat="45.87409" lon="4.72767">
        <ele>242</ele>
        <time>2017-09-08T13:30:08.1Z</time>
      </trkpt>
      <trkpt lat="45.87406" lon="4.7276">
        <ele>242</ele>
        <time>2017-09-08T13:30:09.1Z</time>
      </trkpt>
      <trkpt lat="45.87403" lon="4.72754">
        <ele>242</ele>
        <time>2017-09-08T13:30:10.1Z</time>
      </trkpt>
      <trkpt lat="45.87395" lon="4.72743">
        <ele>242</ele>
        <time>2017-09-08T13:30:12.1Z</time>
      </trkpt>
      <trkpt lat="45.8739" lon="4.72739">
        <ele>242</ele>
        <time>2017-09-08T13:30:13.1Z</time>
      </trkpt>
      <trkpt lat="45.87385" lon="4.72737">
        <ele>242</ele>
        <time>2017-09-08T13:30:14.1Z</time>
      </trkpt>
      <trkpt lat="45.87373" lon="4.72737">
        <ele>242</ele>
        <time>2017-09-08T13:30:16.1Z</time>
      </trkpt>
      <trkpt lat="45.87363" lon="4.72739">
        <ele>243</ele>
        <time>2017-09-08T13:30:18.1Z</time>
      </trkpt>
      <trkpt lat="45.87357" lon="4.7274">
        <ele>243</ele>
        <time>2017-09-08T13:30:19.1Z</time>
      </trkpt>
      <trkpt lat="45.87347" lon="4.72743">
        <ele>243</ele>
        <time>2017-09-08T13:30:21.1Z</time>
      </trkpt>
      <trkpt lat="45.87336" lon="4.72746">
        <ele>243</ele>
        <time>2017-09-08T13:30:23.1Z</time>
      </trkpt>
      <trkpt lat="45.87331" lon="4.72748">
        <ele>243</ele>
        <time>2017-09-08T13:30:24.1Z</time>
      </trkpt>
      <trkpt lat="45.87321" lon="4.7275">
        <ele>243</ele>
        <time>2017-09-08T13:30:26.1Z</time>
      </trkpt>
      <trkpt lat="45.87313" lon="4.72752">
        <ele>243</ele>
        <time>2017-09-08T13:30:28.1Z</time>
      </trkpt>
      <trkpt lat="45.87309" lon="4.72753">
        <ele>243</ele>
        <time>2017-09-08T13:30:29.1Z</time>
      </trkpt>
      <trkpt lat="45.87305" lon="4.72754">
        <ele>243</ele>
        <time>2017-09-08T13:30:30.1Z</time>
      </trkpt>
      <trkpt lat="45.87302" lon="4.72756">
        <ele>243</ele>
        <time>2017-09-08T13:30:31.1Z</time>
      </trkpt>
      <trkpt lat="45.87294" lon="4.72758">
        <ele>243</ele>
        <time>2017-09-08T13:30:33.1Z</time>
      </trkpt>
      <trkpt lat="45.87291" lon="4.72758">
        <ele>244</ele>
        <time>2017-09-08T13:30:34.1Z</time>
      </trkpt>
      <trkpt lat="45.87284" lon="4.72757">
        <ele>244</ele>
        <time>2017-09-08T13:30:36.1Z</time>
      </trkpt>
      <trkpt lat="45.87278" lon="4.72755">
        <ele>245</ele>
        <time>2017-09-08T13:30:38.1Z</time>
      </trkpt>
      <trkpt lat="45.87272" lon="4.72751">
        <ele>245</ele>
        <time>2017-09-08T13:30:40.1Z</time>
      </trkpt>
      <trkpt lat="45.8727" lon="4.72749">
        <ele>245</ele>
        <time>2017-09-08T13:30:41.1Z</time>
      </trkpt>
      <trkpt lat="45.87265" lon="4.72746">
        <ele>246</ele>
        <time>2017-09-08T13:30:43.1Z</time>
      </trkpt>
      <trkpt lat="45.87259" lon="4.72745">
        <ele>246</ele>
        <time>2017-09-08T13:30:45.1Z</time>
      </trkpt>
      <trkpt lat="45.87253" lon="4.72743">
        <ele>246</ele>
        <time>2017-09-08T13:30:47.1Z</time>
      </trkpt>
      <trkpt lat="45.87251" lon="4.72742">
        <ele>247</ele>
        <time>2017-09-08T13:30:48.1Z</time>
      </trkpt>
      <trkpt lat="45.87246" lon="4.7274">
        <ele>247</ele>
        <time>2017-09-08T13:30:50.1Z</time>
      </trkpt>
      <trkpt lat="45.8724" lon="4.72738">
        <ele>247</ele>
        <time>2017-09-08T13:30:52.1Z</time>
      </trkpt>
      <trkpt lat="45.87235" lon="4.72736">
        <ele>248</ele>
        <time>2017-09-08T13:30:54.1Z</time>
      </trkpt>
      <trkpt lat="45.87232" lon="4.72735">
        <ele>248</ele>
        <time>2017-09-08T13:30:55.1Z</time>
      </trkpt>
      <trkpt lat="45.87227" lon="4.72733">
        <ele>248</ele>
        <time>2017-09-08T13:30:57.1Z</time>
      </trkpt>
      <trkpt lat="45.87224" lon="4.72732">
        <ele>248</ele>
        <time>2017-09-08T13:30:58.1Z</time>
      </trkpt>
      <trkpt lat="45.87218" lon="4.7273">
        <ele>248</ele>
        <time>2017-09-08T13:31:00.1Z</time>
      </trkpt>
      <trkpt lat="45.87213" lon="4.72728">
        <ele>248</ele>
        <time>2017-09-08T13:31:02.1Z</time>
      </trkpt>
      <trkpt lat="45.87208" lon="4.72726">
        <ele>248</ele>
        <time>2017-09-08T13:31:04.1Z</time>
      </trkpt>
      <trkpt lat="45.87203" lon="4.72724">
        <ele>249</ele>
        <time>2017-09-08T13:31:06.1Z</time>
      </trkpt>
      <trkpt lat="45.872" lon="4.72723">
        <ele>249</ele>
        <time>2017-09-08T13:31:07.1Z</time>
      </trkpt>
      <trkpt lat="45.87195" lon="4.72722">
        <ele>249</ele>
        <time>2017-09-08T13:31:09.1Z</time>
      </trkpt>
      <trkpt lat="45.87193" lon="4.72721">
        <ele>249</ele>
        <time>2017-09-08T13:31:10.1Z</time>
      </trkpt>
      <trkpt lat="45.87189" lon="4.72722">
        <ele>250</ele>
        <time>2017-09-08T13:31:12.1Z</time>
      </trkpt>
      <trkpt lat="45.87185" lon="4.72722">
        <ele>250</ele>
        <time>2017-09-08T13:31:14.1Z</time>
      </trkpt>
      <trkpt lat="45.87183" lon="4.72721">
        <ele>250</ele>
        <time>2017-09-08T13:31:15.1Z</time>
      </trkpt>
      <trkpt lat="45.8718" lon="4.72719">
        <ele>251</ele>
        <time>2017-09-08T13:31:17.1Z</time>
      </trkpt>
      <trkpt lat="45.87176" lon="4.72719">
        <ele>251</ele>
        <time>2017-09-08T13:31:19.1Z</time>
      </trkpt>
      <trkpt lat="45.87176" lon="4.72719">
        <ele>251</ele>
        <time>2017-09-08T13:31:20.1Z</time>
      </trkpt>
      <trkpt lat="45.87175" lon="4.72719">
        <ele>251</ele>
        <time>2017-09-08T13:31:21.1Z</time>
      </trkpt>
      <trkpt lat="45.87174" lon="4.72719">
        <ele>251</ele>
        <time>2017-09-08T13:31:22.1Z</time>
      </trkpt>
      <trkpt lat="45.87172" lon="4.72721">
        <ele>251</ele>
        <time>2017-09-08T13:31:23.1Z</time>
      </trkpt>
      <trkpt lat="45.8717" lon="4.72726">
        <ele>251</ele>
        <time>2017-09-08T13:31:25.1Z</time>
      </trkpt>
      <trkpt lat="45.87168" lon="4.72731">
        <ele>251</ele>
        <time>2017-09-08T13:31:27.1Z</time>
      </trkpt>
      <trkpt lat="45.87167" lon="4.72735">
        <ele>251</ele>
        <time>2017-09-08T13:31:28.1Z</time>
      </trkpt>
      <trkpt lat="45.87166" lon="4.72739">
        <ele>252</ele>
        <time>2017-09-08T13:31:29.1Z</time>
      </trkpt>
      <trkpt lat="45.87166" lon="4.72743">
        <ele>252</ele>
        <time>2017-09-08T13:31:30.1Z</time>
      </trkpt>
      <trkpt lat="45.87165" lon="4.72752">
        <ele>252</ele>
        <time>2017-09-08T13:31:32.1Z</time>
      </trkpt>
      <trkpt lat="45.87164" lon="4.72757">
        <ele>252</ele>
        <time>2017-09-08T13:31:33.1Z</time>
      </trkpt>
      <trkpt lat="45.87163" lon="4.72765">
        <ele>252</ele>
        <time>2017-09-08T13:31:35.1Z</time>
      </trkpt>
      <trkpt lat="45.87162" lon="4.7277">
        <ele>252</ele>
        <time>2017-09-08T13:31:36.1Z</time>
      </trkpt>
      <trkpt lat="45.87162" lon="4.72774">
        <ele>253</ele>
        <time>2017-09-08T13:31:37.1Z</time>
      </trkpt>
      <trkpt lat="45.87158" lon="4.72779">
        <ele>253</ele>
        <time>2017-09-08T13:31:39.1Z</time>
      </trkpt>
      <trkpt lat="45.87153" lon="4.72783">
        <ele>253</ele>
        <time>2017-09-08T13:31:41.1Z</time>
      </trkpt>
      <trkpt lat="45.87148" lon="4.72787">
        <ele>254</ele>
        <time>2017-09-08T13:31:43.1Z</time>
      </trkpt>
      <trkpt lat="45.87146" lon="4.72788">
        <ele>254</ele>
        <time>2017-09-08T13:31:44.1Z</time>
      </trkpt>
      <trkpt lat="45.87141" lon="4.72791">
        <ele>254</ele>
        <time>2017-09-08T13:31:46.1Z</time>
      </trkpt>
      <trkpt lat="45.87136" lon="4.72795">
        <ele>254</ele>
        <time>2017-09-08T13:31:48.1Z</time>
      </trkpt>
      <trkpt lat="45.87132" lon="4.72798">
        <ele>255</ele>
        <time>2017-09-08T13:31:50.1Z</time>
      </trkpt>
      <trkpt lat="45.87128" lon="4.72801">
        <ele>255</ele>
        <time>2017-09-08T13:31:52.1Z</time>
      </trkpt>
      <trkpt lat="45.87125" lon="4.72803">
        <ele>255</ele>
        <time>2017-09-08T13:31:53.1Z</time>
      </trkpt>
      <trkpt lat="45.87121" lon="4.72806">
        <ele>256</ele>
        <time>2017-09-08T13:31:55.1Z</time>
      </trkpt>
      <trkpt lat="45.87117" lon="4.7281">
        <ele>256</ele>
        <time>2017-09-08T13:31:57.1Z</time>
      </trkpt>
      <trkpt lat="45.87112" lon="4.72813">
        <ele>257</ele>
        <time>2017-09-08T13:31:59.1Z</time>
      </trkpt>
      <trkpt lat="45.8711" lon="4.72815">
        <ele>258</ele>
        <time>2017-09-08T13:32:00.1Z</time>
      </trkpt>
      <trkpt lat="45.87106" lon="4.72819">
        <ele>258</ele>
        <time>2017-09-08T13:32:02.1Z</time>
      </trkpt>
      <trkpt lat="45.87104" lon="4.7282">
        <ele>258</ele>
        <time>2017-09-08T13:32:03.1Z</time>
      </trkpt>
      <trkpt lat="45.87099" lon="4.72823">
        <ele>258</ele>
        <time>2017-09-08T13:32:05.1Z</time>
      </trkpt>
      <trkpt lat="45.87095" lon="4.72827">
        <ele>259</ele>
        <time>2017-09-08T13:32:06.1Z</time>
      </trkpt>
      <trkpt lat="45.87091" lon="4.72829">
        <ele>259</ele>
        <time>2017-09-08T13:32:09.1Z</time>
      </trkpt>
      <trkpt lat="45.87087" lon="4.72832">
        <ele>259</ele>
        <time>2017-09-08T13:32:11.1Z</time>
      </trkpt>
      <trkpt lat="45.87083" lon="4.72835">
        <ele>260</ele>
        <time>2017-09-08T13:32:12.1Z</time>
      </trkpt>
      <trkpt lat="45.8708" lon="4.72836">
        <ele>260</ele>
        <time>2017-09-08T13:32:14.1Z</time>
      </trkpt>
      <trkpt lat="45.87076" lon="4.72839">
        <ele>261</ele>
        <time>2017-09-08T13:32:16.1Z</time>
      </trkpt>
      <trkpt lat="45.87074" lon="4.7284">
        <ele>261</ele>
        <time>2017-09-08T13:32:17.1Z</time>
      </trkpt>
      <trkpt lat="45.8707" lon="4.72843">
        <ele>262</ele>
        <time>2017-09-08T13:32:19.1Z</time>
      </trkpt>
      <trkpt lat="45.87068" lon="4.72845">
        <ele>262</ele>
        <time>2017-09-08T13:32:20.1Z</time>
      </trkpt>
      <trkpt lat="45.87064" lon="4.72849">
        <ele>263</ele>
        <time>2017-09-08T13:32:22.1Z</time>
      </trkpt>
      <trkpt lat="45.87059" lon="4.72851">
        <ele>263</ele>
        <time>2017-09-08T13:32:24.1Z</time>
      </trkpt>
      <trkpt lat="45.87055" lon="4.72853">
        <ele>263</ele>
        <time>2017-09-08T13:32:26.1Z</time>
      </trkpt>
      <trkpt lat="45.8705" lon="4.72855">
        <ele>264</ele>
        <time>2017-09-08T13:32:28.1Z</time>
      </trkpt>
      <trkpt lat="45.87046" lon="4.72858">
        <ele>264</ele>
        <time>2017-09-08T13:32:29.1Z</time>
      </trkpt>
      <trkpt lat="45.87044" lon="4.7286">
        <ele>265</ele>
        <time>2017-09-08T13:32:31.1Z</time>
      </trkpt>
      <trkpt lat="45.87042" lon="4.72862">
        <ele>265</ele>
        <time>2017-09-08T13:32:32.1Z</time>
      </trkpt>
      <trkpt lat="45.87037" lon="4.72864">
        <ele>265</ele>
        <time>2017-09-08T13:32:33.1Z</time>
      </trkpt>
      <trkpt lat="45.87035" lon="4.72865">
        <ele>266</ele>
        <time>2017-09-08T13:32:35.1Z</time>
      </trkpt>
      <trkpt lat="45.87031" lon="4.72869">
        <ele>266</ele>
        <time>2017-09-08T13:32:36.1Z</time>
      </trkpt>
      <trkpt lat="45.87029" lon="4.72871">
        <ele>266</ele>
        <time>2017-09-08T13:32:37.1Z</time>
      </trkpt>
      <trkpt lat="45.87027" lon="4.72873">
        <ele>266</ele>
        <time>2017-09-08T13:32:38.1Z</time>
      </trkpt>
      <trkpt lat="45.87025" lon="4.72875">
        <ele>266</ele>
        <time>2017-09-08T13:32:39.1Z</time>
      </trkpt>
      <trkpt lat="45.87023" lon="4.72876">
        <ele>267</ele>
        <time>2017-09-08T13:32:40.1Z</time>
      </trkpt>
      <trkpt lat="45.8702" lon="4.72877">
        <ele>267</ele>
        <time>2017-09-08T13:32:42.1Z</time>
      </trkpt>
      <trkpt lat="45.87016" lon="4.7288">
        <ele>267</ele>
        <time>2017-09-08T13:32:44.1Z</time>
      </trkpt>
      <trkpt lat="45.87014" lon="4.72881">
        <ele>267</ele>
        <time>2017-09-08T13:32:45.1Z</time>
      </trkpt>
      <trkpt lat="45.87009" lon="4.72883">
        <ele>268</ele>
        <time>2017-09-08T13:32:47.1Z</time>
      </trkpt>
      <trkpt lat="45.87004" lon="4.72885">
        <ele>268</ele>
        <time>2017-09-08T13:32:49.1Z</time>
      </trkpt>
      <trkpt lat="45.86999" lon="4.72886">
        <ele>268</ele>
        <time>2017-09-08T13:32:51.1Z</time>
      </trkpt>
      <trkpt lat="45.86994" lon="4.72887">
        <ele>269</ele>
        <time>2017-09-08T13:32:53.1Z</time>
      </trkpt>
      <trkpt lat="45.86992" lon="4.72888">
        <ele>269</ele>
        <time>2017-09-08T13:32:54.1Z</time>
      </trkpt>
      <trkpt lat="45.86987" lon="4.72889">
        <ele>269</ele>
        <time>2017-09-08T13:32:56.1Z</time>
      </trkpt>
      <trkpt lat="45.86982" lon="4.72891">
        <ele>270</ele>
        <time>2017-09-08T13:32:58.1Z</time>
      </trkpt>
      <trkpt lat="45.86976" lon="4.72891">
        <ele>270</ele>
        <time>2017-09-08T13:32:59.1Z</time>
      </trkpt>
      <trkpt lat="45.86974" lon="4.72892">
        <ele>270</ele>
        <time>2017-09-08T13:33:01.1Z</time>
      </trkpt>
      <trkpt lat="45.86971" lon="4.72893">
        <ele>270</ele>
        <time>2017-09-08T13:33:02.1Z</time>
      </trkpt>
      <trkpt lat="45.86968" lon="4.72894">
        <ele>270</ele>
        <time>2017-09-08T13:33:03.1Z</time>
      </trkpt>
      <trkpt lat="45.86963" lon="4.72895">
        <ele>270</ele>
        <time>2017-09-08T13:33:05.1Z</time>
      </trkpt>
      <trkpt lat="45.86958" lon="4.72897">
        <ele>271</ele>
        <time>2017-09-08T13:33:06.1Z</time>
      </trkpt>
      <trkpt lat="45.86955" lon="4.72897">
        <ele>271</ele>
        <time>2017-09-08T13:33:08.1Z</time>
      </trkpt>
      <trkpt lat="45.8695" lon="4.72899">
        <ele>272</ele>
        <time>2017-09-08T13:33:10.1Z</time>
      </trkpt>
      <trkpt lat="45.86944" lon="4.72901">
        <ele>272</ele>
        <time>2017-09-08T13:33:12.1Z</time>
      </trkpt>
      <trkpt lat="45.86939" lon="4.72902">
        <ele>272</ele>
        <time>2017-09-08T13:33:13.1Z</time>
      </trkpt>
      <trkpt lat="45.86937" lon="4.72903">
        <ele>273</ele>
        <time>2017-09-08T13:33:15.1Z</time>
      </trkpt>
      <trkpt lat="45.86933" lon="4.72902">
        <ele>273</ele>
        <time>2017-09-08T13:33:17.1Z</time>
      </trkpt>
      <trkpt lat="45.86931" lon="4.72903">
        <ele>273</ele>
        <time>2017-09-08T13:33:18.1Z</time>
      </trkpt>
      <trkpt lat="45.86931" lon="4.72903">
        <ele>273</ele>
        <time>2017-09-08T13:33:19.1Z</time>
      </trkpt>
      <trkpt lat="45.86931" lon="4.72903">
        <ele>273</ele>
        <time>2017-09-08T13:33:21.1Z</time>
      </trkpt>
      <trkpt lat="45.8693" lon="4.72903">
        <ele>273</ele>
        <time>2017-09-08T13:33:24.1Z</time>
      </trkpt>
      <trkpt lat="45.8693" lon="4.72903">
        <ele>273</ele>
        <time>2017-09-08T13:33:27.1Z</time>
      </trkpt>
      <trkpt lat="45.8693" lon="4.72904">
        <ele>273</ele>
        <time>2017-09-08T13:33:29.1Z</time>
      </trkpt>
      <trkpt lat="45.8693" lon="4.72904">
        <ele>273</ele>
        <time>2017-09-08T13:33:31.1Z</time>
      </trkpt>
      <trkpt lat="45.86929" lon="4.72905">
        <ele>273</ele>
        <time>2017-09-08T13:33:32.1Z</time>
      </trkpt>
      <trkpt lat="45.86927" lon="4.72909">
        <ele>273</ele>
        <time>2017-09-08T13:33:33.1Z</time>
      </trkpt>
      <trkpt lat="45.86926" lon="4.72913">
        <ele>273</ele>
        <time>2017-09-08T13:33:34.1Z</time>
      </trkpt>
      <trkpt lat="45.86924" lon="4.72921">
        <ele>274</ele>
        <time>2017-09-08T13:33:36.1Z</time>
      </trkpt>
      <trkpt lat="45.86922" lon="4.7293">
        <ele>274</ele>
        <time>2017-09-08T13:33:38.1Z</time>
      </trkpt>
      <trkpt lat="45.86921" lon="4.72938">
        <ele>274</ele>
        <time>2017-09-08T13:33:41.1Z</time>
      </trkpt>
      <trkpt lat="45.8692" lon="4.72946">
        <ele>274</ele>
        <time>2017-09-08T13:33:42.1Z</time>
      </trkpt>
      <trkpt lat="45.86919" lon="4.72956">
        <ele>273</ele>
        <time>2017-09-08T13:33:45.1Z</time>
      </trkpt>
      <trkpt lat="45.86916" lon="4.72968">
        <ele>273</ele>
        <time>2017-09-08T13:33:47.1Z</time>
      </trkpt>
      <trkpt lat="45.86914" lon="4.72974">
        <ele>272</ele>
        <time>2017-09-08T13:33:48.1Z</time>
      </trkpt>
      <trkpt lat="45.86911" lon="4.72988">
        <ele>272</ele>
        <time>2017-09-08T13:33:49.1Z</time>
      </trkpt>
      <trkpt lat="45.86909" lon="4.72995">
        <ele>272</ele>
        <time>2017-09-08T13:33:51.1Z</time>
      </trkpt>
      <trkpt lat="45.86904" lon="4.73009">
        <ele>271</ele>
        <time>2017-09-08T13:33:52.1Z</time>
      </trkpt>
      <trkpt lat="45.86901" lon="4.73017">
        <ele>271</ele>
        <time>2017-09-08T13:33:54.1Z</time>
      </trkpt>
      <trkpt lat="45.86895" lon="4.73031">
        <ele>271</ele>
        <time>2017-09-08T13:33:56.1Z</time>
      </trkpt>
      <trkpt lat="45.86888" lon="4.73046">
        <ele>270</ele>
        <time>2017-09-08T13:33:58.1Z</time>
      </trkpt>
      <trkpt lat="45.86884" lon="4.73061">
        <ele>270</ele>
        <time>2017-09-08T13:33:59.1Z</time>
      </trkpt>
      <trkpt lat="45.86882" lon="4.73068">
        <ele>271</ele>
        <time>2017-09-08T13:34:00.1Z</time>
      </trkpt>
      <trkpt lat="45.86879" lon="4.7308">
        <ele>270</ele>
        <time>2017-09-08T13:34:02.1Z</time>
      </trkpt>
      <trkpt lat="45.86878" lon="4.73085">
        <ele>270</ele>
        <time>2017-09-08T13:34:03.1Z</time>
      </trkpt>
      <trkpt lat="45.86878" lon="4.73089">
        <ele>270</ele>
        <time>2017-09-08T13:34:05.1Z</time>
      </trkpt>
      <trkpt lat="45.86878" lon="4.73091">
        <ele>270</ele>
        <time>2017-09-08T13:34:06.1Z</time>
      </trkpt>
      <trkpt lat="45.86879" lon="4.73094">
        <ele>270</ele>
        <time>2017-09-08T13:34:08.1Z</time>
      </trkpt>
      <trkpt lat="45.86879" lon="4.73095">
        <ele>269</ele>
        <time>2017-09-08T13:34:09.1Z</time>
      </trkpt>
      <trkpt lat="45.8688" lon="4.73104">
        <ele>269</ele>
        <time>2017-09-08T13:34:11.1Z</time>
      </trkpt>
      <trkpt lat="45.8688" lon="4.73105">
        <ele>270</ele>
        <time>2017-09-08T13:34:12.1Z</time>
      </trkpt>
      <trkpt lat="45.8688" lon="4.7311">
        <ele>270</ele>
        <time>2017-09-08T13:34:14.1Z</time>
      </trkpt>
      <trkpt lat="45.86878" lon="4.73117">
        <ele>270</ele>
        <time>2017-09-08T13:34:16.1Z</time>
      </trkpt>
      <trkpt lat="45.86877" lon="4.73122">
        <ele>270</ele>
        <time>2017-09-08T13:34:17.1Z</time>
      </trkpt>
      <trkpt lat="45.86874" lon="4.7313">
        <ele>270</ele>
        <time>2017-09-08T13:34:19.1Z</time>
      </trkpt>
      <trkpt lat="45.86873" lon="4.73137">
        <ele>271</ele>
        <time>2017-09-08T13:34:21.1Z</time>
      </trkpt>
      <trkpt lat="45.86872" lon="4.7314">
        <ele>271</ele>
        <time>2017-09-08T13:34:22.1Z</time>
      </trkpt>
      <trkpt lat="45.86871" lon="4.73147">
        <ele>271</ele>
        <time>2017-09-08T13:34:24.1Z</time>
      </trkpt>
      <trkpt lat="45.8687" lon="4.7315">
        <ele>271</ele>
        <time>2017-09-08T13:34:25.1Z</time>
      </trkpt>
      <trkpt lat="45.86869" lon="4.73156">
        <ele>271</ele>
        <time>2017-09-08T13:34:27.1Z</time>
      </trkpt>
      <trkpt lat="45.86869" lon="4.73159">
        <ele>271</ele>
        <time>2017-09-08T13:34:28.1Z</time>
      </trkpt>
      <trkpt lat="45.86868" lon="4.73162">
        <ele>271</ele>
        <time>2017-09-08T13:34:29.1Z</time>
      </trkpt>
      <trkpt lat="45.86868" lon="4.73165">
        <ele>272</ele>
        <time>2017-09-08T13:34:30.1Z</time>
      </trkpt>
      <trkpt lat="45.86867" lon="4.73167">
        <ele>272</ele>
        <time>2017-09-08T13:34:31.1Z</time>
      </trkpt>
      <trkpt lat="45.86866" lon="4.73172">
        <ele>272</ele>
        <time>2017-09-08T13:34:33.1Z</time>
      </trkpt>
      <trkpt lat="45.86865" lon="4.73177">
        <ele>272</ele>
        <time>2017-09-08T13:34:35.1Z</time>
      </trkpt>
      <trkpt lat="45.86864" lon="4.73181">
        <ele>273</ele>
        <time>2017-09-08T13:34:37.1Z</time>
      </trkpt>
      <trkpt lat="45.8686" lon="4.73183">
        <ele>273</ele>
        <time>2017-09-08T13:34:39.1Z</time>
      </trkpt>
      <trkpt lat="45.86858" lon="4.73184">
        <ele>273</ele>
        <time>2017-09-08T13:34:40.1Z</time>
      </trkpt>
      <trkpt lat="45.86855" lon="4.73184">
        <ele>273</ele>
        <time>2017-09-08T13:34:41.1Z</time>
      </trkpt>
      <trkpt lat="45.86852" lon="4.73184">
        <ele>273</ele>
        <time>2017-09-08T13:34:42.1Z</time>
      </trkpt>
      <trkpt lat="45.86847" lon="4.73184">
        <ele>273</ele>
        <time>2017-09-08T13:34:44.1Z</time>
      </trkpt>
      <trkpt lat="45.86843" lon="4.73184">
        <ele>273</ele>
        <time>2017-09-08T13:34:46.1Z</time>
      </trkpt>
      <trkpt lat="45.86838" lon="4.73184">
        <ele>274</ele>
        <time>2017-09-08T13:34:48.1Z</time>
      </trkpt>
      <trkpt lat="45.86834" lon="4.73183">
        <ele>274</ele>
        <time>2017-09-08T13:34:50.1Z</time>
      </trkpt>
      <trkpt lat="45.86832" lon="4.73183">
        <ele>275</ele>
        <time>2017-09-08T13:34:51.1Z</time>
      </trkpt>
      <trkpt lat="45.86831" lon="4.73182">
        <ele>275</ele>
        <time>2017-09-08T13:34:53.1Z</time>
      </trkpt>
      <trkpt lat="45.86829" lon="4.73182">
        <ele>275</ele>
        <time>2017-09-08T13:34:54.1Z</time>
      </trkpt>
      <trkpt lat="45.86824" lon="4.73183">
        <ele>275</ele>
        <time>2017-09-08T13:34:55.1Z</time>
      </trkpt>
      <trkpt lat="45.86819" lon="4.73184">
        <ele>275</ele>
        <time>2017-09-08T13:34:57.1Z</time>
      </trkpt>
      <trkpt lat="45.86814" lon="4.73185">
        <ele>276</ele>
        <time>2017-09-08T13:34:59.1Z</time>
      </trkpt>
      <trkpt lat="45.86809" lon="4.73186">
        <ele>276</ele>
        <time>2017-09-08T13:35:01.1Z</time>
      </trkpt>
      <trkpt lat="45.86804" lon="4.73186">
        <ele>277</ele>
        <time>2017-09-08T13:35:03.1Z</time>
      </trkpt>
      <trkpt lat="45.868" lon="4.73186">
        <ele>277</ele>
        <time>2017-09-08T13:35:05.1Z</time>
      </trkpt>
      <trkpt lat="45.86795" lon="4.73186">
        <ele>277</ele>
        <time>2017-09-08T13:35:07.1Z</time>
      </trkpt>
      <trkpt lat="45.8679" lon="4.73187">
        <ele>278</ele>
        <time>2017-09-08T13:35:09.1Z</time>
      </trkpt>
      <trkpt lat="45.86787" lon="4.73187">
        <ele>278</ele>
        <time>2017-09-08T13:35:10.1Z</time>
      </trkpt>
      <trkpt lat="45.86785" lon="4.73188">
        <ele>278</ele>
        <time>2017-09-08T13:35:11.1Z</time>
      </trkpt>
      <trkpt lat="45.86782" lon="4.73188">
        <ele>278</ele>
        <time>2017-09-08T13:35:13.1Z</time>
      </trkpt>
      <trkpt lat="45.86777" lon="4.73189">
        <ele>279</ele>
        <time>2017-09-08T13:35:14.1Z</time>
      </trkpt>
      <trkpt lat="45.86772" lon="4.7319">
        <ele>279</ele>
        <time>2017-09-08T13:35:16.1Z</time>
      </trkpt>
      <trkpt lat="45.86767" lon="4.73191">
        <ele>279</ele>
        <time>2017-09-08T13:35:18.1Z</time>
      </trkpt>
      <trkpt lat="45.86762" lon="4.73191">
        <ele>279</ele>
        <time>2017-09-08T13:35:20.1Z</time>
      </trkpt>
      <trkpt lat="45.86757" lon="4.73192">
        <ele>279</ele>
        <time>2017-09-08T13:35:22.1Z</time>
      </trkpt>
      <trkpt lat="45.86752" lon="4.73193">
        <ele>280</ele>
        <time>2017-09-08T13:35:24.1Z</time>
      </trkpt>
      <trkpt lat="45.86746" lon="4.73193">
        <ele>280</ele>
        <time>2017-09-08T13:35:26.1Z</time>
      </trkpt>
      <trkpt lat="45.86743" lon="4.73194">
        <ele>280</ele>
        <time>2017-09-08T13:35:27.1Z</time>
      </trkpt>
      <trkpt lat="45.8674" lon="4.73194">
        <ele>281</ele>
        <time>2017-09-08T13:35:28.1Z</time>
      </trkpt>
      <trkpt lat="45.86737" lon="4.73194">
        <ele>281</ele>
        <time>2017-09-08T13:35:30.1Z</time>
      </trkpt>
      <trkpt lat="45.86732" lon="4.73194">
        <ele>281</ele>
        <time>2017-09-08T13:35:31.1Z</time>
      </trkpt>
      <trkpt lat="45.86726" lon="4.73194">
        <ele>281</ele>
        <time>2017-09-08T13:35:33.1Z</time>
      </trkpt>
      <trkpt lat="45.86721" lon="4.73194">
        <ele>282</ele>
        <time>2017-09-08T13:35:35.1Z</time>
      </trkpt>
      <trkpt lat="45.86718" lon="4.73194">
        <ele>282</ele>
        <time>2017-09-08T13:35:36.1Z</time>
      </trkpt>
      <trkpt lat="45.86712" lon="4.73194">
        <ele>282</ele>
        <time>2017-09-08T13:35:38.1Z</time>
      </trkpt>
      <trkpt lat="45.86707" lon="4.73194">
        <ele>283</ele>
        <time>2017-09-08T13:35:40.1Z</time>
      </trkpt>
      <trkpt lat="45.86704" lon="4.73194">
        <ele>283</ele>
        <time>2017-09-08T13:35:41.1Z</time>
      </trkpt>
      <trkpt lat="45.86698" lon="4.73194">
        <ele>283</ele>
        <time>2017-09-08T13:35:43.1Z</time>
      </trkpt>
      <trkpt lat="45.86695" lon="4.73193">
        <ele>283</ele>
        <time>2017-09-08T13:35:44.1Z</time>
      </trkpt>
      <trkpt lat="45.86692" lon="4.73192">
        <ele>283</ele>
        <time>2017-09-08T13:35:46.1Z</time>
      </trkpt>
      <trkpt lat="45.86686" lon="4.73191">
        <ele>283</ele>
        <time>2017-09-08T13:35:47.1Z</time>
      </trkpt>
      <trkpt lat="45.86683" lon="4.73191">
        <ele>284</ele>
        <time>2017-09-08T13:35:48.1Z</time>
      </trkpt>
      <trkpt lat="45.86677" lon="4.7319">
        <ele>284</ele>
        <time>2017-09-08T13:35:50.1Z</time>
      </trkpt>
      <trkpt lat="45.86671" lon="4.73189">
        <ele>284</ele>
        <time>2017-09-08T13:35:52.1Z</time>
      </trkpt>
      <trkpt lat="45.86665" lon="4.73188">
        <ele>284</ele>
        <time>2017-09-08T13:35:54.1Z</time>
      </trkpt>
      <trkpt lat="45.86662" lon="4.73187">
        <ele>284</ele>
        <time>2017-09-08T13:35:55.1Z</time>
      </trkpt>
      <trkpt lat="45.86656" lon="4.73186">
        <ele>284</ele>
        <time>2017-09-08T13:35:57.1Z</time>
      </trkpt>
      <trkpt lat="45.86649" lon="4.73185">
        <ele>284</ele>
        <time>2017-09-08T13:35:59.1Z</time>
      </trkpt>
      <trkpt lat="45.86646" lon="4.73184">
        <ele>284</ele>
        <time>2017-09-08T13:36:00.1Z</time>
      </trkpt>
      <trkpt lat="45.86639" lon="4.73183">
        <ele>285</ele>
        <time>2017-09-08T13:36:02.1Z</time>
      </trkpt>
      <trkpt lat="45.86632" lon="4.73183">
        <ele>285</ele>
        <time>2017-09-08T13:36:04.1Z</time>
      </trkpt>
      <trkpt lat="45.86628" lon="4.73182">
        <ele>285</ele>
        <time>2017-09-08T13:36:05.1Z</time>
      </trkpt>
      <trkpt lat="45.86625" lon="4.73182">
        <ele>285</ele>
        <time>2017-09-08T13:36:06.1Z</time>
      </trkpt>
      <trkpt lat="45.86621" lon="4.73182">
        <ele>285</ele>
        <time>2017-09-08T13:36:07.1Z</time>
      </trkpt>
      <trkpt lat="45.86617" lon="4.73182">
        <ele>285</ele>
        <time>2017-09-08T13:36:08.1Z</time>
      </trkpt>
      <trkpt lat="45.86613" lon="4.73182">
        <ele>285</ele>
        <time>2017-09-08T13:36:09.1Z</time>
      </trkpt>
      <trkpt lat="45.8661" lon="4.73181">
        <ele>285</ele>
        <time>2017-09-08T13:36:10.1Z</time>
      </trkpt>
      <trkpt lat="45.86607" lon="4.73181">
        <ele>285</ele>
        <time>2017-09-08T13:36:11.1Z</time>
      </trkpt>
      <trkpt lat="45.86604" lon="4.7318">
        <ele>285</ele>
        <time>2017-09-08T13:36:12.1Z</time>
      </trkpt>
      <trkpt lat="45.86601" lon="4.7318">
        <ele>285</ele>
        <time>2017-09-08T13:36:13.1Z</time>
      </trkpt>
      <trkpt lat="45.86599" lon="4.7318">
        <ele>285</ele>
        <time>2017-09-08T13:36:14.1Z</time>
      </trkpt>
      <trkpt lat="45.86597" lon="4.7318">
        <ele>285</ele>
        <time>2017-09-08T13:36:16.1Z</time>
      </trkpt>
      <trkpt lat="45.86594" lon="4.7318">
        <ele>285</ele>
        <time>2017-09-08T13:36:17.1Z</time>
      </trkpt>
      <trkpt lat="45.86592" lon="4.7318">
        <ele>285</ele>
        <time>2017-09-08T13:36:18.1Z</time>
      </trkpt>
      <trkpt lat="45.86588" lon="4.73181">
        <ele>285</ele>
        <time>2017-09-08T13:36:19.1Z</time>
      </trkpt>
      <trkpt lat="45.86585" lon="4.73183">
        <ele>286</ele>
        <time>2017-09-08T13:36:21.1Z</time>
      </trkpt>
      <trkpt lat="45.86585" lon="4.73183">
        <ele>286</ele>
        <time>2017-09-08T13:36:22.1Z</time>
      </trkpt>
      <trkpt lat="45.86584" lon="4.73183">
        <ele>286</ele>
        <time>2017-09-08T13:36:25.1Z</time>
      </trkpt>
      <trkpt lat="45.86584" lon="4.73183">
        <ele>286</ele>
        <time>2017-09-08T13:36:27.1Z</time>
      </trkpt>
      <trkpt lat="45.86587" lon="4.73177">
        <ele>286</ele>
        <time>2017-09-08T13:36:29.1Z</time>
      </trkpt>
      <trkpt lat="45.86588" lon="4.73172">
        <ele>286</ele>
        <time>2017-09-08T13:36:31.1Z</time>
      </trkpt>
      <trkpt lat="45.86586" lon="4.73169">
        <ele>286</ele>
        <time>2017-09-08T13:36:32.1Z</time>
      </trkpt>
      <trkpt lat="45.86582" lon="4.73163">
        <ele>286</ele>
        <time>2017-09-08T13:36:34.1Z</time>
      </trkpt>
      <trkpt lat="45.86579" lon="4.73159">
        <ele>286</ele>
        <time>2017-09-08T13:36:35.1Z</time>
      </trkpt>
      <trkpt lat="45.86577" lon="4.73155">
        <ele>286</ele>
        <time>2017-09-08T13:36:36.1Z</time>
      </trkpt>
      <trkpt lat="45.8657" lon="4.73147">
        <ele>286</ele>
        <time>2017-09-08T13:36:38.1Z</time>
      </trkpt>
      <trkpt lat="45.86563" lon="4.73139">
        <ele>287</ele>
        <time>2017-09-08T13:36:40.1Z</time>
      </trkpt>
      <trkpt lat="45.86556" lon="4.73132">
        <ele>287</ele>
        <time>2017-09-08T13:36:42.1Z</time>
      </trkpt>
      <trkpt lat="45.86548" lon="4.73125">
        <ele>287</ele>
        <time>2017-09-08T13:36:44.1Z</time>
      </trkpt>
      <trkpt lat="45.86539" lon="4.73118">
        <ele>287</ele>
        <time>2017-09-08T13:36:46.1Z</time>
      </trkpt>
      <trkpt lat="45.86535" lon="4.73115">
        <ele>287</ele>
        <time>2017-09-08T13:36:47.1Z</time>
      </trkpt>
      <trkpt lat="45.86527" lon="4.73108">
        <ele>287</ele>
        <time>2017-09-08T13:36:49.1Z</time>
      </trkpt>
      <trkpt lat="45.86518" lon="4.73102">
        <ele>288</ele>
        <time>2017-09-08T13:36:51.1Z</time>
      </trkpt>
      <trkpt lat="45.86514" lon="4.73098">
        <ele>288</ele>
        <time>2017-09-08T13:36:52.1Z</time>
      </trkpt>
      <trkpt lat="45.86506" lon="4.73093">
        <ele>288</ele>
        <time>2017-09-08T13:36:54.1Z</time>
      </trkpt>
      <trkpt lat="45.86501" lon="4.73091">
        <ele>289</ele>
        <time>2017-09-08T13:36:55.1Z</time>
      </trkpt>
      <trkpt lat="45.86485" lon="4.73084">
        <ele>290</ele>
        <time>2017-09-08T13:36:57.1Z</time>
      </trkpt>
      <trkpt lat="45.86483" lon="4.73082">
        <ele>290</ele>
        <time>2017-09-08T13:36:58.1Z</time>
      </trkpt>
      <trkpt lat="45.86473" lon="4.73078">
        <ele>290</ele>
        <time>2017-09-08T13:37:01.1Z</time>
      </trkpt>
      <trkpt lat="45.86467" lon="4.73075">
        <ele>291</ele>
        <time>2017-09-08T13:37:03.1Z</time>
      </trkpt>
      <trkpt lat="45.8646" lon="4.73072">
        <ele>291</ele>
        <time>2017-09-08T13:37:05.1Z</time>
      </trkpt>
      <trkpt lat="45.86454" lon="4.73069">
        <ele>292</ele>
        <time>2017-09-08T13:37:07.1Z</time>
      </trkpt>
      <trkpt lat="45.86451" lon="4.73068">
        <ele>292</ele>
        <time>2017-09-08T13:37:08.1Z</time>
      </trkpt>
      <trkpt lat="45.86446" lon="4.73066">
        <ele>292</ele>
        <time>2017-09-08T13:37:10.1Z</time>
      </trkpt>
      <trkpt lat="45.86439" lon="4.73064">
        <ele>292</ele>
        <time>2017-09-08T13:37:12.1Z</time>
      </trkpt>
      <trkpt lat="45.86433" lon="4.73062">
        <ele>293</ele>
        <time>2017-09-08T13:37:14.1Z</time>
      </trkpt>
      <trkpt lat="45.86427" lon="4.7306">
        <ele>293</ele>
        <time>2017-09-08T13:37:16.1Z</time>
      </trkpt>
      <trkpt lat="45.86424" lon="4.73058">
        <ele>293</ele>
        <time>2017-09-08T13:37:17.1Z</time>
      </trkpt>
      <trkpt lat="45.86418" lon="4.73056">
        <ele>294</ele>
        <time>2017-09-08T13:37:19.1Z</time>
      </trkpt>
      <trkpt lat="45.86412" lon="4.73055">
        <ele>294</ele>
        <time>2017-09-08T13:37:21.1Z</time>
      </trkpt>
      <trkpt lat="45.86409" lon="4.73054">
        <ele>295</ele>
        <time>2017-09-08T13:37:22.1Z</time>
      </trkpt>
      <trkpt lat="45.86406" lon="4.73053">
        <ele>295</ele>
        <time>2017-09-08T13:37:23.1Z</time>
      </trkpt>
      <trkpt lat="45.86404" lon="4.73052">
        <ele>295</ele>
        <time>2017-09-08T13:37:24.1Z</time>
      </trkpt>
      <trkpt lat="45.86398" lon="4.73051">
        <ele>296</ele>
        <time>2017-09-08T13:37:26.1Z</time>
      </trkpt>
      <trkpt lat="45.86395" lon="4.7305">
        <ele>296</ele>
        <time>2017-09-08T13:37:27.1Z</time>
      </trkpt>
      <trkpt lat="45.8639" lon="4.73049">
        <ele>296</ele>
        <time>2017-09-08T13:37:29.1Z</time>
      </trkpt>
      <trkpt lat="45.86387" lon="4.73048">
        <ele>296</ele>
        <time>2017-09-08T13:37:30.1Z</time>
      </trkpt>
      <trkpt lat="45.86381" lon="4.73047">
        <ele>297</ele>
        <time>2017-09-08T13:37:32.1Z</time>
      </trkpt>
      <trkpt lat="45.86375" lon="4.73045">
        <ele>297</ele>
        <time>2017-09-08T13:37:34.1Z</time>
      </trkpt>
      <trkpt lat="45.86372" lon="4.73044">
        <ele>297</ele>
        <time>2017-09-08T13:37:35.1Z</time>
      </trkpt>
      <trkpt lat="45.86367" lon="4.73042">
        <ele>298</ele>
        <time>2017-09-08T13:37:37.1Z</time>
      </trkpt>
      <trkpt lat="45.86364" lon="4.73041">
        <ele>298</ele>
        <time>2017-09-08T13:37:38.1Z</time>
      </trkpt>
      <trkpt lat="45.86361" lon="4.73041">
        <ele>298</ele>
        <time>2017-09-08T13:37:39.1Z</time>
      </trkpt>
      <trkpt lat="45.86358" lon="4.7304">
        <ele>298</ele>
        <time>2017-09-08T13:37:40.1Z</time>
      </trkpt>
      <trkpt lat="45.86352" lon="4.73038">
        <ele>299</ele>
        <time>2017-09-08T13:37:42.1Z</time>
      </trkpt>
      <trkpt lat="45.86346" lon="4.73035">
        <ele>299</ele>
        <time>2017-09-08T13:37:44.1Z</time>
      </trkpt>
      <trkpt lat="45.86343" lon="4.73034">
        <ele>299</ele>
        <time>2017-09-08T13:37:45.1Z</time>
      </trkpt>
      <trkpt lat="45.8634" lon="4.73033">
        <ele>300</ele>
        <time>2017-09-08T13:37:46.1Z</time>
      </trkpt>
      <trkpt lat="45.86335" lon="4.73031">
        <ele>300</ele>
        <time>2017-09-08T13:37:48.1Z</time>
      </trkpt>
      <trkpt lat="45.86332" lon="4.7303">
        <ele>300</ele>
        <time>2017-09-08T13:37:49.1Z</time>
      </trkpt>
      <trkpt lat="45.86329" lon="4.73029">
        <ele>300</ele>
        <time>2017-09-08T13:37:50.1Z</time>
      </trkpt>
      <trkpt lat="45.86323" lon="4.73028">
        <ele>300</ele>
        <time>2017-09-08T13:37:52.1Z</time>
      </trkpt>
      <trkpt lat="45.8632" lon="4.73027">
        <ele>300</ele>
        <time>2017-09-08T13:37:53.1Z</time>
      </trkpt>
      <trkpt lat="45.86315" lon="4.73027">
        <ele>301</ele>
        <time>2017-09-08T13:37:55.1Z</time>
      </trkpt>
      <trkpt lat="45.86309" lon="4.73026">
        <ele>301</ele>
        <time>2017-09-08T13:37:57.1Z</time>
      </trkpt>
      <trkpt lat="45.86306" lon="4.73025">
        <ele>301</ele>
        <time>2017-09-08T13:37:58.1Z</time>
      </trkpt>
      <trkpt lat="45.86303" lon="4.73025">
        <ele>301</ele>
        <time>2017-09-08T13:37:59.1Z</time>
      </trkpt>
      <trkpt lat="45.86301" lon="4.73024">
        <ele>301</ele>
        <time>2017-09-08T13:38:00.1Z</time>
      </trkpt>
      <trkpt lat="45.86295" lon="4.73024">
        <ele>302</ele>
        <time>2017-09-08T13:38:02.1Z</time>
      </trkpt>
      <trkpt lat="45.86292" lon="4.73024">
        <ele>302</ele>
        <time>2017-09-08T13:38:03.1Z</time>
      </trkpt>
      <trkpt lat="45.86285" lon="4.73024">
        <ele>302</ele>
        <time>2017-09-08T13:38:05.1Z</time>
      </trkpt>
      <trkpt lat="45.8628" lon="4.73023">
        <ele>302</ele>
        <time>2017-09-08T13:38:07.1Z</time>
      </trkpt>
      <trkpt lat="45.86273" lon="4.73023">
        <ele>302</ele>
        <time>2017-09-08T13:38:09.1Z</time>
      </trkpt>
      <trkpt lat="45.86267" lon="4.73023">
        <ele>303</ele>
        <time>2017-09-08T13:38:11.1Z</time>
      </trkpt>
      <trkpt lat="45.86261" lon="4.73023">
        <ele>303</ele>
        <time>2017-09-08T13:38:13.1Z</time>
      </trkpt>
      <trkpt lat="45.86257" lon="4.73023">
        <ele>303</ele>
        <time>2017-09-08T13:38:14.1Z</time>
      </trkpt>
      <trkpt lat="45.86254" lon="4.73023">
        <ele>303</ele>
        <time>2017-09-08T13:38:15.1Z</time>
      </trkpt>
      <trkpt lat="45.8625" lon="4.73023">
        <ele>304</ele>
        <time>2017-09-08T13:38:16.1Z</time>
      </trkpt>
      <trkpt lat="45.86243" lon="4.73022">
        <ele>304</ele>
        <time>2017-09-08T13:38:18.1Z</time>
      </trkpt>
      <trkpt lat="45.86237" lon="4.73023">
        <ele>304</ele>
        <time>2017-09-08T13:38:20.1Z</time>
      </trkpt>
      <trkpt lat="45.86229" lon="4.73022">
        <ele>304</ele>
        <time>2017-09-08T13:38:22.1Z</time>
      </trkpt>
      <trkpt lat="45.86222" lon="4.73022">
        <ele>304</ele>
        <time>2017-09-08T13:38:24.1Z</time>
      </trkpt>
      <trkpt lat="45.86219" lon="4.73022">
        <ele>304</ele>
        <time>2017-09-08T13:38:25.1Z</time>
      </trkpt>
      <trkpt lat="45.86211" lon="4.73022">
        <ele>304</ele>
        <time>2017-09-08T13:38:27.1Z</time>
      </trkpt>
      <trkpt lat="45.86205" lon="4.73022">
        <ele>304</ele>
        <time>2017-09-08T13:38:29.1Z</time>
      </trkpt>
      <trkpt lat="45.86198" lon="4.73022">
        <ele>304</ele>
        <time>2017-09-08T13:38:31.1Z</time>
      </trkpt>
      <trkpt lat="45.86194" lon="4.73022">
        <ele>304</ele>
        <time>2017-09-08T13:38:32.1Z</time>
      </trkpt>
      <trkpt lat="45.86187" lon="4.73022">
        <ele>304</ele>
        <time>2017-09-08T13:38:34.1Z</time>
      </trkpt>
      <trkpt lat="45.86179" lon="4.73022">
        <ele>304</ele>
        <time>2017-09-08T13:38:36.1Z</time>
      </trkpt>
      <trkpt lat="45.86172" lon="4.73021">
        <ele>304</ele>
        <time>2017-09-08T13:38:38.1Z</time>
      </trkpt>
      <trkpt lat="45.86169" lon="4.73021">
        <ele>305</ele>
        <time>2017-09-08T13:38:39.1Z</time>
      </trkpt>
      <trkpt lat="45.86162" lon="4.73022">
        <ele>305</ele>
        <time>2017-09-08T13:38:41.1Z</time>
      </trkpt>
      <trkpt lat="45.86156" lon="4.73021">
        <ele>305</ele>
        <time>2017-09-08T13:38:43.1Z</time>
      </trkpt>
      <trkpt lat="45.86149" lon="4.73021">
        <ele>306</ele>
        <time>2017-09-08T13:38:45.1Z</time>
      </trkpt>
      <trkpt lat="45.86145" lon="4.73021">
        <ele>306</ele>
        <time>2017-09-08T13:38:46.1Z</time>
      </trkpt>
      <trkpt lat="45.86142" lon="4.73021">
        <ele>306</ele>
        <time>2017-09-08T13:38:47.1Z</time>
      </trkpt>
      <trkpt lat="45.86138" lon="4.73022">
        <ele>306</ele>
        <time>2017-09-08T13:38:48.1Z</time>
      </trkpt>
      <trkpt lat="45.86132" lon="4.73023">
        <ele>306</ele>
        <time>2017-09-08T13:38:50.1Z</time>
      </trkpt>
      <trkpt lat="45.86125" lon="4.73025">
        <ele>307</ele>
        <time>2017-09-08T13:38:52.1Z</time>
      </trkpt>
      <trkpt lat="45.86122" lon="4.73026">
        <ele>307</ele>
        <time>2017-09-08T13:38:53.1Z</time>
      </trkpt>
      <trkpt lat="45.86115" lon="4.73027">
        <ele>307</ele>
        <time>2017-09-08T13:38:55.1Z</time>
      </trkpt>
      <trkpt lat="45.86109" lon="4.73029">
        <ele>308</ele>
        <time>2017-09-08T13:38:57.1Z</time>
      </trkpt>
      <trkpt lat="45.86103" lon="4.73031">
        <ele>308</ele>
        <time>2017-09-08T13:38:59.1Z</time>
      </trkpt>
      <trkpt lat="45.86097" lon="4.73033">
        <ele>308</ele>
        <time>2017-09-08T13:39:01.1Z</time>
      </trkpt>
      <trkpt lat="45.86091" lon="4.73034">
        <ele>309</ele>
        <time>2017-09-08T13:39:03.1Z</time>
      </trkpt>
      <trkpt lat="45.86088" lon="4.73035">
        <ele>309</ele>
        <time>2017-09-08T13:39:04.1Z</time>
      </trkpt>
      <trkpt lat="45.86085" lon="4.73037">
        <ele>309</ele>
        <time>2017-09-08T13:39:05.1Z</time>
      </trkpt>
      <trkpt lat="45.86079" lon="4.73038">
        <ele>309</ele>
        <time>2017-09-08T13:39:07.1Z</time>
      </trkpt>
      <trkpt lat="45.86076" lon="4.73039">
        <ele>310</ele>
        <time>2017-09-08T13:39:08.1Z</time>
      </trkpt>
      <trkpt lat="45.86071" lon="4.73041">
        <ele>310</ele>
        <time>2017-09-08T13:39:10.1Z</time>
      </trkpt>
      <trkpt lat="45.86065" lon="4.73043">
        <ele>310</ele>
        <time>2017-09-08T13:39:12.1Z</time>
      </trkpt>
      <trkpt lat="45.86063" lon="4.73043">
        <ele>310</ele>
        <time>2017-09-08T13:39:13.1Z</time>
      </trkpt>
      <trkpt lat="45.86057" lon="4.73045">
        <ele>311</ele>
        <time>2017-09-08T13:39:15.1Z</time>
      </trkpt>
      <trkpt lat="45.86051" lon="4.73046">
        <ele>311</ele>
        <time>2017-09-08T13:39:17.1Z</time>
      </trkpt>
      <trkpt lat="45.86045" lon="4.73048">
        <ele>311</ele>
        <time>2017-09-08T13:39:19.1Z</time>
      </trkpt>
      <trkpt lat="45.86043" lon="4.73049">
        <ele>312</ele>
        <time>2017-09-08T13:39:20.1Z</time>
      </trkpt>
      <trkpt lat="45.8604" lon="4.7305">
        <ele>312</ele>
        <time>2017-09-08T13:39:21.1Z</time>
      </trkpt>
      <trkpt lat="45.86034" lon="4.73052">
        <ele>312</ele>
        <time>2017-09-08T13:39:23.1Z</time>
      </trkpt>
      <trkpt lat="45.86032" lon="4.73053">
        <ele>312</ele>
        <time>2017-09-08T13:39:24.1Z</time>
      </trkpt>
      <trkpt lat="45.86026" lon="4.73054">
        <ele>312</ele>
        <time>2017-09-08T13:39:26.1Z</time>
      </trkpt>
      <trkpt lat="45.86021" lon="4.73056">
        <ele>312</ele>
        <time>2017-09-08T13:39:28.1Z</time>
      </trkpt>
      <trkpt lat="45.86016" lon="4.73058">
        <ele>313</ele>
        <time>2017-09-08T13:39:30.1Z</time>
      </trkpt>
      <trkpt lat="45.86011" lon="4.7306">
        <ele>313</ele>
        <time>2017-09-08T13:39:32.1Z</time>
      </trkpt>
      <trkpt lat="45.86008" lon="4.73061">
        <ele>313</ele>
        <time>2017-09-08T13:39:33.1Z</time>
      </trkpt>
      <trkpt lat="45.86003" lon="4.73062">
        <ele>314</ele>
        <time>2017-09-08T13:39:35.1Z</time>
      </trkpt>
      <trkpt lat="45.86" lon="4.73063">
        <ele>314</ele>
        <time>2017-09-08T13:39:36.1Z</time>
      </trkpt>
      <trkpt lat="45.85997" lon="4.73064">
        <ele>314</ele>
        <time>2017-09-08T13:39:37.1Z</time>
      </trkpt>
      <trkpt lat="45.85991" lon="4.73065">
        <ele>314</ele>
        <time>2017-09-08T13:39:39.1Z</time>
      </trkpt>
      <trkpt lat="45.85985" lon="4.73067">
        <ele>314</ele>
        <time>2017-09-08T13:39:41.1Z</time>
      </trkpt>
      <trkpt lat="45.85982" lon="4.73068">
        <ele>315</ele>
        <time>2017-09-08T13:39:42.1Z</time>
      </trkpt>
      <trkpt lat="45.85976" lon="4.73069">
        <ele>315</ele>
        <time>2017-09-08T13:39:44.1Z</time>
      </trkpt>
      <trkpt lat="45.85971" lon="4.73071">
        <ele>315</ele>
        <time>2017-09-08T13:39:46.1Z</time>
      </trkpt>
      <trkpt lat="45.85966" lon="4.73072">
        <ele>315</ele>
        <time>2017-09-08T13:39:48.1Z</time>
      </trkpt>
      <trkpt lat="45.8596" lon="4.73074">
        <ele>315</ele>
        <time>2017-09-08T13:39:50.1Z</time>
      </trkpt>
      <trkpt lat="45.85954" lon="4.73075">
        <ele>316</ele>
        <time>2017-09-08T13:39:52.1Z</time>
      </trkpt>
      <trkpt lat="45.85951" lon="4.73076">
        <ele>316</ele>
        <time>2017-09-08T13:39:53.1Z</time>
      </trkpt>
      <trkpt lat="45.85949" lon="4.73077">
        <ele>316</ele>
        <time>2017-09-08T13:39:54.1Z</time>
      </trkpt>
      <trkpt lat="45.85943" lon="4.73079">
        <ele>316</ele>
        <time>2017-09-08T13:39:56.1Z</time>
      </trkpt>
      <trkpt lat="45.85938" lon="4.73081">
        <ele>317</ele>
        <time>2017-09-08T13:39:58.1Z</time>
      </trkpt>
      <trkpt lat="45.85932" lon="4.73082">
        <ele>317</ele>
        <time>2017-09-08T13:40:00.1Z</time>
      </trkpt>
      <trkpt lat="45.85926" lon="4.73085">
        <ele>317</ele>
        <time>2017-09-08T13:40:02.1Z</time>
      </trkpt>
      <trkpt lat="45.8592" lon="4.73087">
        <ele>318</ele>
        <time>2017-09-08T13:40:04.1Z</time>
      </trkpt>
      <trkpt lat="45.85913" lon="4.73088">
        <ele>318</ele>
        <time>2017-09-08T13:40:06.1Z</time>
      </trkpt>
      <trkpt lat="45.85907" lon="4.7309">
        <ele>318</ele>
        <time>2017-09-08T13:40:08.1Z</time>
      </trkpt>
      <trkpt lat="45.85904" lon="4.73091">
        <ele>318</ele>
        <time>2017-09-08T13:40:09.1Z</time>
      </trkpt>
      <trkpt lat="45.85901" lon="4.73092">
        <ele>318</ele>
        <time>2017-09-08T13:40:10.1Z</time>
      </trkpt>
      <trkpt lat="45.85898" lon="4.73093">
        <ele>318</ele>
        <time>2017-09-08T13:40:11.1Z</time>
      </trkpt>
      <trkpt lat="45.85892" lon="4.73095">
        <ele>318</ele>
        <time>2017-09-08T13:40:13.1Z</time>
      </trkpt>
      <trkpt lat="45.85886" lon="4.73097">
        <ele>318</ele>
        <time>2017-09-08T13:40:15.1Z</time>
      </trkpt>
      <trkpt lat="45.8588" lon="4.73098">
        <ele>319</ele>
        <time>2017-09-08T13:40:17.1Z</time>
      </trkpt>
      <trkpt lat="45.85873" lon="4.731">
        <ele>319</ele>
        <time>2017-09-08T13:40:19.1Z</time>
      </trkpt>
      <trkpt lat="45.85867" lon="4.73102">
        <ele>319</ele>
        <time>2017-09-08T13:40:21.1Z</time>
      </trkpt>
      <trkpt lat="45.85862" lon="4.73103">
        <ele>319</ele>
        <time>2017-09-08T13:40:23.1Z</time>
      </trkpt>
      <trkpt lat="45.85859" lon="4.73104">
        <ele>319</ele>
        <time>2017-09-08T13:40:24.1Z</time>
      </trkpt>
      <trkpt lat="45.85853" lon="4.73106">
        <ele>319</ele>
        <time>2017-09-08T13:40:26.1Z</time>
      </trkpt>
      <trkpt lat="45.8585" lon="4.73107">
        <ele>320</ele>
        <time>2017-09-08T13:40:27.1Z</time>
      </trkpt>
      <trkpt lat="45.85847" lon="4.73109">
        <ele>320</ele>
        <time>2017-09-08T13:40:28.1Z</time>
      </trkpt>
      <trkpt lat="45.85842" lon="4.73111">
        <ele>320</ele>
        <time>2017-09-08T13:40:30.1Z</time>
      </trkpt>
      <trkpt lat="45.85836" lon="4.73114">
        <ele>321</ele>
        <time>2017-09-08T13:40:32.1Z</time>
      </trkpt>
      <trkpt lat="45.85831" lon="4.73118">
        <ele>321</ele>
        <time>2017-09-08T13:40:34.1Z</time>
      </trkpt>
      <trkpt lat="45.85826" lon="4.73123">
        <ele>322</ele>
        <time>2017-09-08T13:40:36.1Z</time>
      </trkpt>
      <trkpt lat="45.85823" lon="4.73125">
        <ele>322</ele>
        <time>2017-09-08T13:40:37.1Z</time>
      </trkpt>
      <trkpt lat="45.85818" lon="4.73129">
        <ele>322</ele>
        <time>2017-09-08T13:40:39.1Z</time>
      </trkpt>
      <trkpt lat="45.85814" lon="4.73133">
        <ele>323</ele>
        <time>2017-09-08T13:40:41.1Z</time>
      </trkpt>
      <trkpt lat="45.85811" lon="4.73134">
        <ele>323</ele>
        <time>2017-09-08T13:40:42.1Z</time>
      </trkpt>
      <trkpt lat="45.85809" lon="4.73136">
        <ele>323</ele>
        <time>2017-09-08T13:40:43.1Z</time>
      </trkpt>
      <trkpt lat="45.85804" lon="4.7314">
        <ele>323</ele>
        <time>2017-09-08T13:40:45.1Z</time>
      </trkpt>
      <trkpt lat="45.85798" lon="4.73143">
        <ele>323</ele>
        <time>2017-09-08T13:40:47.1Z</time>
      </trkpt>
      <trkpt lat="45.85796" lon="4.73145">
        <ele>323</ele>
        <time>2017-09-08T13:40:48.1Z</time>
      </trkpt>
      <trkpt lat="45.85791" lon="4.73149">
        <ele>323</ele>
        <time>2017-09-08T13:40:50.1Z</time>
      </trkpt>
      <trkpt lat="45.85787" lon="4.73152">
        <ele>324</ele>
        <time>2017-09-08T13:40:52.1Z</time>
      </trkpt>
      <trkpt lat="45.85784" lon="4.73153">
        <ele>324</ele>
        <time>2017-09-08T13:40:53.1Z</time>
      </trkpt>
      <trkpt lat="45.85778" lon="4.73157">
        <ele>324</ele>
        <time>2017-09-08T13:40:55.1Z</time>
      </trkpt>
      <trkpt lat="45.85773" lon="4.7316">
        <ele>324</ele>
        <time>2017-09-08T13:40:57.1Z</time>
      </trkpt>
      <trkpt lat="45.8577" lon="4.73162">
        <ele>324</ele>
        <time>2017-09-08T13:40:58.1Z</time>
      </trkpt>
      <trkpt lat="45.85764" lon="4.73165">
        <ele>324</ele>
        <time>2017-09-08T13:41:00.1Z</time>
      </trkpt>
      <trkpt lat="45.85758" lon="4.73169">
        <ele>324</ele>
        <time>2017-09-08T13:41:02.1Z</time>
      </trkpt>
      <trkpt lat="45.85754" lon="4.73171">
        <ele>324</ele>
        <time>2017-09-08T13:41:03.1Z</time>
      </trkpt>
      <trkpt lat="45.85748" lon="4.73175">
        <ele>325</ele>
        <time>2017-09-08T13:41:05.1Z</time>
      </trkpt>
      <trkpt lat="45.85741" lon="4.7318">
        <ele>325</ele>
        <time>2017-09-08T13:41:07.1Z</time>
      </trkpt>
      <trkpt lat="45.85734" lon="4.73186">
        <ele>325</ele>
        <time>2017-09-08T13:41:09.1Z</time>
      </trkpt>
      <trkpt lat="45.85726" lon="4.73191">
        <ele>325</ele>
        <time>2017-09-08T13:41:11.1Z</time>
      </trkpt>
      <trkpt lat="45.85718" lon="4.73198">
        <ele>325</ele>
        <time>2017-09-08T13:41:13.1Z</time>
      </trkpt>
      <trkpt lat="45.85714" lon="4.73201">
        <ele>325</ele>
        <time>2017-09-08T13:41:14.1Z</time>
      </trkpt>
      <trkpt lat="45.8571" lon="4.73204">
        <ele>325</ele>
        <time>2017-09-08T13:41:15.1Z</time>
      </trkpt>
      <trkpt lat="45.85701" lon="4.73211">
        <ele>325</ele>
        <time>2017-09-08T13:41:17.1Z</time>
      </trkpt>
      <trkpt lat="45.85693" lon="4.73217">
        <ele>326</ele>
        <time>2017-09-08T13:41:19.1Z</time>
      </trkpt>
      <trkpt lat="45.85684" lon="4.73223">
        <ele>326</ele>
        <time>2017-09-08T13:41:21.1Z</time>
      </trkpt>
      <trkpt lat="45.85675" lon="4.73228">
        <ele>326</ele>
        <time>2017-09-08T13:41:23.1Z</time>
      </trkpt>
      <trkpt lat="45.85671" lon="4.73231">
        <ele>326</ele>
        <time>2017-09-08T13:41:24.1Z</time>
      </trkpt>
      <trkpt lat="45.85662" lon="4.73236">
        <ele>326</ele>
        <time>2017-09-08T13:41:26.1Z</time>
      </trkpt>
      <trkpt lat="45.85654" lon="4.73241">
        <ele>326</ele>
        <time>2017-09-08T13:41:28.1Z</time>
      </trkpt>
      <trkpt lat="45.85644" lon="4.73246">
        <ele>327</ele>
        <time>2017-09-08T13:41:30.1Z</time>
      </trkpt>
      <trkpt lat="45.8564" lon="4.73248">
        <ele>327</ele>
        <time>2017-09-08T13:41:31.1Z</time>
      </trkpt>
      <trkpt lat="45.85631" lon="4.73252">
        <ele>327</ele>
        <time>2017-09-08T13:41:33.1Z</time>
      </trkpt>
      <trkpt lat="45.85622" lon="4.73257">
        <ele>327</ele>
        <time>2017-09-08T13:41:35.1Z</time>
      </trkpt>
      <trkpt lat="45.85613" lon="4.73261">
        <ele>327</ele>
        <time>2017-09-08T13:41:37.1Z</time>
      </trkpt>
      <trkpt lat="45.85604" lon="4.73265">
        <ele>327</ele>
        <time>2017-09-08T13:41:39.1Z</time>
      </trkpt>
      <trkpt lat="45.85596" lon="4.73269">
        <ele>328</ele>
        <time>2017-09-08T13:41:41.1Z</time>
      </trkpt>
      <trkpt lat="45.85587" lon="4.73273">
        <ele>328</ele>
        <time>2017-09-08T13:41:43.1Z</time>
      </trkpt>
      <trkpt lat="45.85583" lon="4.73275">
        <ele>328</ele>
        <time>2017-09-08T13:41:44.1Z</time>
      </trkpt>
      <trkpt lat="45.85575" lon="4.73278">
        <ele>328</ele>
        <time>2017-09-08T13:41:46.1Z</time>
      </trkpt>
      <trkpt lat="45.85571" lon="4.73279">
        <ele>328</ele>
        <time>2017-09-08T13:41:47.1Z</time>
      </trkpt>
      <trkpt lat="45.85567" lon="4.7328">
        <ele>328</ele>
        <time>2017-09-08T13:41:48.1Z</time>
      </trkpt>
      <trkpt lat="45.85559" lon="4.73283">
        <ele>328</ele>
        <time>2017-09-08T13:41:50.1Z</time>
      </trkpt>
      <trkpt lat="45.85555" lon="4.73285">
        <ele>329</ele>
        <time>2017-09-08T13:41:51.1Z</time>
      </trkpt>
      <trkpt lat="45.85547" lon="4.73289">
        <ele>329</ele>
        <time>2017-09-08T13:41:53.1Z</time>
      </trkpt>
      <trkpt lat="45.85539" lon="4.73294">
        <ele>329</ele>
        <time>2017-09-08T13:41:55.1Z</time>
      </trkpt>
      <trkpt lat="45.85531" lon="4.733">
        <ele>329</ele>
        <time>2017-09-08T13:41:57.1Z</time>
      </trkpt>
      <trkpt lat="45.85527" lon="4.73303">
        <ele>330</ele>
        <time>2017-09-08T13:41:58.1Z</time>
      </trkpt>
      <trkpt lat="45.85519" lon="4.7331">
        <ele>330</ele>
        <time>2017-09-08T13:42:00.1Z</time>
      </trkpt>
      <trkpt lat="45.85509" lon="4.73316">
        <ele>330</ele>
        <time>2017-09-08T13:42:02.1Z</time>
      </trkpt>
      <trkpt lat="45.85505" lon="4.73319">
        <ele>330</ele>
        <time>2017-09-08T13:42:03.1Z</time>
      </trkpt>
      <trkpt lat="45.85494" lon="4.73323">
        <ele>330</ele>
        <time>2017-09-08T13:42:05.1Z</time>
      </trkpt>
      <trkpt lat="45.85483" lon="4.73325">
        <ele>330</ele>
        <time>2017-09-08T13:42:07.1Z</time>
      </trkpt>
      <trkpt lat="45.85477" lon="4.73326">
        <ele>330</ele>
        <time>2017-09-08T13:42:08.1Z</time>
      </trkpt>
      <trkpt lat="45.85472" lon="4.73327">
        <ele>330</ele>
        <time>2017-09-08T13:42:09.1Z</time>
      </trkpt>
      <trkpt lat="45.85467" lon="4.73328">
        <ele>331</ele>
        <time>2017-09-08T13:42:10.1Z</time>
      </trkpt>
      <trkpt lat="45.85457" lon="4.73329">
        <ele>330</ele>
        <time>2017-09-08T13:42:12.1Z</time>
      </trkpt>
      <trkpt lat="45.85452" lon="4.73329">
        <ele>330</ele>
        <time>2017-09-08T13:42:13.1Z</time>
      </trkpt>
      <trkpt lat="45.85446" lon="4.73329">
        <ele>330</ele>
        <time>2017-09-08T13:42:14.1Z</time>
      </trkpt>
      <trkpt lat="45.85434" lon="4.73329">
        <ele>331</ele>
        <time>2017-09-08T13:42:16.1Z</time>
      </trkpt>
      <trkpt lat="45.85428" lon="4.73329">
        <ele>330</ele>
        <time>2017-09-08T13:42:17.1Z</time>
      </trkpt>
      <trkpt lat="45.85416" lon="4.7333">
        <ele>330</ele>
        <time>2017-09-08T13:42:19.1Z</time>
      </trkpt>
      <trkpt lat="45.8541" lon="4.7333">
        <ele>330</ele>
        <time>2017-09-08T13:42:20.1Z</time>
      </trkpt>
      <trkpt lat="45.85397" lon="4.7333">
        <ele>330</ele>
        <time>2017-09-08T13:42:22.1Z</time>
      </trkpt>
      <trkpt lat="45.85385" lon="4.7333">
        <ele>330</ele>
        <time>2017-09-08T13:42:24.1Z</time>
      </trkpt>
      <trkpt lat="45.85379" lon="4.7333">
        <ele>330</ele>
        <time>2017-09-08T13:42:25.1Z</time>
      </trkpt>
      <trkpt lat="45.85366" lon="4.73329">
        <ele>329</ele>
        <time>2017-09-08T13:42:27.1Z</time>
      </trkpt>
      <trkpt lat="45.85353" lon="4.73329">
        <ele>329</ele>
        <time>2017-09-08T13:42:29.1Z</time>
      </trkpt>
      <trkpt lat="45.85341" lon="4.73329">
        <ele>329</ele>
        <time>2017-09-08T13:42:31.1Z</time>
      </trkpt>
      <trkpt lat="45.85335" lon="4.73329">
        <ele>329</ele>
        <time>2017-09-08T13:42:32.1Z</time>
      </trkpt>
      <trkpt lat="45.85329" lon="4.73329">
        <ele>328</ele>
        <time>2017-09-08T13:42:33.1Z</time>
      </trkpt>
      <trkpt lat="45.85317" lon="4.73328">
        <ele>328</ele>
        <time>2017-09-08T13:42:35.1Z</time>
      </trkpt>
      <trkpt lat="45.85305" lon="4.73329">
        <ele>328</ele>
        <time>2017-09-08T13:42:37.1Z</time>
      </trkpt>
      <trkpt lat="45.853" lon="4.73329">
        <ele>328</ele>
        <time>2017-09-08T13:42:38.1Z</time>
      </trkpt>
      <trkpt lat="45.85294" lon="4.73329">
        <ele>328</ele>
        <time>2017-09-08T13:42:39.1Z</time>
      </trkpt>
      <trkpt lat="45.85282" lon="4.73327">
        <ele>328</ele>
        <time>2017-09-08T13:42:41.1Z</time>
      </trkpt>
      <trkpt lat="45.8527" lon="4.73325">
        <ele>328</ele>
        <time>2017-09-08T13:42:43.1Z</time>
      </trkpt>
      <trkpt lat="45.85259" lon="4.73325">
        <ele>328</ele>
        <time>2017-09-08T13:42:45.1Z</time>
      </trkpt>
      <trkpt lat="45.85254" lon="4.73325">
        <ele>328</ele>
        <time>2017-09-08T13:42:46.1Z</time>
      </trkpt>
      <trkpt lat="45.85243" lon="4.73326">
        <ele>328</ele>
        <time>2017-09-08T13:42:48.1Z</time>
      </trkpt>
      <trkpt lat="45.85238" lon="4.73326">
        <ele>328</ele>
        <time>2017-09-08T13:42:49.1Z</time>
      </trkpt>
      <trkpt lat="45.85232" lon="4.73327">
        <ele>328</ele>
        <time>2017-09-08T13:42:50.1Z</time>
      </trkpt>
      <trkpt lat="45.85227" lon="4.73327">
        <ele>328</ele>
        <time>2017-09-08T13:42:51.1Z</time>
      </trkpt>
      <trkpt lat="45.85221" lon="4.73327">
        <ele>328</ele>
        <time>2017-09-08T13:42:52.1Z</time>
      </trkpt>
      <trkpt lat="45.8521" lon="4.73329">
        <ele>328</ele>
        <time>2017-09-08T13:42:54.1Z</time>
      </trkpt>
      <trkpt lat="45.85204" lon="4.73329">
        <ele>328</ele>
        <time>2017-09-08T13:42:55.1Z</time>
      </trkpt>
      <trkpt lat="45.85198" lon="4.7333">
        <ele>329</ele>
        <time>2017-09-08T13:42:56.1Z</time>
      </trkpt>
      <trkpt lat="45.85192" lon="4.7333">
        <ele>329</ele>
        <time>2017-09-08T13:42:57.1Z</time>
      </trkpt>
      <trkpt lat="45.85186" lon="4.73329">
        <ele>329</ele>
        <time>2017-09-08T13:42:58.1Z</time>
      </trkpt>
      <trkpt lat="45.85173" lon="4.73326">
        <ele>328</ele>
        <time>2017-09-08T13:43:00.1Z</time>
      </trkpt>
      <trkpt lat="45.85159" lon="4.73323">
        <ele>328</ele>
        <time>2017-09-08T13:43:02.1Z</time>
      </trkpt>
      <trkpt lat="45.85146" lon="4.73322">
        <ele>327</ele>
        <time>2017-09-08T13:43:04.1Z</time>
      </trkpt>
      <trkpt lat="45.8514" lon="4.73325">
        <ele>327</ele>
        <time>2017-09-08T13:43:05.1Z</time>
      </trkpt>
      <trkpt lat="45.85132" lon="4.73339">
        <ele>326</ele>
        <time>2017-09-08T13:43:07.1Z</time>
      </trkpt>
      <trkpt lat="45.8513" lon="4.73347">
        <ele>325</ele>
        <time>2017-09-08T13:43:08.1Z</time>
      </trkpt>
      <trkpt lat="45.85128" lon="4.73352">
        <ele>325</ele>
        <time>2017-09-08T13:43:09.1Z</time>
      </trkpt>
      <trkpt lat="45.85127" lon="4.73357">
        <ele>325</ele>
        <time>2017-09-08T13:43:10.1Z</time>
      </trkpt>
      <trkpt lat="45.85127" lon="4.73361">
        <ele>325</ele>
        <time>2017-09-08T13:43:11.1Z</time>
      </trkpt>
      <trkpt lat="45.8513" lon="4.73367">
        <ele>325</ele>
        <time>2017-09-08T13:43:13.1Z</time>
      </trkpt>
      <trkpt lat="45.85135" lon="4.73372">
        <ele>324</ele>
        <time>2017-09-08T13:43:15.1Z</time>
      </trkpt>
      <trkpt lat="45.85142" lon="4.73376">
        <ele>324</ele>
        <time>2017-09-08T13:43:17.1Z</time>
      </trkpt>
      <trkpt lat="45.85146" lon="4.73378">
        <ele>324</ele>
        <time>2017-09-08T13:43:18.1Z</time>
      </trkpt>
      <trkpt lat="45.8515" lon="4.7338">
        <ele>324</ele>
        <time>2017-09-08T13:43:19.1Z</time>
      </trkpt>
      <trkpt lat="45.85155" lon="4.73382">
        <ele>324</ele>
        <time>2017-09-08T13:43:20.1Z</time>
      </trkpt>
      <trkpt lat="45.8516" lon="4.73385">
        <ele>324</ele>
        <time>2017-09-08T13:43:21.1Z</time>
      </trkpt>
      <trkpt lat="45.85164" lon="4.73387">
        <ele>324</ele>
        <time>2017-09-08T13:43:22.1Z</time>
      </trkpt>
      <trkpt lat="45.85169" lon="4.73389">
        <ele>324</ele>
        <time>2017-09-08T13:43:23.1Z</time>
      </trkpt>
      <trkpt lat="45.85174" lon="4.73391">
        <ele>323</ele>
        <time>2017-09-08T13:43:24.1Z</time>
      </trkpt>
      <trkpt lat="45.85185" lon="4.73395">
        <ele>323</ele>
        <time>2017-09-08T13:43:26.1Z</time>
      </trkpt>
      <trkpt lat="45.8519" lon="4.73398">
        <ele>323</ele>
        <time>2017-09-08T13:43:27.1Z</time>
      </trkpt>
      <trkpt lat="45.85194" lon="4.73401">
        <ele>322</ele>
        <time>2017-09-08T13:43:28.1Z</time>
      </trkpt>
      <trkpt lat="45.85199" lon="4.73409">
        <ele>322</ele>
        <time>2017-09-08T13:43:30.1Z</time>
      </trkpt>
      <trkpt lat="45.852" lon="4.7342">
        <ele>322</ele>
        <time>2017-09-08T13:43:32.1Z</time>
      </trkpt>
      <trkpt lat="45.85197" lon="4.73433">
        <ele>322</ele>
        <time>2017-09-08T13:43:34.1Z</time>
      </trkpt>
      <trkpt lat="45.85195" lon="4.73439">
        <ele>323</ele>
        <time>2017-09-08T13:43:35.1Z</time>
      </trkpt>
      <trkpt lat="45.85188" lon="4.73449">
        <ele>323</ele>
        <time>2017-09-08T13:43:37.1Z</time>
      </trkpt>
      <trkpt lat="45.85184" lon="4.73452">
        <ele>322</ele>
        <time>2017-09-08T13:43:38.1Z</time>
      </trkpt>
      <trkpt lat="45.85181" lon="4.73455">
        <ele>323</ele>
        <time>2017-09-08T13:43:39.1Z</time>
      </trkpt>
      <trkpt lat="45.85177" lon="4.73456">
        <ele>323</ele>
        <time>2017-09-08T13:43:40.1Z</time>
      </trkpt>
      <trkpt lat="45.85169" lon="4.73458">
        <ele>322</ele>
        <time>2017-09-08T13:43:42.1Z</time>
      </trkpt>
      <trkpt lat="45.85162" lon="4.73459">
        <ele>323</ele>
        <time>2017-09-08T13:43:44.1Z</time>
      </trkpt>
      <trkpt lat="45.85156" lon="4.73459">
        <ele>323</ele>
        <time>2017-09-08T13:43:46.1Z</time>
      </trkpt>
      <trkpt lat="45.85151" lon="4.73458">
        <ele>324</ele>
        <time>2017-09-08T13:43:48.1Z</time>
      </trkpt>
      <trkpt lat="45.85148" lon="4.73458">
        <ele>324</ele>
        <time>2017-09-08T13:43:49.1Z</time>
      </trkpt>
      <trkpt lat="45.85143" lon="4.73458">
        <ele>325</ele>
        <time>2017-09-08T13:43:51.1Z</time>
      </trkpt>
      <trkpt lat="45.85141" lon="4.73458">
        <ele>325</ele>
        <time>2017-09-08T13:43:52.1Z</time>
      </trkpt>
      <trkpt lat="45.85136" lon="4.7346">
        <ele>326</ele>
        <time>2017-09-08T13:43:54.1Z</time>
      </trkpt>
      <trkpt lat="45.85133" lon="4.7346">
        <ele>326</ele>
        <time>2017-09-08T13:43:55.1Z</time>
      </trkpt>
      <trkpt lat="45.8513" lon="4.73461">
        <ele>327</ele>
        <time>2017-09-08T13:43:56.1Z</time>
      </trkpt>
      <trkpt lat="45.85126" lon="4.73463">
        <ele>327</ele>
        <time>2017-09-08T13:43:58.1Z</time>
      </trkpt>
      <trkpt lat="45.85124" lon="4.73465">
        <ele>327</ele>
        <time>2017-09-08T13:43:59.1Z</time>
      </trkpt>
      <trkpt lat="45.85121" lon="4.73466">
        <ele>328</ele>
        <time>2017-09-08T13:44:00.1Z</time>
      </trkpt>
      <trkpt lat="45.85119" lon="4.73468">
        <ele>328</ele>
        <time>2017-09-08T13:44:01.1Z</time>
      </trkpt>
      <trkpt lat="45.85114" lon="4.73471">
        <ele>329</ele>
        <time>2017-09-08T13:44:03.1Z</time>
      </trkpt>
      <trkpt lat="45.85112" lon="4.73474">
        <ele>329</ele>
        <time>2017-09-08T13:44:04.1Z</time>
      </trkpt>
      <trkpt lat="45.8511" lon="4.73476">
        <ele>330</ele>
        <time>2017-09-08T13:44:05.1Z</time>
      </trkpt>
      <trkpt lat="45.85106" lon="4.7348">
        <ele>330</ele>
        <time>2017-09-08T13:44:07.1Z</time>
      </trkpt>
      <trkpt lat="45.85104" lon="4.73483">
        <ele>330</ele>
        <time>2017-09-08T13:44:08.1Z</time>
      </trkpt>
      <trkpt lat="45.85101" lon="4.73488">
        <ele>330</ele>
        <time>2017-09-08T13:44:10.1Z</time>
      </trkpt>
      <trkpt lat="45.85097" lon="4.73493">
        <ele>331</ele>
        <time>2017-09-08T13:44:12.1Z</time>
      </trkpt>
      <trkpt lat="45.85093" lon="4.73498">
        <ele>331</ele>
        <time>2017-09-08T13:44:14.1Z</time>
      </trkpt>
      <trkpt lat="45.85091" lon="4.735">
        <ele>331</ele>
        <time>2017-09-08T13:44:15.1Z</time>
      </trkpt>
      <trkpt lat="45.85089" lon="4.73502">
        <ele>331</ele>
        <time>2017-09-08T13:44:16.1Z</time>
      </trkpt>
      <trkpt lat="45.85087" lon="4.73505">
        <ele>332</ele>
        <time>2017-09-08T13:44:17.1Z</time>
      </trkpt>
      <trkpt lat="45.85083" lon="4.7351">
        <ele>332</ele>
        <time>2017-09-08T13:44:19.1Z</time>
      </trkpt>
      <trkpt lat="45.8508" lon="4.73512">
        <ele>332</ele>
        <time>2017-09-08T13:44:20.1Z</time>
      </trkpt>
      <trkpt lat="45.85078" lon="4.73514">
        <ele>333</ele>
        <time>2017-09-08T13:44:21.1Z</time>
      </trkpt>
      <trkpt lat="45.85074" lon="4.73519">
        <ele>333</ele>
        <time>2017-09-08T13:44:23.1Z</time>
      </trkpt>
      <trkpt lat="45.85072" lon="4.73521">
        <ele>333</ele>
        <time>2017-09-08T13:44:24.1Z</time>
      </trkpt>
      <trkpt lat="45.85069" lon="4.73526">
        <ele>333</ele>
        <time>2017-09-08T13:44:26.1Z</time>
      </trkpt>
      <trkpt lat="45.85065" lon="4.73531">
        <ele>333</ele>
        <time>2017-09-08T13:44:28.1Z</time>
      </trkpt>
      <trkpt lat="45.85063" lon="4.73533">
        <ele>333</ele>
        <time>2017-09-08T13:44:29.1Z</time>
      </trkpt>
      <trkpt lat="45.85059" lon="4.73538">
        <ele>334</ele>
        <time>2017-09-08T13:44:31.1Z</time>
      </trkpt>
      <trkpt lat="45.85057" lon="4.73541">
        <ele>334</ele>
        <time>2017-09-08T13:44:32.1Z</time>
      </trkpt>
      <trkpt lat="45.85053" lon="4.73547">
        <ele>334</ele>
        <time>2017-09-08T13:44:34.1Z</time>
      </trkpt>
      <trkpt lat="45.85051" lon="4.7355">
        <ele>334</ele>
        <time>2017-09-08T13:44:35.1Z</time>
      </trkpt>
      <trkpt lat="45.8505" lon="4.73553">
        <ele>334</ele>
        <time>2017-09-08T13:44:36.1Z</time>
      </trkpt>
      <trkpt lat="45.85048" lon="4.73556">
        <ele>335</ele>
        <time>2017-09-08T13:44:37.1Z</time>
      </trkpt>
      <trkpt lat="45.85045" lon="4.73561">
        <ele>335</ele>
        <time>2017-09-08T13:44:39.1Z</time>
      </trkpt>
      <trkpt lat="45.85042" lon="4.73567">
        <ele>335</ele>
        <time>2017-09-08T13:44:41.1Z</time>
      </trkpt>
      <trkpt lat="45.8504" lon="4.7357">
        <ele>335</ele>
        <time>2017-09-08T13:44:42.1Z</time>
      </trkpt>
      <trkpt lat="45.85037" lon="4.73576">
        <ele>335</ele>
        <time>2017-09-08T13:44:44.1Z</time>
      </trkpt>
      <trkpt lat="45.85034" lon="4.73583">
        <ele>335</ele>
        <time>2017-09-08T13:44:46.1Z</time>
      </trkpt>
      <trkpt lat="45.85032" lon="4.73589">
        <ele>336</ele>
        <time>2017-09-08T13:44:48.1Z</time>
      </trkpt>
      <trkpt lat="45.8503" lon="4.73591">
        <ele>336</ele>
        <time>2017-09-08T13:44:49.1Z</time>
      </trkpt>
      <trkpt lat="45.85027" lon="4.73597">
        <ele>336</ele>
        <time>2017-09-08T13:44:51.1Z</time>
      </trkpt>
      <trkpt lat="45.85026" lon="4.736">
        <ele>337</ele>
        <time>2017-09-08T13:44:52.1Z</time>
      </trkpt>
      <trkpt lat="45.85025" lon="4.73603">
        <ele>337</ele>
        <time>2017-09-08T13:44:53.1Z</time>
      </trkpt>
      <trkpt lat="45.85022" lon="4.73609">
        <ele>337</ele>
        <time>2017-09-08T13:44:55.1Z</time>
      </trkpt>
      <trkpt lat="45.8502" lon="4.73613">
        <ele>337</ele>
        <time>2017-09-08T13:44:56.1Z</time>
      </trkpt>
      <trkpt lat="45.85019" lon="4.73617">
        <ele>337</ele>
        <time>2017-09-08T13:44:57.1Z</time>
      </trkpt>
      <trkpt lat="45.85018" lon="4.73621">
        <ele>337</ele>
        <time>2017-09-08T13:44:58.1Z</time>
      </trkpt>
      <trkpt lat="45.85017" lon="4.73625">
        <ele>337</ele>
        <time>2017-09-08T13:44:59.1Z</time>
      </trkpt>
      <trkpt lat="45.85016" lon="4.73628">
        <ele>337</ele>
        <time>2017-09-08T13:45:00.1Z</time>
      </trkpt>
      <trkpt lat="45.85015" lon="4.73632">
        <ele>337</ele>
        <time>2017-09-08T13:45:01.1Z</time>
      </trkpt>
      <trkpt lat="45.85014" lon="4.73635">
        <ele>337</ele>
        <time>2017-09-08T13:45:02.1Z</time>
      </trkpt>
      <trkpt lat="45.85012" lon="4.73638">
        <ele>337</ele>
        <time>2017-09-08T13:45:03.1Z</time>
      </trkpt>
      <trkpt lat="45.85011" lon="4.73641">
        <ele>337</ele>
        <time>2017-09-08T13:45:04.1Z</time>
      </trkpt>
      <trkpt lat="45.85008" lon="4.73644">
        <ele>337</ele>
        <time>2017-09-08T13:45:05.1Z</time>
      </trkpt>
      <trkpt lat="45.85006" lon="4.73647">
        <ele>337</ele>
        <time>2017-09-08T13:45:06.1Z</time>
      </trkpt>
      <trkpt lat="45.85004" lon="4.73651">
        <ele>338</ele>
        <time>2017-09-08T13:45:07.1Z</time>
      </trkpt>
      <trkpt lat="45.84998" lon="4.73657">
        <ele>338</ele>
        <time>2017-09-08T13:45:09.1Z</time>
      </trkpt>
      <trkpt lat="45.84995" lon="4.73659">
        <ele>338</ele>
        <time>2017-09-08T13:45:10.1Z</time>
      </trkpt>
      <trkpt lat="45.84992" lon="4.73662">
        <ele>338</ele>
        <time>2017-09-08T13:45:11.1Z</time>
      </trkpt>
      <trkpt lat="45.84988" lon="4.73664">
        <ele>338</ele>
        <time>2017-09-08T13:45:12.1Z</time>
      </trkpt>
      <trkpt lat="45.84985" lon="4.73665">
        <ele>338</ele>
        <time>2017-09-08T13:45:13.1Z</time>
      </trkpt>
      <trkpt lat="45.84981" lon="4.73666">
        <ele>338</ele>
        <time>2017-09-08T13:45:14.1Z</time>
      </trkpt>
      <trkpt lat="45.84978" lon="4.73668">
        <ele>338</ele>
        <time>2017-09-08T13:45:15.1Z</time>
      </trkpt>
      <trkpt lat="45.84972" lon="4.7367">
        <ele>339</ele>
        <time>2017-09-08T13:45:17.1Z</time>
      </trkpt>
      <trkpt lat="45.84969" lon="4.73672">
        <ele>339</ele>
        <time>2017-09-08T13:45:18.1Z</time>
      </trkpt>
      <trkpt lat="45.84965" lon="4.73673">
        <ele>339</ele>
        <time>2017-09-08T13:45:19.1Z</time>
      </trkpt>
      <trkpt lat="45.84962" lon="4.73675">
        <ele>339</ele>
        <time>2017-09-08T13:45:20.1Z</time>
      </trkpt>
      <trkpt lat="45.84959" lon="4.73677">
        <ele>339</ele>
        <time>2017-09-08T13:45:21.1Z</time>
      </trkpt>
      <trkpt lat="45.84952" lon="4.73679">
        <ele>340</ele>
        <time>2017-09-08T13:45:23.1Z</time>
      </trkpt>
      <trkpt lat="45.84948" lon="4.73681">
        <ele>340</ele>
        <time>2017-09-08T13:45:24.1Z</time>
      </trkpt>
      <trkpt lat="45.84941" lon="4.73684">
        <ele>340</ele>
        <time>2017-09-08T13:45:26.1Z</time>
      </trkpt>
      <trkpt lat="45.84934" lon="4.73688">
        <ele>340</ele>
        <time>2017-09-08T13:45:28.1Z</time>
      </trkpt>
      <trkpt lat="45.84927" lon="4.73692">
        <ele>340</ele>
        <time>2017-09-08T13:45:30.1Z</time>
      </trkpt>
      <trkpt lat="45.8492" lon="4.73695">
        <ele>340</ele>
        <time>2017-09-08T13:45:32.1Z</time>
      </trkpt>
      <trkpt lat="45.84917" lon="4.73697">
        <ele>340</ele>
        <time>2017-09-08T13:45:33.1Z</time>
      </trkpt>
      <trkpt lat="45.84909" lon="4.73701">
        <ele>340</ele>
        <time>2017-09-08T13:45:35.1Z</time>
      </trkpt>
      <trkpt lat="45.84903" lon="4.73705">
        <ele>340</ele>
        <time>2017-09-08T13:45:37.1Z</time>
      </trkpt>
      <trkpt lat="45.84896" lon="4.73709">
        <ele>341</ele>
        <time>2017-09-08T13:45:39.1Z</time>
      </trkpt>
      <trkpt lat="45.84893" lon="4.73711">
        <ele>341</ele>
        <time>2017-09-08T13:45:40.1Z</time>
      </trkpt>
      <trkpt lat="45.8489" lon="4.73713">
        <ele>341</ele>
        <time>2017-09-08T13:45:41.1Z</time>
      </trkpt>
      <trkpt lat="45.84883" lon="4.73717">
        <ele>341</ele>
        <time>2017-09-08T13:45:43.1Z</time>
      </trkpt>
      <trkpt lat="45.84876" lon="4.73721">
        <ele>341</ele>
        <time>2017-09-08T13:45:45.1Z</time>
      </trkpt>
      <trkpt lat="45.84869" lon="4.73726">
        <ele>341</ele>
        <time>2017-09-08T13:45:47.1Z</time>
      </trkpt>
      <trkpt lat="45.84863" lon="4.7373">
        <ele>342</ele>
        <time>2017-09-08T13:45:49.1Z</time>
      </trkpt>
      <trkpt lat="45.84856" lon="4.73734">
        <ele>342</ele>
        <time>2017-09-08T13:45:51.1Z</time>
      </trkpt>
      <trkpt lat="45.84849" lon="4.73738">
        <ele>342</ele>
        <time>2017-09-08T13:45:53.1Z</time>
      </trkpt>
      <trkpt lat="45.84843" lon="4.73742">
        <ele>342</ele>
        <time>2017-09-08T13:45:55.1Z</time>
      </trkpt>
      <trkpt lat="45.8484" lon="4.73744">
        <ele>343</ele>
        <time>2017-09-08T13:45:56.1Z</time>
      </trkpt>
      <trkpt lat="45.84834" lon="4.73748">
        <ele>343</ele>
        <time>2017-09-08T13:45:58.1Z</time>
      </trkpt>
      <trkpt lat="45.84831" lon="4.7375">
        <ele>343</ele>
        <time>2017-09-08T13:45:59.1Z</time>
      </trkpt>
      <trkpt lat="45.84828" lon="4.73752">
        <ele>343</ele>
        <time>2017-09-08T13:46:00.1Z</time>
      </trkpt>
      <trkpt lat="45.84822" lon="4.73756">
        <ele>344</ele>
        <time>2017-09-08T13:46:02.1Z</time>
      </trkpt>
      <trkpt lat="45.84819" lon="4.73758">
        <ele>344</ele>
        <time>2017-09-08T13:46:03.1Z</time>
      </trkpt>
      <trkpt lat="45.84813" lon="4.73761">
        <ele>345</ele>
        <time>2017-09-08T13:46:05.1Z</time>
      </trkpt>
      <trkpt lat="45.84811" lon="4.73763">
        <ele>345</ele>
        <time>2017-09-08T13:46:06.1Z</time>
      </trkpt>
      <trkpt lat="45.84805" lon="4.73767">
        <ele>345</ele>
        <time>2017-09-08T13:46:08.1Z</time>
      </trkpt>
      <trkpt lat="45.84802" lon="4.73768">
        <ele>345</ele>
        <time>2017-09-08T13:46:09.1Z</time>
      </trkpt>
      <trkpt lat="45.848" lon="4.7377">
        <ele>345</ele>
        <time>2017-09-08T13:46:10.1Z</time>
      </trkpt>
      <trkpt lat="45.84797" lon="4.73772">
        <ele>345</ele>
        <time>2017-09-08T13:46:11.1Z</time>
      </trkpt>
      <trkpt lat="45.84794" lon="4.73774">
        <ele>345</ele>
        <time>2017-09-08T13:46:12.1Z</time>
      </trkpt>
      <trkpt lat="45.84788" lon="4.73777">
        <ele>345</ele>
        <time>2017-09-08T13:46:14.1Z</time>
      </trkpt>
      <trkpt lat="45.84785" lon="4.73779">
        <ele>346</ele>
        <time>2017-09-08T13:46:15.1Z</time>
      </trkpt>
      <trkpt lat="45.8478" lon="4.73783">
        <ele>346</ele>
        <time>2017-09-08T13:46:17.1Z</time>
      </trkpt>
      <trkpt lat="45.84777" lon="4.73784">
        <ele>346</ele>
        <time>2017-09-08T13:46:18.1Z</time>
      </trkpt>
      <trkpt lat="45.84772" lon="4.73788">
        <ele>347</ele>
        <time>2017-09-08T13:46:20.1Z</time>
      </trkpt>
      <trkpt lat="45.84769" lon="4.7379">
        <ele>347</ele>
        <time>2017-09-08T13:46:21.1Z</time>
      </trkpt>
      <trkpt lat="45.84763" lon="4.73793">
        <ele>347</ele>
        <time>2017-09-08T13:46:23.1Z</time>
      </trkpt>
      <trkpt lat="45.84761" lon="4.73796">
        <ele>347</ele>
        <time>2017-09-08T13:46:24.1Z</time>
      </trkpt>
      <trkpt lat="45.84758" lon="4.73798">
        <ele>347</ele>
        <time>2017-09-08T13:46:25.1Z</time>
      </trkpt>
      <trkpt lat="45.84756" lon="4.738">
        <ele>347</ele>
        <time>2017-09-08T13:46:26.1Z</time>
      </trkpt>
      <trkpt lat="45.84753" lon="4.73802">
        <ele>348</ele>
        <time>2017-09-08T13:46:27.1Z</time>
      </trkpt>
      <trkpt lat="45.8475" lon="4.73804">
        <ele>348</ele>
        <time>2017-09-08T13:46:28.1Z</time>
      </trkpt>
      <trkpt lat="45.84746" lon="4.73809">
        <ele>348</ele>
        <time>2017-09-08T13:46:30.1Z</time>
      </trkpt>
      <trkpt lat="45.84744" lon="4.73812">
        <ele>348</ele>
        <time>2017-09-08T13:46:31.1Z</time>
      </trkpt>
      <trkpt lat="45.8474" lon="4.73819">
        <ele>349</ele>
        <time>2017-09-08T13:46:33.1Z</time>
      </trkpt>
      <trkpt lat="45.84737" lon="4.73827">
        <ele>349</ele>
        <time>2017-09-08T13:46:35.1Z</time>
      </trkpt>
      <trkpt lat="45.84734" lon="4.73835">
        <ele>349</ele>
        <time>2017-09-08T13:46:37.1Z</time>
      </trkpt>
      <trkpt lat="45.84731" lon="4.73843">
        <ele>350</ele>
        <time>2017-09-08T13:46:39.1Z</time>
      </trkpt>
      <trkpt lat="45.84728" lon="4.73851">
        <ele>350</ele>
        <time>2017-09-08T13:46:41.1Z</time>
      </trkpt>
      <trkpt lat="45.84726" lon="4.7386">
        <ele>350</ele>
        <time>2017-09-08T13:46:43.1Z</time>
      </trkpt>
      <trkpt lat="45.84724" lon="4.73864">
        <ele>350</ele>
        <time>2017-09-08T13:46:44.1Z</time>
      </trkpt>
      <trkpt lat="45.84723" lon="4.73869">
        <ele>350</ele>
        <time>2017-09-08T13:46:45.1Z</time>
      </trkpt>
      <trkpt lat="45.8472" lon="4.73878">
        <ele>351</ele>
        <time>2017-09-08T13:46:47.1Z</time>
      </trkpt>
      <trkpt lat="45.84719" lon="4.73882">
        <ele>351</ele>
        <time>2017-09-08T13:46:48.1Z</time>
      </trkpt>
      <trkpt lat="45.84716" lon="4.73893">
        <ele>351</ele>
        <time>2017-09-08T13:46:50.1Z</time>
      </trkpt>
      <trkpt lat="45.84714" lon="4.73905">
        <ele>351</ele>
        <time>2017-09-08T13:46:52.1Z</time>
      </trkpt>
      <trkpt lat="45.84713" lon="4.73917">
        <ele>351</ele>
        <time>2017-09-08T13:46:54.1Z</time>
      </trkpt>
      <trkpt lat="45.84712" lon="4.73923">
        <ele>351</ele>
        <time>2017-09-08T13:46:55.1Z</time>
      </trkpt>
      <trkpt lat="45.84712" lon="4.73935">
        <ele>351</ele>
        <time>2017-09-08T13:46:57.1Z</time>
      </trkpt>
      <trkpt lat="45.84712" lon="4.73941">
        <ele>350</ele>
        <time>2017-09-08T13:46:58.1Z</time>
      </trkpt>
      <trkpt lat="45.84712" lon="4.73947">
        <ele>351</ele>
        <time>2017-09-08T13:46:59.1Z</time>
      </trkpt>
      <trkpt lat="45.84712" lon="4.73953">
        <ele>351</ele>
        <time>2017-09-08T13:47:00.1Z</time>
      </trkpt>
      <trkpt lat="45.84711" lon="4.7396">
        <ele>351</ele>
        <time>2017-09-08T13:47:01.1Z</time>
      </trkpt>
      <trkpt lat="45.84711" lon="4.73974">
        <ele>351</ele>
        <time>2017-09-08T13:47:03.1Z</time>
      </trkpt>
      <trkpt lat="45.84711" lon="4.73982">
        <ele>351</ele>
        <time>2017-09-08T13:47:04.1Z</time>
      </trkpt>
      <trkpt lat="45.8471" lon="4.7399">
        <ele>350</ele>
        <time>2017-09-08T13:47:05.1Z</time>
      </trkpt>
      <trkpt lat="45.8471" lon="4.73999">
        <ele>350</ele>
        <time>2017-09-08T13:47:06.1Z</time>
      </trkpt>
      <trkpt lat="45.84709" lon="4.74017">
        <ele>350</ele>
        <time>2017-09-08T13:47:08.1Z</time>
      </trkpt>
      <trkpt lat="45.84708" lon="4.74036">
        <ele>349</ele>
        <time>2017-09-08T13:47:10.1Z</time>
      </trkpt>
      <trkpt lat="45.84706" lon="4.74058">
        <ele>348</ele>
        <time>2017-09-08T13:47:12.1Z</time>
      </trkpt>
      <trkpt lat="45.84703" lon="4.7408">
        <ele>347</ele>
        <time>2017-09-08T13:47:14.1Z</time>
      </trkpt>
      <trkpt lat="45.84702" lon="4.74091">
        <ele>347</ele>
        <time>2017-09-08T13:47:15.1Z</time>
      </trkpt>
      <trkpt lat="45.847" lon="4.74102">
        <ele>347</ele>
        <time>2017-09-08T13:47:16.1Z</time>
      </trkpt>
      <trkpt lat="45.84696" lon="4.74125">
        <ele>346</ele>
        <time>2017-09-08T13:47:18.1Z</time>
      </trkpt>
      <trkpt lat="45.8469" lon="4.74146">
        <ele>346</ele>
        <time>2017-09-08T13:47:20.1Z</time>
      </trkpt>
      <trkpt lat="45.84684" lon="4.74166">
        <ele>345</ele>
        <time>2017-09-08T13:47:22.1Z</time>
      </trkpt>
      <trkpt lat="45.84676" lon="4.74183">
        <ele>345</ele>
        <time>2017-09-08T13:47:24.1Z</time>
      </trkpt>
      <trkpt lat="45.84667" lon="4.74197">
        <ele>344</ele>
        <time>2017-09-08T13:47:26.1Z</time>
      </trkpt>
      <trkpt lat="45.84658" lon="4.74209">
        <ele>344</ele>
        <time>2017-09-08T13:47:28.1Z</time>
      </trkpt>
      <trkpt lat="45.84653" lon="4.74215">
        <ele>344</ele>
        <time>2017-09-08T13:47:29.1Z</time>
      </trkpt>
      <trkpt lat="45.84648" lon="4.74221">
        <ele>345</ele>
        <time>2017-09-08T13:47:30.1Z</time>
      </trkpt>
      <trkpt lat="45.84643" lon="4.74226">
        <ele>345</ele>
        <time>2017-09-08T13:47:31.1Z</time>
      </trkpt>
      <trkpt lat="45.84633" lon="4.74236">
        <ele>345</ele>
        <time>2017-09-08T13:47:33.1Z</time>
      </trkpt>
      <trkpt lat="45.84624" lon="4.74247">
        <ele>345</ele>
        <time>2017-09-08T13:47:35.1Z</time>
      </trkpt>
      <trkpt lat="45.8462" lon="4.74251">
        <ele>345</ele>
        <time>2017-09-08T13:47:36.1Z</time>
      </trkpt>
      <trkpt lat="45.84615" lon="4.74256">
        <ele>345</ele>
        <time>2017-09-08T13:47:37.1Z</time>
      </trkpt>
      <trkpt lat="45.84607" lon="4.74265">
        <ele>345</ele>
        <time>2017-09-08T13:47:39.1Z</time>
      </trkpt>
      <trkpt lat="45.84603" lon="4.74269">
        <ele>345</ele>
        <time>2017-09-08T13:47:40.1Z</time>
      </trkpt>
      <trkpt lat="45.84599" lon="4.74273">
        <ele>345</ele>
        <time>2017-09-08T13:47:41.1Z</time>
      </trkpt>
      <trkpt lat="45.84595" lon="4.74277">
        <ele>346</ele>
        <time>2017-09-08T13:47:42.1Z</time>
      </trkpt>
      <trkpt lat="45.84591" lon="4.74281">
        <ele>346</ele>
        <time>2017-09-08T13:47:43.1Z</time>
      </trkpt>
      <trkpt lat="45.84583" lon="4.74289">
        <ele>346</ele>
        <time>2017-09-08T13:47:45.1Z</time>
      </trkpt>
      <trkpt lat="45.84576" lon="4.74298">
        <ele>347</ele>
        <time>2017-09-08T13:47:47.1Z</time>
      </trkpt>
      <trkpt lat="45.84573" lon="4.74303">
        <ele>347</ele>
        <time>2017-09-08T13:47:48.1Z</time>
      </trkpt>
      <trkpt lat="45.8457" lon="4.74308">
        <ele>347</ele>
        <time>2017-09-08T13:47:49.1Z</time>
      </trkpt>
      <trkpt lat="45.84565" lon="4.74316">
        <ele>347</ele>
        <time>2017-09-08T13:47:51.1Z</time>
      </trkpt>
      <trkpt lat="45.84563" lon="4.74319">
        <ele>348</ele>
        <time>2017-09-08T13:47:52.1Z</time>
      </trkpt>
      <trkpt lat="45.8456" lon="4.74326">
        <ele>348</ele>
        <time>2017-09-08T13:47:54.1Z</time>
      </trkpt>
      <trkpt lat="45.84558" lon="4.74329">
        <ele>349</ele>
        <time>2017-09-08T13:47:55.1Z</time>
      </trkpt>
      <trkpt lat="45.84555" lon="4.74336">
        <ele>349</ele>
        <time>2017-09-08T13:47:57.1Z</time>
      </trkpt>
      <trkpt lat="45.84555" lon="4.74339">
        <ele>349</ele>
        <time>2017-09-08T13:47:58.1Z</time>
      </trkpt>
      <trkpt lat="45.84556" lon="4.74347">
        <ele>349</ele>
        <time>2017-09-08T13:48:00.1Z</time>
      </trkpt>
      <trkpt lat="45.84558" lon="4.74355">
        <ele>350</ele>
        <time>2017-09-08T13:48:02.1Z</time>
      </trkpt>
      <trkpt lat="45.8456" lon="4.74363">
        <ele>350</ele>
        <time>2017-09-08T13:48:04.1Z</time>
      </trkpt>
      <trkpt lat="45.84562" lon="4.74366">
        <ele>350</ele>
        <time>2017-09-08T13:48:05.1Z</time>
      </trkpt>
      <trkpt lat="45.84564" lon="4.74373">
        <ele>350</ele>
        <time>2017-09-08T13:48:07.1Z</time>
      </trkpt>
      <trkpt lat="45.84566" lon="4.7438">
        <ele>351</ele>
        <time>2017-09-08T13:48:09.1Z</time>
      </trkpt>
      <trkpt lat="45.84567" lon="4.74384">
        <ele>351</ele>
        <time>2017-09-08T13:48:10.1Z</time>
      </trkpt>
      <trkpt lat="45.8457" lon="4.74391">
        <ele>352</ele>
        <time>2017-09-08T13:48:12.1Z</time>
      </trkpt>
      <trkpt lat="45.84571" lon="4.74394">
        <ele>352</ele>
        <time>2017-09-08T13:48:13.1Z</time>
      </trkpt>
      <trkpt lat="45.84573" lon="4.74401">
        <ele>353</ele>
        <time>2017-09-08T13:48:15.1Z</time>
      </trkpt>
      <trkpt lat="45.84576" lon="4.74407">
        <ele>353</ele>
        <time>2017-09-08T13:48:17.1Z</time>
      </trkpt>
      <trkpt lat="45.84578" lon="4.74414">
        <ele>353</ele>
        <time>2017-09-08T13:48:19.1Z</time>
      </trkpt>
      <trkpt lat="45.8458" lon="4.74417">
        <ele>353</ele>
        <time>2017-09-08T13:48:20.1Z</time>
      </trkpt>
      <trkpt lat="45.84583" lon="4.74424">
        <ele>353</ele>
        <time>2017-09-08T13:48:22.1Z</time>
      </trkpt>
      <trkpt lat="45.84586" lon="4.74431">
        <ele>354</ele>
        <time>2017-09-08T13:48:24.1Z</time>
      </trkpt>
      <trkpt lat="45.84587" lon="4.74435">
        <ele>354</ele>
        <time>2017-09-08T13:48:25.1Z</time>
      </trkpt>
      <trkpt lat="45.84589" lon="4.74443">
        <ele>354</ele>
        <time>2017-09-08T13:48:27.1Z</time>
      </trkpt>
      <trkpt lat="45.84591" lon="4.74447">
        <ele>354</ele>
        <time>2017-09-08T13:48:28.1Z</time>
      </trkpt>
      <trkpt lat="45.84593" lon="4.74454">
        <ele>355</ele>
        <time>2017-09-08T13:48:30.1Z</time>
      </trkpt>
      <trkpt lat="45.84596" lon="4.74461">
        <ele>355</ele>
        <time>2017-09-08T13:48:32.1Z</time>
      </trkpt>
      <trkpt lat="45.84599" lon="4.74468">
        <ele>355</ele>
        <time>2017-09-08T13:48:34.1Z</time>
      </trkpt>
      <trkpt lat="45.846" lon="4.74472">
        <ele>355</ele>
        <time>2017-09-08T13:48:35.1Z</time>
      </trkpt>
      <trkpt lat="45.84603" lon="4.74479">
        <ele>356</ele>
        <time>2017-09-08T13:48:37.1Z</time>
      </trkpt>
      <trkpt lat="45.84606" lon="4.74487">
        <ele>356</ele>
        <time>2017-09-08T13:48:39.1Z</time>
      </trkpt>
      <trkpt lat="45.84608" lon="4.7449">
        <ele>356</ele>
        <time>2017-09-08T13:48:40.1Z</time>
      </trkpt>
      <trkpt lat="45.84611" lon="4.74498">
        <ele>357</ele>
        <time>2017-09-08T13:48:42.1Z</time>
      </trkpt>
      <trkpt lat="45.84613" lon="4.74502">
        <ele>357</ele>
        <time>2017-09-08T13:48:43.1Z</time>
      </trkpt>
      <trkpt lat="45.84614" lon="4.74506">
        <ele>357</ele>
        <time>2017-09-08T13:48:44.1Z</time>
      </trkpt>
      <trkpt lat="45.84616" lon="4.74513">
        <ele>357</ele>
        <time>2017-09-08T13:48:46.1Z</time>
      </trkpt>
      <trkpt lat="45.84617" lon="4.74517">
        <ele>357</ele>
        <time>2017-09-08T13:48:47.1Z</time>
      </trkpt>
      <trkpt lat="45.84618" lon="4.74526">
        <ele>358</ele>
        <time>2017-09-08T13:48:49.1Z</time>
      </trkpt>
      <trkpt lat="45.84621" lon="4.74536">
        <ele>358</ele>
        <time>2017-09-08T13:48:51.1Z</time>
      </trkpt>
      <trkpt lat="45.84623" lon="4.74544">
        <ele>358</ele>
        <time>2017-09-08T13:48:53.1Z</time>
      </trkpt>
      <trkpt lat="45.84623" lon="4.74549">
        <ele>358</ele>
        <time>2017-09-08T13:48:54.1Z</time>
      </trkpt>
      <trkpt lat="45.84625" lon="4.74557">
        <ele>358</ele>
        <time>2017-09-08T13:48:56.1Z</time>
      </trkpt>
      <trkpt lat="45.84626" lon="4.74566">
        <ele>358</ele>
        <time>2017-09-08T13:48:58.1Z</time>
      </trkpt>
      <trkpt lat="45.84627" lon="4.74569">
        <ele>358</ele>
        <time>2017-09-08T13:48:59.1Z</time>
      </trkpt>
      <trkpt lat="45.84627" lon="4.74574">
        <ele>358</ele>
        <time>2017-09-08T13:49:00.1Z</time>
      </trkpt>
      <trkpt lat="45.84628" lon="4.74584">
        <ele>358</ele>
        <time>2017-09-08T13:49:02.1Z</time>
      </trkpt>
      <trkpt lat="45.84629" lon="4.74589">
        <ele>358</ele>
        <time>2017-09-08T13:49:03.1Z</time>
      </trkpt>
      <trkpt lat="45.8463" lon="4.746">
        <ele>358</ele>
        <time>2017-09-08T13:49:05.1Z</time>
      </trkpt>
      <trkpt lat="45.84631" lon="4.74613">
        <ele>358</ele>
        <time>2017-09-08T13:49:07.1Z</time>
      </trkpt>
      <trkpt lat="45.84631" lon="4.74627">
        <ele>358</ele>
        <time>2017-09-08T13:49:09.1Z</time>
      </trkpt>
      <trkpt lat="45.84632" lon="4.74645">
        <ele>358</ele>
        <time>2017-09-08T13:49:11.1Z</time>
      </trkpt>
      <trkpt lat="45.84632" lon="4.74655">
        <ele>358</ele>
        <time>2017-09-08T13:49:12.1Z</time>
      </trkpt>
      <trkpt lat="45.84631" lon="4.74678">
        <ele>357</ele>
        <time>2017-09-08T13:49:14.1Z</time>
      </trkpt>
      <trkpt lat="45.84629" lon="4.7469">
        <ele>356</ele>
        <time>2017-09-08T13:49:15.1Z</time>
      </trkpt>
      <trkpt lat="45.84624" lon="4.74701">
        <ele>356</ele>
        <time>2017-09-08T13:49:16.1Z</time>
      </trkpt>
      <trkpt lat="45.84612" lon="4.74717">
        <ele>355</ele>
        <time>2017-09-08T13:49:18.1Z</time>
      </trkpt>
      <trkpt lat="45.846" lon="4.74729">
        <ele>354</ele>
        <time>2017-09-08T13:49:20.1Z</time>
      </trkpt>
      <trkpt lat="45.84587" lon="4.74739">
        <ele>354</ele>
        <time>2017-09-08T13:49:22.1Z</time>
      </trkpt>
      <trkpt lat="45.84576" lon="4.74749">
        <ele>353</ele>
        <time>2017-09-08T13:49:24.1Z</time>
      </trkpt>
      <trkpt lat="45.8457" lon="4.74754">
        <ele>353</ele>
        <time>2017-09-08T13:49:25.1Z</time>
      </trkpt>
      <trkpt lat="45.84565" lon="4.74758">
        <ele>353</ele>
        <time>2017-09-08T13:49:26.1Z</time>
      </trkpt>
      <trkpt lat="45.84553" lon="4.74768">
        <ele>353</ele>
        <time>2017-09-08T13:49:28.1Z</time>
      </trkpt>
      <trkpt lat="45.84541" lon="4.74778">
        <ele>353</ele>
        <time>2017-09-08T13:49:30.1Z</time>
      </trkpt>
      <trkpt lat="45.84535" lon="4.74782">
        <ele>353</ele>
        <time>2017-09-08T13:49:31.1Z</time>
      </trkpt>
      <trkpt lat="45.84524" lon="4.74792">
        <ele>353</ele>
        <time>2017-09-08T13:49:33.1Z</time>
      </trkpt>
      <trkpt lat="45.84517" lon="4.74805">
        <ele>354</ele>
        <time>2017-09-08T13:49:35.1Z</time>
      </trkpt>
      <trkpt lat="45.84517" lon="4.74812">
        <ele>354</ele>
        <time>2017-09-08T13:49:36.1Z</time>
      </trkpt>
      <trkpt lat="45.84521" lon="4.74827">
        <ele>353</ele>
        <time>2017-09-08T13:49:38.1Z</time>
      </trkpt>
      <trkpt lat="45.84523" lon="4.74834">
        <ele>353</ele>
        <time>2017-09-08T13:49:39.1Z</time>
      </trkpt>
      <trkpt lat="45.84528" lon="4.74847">
        <ele>353</ele>
        <time>2017-09-08T13:49:41.1Z</time>
      </trkpt>
      <trkpt lat="45.84533" lon="4.7486">
        <ele>353</ele>
        <time>2017-09-08T13:49:43.1Z</time>
      </trkpt>
      <trkpt lat="45.84539" lon="4.74873">
        <ele>352</ele>
        <time>2017-09-08T13:49:45.1Z</time>
      </trkpt>
      <trkpt lat="45.8454" lon="4.7488">
        <ele>352</ele>
        <time>2017-09-08T13:49:46.1Z</time>
      </trkpt>
      <trkpt lat="45.8454" lon="4.74888">
        <ele>353</ele>
        <time>2017-09-08T13:49:47.1Z</time>
      </trkpt>
      <trkpt lat="45.84532" lon="4.74898">
        <ele>353</ele>
        <time>2017-09-08T13:49:49.1Z</time>
      </trkpt>
      <trkpt lat="45.84521" lon="4.74905">
        <ele>352</ele>
        <time>2017-09-08T13:49:51.1Z</time>
      </trkpt>
      <trkpt lat="45.84515" lon="4.74909">
        <ele>352</ele>
        <time>2017-09-08T13:49:52.1Z</time>
      </trkpt>
      <trkpt lat="45.84502" lon="4.74916">
        <ele>352</ele>
        <time>2017-09-08T13:49:54.1Z</time>
      </trkpt>
      <trkpt lat="45.84496" lon="4.74919">
        <ele>352</ele>
        <time>2017-09-08T13:49:55.1Z</time>
      </trkpt>
      <trkpt lat="45.84483" lon="4.74928">
        <ele>352</ele>
        <time>2017-09-08T13:49:57.1Z</time>
      </trkpt>
      <trkpt lat="45.8447" lon="4.74937">
        <ele>351</ele>
        <time>2017-09-08T13:49:59.1Z</time>
      </trkpt>
      <trkpt lat="45.84464" lon="4.74943">
        <ele>351</ele>
        <time>2017-09-08T13:50:00.1Z</time>
      </trkpt>
      <trkpt lat="45.84458" lon="4.74948">
        <ele>351</ele>
        <time>2017-09-08T13:50:01.1Z</time>
      </trkpt>
      <trkpt lat="45.84446" lon="4.74959">
        <ele>351</ele>
        <time>2017-09-08T13:50:03.1Z</time>
      </trkpt>
      <trkpt lat="45.84435" lon="4.7497">
        <ele>351</ele>
        <time>2017-09-08T13:50:05.1Z</time>
      </trkpt>
      <trkpt lat="45.84424" lon="4.7498">
        <ele>350</ele>
        <time>2017-09-08T13:50:07.1Z</time>
      </trkpt>
      <trkpt lat="45.84413" lon="4.7499">
        <ele>351</ele>
        <time>2017-09-08T13:50:09.1Z</time>
      </trkpt>
      <trkpt lat="45.84404" lon="4.75">
        <ele>351</ele>
        <time>2017-09-08T13:50:11.1Z</time>
      </trkpt>
      <trkpt lat="45.84396" lon="4.75008">
        <ele>352</ele>
        <time>2017-09-08T13:50:13.1Z</time>
      </trkpt>
      <trkpt lat="45.84392" lon="4.75012">
        <ele>352</ele>
        <time>2017-09-08T13:50:14.1Z</time>
      </trkpt>
      <trkpt lat="45.84388" lon="4.75016">
        <ele>352</ele>
        <time>2017-09-08T13:50:15.1Z</time>
      </trkpt>
      <trkpt lat="45.84383" lon="4.7502">
        <ele>353</ele>
        <time>2017-09-08T13:50:16.1Z</time>
      </trkpt>
      <trkpt lat="45.84375" lon="4.75027">
        <ele>353</ele>
        <time>2017-09-08T13:50:18.1Z</time>
      </trkpt>
      <trkpt lat="45.84368" lon="4.75035">
        <ele>354</ele>
        <time>2017-09-08T13:50:20.1Z</time>
      </trkpt>
      <trkpt lat="45.84364" lon="4.75038">
        <ele>354</ele>
        <time>2017-09-08T13:50:21.1Z</time>
      </trkpt>
      <trkpt lat="45.84361" lon="4.75042">
        <ele>354</ele>
        <time>2017-09-08T13:50:22.1Z</time>
      </trkpt>
      <trkpt lat="45.84354" lon="4.75048">
        <ele>355</ele>
        <time>2017-09-08T13:50:24.1Z</time>
      </trkpt>
      <trkpt lat="45.8435" lon="4.75051">
        <ele>355</ele>
        <time>2017-09-08T13:50:25.1Z</time>
      </trkpt>
      <trkpt lat="45.84347" lon="4.75055">
        <ele>355</ele>
        <time>2017-09-08T13:50:26.1Z</time>
      </trkpt>
      <trkpt lat="45.84341" lon="4.75062">
        <ele>356</ele>
        <time>2017-09-08T13:50:28.1Z</time>
      </trkpt>
      <trkpt lat="45.84335" lon="4.75068">
        <ele>357</ele>
        <time>2017-09-08T13:50:30.1Z</time>
      </trkpt>
      <trkpt lat="45.84329" lon="4.75074">
        <ele>357</ele>
        <time>2017-09-08T13:50:32.1Z</time>
      </trkpt>
      <trkpt lat="45.84326" lon="4.75077">
        <ele>357</ele>
        <time>2017-09-08T13:50:33.1Z</time>
      </trkpt>
      <trkpt lat="45.84323" lon="4.7508">
        <ele>357</ele>
        <time>2017-09-08T13:50:34.1Z</time>
      </trkpt>
      <trkpt lat="45.84317" lon="4.75086">
        <ele>358</ele>
        <time>2017-09-08T13:50:36.1Z</time>
      </trkpt>
      <trkpt lat="45.84311" lon="4.75092">
        <ele>358</ele>
        <time>2017-09-08T13:50:38.1Z</time>
      </trkpt>
      <trkpt lat="45.84305" lon="4.75098">
        <ele>359</ele>
        <time>2017-09-08T13:50:40.1Z</time>
      </trkpt>
      <trkpt lat="45.84299" lon="4.75105">
        <ele>360</ele>
        <time>2017-09-08T13:50:42.1Z</time>
      </trkpt>
      <trkpt lat="45.84293" lon="4.75111">
        <ele>360</ele>
        <time>2017-09-08T13:50:44.1Z</time>
      </trkpt>
      <trkpt lat="45.84288" lon="4.75117">
        <ele>361</ele>
        <time>2017-09-08T13:50:46.1Z</time>
      </trkpt>
      <trkpt lat="45.84282" lon="4.75123">
        <ele>361</ele>
        <time>2017-09-08T13:50:48.1Z</time>
      </trkpt>
      <trkpt lat="45.84277" lon="4.7513">
        <ele>362</ele>
        <time>2017-09-08T13:50:50.1Z</time>
      </trkpt>
      <trkpt lat="45.84274" lon="4.75132">
        <ele>362</ele>
        <time>2017-09-08T13:50:51.1Z</time>
      </trkpt>
      <trkpt lat="45.84269" lon="4.75138">
        <ele>362</ele>
        <time>2017-09-08T13:50:53.1Z</time>
      </trkpt>
      <trkpt lat="45.84266" lon="4.7514">
        <ele>363</ele>
        <time>2017-09-08T13:50:54.1Z</time>
      </trkpt>
      <trkpt lat="45.84261" lon="4.75145">
        <ele>363</ele>
        <time>2017-09-08T13:50:56.1Z</time>
      </trkpt>
      <trkpt lat="45.84257" lon="4.7515">
        <ele>363</ele>
        <time>2017-09-08T13:50:58.1Z</time>
      </trkpt>
      <trkpt lat="45.84253" lon="4.75155">
        <ele>364</ele>
        <time>2017-09-08T13:51:00.1Z</time>
      </trkpt>
      <trkpt lat="45.84248" lon="4.7516">
        <ele>364</ele>
        <time>2017-09-08T13:51:02.1Z</time>
      </trkpt>
      <trkpt lat="45.84246" lon="4.75163">
        <ele>365</ele>
        <time>2017-09-08T13:51:03.1Z</time>
      </trkpt>
      <trkpt lat="45.84241" lon="4.75169">
        <ele>365</ele>
        <time>2017-09-08T13:51:05.1Z</time>
      </trkpt>
      <trkpt lat="45.84236" lon="4.75174">
        <ele>365</ele>
        <time>2017-09-08T13:51:07.1Z</time>
      </trkpt>
      <trkpt lat="45.84234" lon="4.75176">
        <ele>365</ele>
        <time>2017-09-08T13:51:08.1Z</time>
      </trkpt>
      <trkpt lat="45.8423" lon="4.75181">
        <ele>366</ele>
        <time>2017-09-08T13:51:10.1Z</time>
      </trkpt>
      <trkpt lat="45.84227" lon="4.75183">
        <ele>366</ele>
        <time>2017-09-08T13:51:11.1Z</time>
      </trkpt>
      <trkpt lat="45.84225" lon="4.75186">
        <ele>366</ele>
        <time>2017-09-08T13:51:12.1Z</time>
      </trkpt>
      <trkpt lat="45.8422" lon="4.7519">
        <ele>366</ele>
        <time>2017-09-08T13:51:14.1Z</time>
      </trkpt>
      <trkpt lat="45.84215" lon="4.75195">
        <ele>367</ele>
        <time>2017-09-08T13:51:16.1Z</time>
      </trkpt>
      <trkpt lat="45.84211" lon="4.75199">
        <ele>367</ele>
        <time>2017-09-08T13:51:18.1Z</time>
      </trkpt>
      <trkpt lat="45.84208" lon="4.75201">
        <ele>367</ele>
        <time>2017-09-08T13:51:19.1Z</time>
      </trkpt>
      <trkpt lat="45.84206" lon="4.75203">
        <ele>367</ele>
        <time>2017-09-08T13:51:20.1Z</time>
      </trkpt>
      <trkpt lat="45.84204" lon="4.75205">
        <ele>367</ele>
        <time>2017-09-08T13:51:21.1Z</time>
      </trkpt>
      <trkpt lat="45.84202" lon="4.75208">
        <ele>368</ele>
        <time>2017-09-08T13:51:22.1Z</time>
      </trkpt>
      <trkpt lat="45.842" lon="4.7521">
        <ele>368</ele>
        <time>2017-09-08T13:51:23.1Z</time>
      </trkpt>
      <trkpt lat="45.84195" lon="4.75214">
        <ele>368</ele>
        <time>2017-09-08T13:51:25.1Z</time>
      </trkpt>
      <trkpt lat="45.84193" lon="4.75216">
        <ele>368</ele>
        <time>2017-09-08T13:51:26.1Z</time>
      </trkpt>
      <trkpt lat="45.84191" lon="4.75219">
        <ele>368</ele>
        <time>2017-09-08T13:51:27.1Z</time>
      </trkpt>
      <trkpt lat="45.84189" lon="4.75221">
        <ele>368</ele>
        <time>2017-09-08T13:51:28.1Z</time>
      </trkpt>
      <trkpt lat="45.84187" lon="4.75223">
        <ele>368</ele>
        <time>2017-09-08T13:51:29.1Z</time>
      </trkpt>
      <trkpt lat="45.84185" lon="4.75225">
        <ele>368</ele>
        <time>2017-09-08T13:51:30.1Z</time>
      </trkpt>
      <trkpt lat="45.84179" lon="4.7523">
        <ele>368</ele>
        <time>2017-09-08T13:51:32.1Z</time>
      </trkpt>
      <trkpt lat="45.84177" lon="4.75232">
        <ele>368</ele>
        <time>2017-09-08T13:51:33.1Z</time>
      </trkpt>
      <trkpt lat="45.84174" lon="4.75235">
        <ele>368</ele>
        <time>2017-09-08T13:51:34.1Z</time>
      </trkpt>
      <trkpt lat="45.84171" lon="4.75238">
        <ele>368</ele>
        <time>2017-09-08T13:51:35.1Z</time>
      </trkpt>
      <trkpt lat="45.84168" lon="4.7524">
        <ele>368</ele>
        <time>2017-09-08T13:51:36.1Z</time>
      </trkpt>
      <trkpt lat="45.84166" lon="4.75242">
        <ele>368</ele>
        <time>2017-09-08T13:51:37.1Z</time>
      </trkpt>
      <trkpt lat="45.8416" lon="4.75247">
        <ele>368</ele>
        <time>2017-09-08T13:51:39.1Z</time>
      </trkpt>
      <trkpt lat="45.84158" lon="4.75249">
        <ele>368</ele>
        <time>2017-09-08T13:51:40.1Z</time>
      </trkpt>
      <trkpt lat="45.84155" lon="4.75251">
        <ele>368</ele>
        <time>2017-09-08T13:51:41.1Z</time>
      </trkpt>
      <trkpt lat="45.84153" lon="4.75254">
        <ele>368</ele>
        <time>2017-09-08T13:51:42.1Z</time>
      </trkpt>
      <trkpt lat="45.8415" lon="4.75256">
        <ele>368</ele>
        <time>2017-09-08T13:51:43.1Z</time>
      </trkpt>
      <trkpt lat="45.84146" lon="4.75259">
        <ele>368</ele>
        <time>2017-09-08T13:51:44.1Z</time>
      </trkpt>
      <trkpt lat="45.8414" lon="4.75265">
        <ele>368</ele>
        <time>2017-09-08T13:51:46.1Z</time>
      </trkpt>
      <trkpt lat="45.84137" lon="4.75268">
        <ele>368</ele>
        <time>2017-09-08T13:51:47.1Z</time>
      </trkpt>
      <trkpt lat="45.84134" lon="4.75271">
        <ele>368</ele>
        <time>2017-09-08T13:51:48.1Z</time>
      </trkpt>
      <trkpt lat="45.8413" lon="4.75274">
        <ele>368</ele>
        <time>2017-09-08T13:51:49.1Z</time>
      </trkpt>
      <trkpt lat="45.84127" lon="4.75277">
        <ele>368</ele>
        <time>2017-09-08T13:51:50.1Z</time>
      </trkpt>
      <trkpt lat="45.84124" lon="4.75279">
        <ele>368</ele>
        <time>2017-09-08T13:51:51.1Z</time>
      </trkpt>
      <trkpt lat="45.84119" lon="4.75283">
        <ele>368</ele>
        <time>2017-09-08T13:51:53.1Z</time>
      </trkpt>
      <trkpt lat="45.84116" lon="4.75286">
        <ele>368</ele>
        <time>2017-09-08T13:51:54.1Z</time>
      </trkpt>
      <trkpt lat="45.84114" lon="4.75288">
        <ele>368</ele>
        <time>2017-09-08T13:51:55.1Z</time>
      </trkpt>
      <trkpt lat="45.84112" lon="4.75289">
        <ele>368</ele>
        <time>2017-09-08T13:51:56.1Z</time>
      </trkpt>
      <trkpt lat="45.84112" lon="4.7529">
        <ele>368</ele>
        <time>2017-09-08T13:51:57.1Z</time>
      </trkpt>
      <trkpt lat="45.84112" lon="4.7529">
        <ele>368</ele>
        <time>2017-09-08T13:51:58.1Z</time>
      </trkpt>
      <trkpt lat="45.84111" lon="4.7529">
        <ele>368</ele>
        <time>2017-09-08T13:51:59.1Z</time>
      </trkpt>
      <trkpt lat="45.84111" lon="4.7529">
        <ele>368</ele>
        <time>2017-09-08T13:52:01.1Z</time>
      </trkpt>
      <trkpt lat="45.84111" lon="4.7529">
        <ele>368</ele>
        <time>2017-09-08T13:52:03.1Z</time>
      </trkpt>
      <trkpt lat="45.84111" lon="4.7529">
        <ele>368</ele>
        <time>2017-09-08T13:52:04.1Z</time>
      </trkpt>
      <trkpt lat="45.84111" lon="4.7529">
        <ele>368</ele>
        <time>2017-09-08T13:52:06.1Z</time>
      </trkpt>
      <trkpt lat="45.8411" lon="4.75291">
        <ele>368</ele>
        <time>2017-09-08T13:52:07.1Z</time>
      </trkpt>
      <trkpt lat="45.84108" lon="4.75294">
        <ele>368</ele>
        <time>2017-09-08T13:52:09.1Z</time>
      </trkpt>
      <trkpt lat="45.84106" lon="4.75296">
        <ele>368</ele>
        <time>2017-09-08T13:52:10.1Z</time>
      </trkpt>
      <trkpt lat="45.84104" lon="4.75298">
        <ele>368</ele>
        <time>2017-09-08T13:52:11.1Z</time>
      </trkpt>
      <trkpt lat="45.84102" lon="4.753">
        <ele>368</ele>
        <time>2017-09-08T13:52:12.1Z</time>
      </trkpt>
      <trkpt lat="45.84097" lon="4.75304">
        <ele>368</ele>
        <time>2017-09-08T13:52:14.1Z</time>
      </trkpt>
      <trkpt lat="45.8409" lon="4.7531">
        <ele>369</ele>
        <time>2017-09-08T13:52:16.1Z</time>
      </trkpt>
      <trkpt lat="45.84083" lon="4.75315">
        <ele>369</ele>
        <time>2017-09-08T13:52:18.1Z</time>
      </trkpt>
      <trkpt lat="45.84075" lon="4.75322">
        <ele>369</ele>
        <time>2017-09-08T13:52:20.1Z</time>
      </trkpt>
      <trkpt lat="45.84071" lon="4.75327">
        <ele>369</ele>
        <time>2017-09-08T13:52:21.1Z</time>
      </trkpt>
      <trkpt lat="45.84062" lon="4.75336">
        <ele>369</ele>
        <time>2017-09-08T13:52:23.1Z</time>
      </trkpt>
      <trkpt lat="45.84057" lon="4.7534">
        <ele>369</ele>
        <time>2017-09-08T13:52:24.1Z</time>
      </trkpt>
      <trkpt lat="45.84052" lon="4.75345">
        <ele>369</ele>
        <time>2017-09-08T13:52:25.1Z</time>
      </trkpt>
      <trkpt lat="45.84047" lon="4.7535">
        <ele>369</ele>
        <time>2017-09-08T13:52:26.1Z</time>
      </trkpt>
      <trkpt lat="45.84038" lon="4.75359">
        <ele>369</ele>
        <time>2017-09-08T13:52:28.1Z</time>
      </trkpt>
      <trkpt lat="45.84029" lon="4.75368">
        <ele>369</ele>
        <time>2017-09-08T13:52:30.1Z</time>
      </trkpt>
      <trkpt lat="45.84025" lon="4.75372">
        <ele>369</ele>
        <time>2017-09-08T13:52:31.1Z</time>
      </trkpt>
      <trkpt lat="45.84021" lon="4.75376">
        <ele>370</ele>
        <time>2017-09-08T13:52:32.1Z</time>
      </trkpt>
      <trkpt lat="45.84017" lon="4.7538">
        <ele>370</ele>
        <time>2017-09-08T13:52:33.1Z</time>
      </trkpt>
      <trkpt lat="45.84013" lon="4.75385">
        <ele>370</ele>
        <time>2017-09-08T13:52:34.1Z</time>
      </trkpt>
      <trkpt lat="45.8401" lon="4.75389">
        <ele>371</ele>
        <time>2017-09-08T13:52:35.1Z</time>
      </trkpt>
      <trkpt lat="45.84002" lon="4.75398">
        <ele>371</ele>
        <time>2017-09-08T13:52:37.1Z</time>
      </trkpt>
      <trkpt lat="45.83999" lon="4.75402">
        <ele>372</ele>
        <time>2017-09-08T13:52:38.1Z</time>
      </trkpt>
      <trkpt lat="45.83992" lon="4.75412">
        <ele>372</ele>
        <time>2017-09-08T13:52:40.1Z</time>
      </trkpt>
      <trkpt lat="45.83987" lon="4.75423">
        <ele>373</ele>
        <time>2017-09-08T13:52:42.1Z</time>
      </trkpt>
      <trkpt lat="45.83985" lon="4.75429">
        <ele>373</ele>
        <time>2017-09-08T13:52:43.1Z</time>
      </trkpt>
      <trkpt lat="45.83984" lon="4.75436">
        <ele>373</ele>
        <time>2017-09-08T13:52:44.1Z</time>
      </trkpt>
      <trkpt lat="45.83982" lon="4.75449">
        <ele>374</ele>
        <time>2017-09-08T13:52:46.1Z</time>
      </trkpt>
      <trkpt lat="45.83981" lon="4.75455">
        <ele>374</ele>
        <time>2017-09-08T13:52:47.1Z</time>
      </trkpt>
      <trkpt lat="45.83979" lon="4.75466">
        <ele>375</ele>
        <time>2017-09-08T13:52:49.1Z</time>
      </trkpt>
      <trkpt lat="45.83978" lon="4.75477">
        <ele>375</ele>
        <time>2017-09-08T13:52:51.1Z</time>
      </trkpt>
      <trkpt lat="45.83976" lon="4.75481">
        <ele>376</ele>
        <time>2017-09-08T13:52:52.1Z</time>
      </trkpt>
      <trkpt lat="45.83974" lon="4.75491">
        <ele>376</ele>
        <time>2017-09-08T13:52:54.1Z</time>
      </trkpt>
      <trkpt lat="45.83973" lon="4.75496">
        <ele>377</ele>
        <time>2017-09-08T13:52:55.1Z</time>
      </trkpt>
      <trkpt lat="45.83971" lon="4.75506">
        <ele>377</ele>
        <time>2017-09-08T13:52:57.1Z</time>
      </trkpt>
      <trkpt lat="45.83971" lon="4.75511">
        <ele>377</ele>
        <time>2017-09-08T13:52:58.1Z</time>
      </trkpt>
      <trkpt lat="45.8397" lon="4.75521">
        <ele>378</ele>
        <time>2017-09-08T13:53:00.1Z</time>
      </trkpt>
      <trkpt lat="45.8397" lon="4.75531">
        <ele>378</ele>
        <time>2017-09-08T13:53:02.1Z</time>
      </trkpt>
      <trkpt lat="45.83971" lon="4.7554">
        <ele>378</ele>
        <time>2017-09-08T13:53:04.1Z</time>
      </trkpt>
      <trkpt lat="45.83971" lon="4.75549">
        <ele>379</ele>
        <time>2017-09-08T13:53:06.1Z</time>
      </trkpt>
      <trkpt lat="45.83971" lon="4.75558">
        <ele>379</ele>
        <time>2017-09-08T13:53:08.1Z</time>
      </trkpt>
      <trkpt lat="45.83973" lon="4.75566">
        <ele>380</ele>
        <time>2017-09-08T13:53:10.1Z</time>
      </trkpt>
      <trkpt lat="45.83973" lon="4.75574">
        <ele>380</ele>
        <time>2017-09-08T13:53:12.1Z</time>
      </trkpt>
      <trkpt lat="45.83975" lon="4.75582">
        <ele>380</ele>
        <time>2017-09-08T13:53:14.1Z</time>
      </trkpt>
      <trkpt lat="45.83976" lon="4.75586">
        <ele>380</ele>
        <time>2017-09-08T13:53:15.1Z</time>
      </trkpt>
      <trkpt lat="45.83977" lon="4.7559">
        <ele>380</ele>
        <time>2017-09-08T13:53:16.1Z</time>
      </trkpt>
      <trkpt lat="45.83979" lon="4.75597">
        <ele>380</ele>
        <time>2017-09-08T13:53:18.1Z</time>
      </trkpt>
      <trkpt lat="45.8398" lon="4.756">
        <ele>380</ele>
        <time>2017-09-08T13:53:19.1Z</time>
      </trkpt>
      <trkpt lat="45.83983" lon="4.75607">
        <ele>380</ele>
        <time>2017-09-08T13:53:21.1Z</time>
      </trkpt>
      <trkpt lat="45.83987" lon="4.75613">
        <ele>380</ele>
        <time>2017-09-08T13:53:23.1Z</time>
      </trkpt>
      <trkpt lat="45.83991" lon="4.7562">
        <ele>380</ele>
        <time>2017-09-08T13:53:25.1Z</time>
      </trkpt>
      <trkpt lat="45.83997" lon="4.75626">
        <ele>379</ele>
        <time>2017-09-08T13:53:27.1Z</time>
      </trkpt>
      <trkpt lat="45.84004" lon="4.75632">
        <ele>379</ele>
        <time>2017-09-08T13:53:29.1Z</time>
      </trkpt>
      <trkpt lat="45.84008" lon="4.75634">
        <ele>379</ele>
        <time>2017-09-08T13:53:30.1Z</time>
      </trkpt>
      <trkpt lat="45.84011" lon="4.75636">
        <ele>379</ele>
        <time>2017-09-08T13:53:31.1Z</time>
      </trkpt>
      <trkpt lat="45.84018" lon="4.7564">
        <ele>379</ele>
        <time>2017-09-08T13:53:33.1Z</time>
      </trkpt>
      <trkpt lat="45.84021" lon="4.75643">
        <ele>379</ele>
        <time>2017-09-08T13:53:34.1Z</time>
      </trkpt>
      <trkpt lat="45.84024" lon="4.75645">
        <ele>379</ele>
        <time>2017-09-08T13:53:35.1Z</time>
      </trkpt>
      <trkpt lat="45.84031" lon="4.75648">
        <ele>379</ele>
        <time>2017-09-08T13:53:37.1Z</time>
      </trkpt>
      <trkpt lat="45.84037" lon="4.75652">
        <ele>379</ele>
        <time>2017-09-08T13:53:39.1Z</time>
      </trkpt>
      <trkpt lat="45.8404" lon="4.75654">
        <ele>379</ele>
        <time>2017-09-08T13:53:40.1Z</time>
      </trkpt>
      <trkpt lat="45.84043" lon="4.75656">
        <ele>379</ele>
        <time>2017-09-08T13:53:41.1Z</time>
      </trkpt>
      <trkpt lat="45.84047" lon="4.75658">
        <ele>379</ele>
        <time>2017-09-08T13:53:42.1Z</time>
      </trkpt>
      <trkpt lat="45.84054" lon="4.75661">
        <ele>379</ele>
        <time>2017-09-08T13:53:44.1Z</time>
      </trkpt>
      <trkpt lat="45.84057" lon="4.75663">
        <ele>379</ele>
        <time>2017-09-08T13:53:45.1Z</time>
      </trkpt>
      <trkpt lat="45.8406" lon="4.75666">
        <ele>380</ele>
        <time>2017-09-08T13:53:46.1Z</time>
      </trkpt>
      <trkpt lat="45.84066" lon="4.7567">
        <ele>379</ele>
        <time>2017-09-08T13:53:48.1Z</time>
      </trkpt>
      <trkpt lat="45.84069" lon="4.75673">
        <ele>380</ele>
        <time>2017-09-08T13:53:49.1Z</time>
      </trkpt>
      <trkpt lat="45.84071" lon="4.75676">
        <ele>380</ele>
        <time>2017-09-08T13:53:50.1Z</time>
      </trkpt>
      <trkpt lat="45.84077" lon="4.75681">
        <ele>380</ele>
        <time>2017-09-08T13:53:52.1Z</time>
      </trkpt>
      <trkpt lat="45.84082" lon="4.75688">
        <ele>380</ele>
        <time>2017-09-08T13:53:54.1Z</time>
      </trkpt>
      <trkpt lat="45.84085" lon="4.75692">
        <ele>380</ele>
        <time>2017-09-08T13:53:56.1Z</time>
      </trkpt>
      <trkpt lat="45.84088" lon="4.75696">
        <ele>380</ele>
        <time>2017-09-08T13:53:58.1Z</time>
      </trkpt>
      <trkpt lat="45.8409" lon="4.75699">
        <ele>380</ele>
        <time>2017-09-08T13:53:59.1Z</time>
      </trkpt>
      <trkpt lat="45.84094" lon="4.75704">
        <ele>380</ele>
        <time>2017-09-08T13:54:01.1Z</time>
      </trkpt>
      <trkpt lat="45.84096" lon="4.75707">
        <ele>381</ele>
        <time>2017-09-08T13:54:02.1Z</time>
      </trkpt>
      <trkpt lat="45.84099" lon="4.75709">
        <ele>381</ele>
        <time>2017-09-08T13:54:03.1Z</time>
      </trkpt>
      <trkpt lat="45.84102" lon="4.75711">
        <ele>381</ele>
        <time>2017-09-08T13:54:04.1Z</time>
      </trkpt>
      <trkpt lat="45.84105" lon="4.75713">
        <ele>381</ele>
        <time>2017-09-08T13:54:05.1Z</time>
      </trkpt>
      <trkpt lat="45.84107" lon="4.75714">
        <ele>381</ele>
        <time>2017-09-08T13:54:06.1Z</time>
      </trkpt>
      <trkpt lat="45.84109" lon="4.75714">
        <ele>381</ele>
        <time>2017-09-08T13:54:07.1Z</time>
      </trkpt>
      <trkpt lat="45.8411" lon="4.75714">
        <ele>381</ele>
        <time>2017-09-08T13:54:08.1Z</time>
      </trkpt>
      <trkpt lat="45.84111" lon="4.75715">
        <ele>381</ele>
        <time>2017-09-08T13:54:10.1Z</time>
      </trkpt>
      <trkpt lat="45.84111" lon="4.75716">
        <ele>381</ele>
        <time>2017-09-08T13:54:11.1Z</time>
      </trkpt>
      <trkpt lat="45.84111" lon="4.75716">
        <ele>382</ele>
        <time>2017-09-08T13:54:12.1Z</time>
      </trkpt>
      <trkpt lat="45.84112" lon="4.75716">
        <ele>381</ele>
        <time>2017-09-08T13:54:15.1Z</time>
      </trkpt>
      <trkpt lat="45.84112" lon="4.75714">
        <ele>381</ele>
        <time>2017-09-08T13:54:16.1Z</time>
      </trkpt>
      <trkpt lat="45.84112" lon="4.75716">
        <ele>381</ele>
        <time>2017-09-08T13:54:17.1Z</time>
      </trkpt>
      <trkpt lat="45.84115" lon="4.75721">
        <ele>381</ele>
        <time>2017-09-08T13:54:19.1Z</time>
      </trkpt>
      <trkpt lat="45.84119" lon="4.75727">
        <ele>382</ele>
        <time>2017-09-08T13:54:21.1Z</time>
      </trkpt>
      <trkpt lat="45.84121" lon="4.75729">
        <ele>382</ele>
        <time>2017-09-08T13:54:22.1Z</time>
      </trkpt>
      <trkpt lat="45.84126" lon="4.75735">
        <ele>382</ele>
        <time>2017-09-08T13:54:24.1Z</time>
      </trkpt>
      <trkpt lat="45.84127" lon="4.75737">
        <ele>382</ele>
        <time>2017-09-08T13:54:26.1Z</time>
      </trkpt>
      <trkpt lat="45.84132" lon="4.75743">
        <ele>382</ele>
        <time>2017-09-08T13:54:27.1Z</time>
      </trkpt>
      <trkpt lat="45.84135" lon="4.75745">
        <ele>382</ele>
        <time>2017-09-08T13:54:28.1Z</time>
      </trkpt>
      <trkpt lat="45.8414" lon="4.75751">
        <ele>383</ele>
        <time>2017-09-08T13:54:30.1Z</time>
      </trkpt>
      <trkpt lat="45.84142" lon="4.75754">
        <ele>383</ele>
        <time>2017-09-08T13:54:31.1Z</time>
      </trkpt>
      <trkpt lat="45.84147" lon="4.7576">
        <ele>383</ele>
        <time>2017-09-08T13:54:33.1Z</time>
      </trkpt>
      <trkpt lat="45.8415" lon="4.75763">
        <ele>384</ele>
        <time>2017-09-08T13:54:34.1Z</time>
      </trkpt>
      <trkpt lat="45.84155" lon="4.75768">
        <ele>385</ele>
        <time>2017-09-08T13:54:36.1Z</time>
      </trkpt>
      <trkpt lat="45.84157" lon="4.75771">
        <ele>385</ele>
        <time>2017-09-08T13:54:37.1Z</time>
      </trkpt>
      <trkpt lat="45.8416" lon="4.75773">
        <ele>385</ele>
        <time>2017-09-08T13:54:39.1Z</time>
      </trkpt>
      <trkpt lat="45.84162" lon="4.75776">
        <ele>385</ele>
        <time>2017-09-08T13:54:40.1Z</time>
      </trkpt>
      <trkpt lat="45.84164" lon="4.75778">
        <ele>386</ele>
        <time>2017-09-08T13:54:41.1Z</time>
      </trkpt>
      <trkpt lat="45.84169" lon="4.75783">
        <ele>386</ele>
        <time>2017-09-08T13:54:42.1Z</time>
      </trkpt>
      <trkpt lat="45.84171" lon="4.75785">
        <ele>386</ele>
        <time>2017-09-08T13:54:44.1Z</time>
      </trkpt>
      <trkpt lat="45.84173" lon="4.75787">
        <ele>386</ele>
        <time>2017-09-08T13:54:45.1Z</time>
      </trkpt>
      <trkpt lat="45.84175" lon="4.75789">
        <ele>387</ele>
        <time>2017-09-08T13:54:46.1Z</time>
      </trkpt>
      <trkpt lat="45.84177" lon="4.75791">
        <ele>387</ele>
        <time>2017-09-08T13:54:47.1Z</time>
      </trkpt>
      <trkpt lat="45.84181" lon="4.75796">
        <ele>388</ele>
        <time>2017-09-08T13:54:48.1Z</time>
      </trkpt>
      <trkpt lat="45.84183" lon="4.75797">
        <ele>388</ele>
        <time>2017-09-08T13:54:50.1Z</time>
      </trkpt>
      <trkpt lat="45.84185" lon="4.758">
        <ele>388</ele>
        <time>2017-09-08T13:54:51.1Z</time>
      </trkpt>
      <trkpt lat="45.84187" lon="4.75802">
        <ele>388</ele>
        <time>2017-09-08T13:54:52.1Z</time>
      </trkpt>
      <trkpt lat="45.84189" lon="4.75804">
        <ele>388</ele>
        <time>2017-09-08T13:54:53.1Z</time>
      </trkpt>
      <trkpt lat="45.84193" lon="4.75808">
        <ele>389</ele>
        <time>2017-09-08T13:54:54.1Z</time>
      </trkpt>
      <trkpt lat="45.84195" lon="4.7581">
        <ele>389</ele>
        <time>2017-09-08T13:54:56.1Z</time>
      </trkpt>
      <trkpt lat="45.84198" lon="4.75813">
        <ele>389</ele>
        <time>2017-09-08T13:54:57.1Z</time>
      </trkpt>
      <trkpt lat="45.84199" lon="4.75815">
        <ele>389</ele>
        <time>2017-09-08T13:54:58.1Z</time>
      </trkpt>
      <trkpt lat="45.84202" lon="4.75819">
        <ele>390</ele>
        <time>2017-09-08T13:55:01.1Z</time>
      </trkpt>
      <trkpt lat="45.84205" lon="4.75822">
        <ele>390</ele>
        <time>2017-09-08T13:55:02.1Z</time>
      </trkpt>
      <trkpt lat="45.84208" lon="4.75826">
        <ele>391</ele>
        <time>2017-09-08T13:55:04.1Z</time>
      </trkpt>
      <trkpt lat="45.84209" lon="4.75828">
        <ele>391</ele>
        <time>2017-09-08T13:55:05.1Z</time>
      </trkpt>
      <trkpt lat="45.84212" lon="4.75831">
        <ele>391</ele>
        <time>2017-09-08T13:55:08.1Z</time>
      </trkpt>
      <trkpt lat="45.84214" lon="4.75835">
        <ele>392</ele>
        <time>2017-09-08T13:55:09.1Z</time>
      </trkpt>
      <trkpt lat="45.84216" lon="4.75837">
        <ele>392</ele>
        <time>2017-09-08T13:55:10.1Z</time>
      </trkpt>
      <trkpt lat="45.84218" lon="4.7584">
        <ele>392</ele>
        <time>2017-09-08T13:55:12.1Z</time>
      </trkpt>
      <trkpt lat="45.84219" lon="4.75842">
        <ele>392</ele>
        <time>2017-09-08T13:55:13.1Z</time>
      </trkpt>
      <trkpt lat="45.84221" lon="4.75843">
        <ele>393</ele>
        <time>2017-09-08T13:55:14.1Z</time>
      </trkpt>
      <trkpt lat="45.84223" lon="4.75847">
        <ele>393</ele>
        <time>2017-09-08T13:55:16.1Z</time>
      </trkpt>
      <trkpt lat="45.84224" lon="4.75849">
        <ele>393</ele>
        <time>2017-09-08T13:55:17.1Z</time>
      </trkpt>
      <trkpt lat="45.84227" lon="4.75852">
        <ele>394</ele>
        <time>2017-09-08T13:55:19.1Z</time>
      </trkpt>
      <trkpt lat="45.8423" lon="4.75855">
        <ele>394</ele>
        <time>2017-09-08T13:55:21.1Z</time>
      </trkpt>
      <trkpt lat="45.84231" lon="4.75857">
        <ele>394</ele>
        <time>2017-09-08T13:55:23.1Z</time>
      </trkpt>
      <trkpt lat="45.84232" lon="4.75858">
        <ele>395</ele>
        <time>2017-09-08T13:55:24.1Z</time>
      </trkpt>
      <trkpt lat="45.84233" lon="4.7586">
        <ele>395</ele>
        <time>2017-09-08T13:55:25.1Z</time>
      </trkpt>
      <trkpt lat="45.84235" lon="4.75863">
        <ele>395</ele>
        <time>2017-09-08T13:55:26.1Z</time>
      </trkpt>
      <trkpt lat="45.84238" lon="4.75867">
        <ele>396</ele>
        <time>2017-09-08T13:55:28.1Z</time>
      </trkpt>
      <trkpt lat="45.8424" lon="4.7587">
        <ele>396</ele>
        <time>2017-09-08T13:55:30.1Z</time>
      </trkpt>
      <trkpt lat="45.84243" lon="4.75873">
        <ele>397</ele>
        <time>2017-09-08T13:55:32.1Z</time>
      </trkpt>
      <trkpt lat="45.84245" lon="4.75877">
        <ele>397</ele>
        <time>2017-09-08T13:55:34.1Z</time>
      </trkpt>
      <trkpt lat="45.84247" lon="4.75881">
        <ele>397</ele>
        <time>2017-09-08T13:55:36.1Z</time>
      </trkpt>
      <trkpt lat="45.84249" lon="4.75885">
        <ele>398</ele>
        <time>2017-09-08T13:55:38.1Z</time>
      </trkpt>
      <trkpt lat="45.84251" lon="4.75889">
        <ele>398</ele>
        <time>2017-09-08T13:55:40.1Z</time>
      </trkpt>
      <trkpt lat="45.84252" lon="4.75891">
        <ele>398</ele>
        <time>2017-09-08T13:55:42.1Z</time>
      </trkpt>
      <trkpt lat="45.84253" lon="4.75893">
        <ele>398</ele>
        <time>2017-09-08T13:55:43.1Z</time>
      </trkpt>
      <trkpt lat="45.84254" lon="4.75898">
        <ele>399</ele>
        <time>2017-09-08T13:55:44.1Z</time>
      </trkpt>
      <trkpt lat="45.84256" lon="4.75903">
        <ele>399</ele>
        <time>2017-09-08T13:55:46.1Z</time>
      </trkpt>
      <trkpt lat="45.84256" lon="4.75906">
        <ele>400</ele>
        <time>2017-09-08T13:55:47.1Z</time>
      </trkpt>
      <trkpt lat="45.84257" lon="4.75912">
        <ele>400</ele>
        <time>2017-09-08T13:55:49.1Z</time>
      </trkpt>
      <trkpt lat="45.84258" lon="4.75918">
        <ele>401</ele>
        <time>2017-09-08T13:55:51.1Z</time>
      </trkpt>
      <trkpt lat="45.84258" lon="4.75925">
        <ele>402</ele>
        <time>2017-09-08T13:55:53.1Z</time>
      </trkpt>
      <trkpt lat="45.84258" lon="4.75933">
        <ele>402</ele>
        <time>2017-09-08T13:55:55.1Z</time>
      </trkpt>
      <trkpt lat="45.84258" lon="4.75937">
        <ele>403</ele>
        <time>2017-09-08T13:55:56.1Z</time>
      </trkpt>
      <trkpt lat="45.84258" lon="4.75944">
        <ele>403</ele>
        <time>2017-09-08T13:55:58.1Z</time>
      </trkpt>
      <trkpt lat="45.84257" lon="4.75948">
        <ele>403</ele>
        <time>2017-09-08T13:55:59.1Z</time>
      </trkpt>
      <trkpt lat="45.84257" lon="4.75952">
        <ele>403</ele>
        <time>2017-09-08T13:56:01.1Z</time>
      </trkpt>
      <trkpt lat="45.84256" lon="4.75956">
        <ele>403</ele>
        <time>2017-09-08T13:56:02.1Z</time>
      </trkpt>
      <trkpt lat="45.84255" lon="4.75964">
        <ele>403</ele>
        <time>2017-09-08T13:56:03.1Z</time>
      </trkpt>
      <trkpt lat="45.84253" lon="4.75968">
        <ele>404</ele>
        <time>2017-09-08T13:56:04.1Z</time>
      </trkpt>
      <trkpt lat="45.84251" lon="4.75976">
        <ele>404</ele>
        <time>2017-09-08T13:56:06.1Z</time>
      </trkpt>
      <trkpt lat="45.8425" lon="4.75984">
        <ele>404</ele>
        <time>2017-09-08T13:56:08.1Z</time>
      </trkpt>
      <trkpt lat="45.84248" lon="4.75992">
        <ele>405</ele>
        <time>2017-09-08T13:56:10.1Z</time>
      </trkpt>
      <trkpt lat="45.84247" lon="4.76001">
        <ele>405</ele>
        <time>2017-09-08T13:56:12.1Z</time>
      </trkpt>
      <trkpt lat="45.84246" lon="4.76005">
        <ele>405</ele>
        <time>2017-09-08T13:56:13.1Z</time>
      </trkpt>
      <trkpt lat="45.84245" lon="4.76009">
        <ele>405</ele>
        <time>2017-09-08T13:56:14.1Z</time>
      </trkpt>
      <trkpt lat="45.84244" lon="4.76017">
        <ele>405</ele>
        <time>2017-09-08T13:56:16.1Z</time>
      </trkpt>
      <trkpt lat="45.84242" lon="4.76025">
        <ele>406</ele>
        <time>2017-09-08T13:56:18.1Z</time>
      </trkpt>
      <trkpt lat="45.84241" lon="4.76028">
        <ele>406</ele>
        <time>2017-09-08T13:56:20.1Z</time>
      </trkpt>
      <trkpt lat="45.8424" lon="4.76032">
        <ele>406</ele>
        <time>2017-09-08T13:56:21.1Z</time>
      </trkpt>
      <trkpt lat="45.84238" lon="4.76041">
        <ele>406</ele>
        <time>2017-09-08T13:56:22.1Z</time>
      </trkpt>
      <trkpt lat="45.84237" lon="4.76049">
        <ele>406</ele>
        <time>2017-09-08T13:56:24.1Z</time>
      </trkpt>
      <trkpt lat="45.84235" lon="4.76057">
        <ele>406</ele>
        <time>2017-09-08T13:56:26.1Z</time>
      </trkpt>
      <trkpt lat="45.84233" lon="4.76064">
        <ele>407</ele>
        <time>2017-09-08T13:56:28.1Z</time>
      </trkpt>
      <trkpt lat="45.84232" lon="4.76072">
        <ele>407</ele>
        <time>2017-09-08T13:56:30.1Z</time>
      </trkpt>
      <trkpt lat="45.8423" lon="4.76079">
        <ele>407</ele>
        <time>2017-09-08T13:56:32.1Z</time>
      </trkpt>
      <trkpt lat="45.84228" lon="4.76087">
        <ele>408</ele>
        <time>2017-09-08T13:56:34.1Z</time>
      </trkpt>
      <trkpt lat="45.84226" lon="4.76093">
        <ele>408</ele>
        <time>2017-09-08T13:56:36.1Z</time>
      </trkpt>
      <trkpt lat="45.84225" lon="4.76097">
        <ele>408</ele>
        <time>2017-09-08T13:56:38.1Z</time>
      </trkpt>
      <trkpt lat="45.84226" lon="4.761">
        <ele>408</ele>
        <time>2017-09-08T13:56:39.1Z</time>
      </trkpt>
      <trkpt lat="45.8423" lon="4.76097">
        <ele>408</ele>
        <time>2017-09-08T13:56:40.1Z</time>
      </trkpt>
      <trkpt lat="45.8423" lon="4.76094">
        <ele>409</ele>
        <time>2017-09-08T13:56:41.1Z</time>
      </trkpt>
      <trkpt lat="45.8423" lon="4.76086">
        <ele>408</ele>
        <time>2017-09-08T13:56:43.1Z</time>
      </trkpt>
      <trkpt lat="45.84227" lon="4.7608">
        <ele>408</ele>
        <time>2017-09-08T13:56:45.1Z</time>
      </trkpt>
      <trkpt lat="45.84225" lon="4.76074">
        <ele>408</ele>
        <time>2017-09-08T13:56:47.1Z</time>
      </trkpt>
      <trkpt lat="45.84224" lon="4.76072">
        <ele>408</ele>
        <time>2017-09-08T13:56:48.1Z</time>
      </trkpt>
      <trkpt lat="45.84224" lon="4.76071">
        <ele>408</ele>
        <time>2017-09-08T13:56:50.1Z</time>
      </trkpt>
      <trkpt lat="45.84224" lon="4.76071">
        <ele>408</ele>
        <time>2017-09-08T13:56:52.1Z</time>
      </trkpt>
      <trkpt lat="45.84224" lon="4.76071">
        <ele>408</ele>
        <time>2017-09-08T13:56:54.1Z</time>
      </trkpt>
      <trkpt lat="45.84224" lon="4.76072">
        <ele>408</ele>
        <time>2017-09-08T13:56:55.1Z</time>
      </trkpt>
      <trkpt lat="45.84224" lon="4.76072">
        <ele>408</ele>
        <time>2017-09-08T13:56:57.1Z</time>
      </trkpt>
      <trkpt lat="45.84224" lon="4.76073">
        <ele>408</ele>
        <time>2017-09-08T13:57:00.1Z</time>
      </trkpt>
      <trkpt lat="45.84225" lon="4.76073">
        <ele>408</ele>
        <time>2017-09-08T13:57:02.1Z</time>
      </trkpt>
      <trkpt lat="45.84226" lon="4.76073">
        <ele>408</ele>
        <time>2017-09-08T13:57:03.1Z</time>
      </trkpt>
      <trkpt lat="45.84227" lon="4.76075">
        <ele>408</ele>
        <time>2017-09-08T13:57:06.1Z</time>
      </trkpt>
      <trkpt lat="45.84228" lon="4.76079">
        <ele>408</ele>
        <time>2017-09-08T13:57:07.1Z</time>
      </trkpt>
      <trkpt lat="45.84228" lon="4.76082">
        <ele>407</ele>
        <time>2017-09-08T13:57:08.1Z</time>
      </trkpt>
      <trkpt lat="45.84226" lon="4.7609">
        <ele>407</ele>
        <time>2017-09-08T13:57:10.1Z</time>
      </trkpt>
      <trkpt lat="45.84224" lon="4.76098">
        <ele>408</ele>
        <time>2017-09-08T13:57:12.1Z</time>
      </trkpt>
      <trkpt lat="45.84222" lon="4.76107">
        <ele>408</ele>
        <time>2017-09-08T13:57:14.1Z</time>
      </trkpt>
      <trkpt lat="45.84221" lon="4.76111">
        <ele>408</ele>
        <time>2017-09-08T13:57:15.1Z</time>
      </trkpt>
      <trkpt lat="45.84219" lon="4.76119">
        <ele>408</ele>
        <time>2017-09-08T13:57:17.1Z</time>
      </trkpt>
      <trkpt lat="45.84217" lon="4.76129">
        <ele>409</ele>
        <time>2017-09-08T13:57:19.1Z</time>
      </trkpt>
      <trkpt lat="45.84215" lon="4.76139">
        <ele>409</ele>
        <time>2017-09-08T13:57:21.1Z</time>
      </trkpt>
      <trkpt lat="45.84213" lon="4.7615">
        <ele>410</ele>
        <time>2017-09-08T13:57:23.1Z</time>
      </trkpt>
      <trkpt lat="45.84213" lon="4.76155">
        <ele>410</ele>
        <time>2017-09-08T13:57:25.1Z</time>
      </trkpt>
      <trkpt lat="45.84212" lon="4.7616">
        <ele>410</ele>
        <time>2017-09-08T13:57:26.1Z</time>
      </trkpt>
      <trkpt lat="45.84211" lon="4.76169">
        <ele>411</ele>
        <time>2017-09-08T13:57:27.1Z</time>
      </trkpt>
      <trkpt lat="45.84211" lon="4.76174">
        <ele>411</ele>
        <time>2017-09-08T13:57:28.1Z</time>
      </trkpt>
      <trkpt lat="45.84211" lon="4.7618">
        <ele>411</ele>
        <time>2017-09-08T13:57:29.1Z</time>
      </trkpt>
      <trkpt lat="45.84211" lon="4.76191">
        <ele>411</ele>
        <time>2017-09-08T13:57:31.1Z</time>
      </trkpt>
      <trkpt lat="45.84212" lon="4.76202">
        <ele>411</ele>
        <time>2017-09-08T13:57:33.1Z</time>
      </trkpt>
      <trkpt lat="45.84214" lon="4.76214">
        <ele>411</ele>
        <time>2017-09-08T13:57:35.1Z</time>
      </trkpt>
      <trkpt lat="45.84216" lon="4.76225">
        <ele>412</ele>
        <time>2017-09-08T13:57:37.1Z</time>
      </trkpt>
      <trkpt lat="45.84217" lon="4.76235">
        <ele>412</ele>
        <time>2017-09-08T13:57:39.1Z</time>
      </trkpt>
      <trkpt lat="45.84217" lon="4.76245">
        <ele>413</ele>
        <time>2017-09-08T13:57:41.1Z</time>
      </trkpt>
      <trkpt lat="45.84216" lon="4.76248">
        <ele>414</ele>
        <time>2017-09-08T13:57:43.1Z</time>
      </trkpt>
      <trkpt lat="45.84215" lon="4.76251">
        <ele>414</ele>
        <time>2017-09-08T13:57:44.1Z</time>
      </trkpt>
      <trkpt lat="45.84214" lon="4.76253">
        <ele>414</ele>
        <time>2017-09-08T13:57:45.1Z</time>
      </trkpt>
      <trkpt lat="45.84214" lon="4.76253">
        <ele>414</ele>
        <time>2017-09-08T13:57:47.1Z</time>
      </trkpt>
      <trkpt lat="45.84214" lon="4.76254">
        <ele>414</ele>
        <time>2017-09-08T13:57:48.1Z</time>
      </trkpt>
      <trkpt lat="45.84214" lon="4.76254">
        <ele>414</ele>
        <time>2017-09-08T13:57:49.1Z</time>
      </trkpt>
      <trkpt lat="45.84214" lon="4.76254">
        <ele>414</ele>
        <time>2017-09-08T13:57:51.1Z</time>
      </trkpt>
      <trkpt lat="45.84214" lon="4.76254">
        <ele>414</ele>
        <time>2017-09-08T13:57:53.1Z</time>
      </trkpt>
      <trkpt lat="45.84214" lon="4.76255">
        <ele>414</ele>
        <time>2017-09-08T13:57:55.1Z</time>
      </trkpt>
      <trkpt lat="45.84214" lon="4.76256">
        <ele>414</ele>
        <time>2017-09-08T13:57:56.1Z</time>
      </trkpt>
      <trkpt lat="45.84216" lon="4.76256">
        <ele>414</ele>
        <time>2017-09-08T13:57:57.1Z</time>
      </trkpt>
      <trkpt lat="45.84218" lon="4.76255">
        <ele>414</ele>
        <time>2017-09-08T13:57:59.1Z</time>
      </trkpt>
      <trkpt lat="45.84219" lon="4.76255">
        <ele>414</ele>
        <time>2017-09-08T13:58:00.1Z</time>
      </trkpt>
      <trkpt lat="45.84219" lon="4.76255">
        <ele>414</ele>
        <time>2017-09-08T13:58:02.1Z</time>
      </trkpt>
      <trkpt lat="45.84219" lon="4.76255">
        <ele>415</ele>
        <time>2017-09-08T13:58:04.1Z</time>
      </trkpt>
      <trkpt lat="45.84215" lon="4.7625">
        <ele>414</ele>
        <time>2017-09-08T13:58:06.1Z</time>
      </trkpt>
      <trkpt lat="45.84213" lon="4.76251">
        <ele>414</ele>
        <time>2017-09-08T13:58:07.1Z</time>
      </trkpt>
      <trkpt lat="45.84211" lon="4.76252">
        <ele>414</ele>
        <time>2017-09-08T13:58:08.1Z</time>
      </trkpt>
      <trkpt lat="45.84207" lon="4.76257">
        <ele>414</ele>
        <time>2017-09-08T13:58:10.1Z</time>
      </trkpt>
      <trkpt lat="45.84203" lon="4.76263">
        <ele>414</ele>
        <time>2017-09-08T13:58:12.1Z</time>
      </trkpt>
      <trkpt lat="45.842" lon="4.76266">
        <ele>414</ele>
        <time>2017-09-08T13:58:13.1Z</time>
      </trkpt>
      <trkpt lat="45.84194" lon="4.76271">
        <ele>414</ele>
        <time>2017-09-08T13:58:15.1Z</time>
      </trkpt>
      <trkpt lat="45.84187" lon="4.76276">
        <ele>414</ele>
        <time>2017-09-08T13:58:17.1Z</time>
      </trkpt>
      <trkpt lat="45.84179" lon="4.76277">
        <ele>414</ele>
        <time>2017-09-08T13:58:19.1Z</time>
      </trkpt>
      <trkpt lat="45.84174" lon="4.76278">
        <ele>414</ele>
        <time>2017-09-08T13:58:20.1Z</time>
      </trkpt>
      <trkpt lat="45.84164" lon="4.76278">
        <ele>414</ele>
        <time>2017-09-08T13:58:22.1Z</time>
      </trkpt>
      <trkpt lat="45.84153" lon="4.76278">
        <ele>414</ele>
        <time>2017-09-08T13:58:24.1Z</time>
      </trkpt>
      <trkpt lat="45.84142" lon="4.76279">
        <ele>415</ele>
        <time>2017-09-08T13:58:26.1Z</time>
      </trkpt>
      <trkpt lat="45.84131" lon="4.7628">
        <ele>415</ele>
        <time>2017-09-08T13:58:28.1Z</time>
      </trkpt>
      <trkpt lat="45.84125" lon="4.7628">
        <ele>415</ele>
        <time>2017-09-08T13:58:29.1Z</time>
      </trkpt>
      <trkpt lat="45.84114" lon="4.76282">
        <ele>415</ele>
        <time>2017-09-08T13:58:31.1Z</time>
      </trkpt>
      <trkpt lat="45.84108" lon="4.76283">
        <ele>415</ele>
        <time>2017-09-08T13:58:32.1Z</time>
      </trkpt>
      <trkpt lat="45.84103" lon="4.76284">
        <ele>415</ele>
        <time>2017-09-08T13:58:33.1Z</time>
      </trkpt>
      <trkpt lat="45.84097" lon="4.76284">
        <ele>415</ele>
        <time>2017-09-08T13:58:34.1Z</time>
      </trkpt>
      <trkpt lat="45.84085" lon="4.76286">
        <ele>415</ele>
        <time>2017-09-08T13:58:36.1Z</time>
      </trkpt>
      <trkpt lat="45.84074" lon="4.76291">
        <ele>416</ele>
        <time>2017-09-08T13:58:38.1Z</time>
      </trkpt>
      <trkpt lat="45.84069" lon="4.76295">
        <ele>416</ele>
        <time>2017-09-08T13:58:39.1Z</time>
      </trkpt>
      <trkpt lat="45.84063" lon="4.76298">
        <ele>416</ele>
        <time>2017-09-08T13:58:40.1Z</time>
      </trkpt>
      <trkpt lat="45.84058" lon="4.76301">
        <ele>417</ele>
        <time>2017-09-08T13:58:41.1Z</time>
      </trkpt>
      <trkpt lat="45.84048" lon="4.76308">
        <ele>417</ele>
        <time>2017-09-08T13:58:43.1Z</time>
      </trkpt>
      <trkpt lat="45.84038" lon="4.76312">
        <ele>417</ele>
        <time>2017-09-08T13:58:45.1Z</time>
      </trkpt>
      <trkpt lat="45.84027" lon="4.76315">
        <ele>417</ele>
        <time>2017-09-08T13:58:47.1Z</time>
      </trkpt>
      <trkpt lat="45.84017" lon="4.76317">
        <ele>417</ele>
        <time>2017-09-08T13:58:49.1Z</time>
      </trkpt>
      <trkpt lat="45.84012" lon="4.76317">
        <ele>417</ele>
        <time>2017-09-08T13:58:50.1Z</time>
      </trkpt>
      <trkpt lat="45.84001" lon="4.76316">
        <ele>418</ele>
        <time>2017-09-08T13:58:52.1Z</time>
      </trkpt>
      <trkpt lat="45.83996" lon="4.76315">
        <ele>418</ele>
        <time>2017-09-08T13:58:53.1Z</time>
      </trkpt>
      <trkpt lat="45.8399" lon="4.76315">
        <ele>418</ele>
        <time>2017-09-08T13:58:54.1Z</time>
      </trkpt>
      <trkpt lat="45.8398" lon="4.76314">
        <ele>418</ele>
        <time>2017-09-08T13:58:56.1Z</time>
      </trkpt>
      <trkpt lat="45.83969" lon="4.76315">
        <ele>419</ele>
        <time>2017-09-08T13:58:58.1Z</time>
      </trkpt>
      <trkpt lat="45.83964" lon="4.76316">
        <ele>419</ele>
        <time>2017-09-08T13:58:59.1Z</time>
      </trkpt>
      <trkpt lat="45.83953" lon="4.76319">
        <ele>419</ele>
        <time>2017-09-08T13:59:01.1Z</time>
      </trkpt>
      <trkpt lat="45.83942" lon="4.76322">
        <ele>419</ele>
        <time>2017-09-08T13:59:03.1Z</time>
      </trkpt>
      <trkpt lat="45.83932" lon="4.76327">
        <ele>419</ele>
        <time>2017-09-08T13:59:05.1Z</time>
      </trkpt>
      <trkpt lat="45.83927" lon="4.76329">
        <ele>419</ele>
        <time>2017-09-08T13:59:06.1Z</time>
      </trkpt>
      <trkpt lat="45.83918" lon="4.76334">
        <ele>419</ele>
        <time>2017-09-08T13:59:08.1Z</time>
      </trkpt>
      <trkpt lat="45.83908" lon="4.76342">
        <ele>419</ele>
        <time>2017-09-08T13:59:10.1Z</time>
      </trkpt>
      <trkpt lat="45.83905" lon="4.76346">
        <ele>419</ele>
        <time>2017-09-08T13:59:11.1Z</time>
      </trkpt>
      <trkpt lat="45.83901" lon="4.76352">
        <ele>419</ele>
        <time>2017-09-08T13:59:12.1Z</time>
      </trkpt>
      <trkpt lat="45.83895" lon="4.76364">
        <ele>419</ele>
        <time>2017-09-08T13:59:14.1Z</time>
      </trkpt>
      <trkpt lat="45.83891" lon="4.76377">
        <ele>419</ele>
        <time>2017-09-08T13:59:16.1Z</time>
      </trkpt>
      <trkpt lat="45.8389" lon="4.76392">
        <ele>419</ele>
        <time>2017-09-08T13:59:18.1Z</time>
      </trkpt>
      <trkpt lat="45.83891" lon="4.76399">
        <ele>419</ele>
        <time>2017-09-08T13:59:19.1Z</time>
      </trkpt>
      <trkpt lat="45.83893" lon="4.76412">
        <ele>420</ele>
        <time>2017-09-08T13:59:21.1Z</time>
      </trkpt>
      <trkpt lat="45.83898" lon="4.76425">
        <ele>420</ele>
        <time>2017-09-08T13:59:23.1Z</time>
      </trkpt>
      <trkpt lat="45.83904" lon="4.76437">
        <ele>420</ele>
        <time>2017-09-08T13:59:25.1Z</time>
      </trkpt>
      <trkpt lat="45.83907" lon="4.76443">
        <ele>420</ele>
        <time>2017-09-08T13:59:26.1Z</time>
      </trkpt>
      <trkpt lat="45.8391" lon="4.7645">
        <ele>420</ele>
        <time>2017-09-08T13:59:27.1Z</time>
      </trkpt>
      <trkpt lat="45.83912" lon="4.76456">
        <ele>420</ele>
        <time>2017-09-08T13:59:28.1Z</time>
      </trkpt>
      <trkpt lat="45.83915" lon="4.76471">
        <ele>420</ele>
        <time>2017-09-08T13:59:30.1Z</time>
      </trkpt>
      <trkpt lat="45.83915" lon="4.76485">
        <ele>421</ele>
        <time>2017-09-08T13:59:32.1Z</time>
      </trkpt>
      <trkpt lat="45.83913" lon="4.765">
        <ele>421</ele>
        <time>2017-09-08T13:59:34.1Z</time>
      </trkpt>
      <trkpt lat="45.83909" lon="4.76515">
        <ele>422</ele>
        <time>2017-09-08T13:59:36.1Z</time>
      </trkpt>
      <trkpt lat="45.83906" lon="4.76531">
        <ele>422</ele>
        <time>2017-09-08T13:59:38.1Z</time>
      </trkpt>
      <trkpt lat="45.83905" lon="4.76539">
        <ele>422</ele>
        <time>2017-09-08T13:59:39.1Z</time>
      </trkpt>
      <trkpt lat="45.83909" lon="4.76555">
        <ele>421</ele>
        <time>2017-09-08T13:59:41.1Z</time>
      </trkpt>
      <trkpt lat="45.83913" lon="4.76561">
        <ele>421</ele>
        <time>2017-09-08T13:59:42.1Z</time>
      </trkpt>
      <trkpt lat="45.83917" lon="4.76567">
        <ele>421</ele>
        <time>2017-09-08T13:59:43.1Z</time>
      </trkpt>
      <trkpt lat="45.83927" lon="4.76576">
        <ele>421</ele>
        <time>2017-09-08T13:59:45.1Z</time>
      </trkpt>
      <trkpt lat="45.83936" lon="4.76585">
        <ele>421</ele>
        <time>2017-09-08T13:59:47.1Z</time>
      </trkpt>
      <trkpt lat="45.8394" lon="4.76592">
        <ele>421</ele>
        <time>2017-09-08T13:59:48.1Z</time>
      </trkpt>
      <trkpt lat="45.83945" lon="4.76606">
        <ele>422</ele>
        <time>2017-09-08T13:59:50.1Z</time>
      </trkpt>
      <trkpt lat="45.83949" lon="4.7662">
        <ele>422</ele>
        <time>2017-09-08T13:59:52.1Z</time>
      </trkpt>
      <trkpt lat="45.8395" lon="4.76628">
        <ele>422</ele>
        <time>2017-09-08T13:59:53.1Z</time>
      </trkpt>
      <trkpt lat="45.8395" lon="4.76645">
        <ele>422</ele>
        <time>2017-09-08T13:59:55.1Z</time>
      </trkpt>
      <trkpt lat="45.83948" lon="4.76652">
        <ele>422</ele>
        <time>2017-09-08T13:59:56.1Z</time>
      </trkpt>
      <trkpt lat="45.83945" lon="4.76659">
        <ele>422</ele>
        <time>2017-09-08T13:59:57.1Z</time>
      </trkpt>
      <trkpt lat="45.83941" lon="4.76665">
        <ele>422</ele>
        <time>2017-09-08T13:59:58.1Z</time>
      </trkpt>
      <trkpt lat="45.83932" lon="4.76674">
        <ele>422</ele>
        <time>2017-09-08T14:00:00.1Z</time>
      </trkpt>
      <trkpt lat="45.83928" lon="4.76679">
        <ele>422</ele>
        <time>2017-09-08T14:00:01.1Z</time>
      </trkpt>
      <trkpt lat="45.83923" lon="4.76685">
        <ele>422</ele>
        <time>2017-09-08T14:00:02.1Z</time>
      </trkpt>
      <trkpt lat="45.8392" lon="4.76692">
        <ele>423</ele>
        <time>2017-09-08T14:00:03.1Z</time>
      </trkpt>
      <trkpt lat="45.83918" lon="4.76708">
        <ele>423</ele>
        <time>2017-09-08T14:00:05.1Z</time>
      </trkpt>
      <trkpt lat="45.83918" lon="4.76716">
        <ele>423</ele>
        <time>2017-09-08T14:00:06.1Z</time>
      </trkpt>
      <trkpt lat="45.83919" lon="4.76733">
        <ele>423</ele>
        <time>2017-09-08T14:00:08.1Z</time>
      </trkpt>
      <trkpt lat="45.83921" lon="4.76749">
        <ele>423</ele>
        <time>2017-09-08T14:00:10.1Z</time>
      </trkpt>
      <trkpt lat="45.83922" lon="4.76765">
        <ele>423</ele>
        <time>2017-09-08T14:00:12.1Z</time>
      </trkpt>
      <trkpt lat="45.83923" lon="4.76773">
        <ele>423</ele>
        <time>2017-09-08T14:00:13.1Z</time>
      </trkpt>
      <trkpt lat="45.83928" lon="4.76787">
        <ele>423</ele>
        <time>2017-09-08T14:00:15.1Z</time>
      </trkpt>
      <trkpt lat="45.83933" lon="4.76799">
        <ele>423</ele>
        <time>2017-09-08T14:00:17.1Z</time>
      </trkpt>
      <trkpt lat="45.83941" lon="4.76808">
        <ele>424</ele>
        <time>2017-09-08T14:00:19.1Z</time>
      </trkpt>
      <trkpt lat="45.83945" lon="4.76812">
        <ele>424</ele>
        <time>2017-09-08T14:00:20.1Z</time>
      </trkpt>
      <trkpt lat="45.83949" lon="4.76816">
        <ele>424</ele>
        <time>2017-09-08T14:00:21.1Z</time>
      </trkpt>
      <trkpt lat="45.83954" lon="4.7682">
        <ele>424</ele>
        <time>2017-09-08T14:00:22.1Z</time>
      </trkpt>
      <trkpt lat="45.83963" lon="4.76828">
        <ele>424</ele>
        <time>2017-09-08T14:00:24.1Z</time>
      </trkpt>
      <trkpt lat="45.83967" lon="4.76832">
        <ele>424</ele>
        <time>2017-09-08T14:00:25.1Z</time>
      </trkpt>
      <trkpt lat="45.83976" lon="4.76838">
        <ele>424</ele>
        <time>2017-09-08T14:00:27.1Z</time>
      </trkpt>
      <trkpt lat="45.83981" lon="4.76842">
        <ele>425</ele>
        <time>2017-09-08T14:00:28.1Z</time>
      </trkpt>
      <trkpt lat="45.83988" lon="4.76848">
        <ele>425</ele>
        <time>2017-09-08T14:00:30.1Z</time>
      </trkpt>
      <trkpt lat="45.83997" lon="4.76855">
        <ele>425</ele>
        <time>2017-09-08T14:00:32.1Z</time>
      </trkpt>
      <trkpt lat="45.84001" lon="4.76858">
        <ele>425</ele>
        <time>2017-09-08T14:00:33.1Z</time>
      </trkpt>
      <trkpt lat="45.84005" lon="4.76862">
        <ele>425</ele>
        <time>2017-09-08T14:00:34.1Z</time>
      </trkpt>
      <trkpt lat="45.84012" lon="4.76872">
        <ele>426</ele>
        <time>2017-09-08T14:00:36.1Z</time>
      </trkpt>
      <trkpt lat="45.84017" lon="4.76882">
        <ele>426</ele>
        <time>2017-09-08T14:00:38.1Z</time>
      </trkpt>
      <trkpt lat="45.8402" lon="4.76895">
        <ele>427</ele>
        <time>2017-09-08T14:00:40.1Z</time>
      </trkpt>
      <trkpt lat="45.84019" lon="4.76901">
        <ele>427</ele>
        <time>2017-09-08T14:00:41.1Z</time>
      </trkpt>
      <trkpt lat="45.84015" lon="4.76914">
        <ele>428</ele>
        <time>2017-09-08T14:00:43.1Z</time>
      </trkpt>
      <trkpt lat="45.84008" lon="4.76921">
        <ele>428</ele>
        <time>2017-09-08T14:00:45.1Z</time>
      </trkpt>
      <trkpt lat="45.84001" lon="4.76925">
        <ele>429</ele>
        <time>2017-09-08T14:00:47.1Z</time>
      </trkpt>
      <trkpt lat="45.83995" lon="4.76925">
        <ele>429</ele>
        <time>2017-09-08T14:00:49.1Z</time>
      </trkpt>
      <trkpt lat="45.83991" lon="4.76924">
        <ele>429</ele>
        <time>2017-09-08T14:00:50.1Z</time>
      </trkpt>
      <trkpt lat="45.83984" lon="4.76923">
        <ele>429</ele>
        <time>2017-09-08T14:00:52.1Z</time>
      </trkpt>
      <trkpt lat="45.83977" lon="4.76923">
        <ele>429</ele>
        <time>2017-09-08T14:00:54.1Z</time>
      </trkpt>
      <trkpt lat="45.83974" lon="4.76923">
        <ele>429</ele>
        <time>2017-09-08T14:00:55.1Z</time>
      </trkpt>
      <trkpt lat="45.83971" lon="4.76922">
        <ele>430</ele>
        <time>2017-09-08T14:00:56.1Z</time>
      </trkpt>
      <trkpt lat="45.83964" lon="4.76923">
        <ele>430</ele>
        <time>2017-09-08T14:00:58.1Z</time>
      </trkpt>
      <trkpt lat="45.83958" lon="4.76927">
        <ele>430</ele>
        <time>2017-09-08T14:01:00.1Z</time>
      </trkpt>
      <trkpt lat="45.83956" lon="4.7693">
        <ele>430</ele>
        <time>2017-09-08T14:01:01.1Z</time>
      </trkpt>
      <trkpt lat="45.83952" lon="4.76938">
        <ele>431</ele>
        <time>2017-09-08T14:01:03.1Z</time>
      </trkpt>
      <trkpt lat="45.8395" lon="4.76947">
        <ele>431</ele>
        <time>2017-09-08T14:01:05.1Z</time>
      </trkpt>
      <trkpt lat="45.83949" lon="4.76957">
        <ele>431</ele>
        <time>2017-09-08T14:01:07.1Z</time>
      </trkpt>
      <trkpt lat="45.83949" lon="4.76966">
        <ele>432</ele>
        <time>2017-09-08T14:01:09.1Z</time>
      </trkpt>
      <trkpt lat="45.83949" lon="4.76971">
        <ele>432</ele>
        <time>2017-09-08T14:01:10.1Z</time>
      </trkpt>
      <trkpt lat="45.83948" lon="4.76975">
        <ele>432</ele>
        <time>2017-09-08T14:01:11.1Z</time>
      </trkpt>
      <trkpt lat="45.83948" lon="4.76985">
        <ele>432</ele>
        <time>2017-09-08T14:01:13.1Z</time>
      </trkpt>
      <trkpt lat="45.83948" lon="4.76989">
        <ele>432</ele>
        <time>2017-09-08T14:01:14.1Z</time>
      </trkpt>
      <trkpt lat="45.83948" lon="4.76994">
        <ele>432</ele>
        <time>2017-09-08T14:01:15.1Z</time>
      </trkpt>
      <trkpt lat="45.83949" lon="4.77003">
        <ele>432</ele>
        <time>2017-09-08T14:01:17.1Z</time>
      </trkpt>
      <trkpt lat="45.83949" lon="4.77012">
        <ele>432</ele>
        <time>2017-09-08T14:01:19.1Z</time>
      </trkpt>
      <trkpt lat="45.83948" lon="4.77016">
        <ele>432</ele>
        <time>2017-09-08T14:01:20.1Z</time>
      </trkpt>
      <trkpt lat="45.83947" lon="4.77025">
        <ele>432</ele>
        <time>2017-09-08T14:01:22.1Z</time>
      </trkpt>
      <trkpt lat="45.83946" lon="4.7703">
        <ele>432</ele>
        <time>2017-09-08T14:01:23.1Z</time>
      </trkpt>
      <trkpt lat="45.83945" lon="4.77033">
        <ele>432</ele>
        <time>2017-09-08T14:01:24.1Z</time>
      </trkpt>
      <trkpt lat="45.83942" lon="4.7704">
        <ele>433</ele>
        <time>2017-09-08T14:01:26.1Z</time>
      </trkpt>
      <trkpt lat="45.83938" lon="4.77046">
        <ele>433</ele>
        <time>2017-09-08T14:01:28.1Z</time>
      </trkpt>
      <trkpt lat="45.83934" lon="4.77052">
        <ele>434</ele>
        <time>2017-09-08T14:01:30.1Z</time>
      </trkpt>
      <trkpt lat="45.83931" lon="4.77055">
        <ele>434</ele>
        <time>2017-09-08T14:01:31.1Z</time>
      </trkpt>
      <trkpt lat="45.83928" lon="4.77057">
        <ele>434</ele>
        <time>2017-09-08T14:01:32.1Z</time>
      </trkpt>
      <trkpt lat="45.83923" lon="4.77061">
        <ele>435</ele>
        <time>2017-09-08T14:01:34.1Z</time>
      </trkpt>
      <trkpt lat="45.8392" lon="4.77061">
        <ele>435</ele>
        <time>2017-09-08T14:01:35.1Z</time>
      </trkpt>
      <trkpt lat="45.83913" lon="4.77061">
        <ele>435</ele>
        <time>2017-09-08T14:01:37.1Z</time>
      </trkpt>
      <trkpt lat="45.83907" lon="4.77059">
        <ele>436</ele>
        <time>2017-09-08T14:01:39.1Z</time>
      </trkpt>
      <trkpt lat="45.83901" lon="4.77056">
        <ele>436</ele>
        <time>2017-09-08T14:01:41.1Z</time>
      </trkpt>
      <trkpt lat="45.83898" lon="4.77053">
        <ele>436</ele>
        <time>2017-09-08T14:01:42.1Z</time>
      </trkpt>
      <trkpt lat="45.83896" lon="4.77051">
        <ele>437</ele>
        <time>2017-09-08T14:01:43.1Z</time>
      </trkpt>
      <trkpt lat="45.83892" lon="4.77046">
        <ele>437</ele>
        <time>2017-09-08T14:01:45.1Z</time>
      </trkpt>
      <trkpt lat="45.83888" lon="4.77039">
        <ele>437</ele>
        <time>2017-09-08T14:01:47.1Z</time>
      </trkpt>
      <trkpt lat="45.83887" lon="4.77036">
        <ele>437</ele>
        <time>2017-09-08T14:01:48.1Z</time>
      </trkpt>
      <trkpt lat="45.83884" lon="4.77028">
        <ele>438</ele>
        <time>2017-09-08T14:01:50.1Z</time>
      </trkpt>
      <trkpt lat="45.83882" lon="4.77025">
        <ele>438</ele>
        <time>2017-09-08T14:01:51.1Z</time>
      </trkpt>
      <trkpt lat="45.8388" lon="4.77017">
        <ele>438</ele>
        <time>2017-09-08T14:01:53.1Z</time>
      </trkpt>
      <trkpt lat="45.83878" lon="4.77009">
        <ele>438</ele>
        <time>2017-09-08T14:01:55.1Z</time>
      </trkpt>
      <trkpt lat="45.83876" lon="4.77006">
        <ele>438</ele>
        <time>2017-09-08T14:01:56.1Z</time>
      </trkpt>
      <trkpt lat="45.83875" lon="4.77002">
        <ele>439</ele>
        <time>2017-09-08T14:01:57.1Z</time>
      </trkpt>
      <trkpt lat="45.83873" lon="4.76999">
        <ele>439</ele>
        <time>2017-09-08T14:01:58.1Z</time>
      </trkpt>
      <trkpt lat="45.83869" lon="4.76992">
        <ele>439</ele>
        <time>2017-09-08T14:02:00.1Z</time>
      </trkpt>
      <trkpt lat="45.83864" lon="4.76986">
        <ele>439</ele>
        <time>2017-09-08T14:02:02.1Z</time>
      </trkpt>
      <trkpt lat="45.83859" lon="4.76982">
        <ele>439</ele>
        <time>2017-09-08T14:02:04.1Z</time>
      </trkpt>
      <trkpt lat="45.83856" lon="4.7698">
        <ele>439</ele>
        <time>2017-09-08T14:02:05.1Z</time>
      </trkpt>
      <trkpt lat="45.83851" lon="4.76978">
        <ele>439</ele>
        <time>2017-09-08T14:02:07.1Z</time>
      </trkpt>
      <trkpt lat="45.83848" lon="4.76978">
        <ele>440</ele>
        <time>2017-09-08T14:02:08.1Z</time>
      </trkpt>
      <trkpt lat="45.83842" lon="4.76978">
        <ele>440</ele>
        <time>2017-09-08T14:02:10.1Z</time>
      </trkpt>
      <trkpt lat="45.83836" lon="4.76979">
        <ele>441</ele>
        <time>2017-09-08T14:02:12.1Z</time>
      </trkpt>
      <trkpt lat="45.8383" lon="4.76981">
        <ele>441</ele>
        <time>2017-09-08T14:02:14.1Z</time>
      </trkpt>
      <trkpt lat="45.83827" lon="4.76982">
        <ele>441</ele>
        <time>2017-09-08T14:02:15.1Z</time>
      </trkpt>
      <trkpt lat="45.83821" lon="4.76984">
        <ele>442</ele>
        <time>2017-09-08T14:02:17.1Z</time>
      </trkpt>
      <trkpt lat="45.83818" lon="4.76986">
        <ele>442</ele>
        <time>2017-09-08T14:02:18.1Z</time>
      </trkpt>
      <trkpt lat="45.83816" lon="4.76987">
        <ele>442</ele>
        <time>2017-09-08T14:02:19.1Z</time>
      </trkpt>
      <trkpt lat="45.83813" lon="4.76989">
        <ele>443</ele>
        <time>2017-09-08T14:02:20.1Z</time>
      </trkpt>
      <trkpt lat="45.8381" lon="4.7699">
        <ele>443</ele>
        <time>2017-09-08T14:02:21.1Z</time>
      </trkpt>
      <trkpt lat="45.83804" lon="4.76992">
        <ele>443</ele>
        <time>2017-09-08T14:02:23.1Z</time>
      </trkpt>
      <trkpt lat="45.83801" lon="4.76993">
        <ele>443</ele>
        <time>2017-09-08T14:02:24.1Z</time>
      </trkpt>
      <trkpt lat="45.83798" lon="4.76994">
        <ele>443</ele>
        <time>2017-09-08T14:02:25.1Z</time>
      </trkpt>
      <trkpt lat="45.83796" lon="4.76996">
        <ele>443</ele>
        <time>2017-09-08T14:02:26.1Z</time>
      </trkpt>
      <trkpt lat="45.83793" lon="4.76997">
        <ele>444</ele>
        <time>2017-09-08T14:02:27.1Z</time>
      </trkpt>
      <trkpt lat="45.8379" lon="4.76999">
        <ele>444</ele>
        <time>2017-09-08T14:02:28.1Z</time>
      </trkpt>
      <trkpt lat="45.83785" lon="4.77001">
        <ele>444</ele>
        <time>2017-09-08T14:02:30.1Z</time>
      </trkpt>
      <trkpt lat="45.83782" lon="4.77002">
        <ele>444</ele>
        <time>2017-09-08T14:02:31.1Z</time>
      </trkpt>
      <trkpt lat="45.8378" lon="4.77003">
        <ele>444</ele>
        <time>2017-09-08T14:02:32.1Z</time>
      </trkpt>
      <trkpt lat="45.83774" lon="4.77005">
        <ele>444</ele>
        <time>2017-09-08T14:02:34.1Z</time>
      </trkpt>
      <trkpt lat="45.83772" lon="4.77006">
        <ele>445</ele>
        <time>2017-09-08T14:02:35.1Z</time>
      </trkpt>
      <trkpt lat="45.8377" lon="4.77007">
        <ele>445</ele>
        <time>2017-09-08T14:02:36.1Z</time>
      </trkpt>
      <trkpt lat="45.83767" lon="4.77008">
        <ele>445</ele>
        <time>2017-09-08T14:02:37.1Z</time>
      </trkpt>
      <trkpt lat="45.83764" lon="4.77009">
        <ele>445</ele>
        <time>2017-09-08T14:02:38.1Z</time>
      </trkpt>
      <trkpt lat="45.83759" lon="4.7701">
        <ele>445</ele>
        <time>2017-09-08T14:02:40.1Z</time>
      </trkpt>
      <trkpt lat="45.83757" lon="4.77011">
        <ele>445</ele>
        <time>2017-09-08T14:02:41.1Z</time>
      </trkpt>
      <trkpt lat="45.83753" lon="4.77013">
        <ele>445</ele>
        <time>2017-09-08T14:02:43.1Z</time>
      </trkpt>
      <trkpt lat="45.83749" lon="4.77015">
        <ele>445</ele>
        <time>2017-09-08T14:02:45.1Z</time>
      </trkpt>
      <trkpt lat="45.83747" lon="4.77016">
        <ele>446</ele>
        <time>2017-09-08T14:02:46.1Z</time>
      </trkpt>
      <trkpt lat="45.83745" lon="4.77018">
        <ele>446</ele>
        <time>2017-09-08T14:02:47.1Z</time>
      </trkpt>
      <trkpt lat="45.83741" lon="4.77022">
        <ele>446</ele>
        <time>2017-09-08T14:02:49.1Z</time>
      </trkpt>
      <trkpt lat="45.83736" lon="4.77026">
        <ele>446</ele>
        <time>2017-09-08T14:02:51.1Z</time>
      </trkpt>
      <trkpt lat="45.8373" lon="4.77031">
        <ele>447</ele>
        <time>2017-09-08T14:02:53.1Z</time>
      </trkpt>
      <trkpt lat="45.83725" lon="4.77037">
        <ele>446</ele>
        <time>2017-09-08T14:02:55.1Z</time>
      </trkpt>
      <trkpt lat="45.83718" lon="4.77042">
        <ele>447</ele>
        <time>2017-09-08T14:02:57.1Z</time>
      </trkpt>
      <trkpt lat="45.83712" lon="4.77049">
        <ele>447</ele>
        <time>2017-09-08T14:02:59.1Z</time>
      </trkpt>
      <trkpt lat="45.83706" lon="4.77055">
        <ele>447</ele>
        <time>2017-09-08T14:03:01.1Z</time>
      </trkpt>
      <trkpt lat="45.83703" lon="4.77058">
        <ele>447</ele>
        <time>2017-09-08T14:03:02.1Z</time>
      </trkpt>
      <trkpt lat="45.83696" lon="4.77064">
        <ele>448</ele>
        <time>2017-09-08T14:03:04.1Z</time>
      </trkpt>
      <trkpt lat="45.83691" lon="4.77071">
        <ele>448</ele>
        <time>2017-09-08T14:03:06.1Z</time>
      </trkpt>
      <trkpt lat="45.83685" lon="4.77076">
        <ele>448</ele>
        <time>2017-09-08T14:03:08.1Z</time>
      </trkpt>
      <trkpt lat="45.83679" lon="4.77083">
        <ele>448</ele>
        <time>2017-09-08T14:03:10.1Z</time>
      </trkpt>
      <trkpt lat="45.83675" lon="4.77086">
        <ele>448</ele>
        <time>2017-09-08T14:03:11.1Z</time>
      </trkpt>
      <trkpt lat="45.83669" lon="4.77092">
        <ele>448</ele>
        <time>2017-09-08T14:03:13.1Z</time>
      </trkpt>
      <trkpt lat="45.83663" lon="4.77098">
        <ele>449</ele>
        <time>2017-09-08T14:03:15.1Z</time>
      </trkpt>
      <trkpt lat="45.83657" lon="4.77104">
        <ele>449</ele>
        <time>2017-09-08T14:03:17.1Z</time>
      </trkpt>
      <trkpt lat="45.83653" lon="4.77106">
        <ele>450</ele>
        <time>2017-09-08T14:03:18.1Z</time>
      </trkpt>
      <trkpt lat="45.83647" lon="4.77111">
        <ele>450</ele>
        <time>2017-09-08T14:03:20.1Z</time>
      </trkpt>
      <trkpt lat="45.83644" lon="4.77114">
        <ele>450</ele>
        <time>2017-09-08T14:03:21.1Z</time>
      </trkpt>
      <trkpt lat="45.83639" lon="4.77119">
        <ele>450</ele>
        <time>2017-09-08T14:03:23.1Z</time>
      </trkpt>
      <trkpt lat="45.83635" lon="4.77123">
        <ele>449</ele>
        <time>2017-09-08T14:03:25.1Z</time>
      </trkpt>
      <trkpt lat="45.83632" lon="4.77128">
        <ele>450</ele>
        <time>2017-09-08T14:03:27.1Z</time>
      </trkpt>
      <trkpt lat="45.8363" lon="4.77134">
        <ele>450</ele>
        <time>2017-09-08T14:03:29.1Z</time>
      </trkpt>
      <trkpt lat="45.83628" lon="4.77139">
        <ele>450</ele>
        <time>2017-09-08T14:03:31.1Z</time>
      </trkpt>
      <trkpt lat="45.83627" lon="4.77141">
        <ele>451</ele>
        <time>2017-09-08T14:03:32.1Z</time>
      </trkpt>
      <trkpt lat="45.83622" lon="4.77144">
        <ele>451</ele>
        <time>2017-09-08T14:03:34.1Z</time>
      </trkpt>
      <trkpt lat="45.83618" lon="4.77144">
        <ele>451</ele>
        <time>2017-09-08T14:03:35.1Z</time>
      </trkpt>
      <trkpt lat="45.83609" lon="4.77144">
        <ele>451</ele>
        <time>2017-09-08T14:03:37.1Z</time>
      </trkpt>
      <trkpt lat="45.836" lon="4.77144">
        <ele>450</ele>
        <time>2017-09-08T14:03:39.1Z</time>
      </trkpt>
      <trkpt lat="45.83595" lon="4.77144">
        <ele>450</ele>
        <time>2017-09-08T14:03:40.1Z</time>
      </trkpt>
      <trkpt lat="45.83585" lon="4.77144">
        <ele>450</ele>
        <time>2017-09-08T14:03:42.1Z</time>
      </trkpt>
      <trkpt lat="45.8358" lon="4.77143">
        <ele>449</ele>
        <time>2017-09-08T14:03:43.1Z</time>
      </trkpt>
      <trkpt lat="45.83569" lon="4.77143">
        <ele>449</ele>
        <time>2017-09-08T14:03:45.1Z</time>
      </trkpt>
      <trkpt lat="45.83558" lon="4.77143">
        <ele>448</ele>
        <time>2017-09-08T14:03:47.1Z</time>
      </trkpt>
      <trkpt lat="45.83553" lon="4.77143">
        <ele>447</ele>
        <time>2017-09-08T14:03:48.1Z</time>
      </trkpt>
      <trkpt lat="45.83548" lon="4.77143">
        <ele>447</ele>
        <time>2017-09-08T14:03:49.1Z</time>
      </trkpt>
      <trkpt lat="45.83541" lon="4.77143">
        <ele>446</ele>
        <time>2017-09-08T14:03:51.1Z</time>
      </trkpt>
      <trkpt lat="45.83538" lon="4.77143">
        <ele>446</ele>
        <time>2017-09-08T14:03:52.1Z</time>
      </trkpt>
      <trkpt lat="45.83533" lon="4.77144">
        <ele>446</ele>
        <time>2017-09-08T14:03:54.1Z</time>
      </trkpt>
      <trkpt lat="45.83528" lon="4.77144">
        <ele>445</ele>
        <time>2017-09-08T14:03:56.1Z</time>
      </trkpt>
      <trkpt lat="45.83522" lon="4.77145">
        <ele>445</ele>
        <time>2017-09-08T14:03:58.1Z</time>
      </trkpt>
      <trkpt lat="45.83516" lon="4.77146">
        <ele>445</ele>
        <time>2017-09-08T14:04:00.1Z</time>
      </trkpt>
      <trkpt lat="45.83507" lon="4.77146">
        <ele>445</ele>
        <time>2017-09-08T14:04:02.1Z</time>
      </trkpt>
      <trkpt lat="45.83499" lon="4.77146">
        <ele>445</ele>
        <time>2017-09-08T14:04:04.1Z</time>
      </trkpt>
      <trkpt lat="45.83495" lon="4.77146">
        <ele>444</ele>
        <time>2017-09-08T14:04:05.1Z</time>
      </trkpt>
      <trkpt lat="45.83492" lon="4.77146">
        <ele>444</ele>
        <time>2017-09-08T14:04:06.1Z</time>
      </trkpt>
      <trkpt lat="45.83489" lon="4.77146">
        <ele>444</ele>
        <time>2017-09-08T14:04:07.1Z</time>
      </trkpt>
      <trkpt lat="45.83485" lon="4.77146">
        <ele>444</ele>
        <time>2017-09-08T14:04:09.1Z</time>
      </trkpt>
      <trkpt lat="45.83483" lon="4.77147">
        <ele>444</ele>
        <time>2017-09-08T14:04:10.1Z</time>
      </trkpt>
      <trkpt lat="45.83482" lon="4.77147">
        <ele>444</ele>
        <time>2017-09-08T14:04:12.1Z</time>
      </trkpt>
      <trkpt lat="45.83482" lon="4.77147">
        <ele>444</ele>
        <time>2017-09-08T14:04:13.1Z</time>
      </trkpt>
      <trkpt lat="45.83481" lon="4.77147">
        <ele>444</ele>
        <time>2017-09-08T14:04:14.1Z</time>
      </trkpt>
      <trkpt lat="45.83481" lon="4.77147">
        <ele>444</ele>
        <time>2017-09-08T14:04:15.1Z</time>
      </trkpt>
      <trkpt lat="45.83481" lon="4.77146">
        <ele>444</ele>
        <time>2017-09-08T14:04:17.1Z</time>
      </trkpt>
      <trkpt lat="45.8348" lon="4.77146">
        <ele>444</ele>
        <time>2017-09-08T14:04:19.1Z</time>
      </trkpt>
      <trkpt lat="45.8348" lon="4.77146">
        <ele>444</ele>
        <time>2017-09-08T14:04:20.1Z</time>
      </trkpt>
      <trkpt lat="45.8348" lon="4.77146">
        <ele>444</ele>
        <time>2017-09-08T14:04:22.1Z</time>
      </trkpt>
      <trkpt lat="45.83478" lon="4.77147">
        <ele>444</ele>
        <time>2017-09-08T14:04:24.1Z</time>
      </trkpt>
      <trkpt lat="45.83477" lon="4.77149">
        <ele>444</ele>
        <time>2017-09-08T14:04:25.1Z</time>
      </trkpt>
      <trkpt lat="45.83477" lon="4.77152">
        <ele>444</ele>
        <time>2017-09-08T14:04:26.1Z</time>
      </trkpt>
      <trkpt lat="45.83473" lon="4.77161">
        <ele>444</ele>
        <time>2017-09-08T14:04:28.1Z</time>
      </trkpt>
      <trkpt lat="45.83471" lon="4.77175">
        <ele>444</ele>
        <time>2017-09-08T14:04:30.1Z</time>
      </trkpt>
      <trkpt lat="45.8347" lon="4.77192">
        <ele>443</ele>
        <time>2017-09-08T14:04:32.1Z</time>
      </trkpt>
      <trkpt lat="45.83469" lon="4.77202">
        <ele>443</ele>
        <time>2017-09-08T14:04:33.1Z</time>
      </trkpt>
      <trkpt lat="45.83469" lon="4.77222">
        <ele>442</ele>
        <time>2017-09-08T14:04:35.1Z</time>
      </trkpt>
      <trkpt lat="45.83469" lon="4.77234">
        <ele>442</ele>
        <time>2017-09-08T14:04:36.1Z</time>
      </trkpt>
      <trkpt lat="45.83468" lon="4.77245">
        <ele>441</ele>
        <time>2017-09-08T14:04:37.1Z</time>
      </trkpt>
      <trkpt lat="45.83466" lon="4.77256">
        <ele>441</ele>
        <time>2017-09-08T14:04:38.1Z</time>
      </trkpt>
      <trkpt lat="45.83457" lon="4.77276">
        <ele>441</ele>
        <time>2017-09-08T14:04:40.1Z</time>
      </trkpt>
      <trkpt lat="45.8345" lon="4.77283">
        <ele>440</ele>
        <time>2017-09-08T14:04:41.1Z</time>
      </trkpt>
      <trkpt lat="45.83442" lon="4.77288">
        <ele>440</ele>
        <time>2017-09-08T14:04:42.1Z</time>
      </trkpt>
      <trkpt lat="45.83424" lon="4.77291">
        <ele>439</ele>
        <time>2017-09-08T14:04:44.1Z</time>
      </trkpt>
      <trkpt lat="45.83406" lon="4.77288">
        <ele>437</ele>
        <time>2017-09-08T14:04:46.1Z</time>
      </trkpt>
      <trkpt lat="45.83387" lon="4.77284">
        <ele>436</ele>
        <time>2017-09-08T14:04:48.1Z</time>
      </trkpt>
      <trkpt lat="45.83368" lon="4.7728">
        <ele>435</ele>
        <time>2017-09-08T14:04:50.1Z</time>
      </trkpt>
      <trkpt lat="45.83358" lon="4.77279">
        <ele>434</ele>
        <time>2017-09-08T14:04:51.1Z</time>
      </trkpt>
      <trkpt lat="45.83338" lon="4.77286">
        <ele>433</ele>
        <time>2017-09-08T14:04:53.1Z</time>
      </trkpt>
      <trkpt lat="45.83324" lon="4.77307">
        <ele>432</ele>
        <time>2017-09-08T14:04:55.1Z</time>
      </trkpt>
      <trkpt lat="45.83317" lon="4.77333">
        <ele>431</ele>
        <time>2017-09-08T14:04:57.1Z</time>
      </trkpt>
      <trkpt lat="45.83313" lon="4.77358">
        <ele>430</ele>
        <time>2017-09-08T14:04:59.1Z</time>
      </trkpt>
      <trkpt lat="45.83306" lon="4.77379">
        <ele>430</ele>
        <time>2017-09-08T14:05:01.1Z</time>
      </trkpt>
      <trkpt lat="45.83302" lon="4.77387">
        <ele>430</ele>
        <time>2017-09-08T14:05:02.1Z</time>
      </trkpt>
      <trkpt lat="45.83297" lon="4.77393">
        <ele>431</ele>
        <time>2017-09-08T14:05:03.1Z</time>
      </trkpt>
      <trkpt lat="45.83287" lon="4.77403">
        <ele>432</ele>
        <time>2017-09-08T14:05:05.1Z</time>
      </trkpt>
      <trkpt lat="45.83283" lon="4.77408">
        <ele>432</ele>
        <time>2017-09-08T14:05:06.1Z</time>
      </trkpt>
      <trkpt lat="45.83279" lon="4.77413">
        <ele>432</ele>
        <time>2017-09-08T14:05:07.1Z</time>
      </trkpt>
      <trkpt lat="45.83273" lon="4.77423">
        <ele>433</ele>
        <time>2017-09-08T14:05:09.1Z</time>
      </trkpt>
      <trkpt lat="45.83268" lon="4.77435">
        <ele>434</ele>
        <time>2017-09-08T14:05:11.1Z</time>
      </trkpt>
      <trkpt lat="45.83264" lon="4.77447">
        <ele>434</ele>
        <time>2017-09-08T14:05:13.1Z</time>
      </trkpt>
      <trkpt lat="45.8326" lon="4.77458">
        <ele>435</ele>
        <time>2017-09-08T14:05:15.1Z</time>
      </trkpt>
      <trkpt lat="45.83257" lon="4.77465">
        <ele>435</ele>
        <time>2017-09-08T14:05:16.1Z</time>
      </trkpt>
      <trkpt lat="45.83255" lon="4.7747">
        <ele>435</ele>
        <time>2017-09-08T14:05:17.1Z</time>
      </trkpt>
      <trkpt lat="45.83253" lon="4.77476">
        <ele>436</ele>
        <time>2017-09-08T14:05:18.1Z</time>
      </trkpt>
      <trkpt lat="45.83251" lon="4.77482">
        <ele>436</ele>
        <time>2017-09-08T14:05:19.1Z</time>
      </trkpt>
      <trkpt lat="45.83249" lon="4.77488">
        <ele>436</ele>
        <time>2017-09-08T14:05:20.1Z</time>
      </trkpt>
      <trkpt lat="45.83246" lon="4.77494">
        <ele>436</ele>
        <time>2017-09-08T14:05:21.1Z</time>
      </trkpt>
      <trkpt lat="45.83242" lon="4.77505">
        <ele>437</ele>
        <time>2017-09-08T14:05:23.1Z</time>
      </trkpt>
      <trkpt lat="45.8324" lon="4.77511">
        <ele>437</ele>
        <time>2017-09-08T14:05:24.1Z</time>
      </trkpt>
      <trkpt lat="45.83236" lon="4.77522">
        <ele>437</ele>
        <time>2017-09-08T14:05:26.1Z</time>
      </trkpt>
      <trkpt lat="45.83234" lon="4.77531">
        <ele>438</ele>
        <time>2017-09-08T14:05:28.1Z</time>
      </trkpt>
      <trkpt lat="45.83232" lon="4.77535">
        <ele>438</ele>
        <time>2017-09-08T14:05:29.1Z</time>
      </trkpt>
      <trkpt lat="45.83231" lon="4.77539">
        <ele>438</ele>
        <time>2017-09-08T14:05:30.1Z</time>
      </trkpt>
      <trkpt lat="45.83229" lon="4.77543">
        <ele>439</ele>
        <time>2017-09-08T14:05:31.1Z</time>
      </trkpt>
      <trkpt lat="45.83227" lon="4.77546">
        <ele>439</ele>
        <time>2017-09-08T14:05:32.1Z</time>
      </trkpt>
      <trkpt lat="45.83225" lon="4.7755">
        <ele>439</ele>
        <time>2017-09-08T14:05:33.1Z</time>
      </trkpt>
      <trkpt lat="45.83223" lon="4.77553">
        <ele>440</ele>
        <time>2017-09-08T14:05:34.1Z</time>
      </trkpt>
      <trkpt lat="45.83219" lon="4.77559">
        <ele>440</ele>
        <time>2017-09-08T14:05:36.1Z</time>
      </trkpt>
      <trkpt lat="45.83217" lon="4.77561">
        <ele>440</ele>
        <time>2017-09-08T14:05:37.1Z</time>
      </trkpt>
      <trkpt lat="45.83212" lon="4.77566">
        <ele>441</ele>
        <time>2017-09-08T14:05:39.1Z</time>
      </trkpt>
      <trkpt lat="45.83206" lon="4.77569">
        <ele>442</ele>
        <time>2017-09-08T14:05:41.1Z</time>
      </trkpt>
      <trkpt lat="45.832" lon="4.77572">
        <ele>442</ele>
        <time>2017-09-08T14:05:43.1Z</time>
      </trkpt>
      <trkpt lat="45.83197" lon="4.77573">
        <ele>442</ele>
        <time>2017-09-08T14:05:44.1Z</time>
      </trkpt>
      <trkpt lat="45.83192" lon="4.77575">
        <ele>442</ele>
        <time>2017-09-08T14:05:46.1Z</time>
      </trkpt>
      <trkpt lat="45.83186" lon="4.77577">
        <ele>443</ele>
        <time>2017-09-08T14:05:48.1Z</time>
      </trkpt>
      <trkpt lat="45.83181" lon="4.77579">
        <ele>443</ele>
        <time>2017-09-08T14:05:50.1Z</time>
      </trkpt>
      <trkpt lat="45.83178" lon="4.77579">
        <ele>444</ele>
        <time>2017-09-08T14:05:51.1Z</time>
      </trkpt>
      <trkpt lat="45.83173" lon="4.77582">
        <ele>444</ele>
        <time>2017-09-08T14:05:53.1Z</time>
      </trkpt>
      <trkpt lat="45.83168" lon="4.77584">
        <ele>444</ele>
        <time>2017-09-08T14:05:55.1Z</time>
      </trkpt>
      <trkpt lat="45.83163" lon="4.77588">
        <ele>444</ele>
        <time>2017-09-08T14:05:57.1Z</time>
      </trkpt>
      <trkpt lat="45.83159" lon="4.77594">
        <ele>445</ele>
        <time>2017-09-08T14:05:59.1Z</time>
      </trkpt>
      <trkpt lat="45.83155" lon="4.77599">
        <ele>445</ele>
        <time>2017-09-08T14:06:01.1Z</time>
      </trkpt>
      <trkpt lat="45.83154" lon="4.77603">
        <ele>445</ele>
        <time>2017-09-08T14:06:02.1Z</time>
      </trkpt>
      <trkpt lat="45.83152" lon="4.77606">
        <ele>446</ele>
        <time>2017-09-08T14:06:03.1Z</time>
      </trkpt>
      <trkpt lat="45.83151" lon="4.77614">
        <ele>446</ele>
        <time>2017-09-08T14:06:05.1Z</time>
      </trkpt>
      <trkpt lat="45.83149" lon="4.77622">
        <ele>446</ele>
        <time>2017-09-08T14:06:07.1Z</time>
      </trkpt>
      <trkpt lat="45.83149" lon="4.77625">
        <ele>447</ele>
        <time>2017-09-08T14:06:08.1Z</time>
      </trkpt>
      <trkpt lat="45.83148" lon="4.77632">
        <ele>447</ele>
        <time>2017-09-08T14:06:10.1Z</time>
      </trkpt>
      <trkpt lat="45.83148" lon="4.7764">
        <ele>447</ele>
        <time>2017-09-08T14:06:12.1Z</time>
      </trkpt>
      <trkpt lat="45.83147" lon="4.77648">
        <ele>447</ele>
        <time>2017-09-08T14:06:14.1Z</time>
      </trkpt>
      <trkpt lat="45.83146" lon="4.77657">
        <ele>447</ele>
        <time>2017-09-08T14:06:16.1Z</time>
      </trkpt>
      <trkpt lat="45.83146" lon="4.77661">
        <ele>448</ele>
        <time>2017-09-08T14:06:17.1Z</time>
      </trkpt>
      <trkpt lat="45.83144" lon="4.77668">
        <ele>448</ele>
        <time>2017-09-08T14:06:19.1Z</time>
      </trkpt>
      <trkpt lat="45.83142" lon="4.77676">
        <ele>448</ele>
        <time>2017-09-08T14:06:21.1Z</time>
      </trkpt>
      <trkpt lat="45.83139" lon="4.77683">
        <ele>448</ele>
        <time>2017-09-08T14:06:23.1Z</time>
      </trkpt>
      <trkpt lat="45.83134" lon="4.77689">
        <ele>448</ele>
        <time>2017-09-08T14:06:25.1Z</time>
      </trkpt>
      <trkpt lat="45.83131" lon="4.77691">
        <ele>448</ele>
        <time>2017-09-08T14:06:26.1Z</time>
      </trkpt>
      <trkpt lat="45.83126" lon="4.77695">
        <ele>448</ele>
        <time>2017-09-08T14:06:28.1Z</time>
      </trkpt>
      <trkpt lat="45.8312" lon="4.77699">
        <ele>449</ele>
        <time>2017-09-08T14:06:30.1Z</time>
      </trkpt>
      <trkpt lat="45.83115" lon="4.77703">
        <ele>449</ele>
        <time>2017-09-08T14:06:32.1Z</time>
      </trkpt>
      <trkpt lat="45.8311" lon="4.77706">
        <ele>449</ele>
        <time>2017-09-08T14:06:34.1Z</time>
      </trkpt>
      <trkpt lat="45.83107" lon="4.77708">
        <ele>450</ele>
        <time>2017-09-08T14:06:35.1Z</time>
      </trkpt>
      <trkpt lat="45.83102" lon="4.77709">
        <ele>450</ele>
        <time>2017-09-08T14:06:37.1Z</time>
      </trkpt>
      <trkpt lat="45.83099" lon="4.77711">
        <ele>450</ele>
        <time>2017-09-08T14:06:38.1Z</time>
      </trkpt>
      <trkpt lat="45.83098" lon="4.77712">
        <ele>450</ele>
        <time>2017-09-08T14:06:39.1Z</time>
      </trkpt>
      <trkpt lat="45.83097" lon="4.77713">
        <ele>451</ele>
        <time>2017-09-08T14:06:41.1Z</time>
      </trkpt>
      <trkpt lat="45.83097" lon="4.77713">
        <ele>451</ele>
        <time>2017-09-08T14:06:43.1Z</time>
      </trkpt>
      <trkpt lat="45.83096" lon="4.77713">
        <ele>451</ele>
        <time>2017-09-08T14:06:45.1Z</time>
      </trkpt>
      <trkpt lat="45.83096" lon="4.77715">
        <ele>451</ele>
        <time>2017-09-08T14:06:47.1Z</time>
      </trkpt>
      <trkpt lat="45.83095" lon="4.77718">
        <ele>451</ele>
        <time>2017-09-08T14:06:49.1Z</time>
      </trkpt>
      <trkpt lat="45.83095" lon="4.7772">
        <ele>451</ele>
        <time>2017-09-08T14:06:50.1Z</time>
      </trkpt>
      <trkpt lat="45.83094" lon="4.77723">
        <ele>452</ele>
        <time>2017-09-08T14:06:51.1Z</time>
      </trkpt>
      <trkpt lat="45.83093" lon="4.77727">
        <ele>452</ele>
        <time>2017-09-08T14:06:52.1Z</time>
      </trkpt>
      <trkpt lat="45.83092" lon="4.77731">
        <ele>452</ele>
        <time>2017-09-08T14:06:53.1Z</time>
      </trkpt>
      <trkpt lat="45.83091" lon="4.7774">
        <ele>452</ele>
        <time>2017-09-08T14:06:55.1Z</time>
      </trkpt>
      <trkpt lat="45.83092" lon="4.77749">
        <ele>452</ele>
        <time>2017-09-08T14:06:57.1Z</time>
      </trkpt>
      <trkpt lat="45.83094" lon="4.77758">
        <ele>452</ele>
        <time>2017-09-08T14:06:59.1Z</time>
      </trkpt>
      <trkpt lat="45.83098" lon="4.77767">
        <ele>453</ele>
        <time>2017-09-08T14:07:01.1Z</time>
      </trkpt>
      <trkpt lat="45.83102" lon="4.77774">
        <ele>453</ele>
        <time>2017-09-08T14:07:03.1Z</time>
      </trkpt>
      <trkpt lat="45.83108" lon="4.77779">
        <ele>453</ele>
        <time>2017-09-08T14:07:05.1Z</time>
      </trkpt>
      <trkpt lat="45.83114" lon="4.77784">
        <ele>453</ele>
        <time>2017-09-08T14:07:07.1Z</time>
      </trkpt>
      <trkpt lat="45.8312" lon="4.77789">
        <ele>454</ele>
        <time>2017-09-08T14:07:09.1Z</time>
      </trkpt>
      <trkpt lat="45.83124" lon="4.77791">
        <ele>454</ele>
        <time>2017-09-08T14:07:10.1Z</time>
      </trkpt>
      <trkpt lat="45.83127" lon="4.77794">
        <ele>454</ele>
        <time>2017-09-08T14:07:11.1Z</time>
      </trkpt>
      <trkpt lat="45.83134" lon="4.77799">
        <ele>454</ele>
        <time>2017-09-08T14:07:13.1Z</time>
      </trkpt>
      <trkpt lat="45.83141" lon="4.77806">
        <ele>454</ele>
        <time>2017-09-08T14:07:15.1Z</time>
      </trkpt>
      <trkpt lat="45.83145" lon="4.77809">
        <ele>454</ele>
        <time>2017-09-08T14:07:16.1Z</time>
      </trkpt>
      <trkpt lat="45.83152" lon="4.77816">
        <ele>454</ele>
        <time>2017-09-08T14:07:18.1Z</time>
      </trkpt>
      <trkpt lat="45.83155" lon="4.7782">
        <ele>454</ele>
        <time>2017-09-08T14:07:19.1Z</time>
      </trkpt>
      <trkpt lat="45.83161" lon="4.77828">
        <ele>454</ele>
        <time>2017-09-08T14:07:21.1Z</time>
      </trkpt>
      <trkpt lat="45.83167" lon="4.77838">
        <ele>454</ele>
        <time>2017-09-08T14:07:23.1Z</time>
      </trkpt>
      <trkpt lat="45.8317" lon="4.77843">
        <ele>454</ele>
        <time>2017-09-08T14:07:24.1Z</time>
      </trkpt>
      <trkpt lat="45.83174" lon="4.77847">
        <ele>454</ele>
        <time>2017-09-08T14:07:25.1Z</time>
      </trkpt>
      <trkpt lat="45.83177" lon="4.77853">
        <ele>454</ele>
        <time>2017-09-08T14:07:26.1Z</time>
      </trkpt>
      <trkpt lat="45.83184" lon="4.77863">
        <ele>455</ele>
        <time>2017-09-08T14:07:28.1Z</time>
      </trkpt>
      <trkpt lat="45.83191" lon="4.77875">
        <ele>455</ele>
        <time>2017-09-08T14:07:30.1Z</time>
      </trkpt>
      <trkpt lat="45.83198" lon="4.77886">
        <ele>455</ele>
        <time>2017-09-08T14:07:32.1Z</time>
      </trkpt>
      <trkpt lat="45.83201" lon="4.77892">
        <ele>455</ele>
        <time>2017-09-08T14:07:33.1Z</time>
      </trkpt>
      <trkpt lat="45.83206" lon="4.77905">
        <ele>455</ele>
        <time>2017-09-08T14:07:35.1Z</time>
      </trkpt>
      <trkpt lat="45.83207" lon="4.77921">
        <ele>455</ele>
        <time>2017-09-08T14:07:37.1Z</time>
      </trkpt>
      <trkpt lat="45.83204" lon="4.77937">
        <ele>455</ele>
        <time>2017-09-08T14:07:39.1Z</time>
      </trkpt>
      <trkpt lat="45.83201" lon="4.77943">
        <ele>455</ele>
        <time>2017-09-08T14:07:40.1Z</time>
      </trkpt>
      <trkpt lat="45.83191" lon="4.77953">
        <ele>456</ele>
        <time>2017-09-08T14:07:42.1Z</time>
      </trkpt>
      <trkpt lat="45.83186" lon="4.77956">
        <ele>456</ele>
        <time>2017-09-08T14:07:43.1Z</time>
      </trkpt>
      <trkpt lat="45.83181" lon="4.7796">
        <ele>456</ele>
        <time>2017-09-08T14:07:44.1Z</time>
      </trkpt>
      <trkpt lat="45.83176" lon="4.77963">
        <ele>456</ele>
        <time>2017-09-08T14:07:45.1Z</time>
      </trkpt>
      <trkpt lat="45.8317" lon="4.77966">
        <ele>455</ele>
        <time>2017-09-08T14:07:46.1Z</time>
      </trkpt>
      <trkpt lat="45.83165" lon="4.77969">
        <ele>455</ele>
        <time>2017-09-08T14:07:47.1Z</time>
      </trkpt>
      <trkpt lat="45.8316" lon="4.77973">
        <ele>455</ele>
        <time>2017-09-08T14:07:48.1Z</time>
      </trkpt>
      <trkpt lat="45.83156" lon="4.77976">
        <ele>456</ele>
        <time>2017-09-08T14:07:49.1Z</time>
      </trkpt>
      <trkpt lat="45.83152" lon="4.77981">
        <ele>455</ele>
        <time>2017-09-08T14:07:50.1Z</time>
      </trkpt>
      <trkpt lat="45.83148" lon="4.77987">
        <ele>455</ele>
        <time>2017-09-08T14:07:51.1Z</time>
      </trkpt>
      <trkpt lat="45.83142" lon="4.77999">
        <ele>456</ele>
        <time>2017-09-08T14:07:53.1Z</time>
      </trkpt>
      <trkpt lat="45.83138" lon="4.78014">
        <ele>456</ele>
        <time>2017-09-08T14:07:55.1Z</time>
      </trkpt>
      <trkpt lat="45.83136" lon="4.7803">
        <ele>456</ele>
        <time>2017-09-08T14:07:57.1Z</time>
      </trkpt>
      <trkpt lat="45.83134" lon="4.78047">
        <ele>456</ele>
        <time>2017-09-08T14:07:59.1Z</time>
      </trkpt>
      <trkpt lat="45.8313" lon="4.78064">
        <ele>456</ele>
        <time>2017-09-08T14:08:01.1Z</time>
      </trkpt>
      <trkpt lat="45.83128" lon="4.78081">
        <ele>455</ele>
        <time>2017-09-08T14:08:03.1Z</time>
      </trkpt>
      <trkpt lat="45.83126" lon="4.78095">
        <ele>455</ele>
        <time>2017-09-08T14:08:05.1Z</time>
      </trkpt>
      <trkpt lat="45.83123" lon="4.78107">
        <ele>454</ele>
        <time>2017-09-08T14:08:07.1Z</time>
      </trkpt>
      <trkpt lat="45.83122" lon="4.78112">
        <ele>455</ele>
        <time>2017-09-08T14:08:08.1Z</time>
      </trkpt>
      <trkpt lat="45.83118" lon="4.7812">
        <ele>454</ele>
        <time>2017-09-08T14:08:10.1Z</time>
      </trkpt>
      <trkpt lat="45.83117" lon="4.78123">
        <ele>454</ele>
        <time>2017-09-08T14:08:11.1Z</time>
      </trkpt>
      <trkpt lat="45.83113" lon="4.78128">
        <ele>455</ele>
        <time>2017-09-08T14:08:13.1Z</time>
      </trkpt>
      <trkpt lat="45.8311" lon="4.78129">
        <ele>455</ele>
        <time>2017-09-08T14:08:14.1Z</time>
      </trkpt>
      <trkpt lat="45.83103" lon="4.78129">
        <ele>455</ele>
        <time>2017-09-08T14:08:16.1Z</time>
      </trkpt>
      <trkpt lat="45.83095" lon="4.78126">
        <ele>455</ele>
        <time>2017-09-08T14:08:18.1Z</time>
      </trkpt>
      <trkpt lat="45.83086" lon="4.78122">
        <ele>455</ele>
        <time>2017-09-08T14:08:20.1Z</time>
      </trkpt>
      <trkpt lat="45.83077" lon="4.78117">
        <ele>455</ele>
        <time>2017-09-08T14:08:22.1Z</time>
      </trkpt>
      <trkpt lat="45.83072" lon="4.78115">
        <ele>455</ele>
        <time>2017-09-08T14:08:23.1Z</time>
      </trkpt>
      <trkpt lat="45.83067" lon="4.78112">
        <ele>456</ele>
        <time>2017-09-08T14:08:24.1Z</time>
      </trkpt>
      <trkpt lat="45.83063" lon="4.78111">
        <ele>456</ele>
        <time>2017-09-08T14:08:25.1Z</time>
      </trkpt>
      <trkpt lat="45.83053" lon="4.78109">
        <ele>456</ele>
        <time>2017-09-08T14:08:27.1Z</time>
      </trkpt>
      <trkpt lat="45.83043" lon="4.7811">
        <ele>456</ele>
        <time>2017-09-08T14:08:29.1Z</time>
      </trkpt>
      <trkpt lat="45.83034" lon="4.78114">
        <ele>457</ele>
        <time>2017-09-08T14:08:31.1Z</time>
      </trkpt>
      <trkpt lat="45.83025" lon="4.78119">
        <ele>457</ele>
        <time>2017-09-08T14:08:33.1Z</time>
      </trkpt>
      <trkpt lat="45.83018" lon="4.78128">
        <ele>458</ele>
        <time>2017-09-08T14:08:35.1Z</time>
      </trkpt>
      <trkpt lat="45.83016" lon="4.78133">
        <ele>458</ele>
        <time>2017-09-08T14:08:36.1Z</time>
      </trkpt>
      <trkpt lat="45.83012" lon="4.78143">
        <ele>459</ele>
        <time>2017-09-08T14:08:38.1Z</time>
      </trkpt>
      <trkpt lat="45.83008" lon="4.78153">
        <ele>459</ele>
        <time>2017-09-08T14:08:40.1Z</time>
      </trkpt>
      <trkpt lat="45.83006" lon="4.78159">
        <ele>459</ele>
        <time>2017-09-08T14:08:41.1Z</time>
      </trkpt>
      <trkpt lat="45.83004" lon="4.78165">
        <ele>459</ele>
        <time>2017-09-08T14:08:42.1Z</time>
      </trkpt>
      <trkpt lat="45.83001" lon="4.78177">
        <ele>459</ele>
        <time>2017-09-08T14:08:44.1Z</time>
      </trkpt>
      <trkpt lat="45.82997" lon="4.78189">
        <ele>460</ele>
        <time>2017-09-08T14:08:46.1Z</time>
      </trkpt>
      <trkpt lat="45.82993" lon="4.78203">
        <ele>461</ele>
        <time>2017-09-08T14:08:48.1Z</time>
      </trkpt>
      <trkpt lat="45.82992" lon="4.7821">
        <ele>461</ele>
        <time>2017-09-08T14:08:49.1Z</time>
      </trkpt>
      <trkpt lat="45.82991" lon="4.78218">
        <ele>461</ele>
        <time>2017-09-08T14:08:50.1Z</time>
      </trkpt>
      <trkpt lat="45.82993" lon="4.78236">
        <ele>461</ele>
        <time>2017-09-08T14:08:52.1Z</time>
      </trkpt>
      <trkpt lat="45.82999" lon="4.78254">
        <ele>461</ele>
        <time>2017-09-08T14:08:54.1Z</time>
      </trkpt>
      <trkpt lat="45.83003" lon="4.78263">
        <ele>461</ele>
        <time>2017-09-08T14:08:55.1Z</time>
      </trkpt>
      <trkpt lat="45.83008" lon="4.78271">
        <ele>460</ele>
        <time>2017-09-08T14:08:56.1Z</time>
      </trkpt>
      <trkpt lat="45.83012" lon="4.7828">
        <ele>460</ele>
        <time>2017-09-08T14:08:57.1Z</time>
      </trkpt>
      <trkpt lat="45.8302" lon="4.783">
        <ele>459</ele>
        <time>2017-09-08T14:08:59.1Z</time>
      </trkpt>
      <trkpt lat="45.83024" lon="4.7831">
        <ele>459</ele>
        <time>2017-09-08T14:09:00.1Z</time>
      </trkpt>
      <trkpt lat="45.83026" lon="4.78321">
        <ele>459</ele>
        <time>2017-09-08T14:09:01.1Z</time>
      </trkpt>
      <trkpt lat="45.83028" lon="4.78333">
        <ele>458</ele>
        <time>2017-09-08T14:09:02.1Z</time>
      </trkpt>
      <trkpt lat="45.83027" lon="4.78344">
        <ele>458</ele>
        <time>2017-09-08T14:09:03.1Z</time>
      </trkpt>
      <trkpt lat="45.83022" lon="4.78367">
        <ele>457</ele>
        <time>2017-09-08T14:09:05.1Z</time>
      </trkpt>
      <trkpt lat="45.83017" lon="4.78376">
        <ele>456</ele>
        <time>2017-09-08T14:09:06.1Z</time>
      </trkpt>
      <trkpt lat="45.83006" lon="4.78392">
        <ele>456</ele>
        <time>2017-09-08T14:09:08.1Z</time>
      </trkpt>
      <trkpt lat="45.82999" lon="4.78398">
        <ele>456</ele>
        <time>2017-09-08T14:09:09.1Z</time>
      </trkpt>
      <trkpt lat="45.82983" lon="4.78405">
        <ele>455</ele>
        <time>2017-09-08T14:09:11.1Z</time>
      </trkpt>
      <trkpt lat="45.82968" lon="4.78414">
        <ele>455</ele>
        <time>2017-09-08T14:09:13.1Z</time>
      </trkpt>
      <trkpt lat="45.82953" lon="4.78425">
        <ele>455</ele>
        <time>2017-09-08T14:09:15.1Z</time>
      </trkpt>
      <trkpt lat="45.82938" lon="4.78438">
        <ele>454</ele>
        <time>2017-09-08T14:09:17.1Z</time>
      </trkpt>
      <trkpt lat="45.82931" lon="4.78444">
        <ele>454</ele>
        <time>2017-09-08T14:09:18.1Z</time>
      </trkpt>
      <trkpt lat="45.82914" lon="4.78452">
        <ele>453</ele>
        <time>2017-09-08T14:09:20.1Z</time>
      </trkpt>
      <trkpt lat="45.82905" lon="4.78452">
        <ele>453</ele>
        <time>2017-09-08T14:09:21.1Z</time>
      </trkpt>
      <trkpt lat="45.82897" lon="4.78451">
        <ele>452</ele>
        <time>2017-09-08T14:09:22.1Z</time>
      </trkpt>
      <trkpt lat="45.82881" lon="4.78445">
        <ele>452</ele>
        <time>2017-09-08T14:09:24.1Z</time>
      </trkpt>
      <trkpt lat="45.82872" lon="4.78443">
        <ele>451</ele>
        <time>2017-09-08T14:09:25.1Z</time>
      </trkpt>
      <trkpt lat="45.82855" lon="4.78442">
        <ele>450</ele>
        <time>2017-09-08T14:09:27.1Z</time>
      </trkpt>
      <trkpt lat="45.82837" lon="4.78446">
        <ele>450</ele>
        <time>2017-09-08T14:09:29.1Z</time>
      </trkpt>
      <trkpt lat="45.8282" lon="4.78451">
        <ele>449</ele>
        <time>2017-09-08T14:09:31.1Z</time>
      </trkpt>
      <trkpt lat="45.82804" lon="4.78461">
        <ele>449</ele>
        <time>2017-09-08T14:09:33.1Z</time>
      </trkpt>
      <trkpt lat="45.82797" lon="4.78467">
        <ele>449</ele>
        <time>2017-09-08T14:09:34.1Z</time>
      </trkpt>
      <trkpt lat="45.82786" lon="4.78485">
        <ele>448</ele>
        <time>2017-09-08T14:09:36.1Z</time>
      </trkpt>
      <trkpt lat="45.82781" lon="4.78508">
        <ele>448</ele>
        <time>2017-09-08T14:09:38.1Z</time>
      </trkpt>
      <trkpt lat="45.82781" lon="4.78519">
        <ele>447</ele>
        <time>2017-09-08T14:09:39.1Z</time>
      </trkpt>
      <trkpt lat="45.82782" lon="4.78531">
        <ele>447</ele>
        <time>2017-09-08T14:09:40.1Z</time>
      </trkpt>
      <trkpt lat="45.82787" lon="4.78554">
        <ele>447</ele>
        <time>2017-09-08T14:09:42.1Z</time>
      </trkpt>
      <trkpt lat="45.82795" lon="4.78575">
        <ele>446</ele>
        <time>2017-09-08T14:09:44.1Z</time>
      </trkpt>
      <trkpt lat="45.82802" lon="4.78598">
        <ele>445</ele>
        <time>2017-09-08T14:09:46.1Z</time>
      </trkpt>
      <trkpt lat="45.82804" lon="4.7861">
        <ele>445</ele>
        <time>2017-09-08T14:09:47.1Z</time>
      </trkpt>
      <trkpt lat="45.82804" lon="4.78633">
        <ele>444</ele>
        <time>2017-09-08T14:09:49.1Z</time>
      </trkpt>
      <trkpt lat="45.82801" lon="4.78644">
        <ele>443</ele>
        <time>2017-09-08T14:09:50.1Z</time>
      </trkpt>
      <trkpt lat="45.8279" lon="4.78659">
        <ele>443</ele>
        <time>2017-09-08T14:09:52.1Z</time>
      </trkpt>
      <trkpt lat="45.82776" lon="4.78667">
        <ele>443</ele>
        <time>2017-09-08T14:09:54.1Z</time>
      </trkpt>
      <trkpt lat="45.82768" lon="4.78669">
        <ele>443</ele>
        <time>2017-09-08T14:09:55.1Z</time>
      </trkpt>
      <trkpt lat="45.8276" lon="4.78672">
        <ele>443</ele>
        <time>2017-09-08T14:09:56.1Z</time>
      </trkpt>
      <trkpt lat="45.82745" lon="4.78677">
        <ele>443</ele>
        <time>2017-09-08T14:09:58.1Z</time>
      </trkpt>
      <trkpt lat="45.82729" lon="4.78682">
        <ele>443</ele>
        <time>2017-09-08T14:10:00.1Z</time>
      </trkpt>
      <trkpt lat="45.82714" lon="4.7869">
        <ele>442</ele>
        <time>2017-09-08T14:10:02.1Z</time>
      </trkpt>
      <trkpt lat="45.82707" lon="4.78696">
        <ele>442</ele>
        <time>2017-09-08T14:10:03.1Z</time>
      </trkpt>
      <trkpt lat="45.82695" lon="4.78711">
        <ele>441</ele>
        <time>2017-09-08T14:10:05.1Z</time>
      </trkpt>
      <trkpt lat="45.82683" lon="4.78727">
        <ele>441</ele>
        <time>2017-09-08T14:10:07.1Z</time>
      </trkpt>
      <trkpt lat="45.82671" lon="4.78744">
        <ele>440</ele>
        <time>2017-09-08T14:10:09.1Z</time>
      </trkpt>
      <trkpt lat="45.82659" lon="4.78761">
        <ele>440</ele>
        <time>2017-09-08T14:10:11.1Z</time>
      </trkpt>
      <trkpt lat="45.82648" lon="4.78778">
        <ele>440</ele>
        <time>2017-09-08T14:10:13.1Z</time>
      </trkpt>
      <trkpt lat="45.82643" lon="4.78786">
        <ele>440</ele>
        <time>2017-09-08T14:10:14.1Z</time>
      </trkpt>
      <trkpt lat="45.82638" lon="4.78793">
        <ele>440</ele>
        <time>2017-09-08T14:10:15.1Z</time>
      </trkpt>
      <trkpt lat="45.82628" lon="4.78807">
        <ele>440</ele>
        <time>2017-09-08T14:10:17.1Z</time>
      </trkpt>
      <trkpt lat="45.82617" lon="4.78818">
        <ele>440</ele>
        <time>2017-09-08T14:10:19.1Z</time>
      </trkpt>
      <trkpt lat="45.82604" lon="4.78826">
        <ele>439</ele>
        <time>2017-09-08T14:10:21.1Z</time>
      </trkpt>
      <trkpt lat="45.82597" lon="4.78828">
        <ele>439</ele>
        <time>2017-09-08T14:10:22.1Z</time>
      </trkpt>
      <trkpt lat="45.82583" lon="4.78832">
        <ele>439</ele>
        <time>2017-09-08T14:10:24.1Z</time>
      </trkpt>
      <trkpt lat="45.82575" lon="4.78832">
        <ele>439</ele>
        <time>2017-09-08T14:10:25.1Z</time>
      </trkpt>
      <trkpt lat="45.82568" lon="4.78833">
        <ele>438</ele>
        <time>2017-09-08T14:10:26.1Z</time>
      </trkpt>
      <trkpt lat="45.82553" lon="4.78835">
        <ele>438</ele>
        <time>2017-09-08T14:10:28.1Z</time>
      </trkpt>
      <trkpt lat="45.82545" lon="4.78837">
        <ele>438</ele>
        <time>2017-09-08T14:10:29.1Z</time>
      </trkpt>
      <trkpt lat="45.82531" lon="4.78844">
        <ele>438</ele>
        <time>2017-09-08T14:10:31.1Z</time>
      </trkpt>
      <trkpt lat="45.82524" lon="4.78849">
        <ele>437</ele>
        <time>2017-09-08T14:10:32.1Z</time>
      </trkpt>
      <trkpt lat="45.82509" lon="4.78858">
        <ele>437</ele>
        <time>2017-09-08T14:10:34.1Z</time>
      </trkpt>
      <trkpt lat="45.82501" lon="4.78862">
        <ele>437</ele>
        <time>2017-09-08T14:10:35.1Z</time>
      </trkpt>
      <trkpt lat="45.82493" lon="4.78864">
        <ele>437</ele>
        <time>2017-09-08T14:10:36.1Z</time>
      </trkpt>
      <trkpt lat="45.82478" lon="4.78869">
        <ele>436</ele>
        <time>2017-09-08T14:10:38.1Z</time>
      </trkpt>
      <trkpt lat="45.8247" lon="4.78871">
        <ele>436</ele>
        <time>2017-09-08T14:10:39.1Z</time>
      </trkpt>
      <trkpt lat="45.82462" lon="4.78873">
        <ele>436</ele>
        <time>2017-09-08T14:10:40.1Z</time>
      </trkpt>
      <trkpt lat="45.82455" lon="4.78875">
        <ele>436</ele>
        <time>2017-09-08T14:10:41.1Z</time>
      </trkpt>
      <trkpt lat="45.82448" lon="4.78877">
        <ele>436</ele>
        <time>2017-09-08T14:10:42.1Z</time>
      </trkpt>
      <trkpt lat="45.8244" lon="4.78879">
        <ele>435</ele>
        <time>2017-09-08T14:10:43.1Z</time>
      </trkpt>
      <trkpt lat="45.82433" lon="4.78881">
        <ele>435</ele>
        <time>2017-09-08T14:10:44.1Z</time>
      </trkpt>
      <trkpt lat="45.82426" lon="4.78882">
        <ele>435</ele>
        <time>2017-09-08T14:10:45.1Z</time>
      </trkpt>
      <trkpt lat="45.82412" lon="4.78884">
        <ele>435</ele>
        <time>2017-09-08T14:10:47.1Z</time>
      </trkpt>
      <trkpt lat="45.82398" lon="4.78887">
        <ele>435</ele>
        <time>2017-09-08T14:10:49.1Z</time>
      </trkpt>
      <trkpt lat="45.82391" lon="4.78889">
        <ele>435</ele>
        <time>2017-09-08T14:10:50.1Z</time>
      </trkpt>
      <trkpt lat="45.82385" lon="4.78891">
        <ele>435</ele>
        <time>2017-09-08T14:10:51.1Z</time>
      </trkpt>
      <trkpt lat="45.82372" lon="4.78896">
        <ele>435</ele>
        <time>2017-09-08T14:10:53.1Z</time>
      </trkpt>
      <trkpt lat="45.82359" lon="4.78901">
        <ele>435</ele>
        <time>2017-09-08T14:10:55.1Z</time>
      </trkpt>
      <trkpt lat="45.82352" lon="4.78904">
        <ele>435</ele>
        <time>2017-09-08T14:10:56.1Z</time>
      </trkpt>
      <trkpt lat="45.8234" lon="4.78909">
        <ele>435</ele>
        <time>2017-09-08T14:10:58.1Z</time>
      </trkpt>
      <trkpt lat="45.82333" lon="4.78912">
        <ele>435</ele>
        <time>2017-09-08T14:10:59.1Z</time>
      </trkpt>
      <trkpt lat="45.82328" lon="4.78917">
        <ele>435</ele>
        <time>2017-09-08T14:11:00.1Z</time>
      </trkpt>
      <trkpt lat="45.82317" lon="4.7893">
        <ele>435</ele>
        <time>2017-09-08T14:11:02.1Z</time>
      </trkpt>
      <trkpt lat="45.82314" lon="4.78937">
        <ele>435</ele>
        <time>2017-09-08T14:11:03.1Z</time>
      </trkpt>
      <trkpt lat="45.82309" lon="4.78951">
        <ele>435</ele>
        <time>2017-09-08T14:11:05.1Z</time>
      </trkpt>
      <trkpt lat="45.82304" lon="4.78966">
        <ele>436</ele>
        <time>2017-09-08T14:11:07.1Z</time>
      </trkpt>
      <trkpt lat="45.82301" lon="4.78973">
        <ele>436</ele>
        <time>2017-09-08T14:11:08.1Z</time>
      </trkpt>
      <trkpt lat="45.82298" lon="4.7898">
        <ele>436</ele>
        <time>2017-09-08T14:11:09.1Z</time>
      </trkpt>
      <trkpt lat="45.82292" lon="4.78993">
        <ele>437</ele>
        <time>2017-09-08T14:11:11.1Z</time>
      </trkpt>
      <trkpt lat="45.82285" lon="4.79005">
        <ele>437</ele>
        <time>2017-09-08T14:11:13.1Z</time>
      </trkpt>
      <trkpt lat="45.82281" lon="4.79011">
        <ele>438</ele>
        <time>2017-09-08T14:11:14.1Z</time>
      </trkpt>
      <trkpt lat="45.82277" lon="4.79016">
        <ele>438</ele>
        <time>2017-09-08T14:11:15.1Z</time>
      </trkpt>
      <trkpt lat="45.82269" lon="4.79027">
        <ele>438</ele>
        <time>2017-09-08T14:11:17.1Z</time>
      </trkpt>
      <trkpt lat="45.8226" lon="4.79038">
        <ele>439</ele>
        <time>2017-09-08T14:11:19.1Z</time>
      </trkpt>
      <trkpt lat="45.82251" lon="4.79048">
        <ele>440</ele>
        <time>2017-09-08T14:11:21.1Z</time>
      </trkpt>
      <trkpt lat="45.82241" lon="4.79058">
        <ele>440</ele>
        <time>2017-09-08T14:11:23.1Z</time>
      </trkpt>
      <trkpt lat="45.8223" lon="4.79067">
        <ele>440</ele>
        <time>2017-09-08T14:11:25.1Z</time>
      </trkpt>
      <trkpt lat="45.82225" lon="4.7907">
        <ele>440</ele>
        <time>2017-09-08T14:11:26.1Z</time>
      </trkpt>
      <trkpt lat="45.82219" lon="4.79074">
        <ele>440</ele>
        <time>2017-09-08T14:11:27.1Z</time>
      </trkpt>
      <trkpt lat="45.82213" lon="4.79077">
        <ele>440</ele>
        <time>2017-09-08T14:11:28.1Z</time>
      </trkpt>
      <trkpt lat="45.82207" lon="4.7908">
        <ele>440</ele>
        <time>2017-09-08T14:11:29.1Z</time>
      </trkpt>
      <trkpt lat="45.82201" lon="4.79083">
        <ele>440</ele>
        <time>2017-09-08T14:11:30.1Z</time>
      </trkpt>
      <trkpt lat="45.82189" lon="4.7909">
        <ele>440</ele>
        <time>2017-09-08T14:11:32.1Z</time>
      </trkpt>
      <trkpt lat="45.82175" lon="4.79095">
        <ele>440</ele>
        <time>2017-09-08T14:11:34.1Z</time>
      </trkpt>
      <trkpt lat="45.82168" lon="4.79098">
        <ele>440</ele>
        <time>2017-09-08T14:11:35.1Z</time>
      </trkpt>
      <trkpt lat="45.82154" lon="4.79104">
        <ele>440</ele>
        <time>2017-09-08T14:11:37.1Z</time>
      </trkpt>
      <trkpt lat="45.8214" lon="4.79109">
        <ele>440</ele>
        <time>2017-09-08T14:11:39.1Z</time>
      </trkpt>
      <trkpt lat="45.82125" lon="4.79115">
        <ele>440</ele>
        <time>2017-09-08T14:11:41.1Z</time>
      </trkpt>
      <trkpt lat="45.8211" lon="4.79121">
        <ele>440</ele>
        <time>2017-09-08T14:11:43.1Z</time>
      </trkpt>
      <trkpt lat="45.82094" lon="4.79126">
        <ele>440</ele>
        <time>2017-09-08T14:11:45.1Z</time>
      </trkpt>
      <trkpt lat="45.82087" lon="4.79129">
        <ele>439</ele>
        <time>2017-09-08T14:11:46.1Z</time>
      </trkpt>
      <trkpt lat="45.82079" lon="4.79132">
        <ele>439</ele>
        <time>2017-09-08T14:11:47.1Z</time>
      </trkpt>
      <trkpt lat="45.82064" lon="4.79137">
        <ele>439</ele>
        <time>2017-09-08T14:11:49.1Z</time>
      </trkpt>
      <trkpt lat="45.8205" lon="4.79145">
        <ele>438</ele>
        <time>2017-09-08T14:11:51.1Z</time>
      </trkpt>
      <trkpt lat="45.82043" lon="4.79149">
        <ele>438</ele>
        <time>2017-09-08T14:11:52.1Z</time>
      </trkpt>
      <trkpt lat="45.8203" lon="4.79159">
        <ele>438</ele>
        <time>2017-09-08T14:11:54.1Z</time>
      </trkpt>
      <trkpt lat="45.82023" lon="4.79163">
        <ele>438</ele>
        <time>2017-09-08T14:11:55.1Z</time>
      </trkpt>
      <trkpt lat="45.82017" lon="4.79168">
        <ele>438</ele>
        <time>2017-09-08T14:11:56.1Z</time>
      </trkpt>
      <trkpt lat="45.82011" lon="4.79172">
        <ele>438</ele>
        <time>2017-09-08T14:11:57.1Z</time>
      </trkpt>
      <trkpt lat="45.81998" lon="4.79182">
        <ele>438</ele>
        <time>2017-09-08T14:11:59.1Z</time>
      </trkpt>
      <trkpt lat="45.81992" lon="4.79187">
        <ele>438</ele>
        <time>2017-09-08T14:12:00.1Z</time>
      </trkpt>
      <trkpt lat="45.81982" lon="4.792">
        <ele>438</ele>
        <time>2017-09-08T14:12:02.1Z</time>
      </trkpt>
      <trkpt lat="45.81977" lon="4.79206">
        <ele>438</ele>
        <time>2017-09-08T14:12:03.1Z</time>
      </trkpt>
      <trkpt lat="45.81972" lon="4.79214">
        <ele>438</ele>
        <time>2017-09-08T14:12:04.1Z</time>
      </trkpt>
      <trkpt lat="45.81964" lon="4.7923">
        <ele>438</ele>
        <time>2017-09-08T14:12:06.1Z</time>
      </trkpt>
      <trkpt lat="45.81958" lon="4.79248">
        <ele>437</ele>
        <time>2017-09-08T14:12:08.1Z</time>
      </trkpt>
      <trkpt lat="45.81952" lon="4.79265">
        <ele>437</ele>
        <time>2017-09-08T14:12:10.1Z</time>
      </trkpt>
      <trkpt lat="45.8195" lon="4.79274">
        <ele>437</ele>
        <time>2017-09-08T14:12:11.1Z</time>
      </trkpt>
      <trkpt lat="45.81947" lon="4.79282">
        <ele>437</ele>
        <time>2017-09-08T14:12:12.1Z</time>
      </trkpt>
      <trkpt lat="45.81943" lon="4.7929">
        <ele>437</ele>
        <time>2017-09-08T14:12:13.1Z</time>
      </trkpt>
      <trkpt lat="45.81939" lon="4.79296">
        <ele>437</ele>
        <time>2017-09-08T14:12:14.1Z</time>
      </trkpt>
      <trkpt lat="45.81928" lon="4.79307">
        <ele>437</ele>
        <time>2017-09-08T14:12:16.1Z</time>
      </trkpt>
      <trkpt lat="45.81917" lon="4.79316">
        <ele>437</ele>
        <time>2017-09-08T14:12:18.1Z</time>
      </trkpt>
      <trkpt lat="45.81907" lon="4.79325">
        <ele>438</ele>
        <time>2017-09-08T14:12:20.1Z</time>
      </trkpt>
      <trkpt lat="45.81901" lon="4.7933">
        <ele>438</ele>
        <time>2017-09-08T14:12:21.1Z</time>
      </trkpt>
      <trkpt lat="45.81891" lon="4.79339">
        <ele>438</ele>
        <time>2017-09-08T14:12:23.1Z</time>
      </trkpt>
      <trkpt lat="45.8188" lon="4.79348">
        <ele>438</ele>
        <time>2017-09-08T14:12:25.1Z</time>
      </trkpt>
      <trkpt lat="45.8187" lon="4.79356">
        <ele>438</ele>
        <time>2017-09-08T14:12:27.1Z</time>
      </trkpt>
      <trkpt lat="45.81865" lon="4.79362">
        <ele>439</ele>
        <time>2017-09-08T14:12:28.1Z</time>
      </trkpt>
      <trkpt lat="45.81861" lon="4.79367">
        <ele>439</ele>
        <time>2017-09-08T14:12:29.1Z</time>
      </trkpt>
      <trkpt lat="45.81857" lon="4.79373">
        <ele>439</ele>
        <time>2017-09-08T14:12:30.1Z</time>
      </trkpt>
      <trkpt lat="45.81853" lon="4.79378">
        <ele>440</ele>
        <time>2017-09-08T14:12:31.1Z</time>
      </trkpt>
      <trkpt lat="45.81849" lon="4.79385">
        <ele>440</ele>
        <time>2017-09-08T14:12:32.1Z</time>
      </trkpt>
      <trkpt lat="45.81842" lon="4.79398">
        <ele>440</ele>
        <time>2017-09-08T14:12:34.1Z</time>
      </trkpt>
      <trkpt lat="45.81836" lon="4.79412">
        <ele>441</ele>
        <time>2017-09-08T14:12:36.1Z</time>
      </trkpt>
      <trkpt lat="45.81832" lon="4.79419">
        <ele>441</ele>
        <time>2017-09-08T14:12:37.1Z</time>
      </trkpt>
      <trkpt lat="45.81826" lon="4.79432">
        <ele>441</ele>
        <time>2017-09-08T14:12:39.1Z</time>
      </trkpt>
      <trkpt lat="45.81823" lon="4.79439">
        <ele>442</ele>
        <time>2017-09-08T14:12:40.1Z</time>
      </trkpt>
      <trkpt lat="45.8182" lon="4.79446">
        <ele>442</ele>
        <time>2017-09-08T14:12:41.1Z</time>
      </trkpt>
      <trkpt lat="45.81817" lon="4.79453">
        <ele>442</ele>
        <time>2017-09-08T14:12:42.1Z</time>
      </trkpt>
      <trkpt lat="45.81815" lon="4.79459">
        <ele>442</ele>
        <time>2017-09-08T14:12:43.1Z</time>
      </trkpt>
      <trkpt lat="45.81812" lon="4.79465">
        <ele>442</ele>
        <time>2017-09-08T14:12:44.1Z</time>
      </trkpt>
      <trkpt lat="45.81804" lon="4.79475">
        <ele>441</ele>
        <time>2017-09-08T14:12:46.1Z</time>
      </trkpt>
      <trkpt lat="45.81799" lon="4.79479">
        <ele>441</ele>
        <time>2017-09-08T14:12:47.1Z</time>
      </trkpt>
      <trkpt lat="45.81787" lon="4.79485">
        <ele>440</ele>
        <time>2017-09-08T14:12:49.1Z</time>
      </trkpt>
      <trkpt lat="45.81781" lon="4.79487">
        <ele>440</ele>
        <time>2017-09-08T14:12:50.1Z</time>
      </trkpt>
      <trkpt lat="45.81768" lon="4.79493">
        <ele>440</ele>
        <time>2017-09-08T14:12:52.1Z</time>
      </trkpt>
      <trkpt lat="45.81755" lon="4.79501">
        <ele>440</ele>
        <time>2017-09-08T14:12:54.1Z</time>
      </trkpt>
      <trkpt lat="45.81744" lon="4.79517">
        <ele>440</ele>
        <time>2017-09-08T14:12:56.1Z</time>
      </trkpt>
      <trkpt lat="45.81739" lon="4.79526">
        <ele>440</ele>
        <time>2017-09-08T14:12:57.1Z</time>
      </trkpt>
      <trkpt lat="45.81729" lon="4.79543">
        <ele>439</ele>
        <time>2017-09-08T14:12:59.1Z</time>
      </trkpt>
      <trkpt lat="45.81723" lon="4.7955">
        <ele>438</ele>
        <time>2017-09-08T14:13:00.1Z</time>
      </trkpt>
      <trkpt lat="45.81717" lon="4.79557">
        <ele>437</ele>
        <time>2017-09-08T14:13:01.1Z</time>
      </trkpt>
      <trkpt lat="45.81704" lon="4.79568">
        <ele>436</ele>
        <time>2017-09-08T14:13:03.1Z</time>
      </trkpt>
      <trkpt lat="45.81689" lon="4.7958">
        <ele>435</ele>
        <time>2017-09-08T14:13:05.1Z</time>
      </trkpt>
      <trkpt lat="45.81674" lon="4.7959">
        <ele>434</ele>
        <time>2017-09-08T14:13:07.1Z</time>
      </trkpt>
      <trkpt lat="45.81658" lon="4.79601">
        <ele>434</ele>
        <time>2017-09-08T14:13:09.1Z</time>
      </trkpt>
      <trkpt lat="45.8165" lon="4.79608">
        <ele>434</ele>
        <time>2017-09-08T14:13:10.1Z</time>
      </trkpt>
      <trkpt lat="45.81642" lon="4.79614">
        <ele>434</ele>
        <time>2017-09-08T14:13:11.1Z</time>
      </trkpt>
      <trkpt lat="45.81625" lon="4.79626">
        <ele>434</ele>
        <time>2017-09-08T14:13:13.1Z</time>
      </trkpt>
      <trkpt lat="45.81617" lon="4.79633">
        <ele>434</ele>
        <time>2017-09-08T14:13:14.1Z</time>
      </trkpt>
      <trkpt lat="45.81602" lon="4.79645">
        <ele>433</ele>
        <time>2017-09-08T14:13:16.1Z</time>
      </trkpt>
      <trkpt lat="45.81588" lon="4.79658">
        <ele>431</ele>
        <time>2017-09-08T14:13:18.1Z</time>
      </trkpt>
      <trkpt lat="45.81574" lon="4.79667">
        <ele>430</ele>
        <time>2017-09-08T14:13:20.1Z</time>
      </trkpt>
      <trkpt lat="45.81559" lon="4.79673">
        <ele>429</ele>
        <time>2017-09-08T14:13:22.1Z</time>
      </trkpt>
      <trkpt lat="45.81544" lon="4.79679">
        <ele>428</ele>
        <time>2017-09-08T14:13:24.1Z</time>
      </trkpt>
      <trkpt lat="45.8153" lon="4.79686">
        <ele>427</ele>
        <time>2017-09-08T14:13:26.1Z</time>
      </trkpt>
      <trkpt lat="45.81522" lon="4.79689">
        <ele>427</ele>
        <time>2017-09-08T14:13:27.1Z</time>
      </trkpt>
      <trkpt lat="45.81507" lon="4.79695">
        <ele>427</ele>
        <time>2017-09-08T14:13:29.1Z</time>
      </trkpt>
      <trkpt lat="45.81499" lon="4.79698">
        <ele>427</ele>
        <time>2017-09-08T14:13:30.1Z</time>
      </trkpt>
      <trkpt lat="45.81492" lon="4.79701">
        <ele>426</ele>
        <time>2017-09-08T14:13:31.1Z</time>
      </trkpt>
      <trkpt lat="45.81485" lon="4.79705">
        <ele>426</ele>
        <time>2017-09-08T14:13:32.1Z</time>
      </trkpt>
      <trkpt lat="45.81479" lon="4.79709">
        <ele>426</ele>
        <time>2017-09-08T14:13:33.1Z</time>
      </trkpt>
      <trkpt lat="45.81467" lon="4.79715">
        <ele>426</ele>
        <time>2017-09-08T14:13:35.1Z</time>
      </trkpt>
      <trkpt lat="45.81462" lon="4.79718">
        <ele>425</ele>
        <time>2017-09-08T14:13:36.1Z</time>
      </trkpt>
      <trkpt lat="45.81456" lon="4.79722">
        <ele>425</ele>
        <time>2017-09-08T14:13:37.1Z</time>
      </trkpt>
      <trkpt lat="45.81451" lon="4.79725">
        <ele>425</ele>
        <time>2017-09-08T14:13:38.1Z</time>
      </trkpt>
      <trkpt lat="45.81446" lon="4.79728">
        <ele>424</ele>
        <time>2017-09-08T14:13:39.1Z</time>
      </trkpt>
      <trkpt lat="45.8144" lon="4.79731">
        <ele>424</ele>
        <time>2017-09-08T14:13:40.1Z</time>
      </trkpt>
      <trkpt lat="45.81435" lon="4.79734">
        <ele>424</ele>
        <time>2017-09-08T14:13:41.1Z</time>
      </trkpt>
      <trkpt lat="45.81429" lon="4.79736">
        <ele>424</ele>
        <time>2017-09-08T14:13:42.1Z</time>
      </trkpt>
      <trkpt lat="45.81424" lon="4.79739">
        <ele>424</ele>
        <time>2017-09-08T14:13:43.1Z</time>
      </trkpt>
      <trkpt lat="45.81412" lon="4.7974">
        <ele>423</ele>
        <time>2017-09-08T14:13:45.1Z</time>
      </trkpt>
      <trkpt lat="45.81406" lon="4.79741">
        <ele>423</ele>
        <time>2017-09-08T14:13:46.1Z</time>
      </trkpt>
      <trkpt lat="45.81394" lon="4.79744">
        <ele>423</ele>
        <time>2017-09-08T14:13:48.1Z</time>
      </trkpt>
      <trkpt lat="45.81387" lon="4.79745">
        <ele>422</ele>
        <time>2017-09-08T14:13:49.1Z</time>
      </trkpt>
      <trkpt lat="45.8138" lon="4.79746">
        <ele>422</ele>
        <time>2017-09-08T14:13:50.1Z</time>
      </trkpt>
      <trkpt lat="45.81373" lon="4.79747">
        <ele>422</ele>
        <time>2017-09-08T14:13:51.1Z</time>
      </trkpt>
      <trkpt lat="45.81359" lon="4.79751">
        <ele>421</ele>
        <time>2017-09-08T14:13:53.1Z</time>
      </trkpt>
      <trkpt lat="45.81351" lon="4.79753">
        <ele>421</ele>
        <time>2017-09-08T14:13:54.1Z</time>
      </trkpt>
      <trkpt lat="45.81343" lon="4.79755">
        <ele>421</ele>
        <time>2017-09-08T14:13:55.1Z</time>
      </trkpt>
      <trkpt lat="45.81327" lon="4.79756">
        <ele>420</ele>
        <time>2017-09-08T14:13:57.1Z</time>
      </trkpt>
      <trkpt lat="45.81311" lon="4.7976">
        <ele>420</ele>
        <time>2017-09-08T14:13:59.1Z</time>
      </trkpt>
      <trkpt lat="45.81293" lon="4.79766">
        <ele>419</ele>
        <time>2017-09-08T14:14:01.1Z</time>
      </trkpt>
      <trkpt lat="45.81276" lon="4.79775">
        <ele>418</ele>
        <time>2017-09-08T14:14:03.1Z</time>
      </trkpt>
      <trkpt lat="45.8126" lon="4.79783">
        <ele>417</ele>
        <time>2017-09-08T14:14:05.1Z</time>
      </trkpt>
      <trkpt lat="45.81251" lon="4.79787">
        <ele>416</ele>
        <time>2017-09-08T14:14:06.1Z</time>
      </trkpt>
      <trkpt lat="45.81235" lon="4.79796">
        <ele>416</ele>
        <time>2017-09-08T14:14:08.1Z</time>
      </trkpt>
      <trkpt lat="45.81218" lon="4.79805">
        <ele>414</ele>
        <time>2017-09-08T14:14:10.1Z</time>
      </trkpt>
      <trkpt lat="45.8121" lon="4.7981">
        <ele>414</ele>
        <time>2017-09-08T14:14:11.1Z</time>
      </trkpt>
      <trkpt lat="45.81201" lon="4.79814">
        <ele>413</ele>
        <time>2017-09-08T14:14:12.1Z</time>
      </trkpt>
      <trkpt lat="45.81185" lon="4.79821">
        <ele>413</ele>
        <time>2017-09-08T14:14:14.1Z</time>
      </trkpt>
      <trkpt lat="45.8117" lon="4.79829">
        <ele>412</ele>
        <time>2017-09-08T14:14:16.1Z</time>
      </trkpt>
      <trkpt lat="45.81162" lon="4.79831">
        <ele>411</ele>
        <time>2017-09-08T14:14:17.1Z</time>
      </trkpt>
      <trkpt lat="45.81147" lon="4.79832">
        <ele>409</ele>
        <time>2017-09-08T14:14:19.1Z</time>
      </trkpt>
      <trkpt lat="45.81131" lon="4.79832">
        <ele>408</ele>
        <time>2017-09-08T14:14:21.1Z</time>
      </trkpt>
      <trkpt lat="45.81117" lon="4.79833">
        <ele>407</ele>
        <time>2017-09-08T14:14:23.1Z</time>
      </trkpt>
      <trkpt lat="45.81104" lon="4.79833">
        <ele>405</ele>
        <time>2017-09-08T14:14:25.1Z</time>
      </trkpt>
      <trkpt lat="45.81093" lon="4.79835">
        <ele>404</ele>
        <time>2017-09-08T14:14:27.1Z</time>
      </trkpt>
      <trkpt lat="45.81089" lon="4.79835">
        <ele>403</ele>
        <time>2017-09-08T14:14:28.1Z</time>
      </trkpt>
      <trkpt lat="45.81084" lon="4.79835">
        <ele>403</ele>
        <time>2017-09-08T14:14:29.1Z</time>
      </trkpt>
      <trkpt lat="45.81075" lon="4.79836">
        <ele>402</ele>
        <time>2017-09-08T14:14:31.1Z</time>
      </trkpt>
      <trkpt lat="45.81064" lon="4.79837">
        <ele>401</ele>
        <time>2017-09-08T14:14:33.1Z</time>
      </trkpt>
      <trkpt lat="45.81053" lon="4.79839">
        <ele>401</ele>
        <time>2017-09-08T14:14:35.1Z</time>
      </trkpt>
      <trkpt lat="45.81042" lon="4.79841">
        <ele>400</ele>
        <time>2017-09-08T14:14:37.1Z</time>
      </trkpt>
      <trkpt lat="45.81033" lon="4.79842">
        <ele>400</ele>
        <time>2017-09-08T14:14:39.1Z</time>
      </trkpt>
      <trkpt lat="45.81025" lon="4.79843">
        <ele>399</ele>
        <time>2017-09-08T14:14:41.1Z</time>
      </trkpt>
      <trkpt lat="45.81021" lon="4.79842">
        <ele>399</ele>
        <time>2017-09-08T14:14:42.1Z</time>
      </trkpt>
      <trkpt lat="45.81013" lon="4.79839">
        <ele>399</ele>
        <time>2017-09-08T14:14:44.1Z</time>
      </trkpt>
      <trkpt lat="45.81009" lon="4.79837">
        <ele>399</ele>
        <time>2017-09-08T14:14:45.1Z</time>
      </trkpt>
      <trkpt lat="45.81004" lon="4.79835">
        <ele>399</ele>
        <time>2017-09-08T14:14:46.1Z</time>
      </trkpt>
      <trkpt lat="45.80996" lon="4.79835">
        <ele>399</ele>
        <time>2017-09-08T14:14:48.1Z</time>
      </trkpt>
      <trkpt lat="45.80988" lon="4.79835">
        <ele>398</ele>
        <time>2017-09-08T14:14:50.1Z</time>
      </trkpt>
      <trkpt lat="45.80984" lon="4.79835">
        <ele>398</ele>
        <time>2017-09-08T14:14:51.1Z</time>
      </trkpt>
      <trkpt lat="45.80975" lon="4.79837">
        <ele>397</ele>
        <time>2017-09-08T14:14:53.1Z</time>
      </trkpt>
      <trkpt lat="45.80965" lon="4.7984">
        <ele>396</ele>
        <time>2017-09-08T14:14:55.1Z</time>
      </trkpt>
      <trkpt lat="45.80955" lon="4.79842">
        <ele>395</ele>
        <time>2017-09-08T14:14:57.1Z</time>
      </trkpt>
      <trkpt lat="45.80943" lon="4.79845">
        <ele>395</ele>
        <time>2017-09-08T14:14:59.1Z</time>
      </trkpt>
      <trkpt lat="45.80931" lon="4.79849">
        <ele>395</ele>
        <time>2017-09-08T14:15:01.1Z</time>
      </trkpt>
      <trkpt lat="45.80925" lon="4.79851">
        <ele>394</ele>
        <time>2017-09-08T14:15:02.1Z</time>
      </trkpt>
      <trkpt lat="45.80913" lon="4.79855">
        <ele>394</ele>
        <time>2017-09-08T14:15:04.1Z</time>
      </trkpt>
      <trkpt lat="45.80901" lon="4.79858">
        <ele>393</ele>
        <time>2017-09-08T14:15:06.1Z</time>
      </trkpt>
      <trkpt lat="45.80889" lon="4.79865">
        <ele>393</ele>
        <time>2017-09-08T14:15:08.1Z</time>
      </trkpt>
      <trkpt lat="45.80879" lon="4.79877">
        <ele>392</ele>
        <time>2017-09-08T14:15:10.1Z</time>
      </trkpt>
      <trkpt lat="45.8087" lon="4.79895">
        <ele>392</ele>
        <time>2017-09-08T14:15:12.1Z</time>
      </trkpt>
      <trkpt lat="45.80861" lon="4.79913">
        <ele>391</ele>
        <time>2017-09-08T14:15:14.1Z</time>
      </trkpt>
      <trkpt lat="45.80856" lon="4.79922">
        <ele>391</ele>
        <time>2017-09-08T14:15:15.1Z</time>
      </trkpt>
      <trkpt lat="45.80846" lon="4.79942">
        <ele>390</ele>
        <time>2017-09-08T14:15:17.1Z</time>
      </trkpt>
      <trkpt lat="45.80841" lon="4.79952">
        <ele>389</ele>
        <time>2017-09-08T14:15:18.1Z</time>
      </trkpt>
      <trkpt lat="45.80836" lon="4.79962">
        <ele>388</ele>
        <time>2017-09-08T14:15:19.1Z</time>
      </trkpt>
      <trkpt lat="45.80825" lon="4.79984">
        <ele>388</ele>
        <time>2017-09-08T14:15:21.1Z</time>
      </trkpt>
      <trkpt lat="45.80819" lon="4.79994">
        <ele>387</ele>
        <time>2017-09-08T14:15:22.1Z</time>
      </trkpt>
      <trkpt lat="45.80809" lon="4.80014">
        <ele>386</ele>
        <time>2017-09-08T14:15:24.1Z</time>
      </trkpt>
      <trkpt lat="45.80801" lon="4.80031">
        <ele>385</ele>
        <time>2017-09-08T14:15:26.1Z</time>
      </trkpt>
      <trkpt lat="45.80793" lon="4.80045">
        <ele>384</ele>
        <time>2017-09-08T14:15:28.1Z</time>
      </trkpt>
      <trkpt lat="45.80783" lon="4.80057">
        <ele>382</ele>
        <time>2017-09-08T14:15:30.1Z</time>
      </trkpt>
      <trkpt lat="45.80777" lon="4.80063">
        <ele>382</ele>
        <time>2017-09-08T14:15:31.1Z</time>
      </trkpt>
      <trkpt lat="45.80763" lon="4.80073">
        <ele>381</ele>
        <time>2017-09-08T14:15:33.1Z</time>
      </trkpt>
      <trkpt lat="45.80756" lon="4.80078">
        <ele>381</ele>
        <time>2017-09-08T14:15:34.1Z</time>
      </trkpt>
      <trkpt lat="45.80748" lon="4.80083">
        <ele>381</ele>
        <time>2017-09-08T14:15:35.1Z</time>
      </trkpt>
      <trkpt lat="45.8074" lon="4.80088">
        <ele>381</ele>
        <time>2017-09-08T14:15:36.1Z</time>
      </trkpt>
      <trkpt lat="45.80733" lon="4.80092">
        <ele>380</ele>
        <time>2017-09-08T14:15:37.1Z</time>
      </trkpt>
      <trkpt lat="45.80718" lon="4.80102">
        <ele>380</ele>
        <time>2017-09-08T14:15:39.1Z</time>
      </trkpt>
      <trkpt lat="45.8071" lon="4.80107">
        <ele>380</ele>
        <time>2017-09-08T14:15:40.1Z</time>
      </trkpt>
      <trkpt lat="45.80694" lon="4.80117">
        <ele>379</ele>
        <time>2017-09-08T14:15:42.1Z</time>
      </trkpt>
      <trkpt lat="45.80678" lon="4.80127">
        <ele>377</ele>
        <time>2017-09-08T14:15:44.1Z</time>
      </trkpt>
      <trkpt lat="45.80661" lon="4.80135">
        <ele>377</ele>
        <time>2017-09-08T14:15:46.1Z</time>
      </trkpt>
      <trkpt lat="45.80645" lon="4.80142">
        <ele>376</ele>
        <time>2017-09-08T14:15:48.1Z</time>
      </trkpt>
      <trkpt lat="45.80628" lon="4.80147">
        <ele>374</ele>
        <time>2017-09-08T14:15:50.1Z</time>
      </trkpt>
      <trkpt lat="45.80619" lon="4.8015">
        <ele>374</ele>
        <time>2017-09-08T14:15:51.1Z</time>
      </trkpt>
      <trkpt lat="45.806" lon="4.80154">
        <ele>373</ele>
        <time>2017-09-08T14:15:53.1Z</time>
      </trkpt>
      <trkpt lat="45.80581" lon="4.80158">
        <ele>370</ele>
        <time>2017-09-08T14:15:55.1Z</time>
      </trkpt>
      <trkpt lat="45.80571" lon="4.8016">
        <ele>370</ele>
        <time>2017-09-08T14:15:56.1Z</time>
      </trkpt>
      <trkpt lat="45.8055" lon="4.80166">
        <ele>368</ele>
        <time>2017-09-08T14:15:58.1Z</time>
      </trkpt>
      <trkpt lat="45.8053" lon="4.80175">
        <ele>367</ele>
        <time>2017-09-08T14:16:00.1Z</time>
      </trkpt>
      <trkpt lat="45.8052" lon="4.8018">
        <ele>367</ele>
        <time>2017-09-08T14:16:01.1Z</time>
      </trkpt>
      <trkpt lat="45.80499" lon="4.80189">
        <ele>366</ele>
        <time>2017-09-08T14:16:03.1Z</time>
      </trkpt>
      <trkpt lat="45.80478" lon="4.80199">
        <ele>364</ele>
        <time>2017-09-08T14:16:05.1Z</time>
      </trkpt>
      <trkpt lat="45.80467" lon="4.80203">
        <ele>364</ele>
        <time>2017-09-08T14:16:06.1Z</time>
      </trkpt>
      <trkpt lat="45.80456" lon="4.80208">
        <ele>363</ele>
        <time>2017-09-08T14:16:07.1Z</time>
      </trkpt>
      <trkpt lat="45.80434" lon="4.80214">
        <ele>362</ele>
        <time>2017-09-08T14:16:09.1Z</time>
      </trkpt>
      <trkpt lat="45.80412" lon="4.80216">
        <ele>360</ele>
        <time>2017-09-08T14:16:11.1Z</time>
      </trkpt>
      <trkpt lat="45.80391" lon="4.80216">
        <ele>359</ele>
        <time>2017-09-08T14:16:13.1Z</time>
      </trkpt>
      <trkpt lat="45.8037" lon="4.80218">
        <ele>357</ele>
        <time>2017-09-08T14:16:15.1Z</time>
      </trkpt>
      <trkpt lat="45.8036" lon="4.8022">
        <ele>357</ele>
        <time>2017-09-08T14:16:16.1Z</time>
      </trkpt>
      <trkpt lat="45.8034" lon="4.80226">
        <ele>356</ele>
        <time>2017-09-08T14:16:18.1Z</time>
      </trkpt>
      <trkpt lat="45.80321" lon="4.80234">
        <ele>355</ele>
        <time>2017-09-08T14:16:20.1Z</time>
      </trkpt>
      <trkpt lat="45.80301" lon="4.80243">
        <ele>353</ele>
        <time>2017-09-08T14:16:22.1Z</time>
      </trkpt>
      <trkpt lat="45.80292" lon="4.80247">
        <ele>352</ele>
        <time>2017-09-08T14:16:23.1Z</time>
      </trkpt>
      <trkpt lat="45.80273" lon="4.80257">
        <ele>351</ele>
        <time>2017-09-08T14:16:25.1Z</time>
      </trkpt>
      <trkpt lat="45.80254" lon="4.80266">
        <ele>349</ele>
        <time>2017-09-08T14:16:27.1Z</time>
      </trkpt>
      <trkpt lat="45.80235" lon="4.80274">
        <ele>348</ele>
        <time>2017-09-08T14:16:29.1Z</time>
      </trkpt>
      <trkpt lat="45.80216" lon="4.80279">
        <ele>347</ele>
        <time>2017-09-08T14:16:31.1Z</time>
      </trkpt>
      <trkpt lat="45.80198" lon="4.80284">
        <ele>346</ele>
        <time>2017-09-08T14:16:33.1Z</time>
      </trkpt>
      <trkpt lat="45.80182" lon="4.80289">
        <ele>345</ele>
        <time>2017-09-08T14:16:35.1Z</time>
      </trkpt>
      <trkpt lat="45.80173" lon="4.80292">
        <ele>345</ele>
        <time>2017-09-08T14:16:36.1Z</time>
      </trkpt>
      <trkpt lat="45.80156" lon="4.80296">
        <ele>344</ele>
        <time>2017-09-08T14:16:38.1Z</time>
      </trkpt>
      <trkpt lat="45.80148" lon="4.80298">
        <ele>344</ele>
        <time>2017-09-08T14:16:39.1Z</time>
      </trkpt>
      <trkpt lat="45.80139" lon="4.803">
        <ele>343</ele>
        <time>2017-09-08T14:16:40.1Z</time>
      </trkpt>
      <trkpt lat="45.80123" lon="4.80304">
        <ele>343</ele>
        <time>2017-09-08T14:16:42.1Z</time>
      </trkpt>
      <trkpt lat="45.80107" lon="4.80309">
        <ele>343</ele>
        <time>2017-09-08T14:16:44.1Z</time>
      </trkpt>
      <trkpt lat="45.80099" lon="4.8031">
        <ele>343</ele>
        <time>2017-09-08T14:16:45.1Z</time>
      </trkpt>
      <trkpt lat="45.80083" lon="4.80315">
        <ele>342</ele>
        <time>2017-09-08T14:16:47.1Z</time>
      </trkpt>
      <trkpt lat="45.80069" lon="4.80318">
        <ele>342</ele>
        <time>2017-09-08T14:16:49.1Z</time>
      </trkpt>
      <trkpt lat="45.80062" lon="4.80319">
        <ele>341</ele>
        <time>2017-09-08T14:16:50.1Z</time>
      </trkpt>
      <trkpt lat="45.80047" lon="4.80322">
        <ele>340</ele>
        <time>2017-09-08T14:16:52.1Z</time>
      </trkpt>
      <trkpt lat="45.8004" lon="4.80324">
        <ele>340</ele>
        <time>2017-09-08T14:16:53.1Z</time>
      </trkpt>
      <trkpt lat="45.80033" lon="4.80326">
        <ele>340</ele>
        <time>2017-09-08T14:16:54.1Z</time>
      </trkpt>
      <trkpt lat="45.80025" lon="4.80329">
        <ele>340</ele>
        <time>2017-09-08T14:16:55.1Z</time>
      </trkpt>
      <trkpt lat="45.8001" lon="4.80333">
        <ele>339</ele>
        <time>2017-09-08T14:16:57.1Z</time>
      </trkpt>
      <trkpt lat="45.79995" lon="4.80339">
        <ele>339</ele>
        <time>2017-09-08T14:16:59.1Z</time>
      </trkpt>
      <trkpt lat="45.79981" lon="4.80345">
        <ele>338</ele>
        <time>2017-09-08T14:17:01.1Z</time>
      </trkpt>
      <trkpt lat="45.79974" lon="4.80348">
        <ele>338</ele>
        <time>2017-09-08T14:17:02.1Z</time>
      </trkpt>
      <trkpt lat="45.7996" lon="4.80357">
        <ele>337</ele>
        <time>2017-09-08T14:17:04.1Z</time>
      </trkpt>
      <trkpt lat="45.79946" lon="4.80366">
        <ele>337</ele>
        <time>2017-09-08T14:17:06.1Z</time>
      </trkpt>
      <trkpt lat="45.79939" lon="4.80371">
        <ele>336</ele>
        <time>2017-09-08T14:17:07.1Z</time>
      </trkpt>
      <trkpt lat="45.79932" lon="4.80375">
        <ele>336</ele>
        <time>2017-09-08T14:17:08.1Z</time>
      </trkpt>
      <trkpt lat="45.79923" lon="4.80377">
        <ele>335</ele>
        <time>2017-09-08T14:17:10.1Z</time>
      </trkpt>
      <trkpt lat="45.7992" lon="4.80378">
        <ele>335</ele>
        <time>2017-09-08T14:17:11.1Z</time>
      </trkpt>
      <trkpt lat="45.79919" lon="4.80378">
        <ele>335</ele>
        <time>2017-09-08T14:17:12.1Z</time>
      </trkpt>
      <trkpt lat="45.79919" lon="4.80378">
        <ele>334</ele>
        <time>2017-09-08T14:17:13.1Z</time>
      </trkpt>
      <trkpt lat="45.79918" lon="4.80378">
        <ele>334</ele>
        <time>2017-09-08T14:17:15.1Z</time>
      </trkpt>
      <trkpt lat="45.79916" lon="4.8038">
        <ele>334</ele>
        <time>2017-09-08T14:17:17.1Z</time>
      </trkpt>
      <trkpt lat="45.79913" lon="4.80381">
        <ele>334</ele>
        <time>2017-09-08T14:17:19.1Z</time>
      </trkpt>
      <trkpt lat="45.79912" lon="4.80381">
        <ele>333</ele>
        <time>2017-09-08T14:17:20.1Z</time>
      </trkpt>
      <trkpt lat="45.79911" lon="4.80381">
        <ele>333</ele>
        <time>2017-09-08T14:17:21.1Z</time>
      </trkpt>
      <trkpt lat="45.79911" lon="4.80381">
        <ele>333</ele>
        <time>2017-09-08T14:17:23.1Z</time>
      </trkpt>
      <trkpt lat="45.7991" lon="4.8038">
        <ele>334</ele>
        <time>2017-09-08T14:17:25.1Z</time>
      </trkpt>
      <trkpt lat="45.7991" lon="4.8038">
        <ele>334</ele>
        <time>2017-09-08T14:17:26.1Z</time>
      </trkpt>
      <trkpt lat="45.7991" lon="4.8038">
        <ele>334</ele>
        <time>2017-09-08T14:17:27.1Z</time>
      </trkpt>
      <trkpt lat="45.79909" lon="4.80381">
        <ele>334</ele>
        <time>2017-09-08T14:17:29.1Z</time>
      </trkpt>
      <trkpt lat="45.79909" lon="4.80381">
        <ele>334</ele>
        <time>2017-09-08T14:17:30.1Z</time>
      </trkpt>
      <trkpt lat="45.79909" lon="4.80381">
        <ele>334</ele>
        <time>2017-09-08T14:17:32.1Z</time>
      </trkpt>
      <trkpt lat="45.79908" lon="4.80381">
        <ele>334</ele>
        <time>2017-09-08T14:17:33.1Z</time>
      </trkpt>
      <trkpt lat="45.79908" lon="4.80381">
        <ele>334</ele>
        <time>2017-09-08T14:17:35.1Z</time>
      </trkpt>
      <trkpt lat="45.79908" lon="4.80382">
        <ele>334</ele>
        <time>2017-09-08T14:17:37.1Z</time>
      </trkpt>
      <trkpt lat="45.79908" lon="4.80382">
        <ele>334</ele>
        <time>2017-09-08T14:17:39.1Z</time>
      </trkpt>
      <trkpt lat="45.79908" lon="4.80383">
        <ele>334</ele>
        <time>2017-09-08T14:17:40.1Z</time>
      </trkpt>
      <trkpt lat="45.79908" lon="4.80384">
        <ele>334</ele>
        <time>2017-09-08T14:17:42.1Z</time>
      </trkpt>
      <trkpt lat="45.79908" lon="4.80385">
        <ele>333</ele>
        <time>2017-09-08T14:17:43.1Z</time>
      </trkpt>
      <trkpt lat="45.79908" lon="4.80385">
        <ele>333</ele>
        <time>2017-09-08T14:17:44.1Z</time>
      </trkpt>
      <trkpt lat="45.79909" lon="4.80385">
        <ele>333</ele>
        <time>2017-09-08T14:17:46.1Z</time>
      </trkpt>
      <trkpt lat="45.79909" lon="4.80386">
        <ele>333</ele>
        <time>2017-09-08T14:17:47.1Z</time>
      </trkpt>
      <trkpt lat="45.79925" lon="4.80391">
        <ele>334</ele>
        <time>2017-09-08T14:17:48.1Z</time>
      </trkpt>
      <trkpt lat="45.79924" lon="4.80393">
        <ele>334</ele>
        <time>2017-09-08T14:17:50.1Z</time>
      </trkpt>
      <trkpt lat="45.79922" lon="4.80394">
        <ele>334</ele>
        <time>2017-09-08T14:17:51.1Z</time>
      </trkpt>
      <trkpt lat="45.79915" lon="4.80395">
        <ele>334</ele>
        <time>2017-09-08T14:17:53.1Z</time>
      </trkpt>
      <trkpt lat="45.79906" lon="4.80396">
        <ele>334</ele>
        <time>2017-09-08T14:17:55.1Z</time>
      </trkpt>
      <trkpt lat="45.79901" lon="4.80397">
        <ele>334</ele>
        <time>2017-09-08T14:17:56.1Z</time>
      </trkpt>
      <trkpt lat="45.79895" lon="4.80398">
        <ele>334</ele>
        <time>2017-09-08T14:17:57.1Z</time>
      </trkpt>
      <trkpt lat="45.79883" lon="4.804">
        <ele>334</ele>
        <time>2017-09-08T14:17:59.1Z</time>
      </trkpt>
      <trkpt lat="45.7987" lon="4.80402">
        <ele>333</ele>
        <time>2017-09-08T14:18:01.1Z</time>
      </trkpt>
      <trkpt lat="45.79857" lon="4.80403">
        <ele>333</ele>
        <time>2017-09-08T14:18:03.1Z</time>
      </trkpt>
      <trkpt lat="45.79845" lon="4.80396">
        <ele>332</ele>
        <time>2017-09-08T14:18:05.1Z</time>
      </trkpt>
      <trkpt lat="45.79841" lon="4.80389">
        <ele>332</ele>
        <time>2017-09-08T14:18:06.1Z</time>
      </trkpt>
      <trkpt lat="45.79834" lon="4.80374">
        <ele>332</ele>
        <time>2017-09-08T14:18:08.1Z</time>
      </trkpt>
      <trkpt lat="45.7983" lon="4.80369">
        <ele>332</ele>
        <time>2017-09-08T14:18:09.1Z</time>
      </trkpt>
      <trkpt lat="45.79819" lon="4.80371">
        <ele>331</ele>
        <time>2017-09-08T14:18:11.1Z</time>
      </trkpt>
      <trkpt lat="45.79813" lon="4.80383">
        <ele>331</ele>
        <time>2017-09-08T14:18:13.1Z</time>
      </trkpt>
      <trkpt lat="45.7981" lon="4.80396">
        <ele>330</ele>
        <time>2017-09-08T14:18:15.1Z</time>
      </trkpt>
      <trkpt lat="45.79809" lon="4.80402">
        <ele>330</ele>
        <time>2017-09-08T14:18:16.1Z</time>
      </trkpt>
      <trkpt lat="45.79807" lon="4.80415">
        <ele>330</ele>
        <time>2017-09-08T14:18:18.1Z</time>
      </trkpt>
      <trkpt lat="45.79806" lon="4.80421">
        <ele>331</ele>
        <time>2017-09-08T14:18:19.1Z</time>
      </trkpt>
      <trkpt lat="45.79805" lon="4.80434">
        <ele>331</ele>
        <time>2017-09-08T14:18:21.1Z</time>
      </trkpt>
      <trkpt lat="45.79804" lon="4.8044">
        <ele>331</ele>
        <time>2017-09-08T14:18:22.1Z</time>
      </trkpt>
      <trkpt lat="45.79803" lon="4.80453">
        <ele>332</ele>
        <time>2017-09-08T14:18:24.1Z</time>
      </trkpt>
      <trkpt lat="45.79802" lon="4.80459">
        <ele>333</ele>
        <time>2017-09-08T14:18:25.1Z</time>
      </trkpt>
      <trkpt lat="45.798" lon="4.80472">
        <ele>333</ele>
        <time>2017-09-08T14:18:27.1Z</time>
      </trkpt>
      <trkpt lat="45.79799" lon="4.80478">
        <ele>333</ele>
        <time>2017-09-08T14:18:28.1Z</time>
      </trkpt>
      <trkpt lat="45.79797" lon="4.8049">
        <ele>334</ele>
        <time>2017-09-08T14:18:30.1Z</time>
      </trkpt>
      <trkpt lat="45.79797" lon="4.80497">
        <ele>334</ele>
        <time>2017-09-08T14:18:31.1Z</time>
      </trkpt>
      <trkpt lat="45.79795" lon="4.80507">
        <ele>334</ele>
        <time>2017-09-08T14:18:33.1Z</time>
      </trkpt>
      <trkpt lat="45.79795" lon="4.80511">
        <ele>334</ele>
        <time>2017-09-08T14:18:34.1Z</time>
      </trkpt>
      <trkpt lat="45.79798" lon="4.80516">
        <ele>335</ele>
        <time>2017-09-08T14:18:36.1Z</time>
      </trkpt>
      <trkpt lat="45.79805" lon="4.80517">
        <ele>335</ele>
        <time>2017-09-08T14:18:38.1Z</time>
      </trkpt>
      <trkpt lat="45.79808" lon="4.80516">
        <ele>335</ele>
        <time>2017-09-08T14:18:39.1Z</time>
      </trkpt>
      <trkpt lat="45.79816" lon="4.80513">
        <ele>335</ele>
        <time>2017-09-08T14:18:41.1Z</time>
      </trkpt>
      <trkpt lat="45.79824" lon="4.80511">
        <ele>336</ele>
        <time>2017-09-08T14:18:43.1Z</time>
      </trkpt>
      <trkpt lat="45.79833" lon="4.80508">
        <ele>336</ele>
        <time>2017-09-08T14:18:45.1Z</time>
      </trkpt>
      <trkpt lat="45.79841" lon="4.80505">
        <ele>336</ele>
        <time>2017-09-08T14:18:47.1Z</time>
      </trkpt>
      <trkpt lat="45.79845" lon="4.80502">
        <ele>336</ele>
        <time>2017-09-08T14:18:48.1Z</time>
      </trkpt>
      <trkpt lat="45.79849" lon="4.80498">
        <ele>336</ele>
        <time>2017-09-08T14:18:50.1Z</time>
      </trkpt>
      <trkpt lat="45.79849" lon="4.80497">
        <ele>336</ele>
        <time>2017-09-08T14:18:52.1Z</time>
      </trkpt>
      <trkpt lat="45.79849" lon="4.80497">
        <ele>336</ele>
        <time>2017-09-08T14:18:53.1Z</time>
      </trkpt>
    </trkseg>
  </trk>
</gpx>